<?xml version="1.0" encoding="UTF-8" standalone="no" ?>
<gpx xmlns="http://www.topografix.com/GPX/1/1" xmlns:xsi="http://www.w3.org/2001/XMLSchema-instance" xsi:schemaLocation="http://www.topografix.com/GPX/1/1 http://www.topografix.com/GPX/1/1/gpx.xsd" version="1.1" creator="VisuGPX - https://www.visugpx.com">
  <metadata>
    <name>Marnans</name>
    <desc><![CDATA[Marnans   ]]></desc>
  </metadata>
  <trk>
    <name><![CDATA[Marnans]]></name>
    <trkseg>
      <trkpt lat="45.11759" lon="4.97101">
        <ele>195.27568054199</ele>
        <time>2011-06-03T11:10:37Z</time>
      </trkpt>
      <trkpt lat="45.11769" lon="4.97098">
        <ele>195.32106018066</ele>
        <time>2011-06-03T11:10:52Z</time>
      </trkpt>
      <trkpt lat="45.11769" lon="4.97098">
        <ele>195.32106018066</ele>
        <time>2011-06-03T11:10:53Z</time>
      </trkpt>
      <trkpt lat="45.11774" lon="4.97096">
        <ele>195.35623168945</ele>
        <time>2011-06-03T11:11:04Z</time>
      </trkpt>
      <trkpt lat="45.11782" lon="4.97092">
        <ele>195.40965270996</ele>
        <time>2011-06-03T11:11:09Z</time>
      </trkpt>
      <trkpt lat="45.11795" lon="4.97088">
        <ele>195.53964233398</ele>
        <time>2011-06-03T11:11:15Z</time>
      </trkpt>
      <trkpt lat="45.11804" lon="4.97088">
        <ele>195.63491821289</ele>
        <time>2011-06-03T11:11:21Z</time>
      </trkpt>
      <trkpt lat="45.11805" lon="4.97087">
        <ele>195.63955688477</ele>
        <time>2011-06-03T11:11:22Z</time>
      </trkpt>
      <trkpt lat="45.11809" lon="4.97085">
        <ele>195.70150756836</ele>
        <time>2011-06-03T11:11:50Z</time>
      </trkpt>
      <trkpt lat="45.11825" lon="4.97079">
        <ele>196.0666809082</ele>
        <time>2011-06-03T11:11:55Z</time>
      </trkpt>
      <trkpt lat="45.11838" lon="4.97074">
        <ele>196.44100952148</ele>
        <time>2011-06-03T11:11:58Z</time>
      </trkpt>
      <trkpt lat="45.11846" lon="4.97072">
        <ele>196.66072082519</ele>
        <time>2011-06-03T11:12:00Z</time>
      </trkpt>
      <trkpt lat="45.11868" lon="4.9708">
        <ele>196.9104309082</ele>
        <time>2011-06-03T11:12:05Z</time>
      </trkpt>
      <trkpt lat="45.11877" lon="4.97089">
        <ele>197.02548217773</ele>
        <time>2011-06-03T11:12:09Z</time>
      </trkpt>
      <trkpt lat="45.11875" lon="4.97117">
        <ele>196.79315185547</ele>
        <time>2011-06-03T11:12:14Z</time>
      </trkpt>
      <trkpt lat="45.11873" lon="4.97124">
        <ele>196.70596313477</ele>
        <time>2011-06-03T11:12:15Z</time>
      </trkpt>
      <trkpt lat="45.11874" lon="4.97163">
        <ele>196.48500061035</ele>
        <time>2011-06-03T11:12:20Z</time>
      </trkpt>
      <trkpt lat="45.1188" lon="4.97198">
        <ele>196.46025085449</ele>
        <time>2011-06-03T11:12:24Z</time>
      </trkpt>
      <trkpt lat="45.11895" lon="4.97283">
        <ele>196.17872619629</ele>
        <time>2011-06-03T11:12:33Z</time>
      </trkpt>
      <trkpt lat="45.11909" lon="4.97368">
        <ele>195.94689941406</ele>
        <time>2011-06-03T11:12:42Z</time>
      </trkpt>
      <trkpt lat="45.11925" lon="4.97461">
        <ele>196.2448425293</ele>
        <time>2011-06-03T11:12:52Z</time>
      </trkpt>
      <trkpt lat="45.11938" lon="4.97539">
        <ele>196.55996704102</ele>
        <time>2011-06-03T11:13:01Z</time>
      </trkpt>
      <trkpt lat="45.11945" lon="4.97582">
        <ele>196.72590637207</ele>
        <time>2011-06-03T11:13:06Z</time>
      </trkpt>
      <trkpt lat="45.11953" lon="4.97625">
        <ele>196.45364379883</ele>
        <time>2011-06-03T11:13:11Z</time>
      </trkpt>
      <trkpt lat="45.11955" lon="4.97634">
        <ele>196.39878845215</ele>
        <time>2011-06-03T11:13:12Z</time>
      </trkpt>
      <trkpt lat="45.11973" lon="4.9774">
        <ele>197.56005859375</ele>
        <time>2011-06-03T11:13:23Z</time>
      </trkpt>
      <trkpt lat="45.11976" lon="4.97758">
        <ele>197.74229431152</ele>
        <time>2011-06-03T11:13:25Z</time>
      </trkpt>
      <trkpt lat="45.11977" lon="4.97776">
        <ele>197.81433105469</ele>
        <time>2011-06-03T11:13:29Z</time>
      </trkpt>
      <trkpt lat="45.11977" lon="4.97776">
        <ele>197.81433105469</ele>
        <time>2011-06-03T11:13:30Z</time>
      </trkpt>
      <trkpt lat="45.11979" lon="4.9778">
        <ele>197.83612060547</ele>
        <time>2011-06-03T11:13:53Z</time>
      </trkpt>
      <trkpt lat="45.11982" lon="4.97793">
        <ele>197.89601135254</ele>
        <time>2011-06-03T11:13:56Z</time>
      </trkpt>
      <trkpt lat="45.11989" lon="4.9783">
        <ele>197.99450683594</ele>
        <time>2011-06-03T11:14:02Z</time>
      </trkpt>
      <trkpt lat="45.11998" lon="4.97888">
        <ele>198.658203125</ele>
        <time>2011-06-03T11:14:10Z</time>
      </trkpt>
      <trkpt lat="45.12012" lon="4.97951">
        <ele>200.20152282715</ele>
        <time>2011-06-03T11:14:18Z</time>
      </trkpt>
      <trkpt lat="45.12036" lon="4.98043">
        <ele>202.66761779785</ele>
        <time>2011-06-03T11:14:29Z</time>
      </trkpt>
      <trkpt lat="45.12051" lon="4.98101">
        <ele>204.20997619629</ele>
        <time>2011-06-03T11:14:36Z</time>
      </trkpt>
      <trkpt lat="45.12062" lon="4.98169">
        <ele>206.21865844727</ele>
        <time>2011-06-03T11:14:44Z</time>
      </trkpt>
      <trkpt lat="45.12064" lon="4.9823">
        <ele>205.29772949219</ele>
        <time>2011-06-03T11:14:51Z</time>
      </trkpt>
      <trkpt lat="45.12059" lon="4.98294">
        <ele>204.31745910644</ele>
        <time>2011-06-03T11:14:58Z</time>
      </trkpt>
      <trkpt lat="45.12046" lon="4.98364">
        <ele>204.29823303223</ele>
        <time>2011-06-03T11:15:06Z</time>
      </trkpt>
      <trkpt lat="45.12041" lon="4.98381">
        <ele>204.64384460449</ele>
        <time>2011-06-03T11:15:08Z</time>
      </trkpt>
      <trkpt lat="45.12027" lon="4.9842">
        <ele>205.32373046875</ele>
        <time>2011-06-03T11:15:13Z</time>
      </trkpt>
      <trkpt lat="45.12026" lon="4.98429">
        <ele>205.30999755859</ele>
        <time>2011-06-03T11:15:14Z</time>
      </trkpt>
      <trkpt lat="45.12021" lon="4.98456">
        <ele>205.25506591797</ele>
        <time>2011-06-03T11:15:17Z</time>
      </trkpt>
      <trkpt lat="45.12014" lon="4.98524">
        <ele>204.83764648438</ele>
        <time>2011-06-03T11:15:24Z</time>
      </trkpt>
      <trkpt lat="45.12015" lon="4.98614">
        <ele>203.76336669922</ele>
        <time>2011-06-03T11:15:33Z</time>
      </trkpt>
      <trkpt lat="45.12024" lon="4.98695">
        <ele>203.34504699707</ele>
        <time>2011-06-03T11:15:41Z</time>
      </trkpt>
      <trkpt lat="45.12042" lon="4.98773">
        <ele>203.50550842285</ele>
        <time>2011-06-03T11:15:49Z</time>
      </trkpt>
      <trkpt lat="45.12062" lon="4.98836">
        <ele>203.73092651367</ele>
        <time>2011-06-03T11:15:56Z</time>
      </trkpt>
      <trkpt lat="45.12099" lon="4.98915">
        <ele>203.77015686035</ele>
        <time>2011-06-03T11:16:06Z</time>
      </trkpt>
      <trkpt lat="45.12134" lon="4.98972">
        <ele>205.68151855469</ele>
        <time>2011-06-03T11:16:14Z</time>
      </trkpt>
      <trkpt lat="45.12165" lon="4.99012">
        <ele>206.81779479981</ele>
        <time>2011-06-03T11:16:21Z</time>
      </trkpt>
      <trkpt lat="45.12194" lon="4.99044">
        <ele>210.28422546387</ele>
        <time>2011-06-03T11:16:28Z</time>
      </trkpt>
      <trkpt lat="45.12202" lon="4.99052">
        <ele>211.14436340332</ele>
        <time>2011-06-03T11:16:30Z</time>
      </trkpt>
      <trkpt lat="45.12218" lon="4.99081">
        <ele>212.25465393066</ele>
        <time>2011-06-03T11:16:35Z</time>
      </trkpt>
      <trkpt lat="45.12233" lon="4.99085">
        <ele>213.89018249512</ele>
        <time>2011-06-03T11:16:38Z</time>
      </trkpt>
      <trkpt lat="45.12253" lon="4.99083">
        <ele>217.27500915527</ele>
        <time>2011-06-03T11:16:43Z</time>
      </trkpt>
      <trkpt lat="45.12271" lon="4.99095">
        <ele>223.79393005371</ele>
        <time>2011-06-03T11:16:49Z</time>
      </trkpt>
      <trkpt lat="45.12279" lon="4.99112">
        <ele>225.24139404297</ele>
        <time>2011-06-03T11:16:53Z</time>
      </trkpt>
      <trkpt lat="45.12285" lon="4.99135">
        <ele>225.46813964844</ele>
        <time>2011-06-03T11:16:57Z</time>
      </trkpt>
      <trkpt lat="45.12302" lon="4.99174">
        <ele>226.41799926758</ele>
        <time>2011-06-03T11:17:04Z</time>
      </trkpt>
      <trkpt lat="45.1231" lon="4.99189">
        <ele>227.08264160156</ele>
        <time>2011-06-03T11:17:07Z</time>
      </trkpt>
      <trkpt lat="45.12332" lon="4.99233">
        <ele>226.75367736816</ele>
        <time>2011-06-03T11:17:15Z</time>
      </trkpt>
      <trkpt lat="45.12339" lon="4.99251">
        <ele>226.92350769043</ele>
        <time>2011-06-03T11:17:18Z</time>
      </trkpt>
      <trkpt lat="45.1235" lon="4.9931">
        <ele>226.80720520019</ele>
        <time>2011-06-03T11:17:26Z</time>
      </trkpt>
      <trkpt lat="45.12364" lon="4.99386">
        <ele>226.39184570312</ele>
        <time>2011-06-03T11:17:35Z</time>
      </trkpt>
      <trkpt lat="45.12381" lon="4.99469">
        <ele>226.53845214844</ele>
        <time>2011-06-03T11:17:44Z</time>
      </trkpt>
      <trkpt lat="45.12394" lon="4.99525">
        <ele>225.98361206055</ele>
        <time>2011-06-03T11:17:50Z</time>
      </trkpt>
      <trkpt lat="45.12397" lon="4.99534">
        <ele>225.70611572266</ele>
        <time>2011-06-03T11:17:51Z</time>
      </trkpt>
      <trkpt lat="45.12428" lon="4.99595">
        <ele>224.78305053711</ele>
        <time>2011-06-03T11:17:59Z</time>
      </trkpt>
      <trkpt lat="45.12471" lon="4.99661">
        <ele>222.96154785156</ele>
        <time>2011-06-03T11:18:08Z</time>
      </trkpt>
      <trkpt lat="45.12503" lon="4.99703">
        <ele>220.72659301758</ele>
        <time>2011-06-03T11:18:14Z</time>
      </trkpt>
      <trkpt lat="45.1254" lon="4.9974">
        <ele>220.61836242676</ele>
        <time>2011-06-03T11:18:20Z</time>
      </trkpt>
      <trkpt lat="45.12572" lon="4.99794">
        <ele>220.14530944824</ele>
        <time>2011-06-03T11:18:27Z</time>
      </trkpt>
      <trkpt lat="45.12602" lon="4.99836">
        <ele>218.7303314209</ele>
        <time>2011-06-03T11:18:33Z</time>
      </trkpt>
      <trkpt lat="45.12625" lon="4.99863">
        <ele>219.9169921875</ele>
        <time>2011-06-03T11:18:37Z</time>
      </trkpt>
      <trkpt lat="45.12642" lon="4.99898">
        <ele>219.35578918457</ele>
        <time>2011-06-03T11:18:41Z</time>
      </trkpt>
      <trkpt lat="45.12667" lon="4.99976">
        <ele>219.72430419922</ele>
        <time>2011-06-03T11:18:49Z</time>
      </trkpt>
      <trkpt lat="45.12671" lon="4.99985">
        <ele>220.51795959473</ele>
        <time>2011-06-03T11:18:50Z</time>
      </trkpt>
      <trkpt lat="45.12701" lon="5.00028">
        <ele>216.49774169922</ele>
        <time>2011-06-03T11:18:56Z</time>
      </trkpt>
      <trkpt lat="45.12735" lon="5.00056">
        <ele>219.3507232666</ele>
        <time>2011-06-03T11:19:02Z</time>
      </trkpt>
      <trkpt lat="45.12778" lon="5.00074">
        <ele>224.72808837891</ele>
        <time>2011-06-03T11:19:09Z</time>
      </trkpt>
      <trkpt lat="45.12814" lon="5.00087">
        <ele>230.57150268555</ele>
        <time>2011-06-03T11:19:15Z</time>
      </trkpt>
      <trkpt lat="45.12825" lon="5.00091">
        <ele>232.71040344238</ele>
        <time>2011-06-03T11:19:17Z</time>
      </trkpt>
      <trkpt lat="45.12855" lon="5.00119">
        <ele>238.31242370606</ele>
        <time>2011-06-03T11:19:23Z</time>
      </trkpt>
      <trkpt lat="45.1288" lon="5.00164">
        <ele>238.55981445312</ele>
        <time>2011-06-03T11:19:30Z</time>
      </trkpt>
      <trkpt lat="45.12909" lon="5.0021">
        <ele>238.7345123291</ele>
        <time>2011-06-03T11:19:38Z</time>
      </trkpt>
      <trkpt lat="45.12941" lon="5.00245">
        <ele>234.79774475098</ele>
        <time>2011-06-03T11:19:46Z</time>
      </trkpt>
      <trkpt lat="45.12977" lon="5.00268">
        <ele>235.39186096191</ele>
        <time>2011-06-03T11:19:53Z</time>
      </trkpt>
      <trkpt lat="45.13025" lon="5.00288">
        <ele>237.31097412109</ele>
        <time>2011-06-03T11:20:01Z</time>
      </trkpt>
      <trkpt lat="45.13082" lon="5.00309">
        <ele>241.85430908203</ele>
        <time>2011-06-03T11:20:10Z</time>
      </trkpt>
      <trkpt lat="45.13132" lon="5.00333">
        <ele>239.98062133789</ele>
        <time>2011-06-03T11:20:18Z</time>
      </trkpt>
      <trkpt lat="45.13174" lon="5.00351">
        <ele>240.07141113281</ele>
        <time>2011-06-03T11:20:25Z</time>
      </trkpt>
      <trkpt lat="45.13217" lon="5.00352">
        <ele>241.10397338867</ele>
        <time>2011-06-03T11:20:32Z</time>
      </trkpt>
      <trkpt lat="45.13289" lon="5.00351">
        <ele>247.33583068848</ele>
        <time>2011-06-03T11:20:44Z</time>
      </trkpt>
      <trkpt lat="45.13348" lon="5.00357">
        <ele>253.50003051758</ele>
        <time>2011-06-03T11:20:54Z</time>
      </trkpt>
      <trkpt lat="45.13387" lon="5.00376">
        <ele>255.34376525879</ele>
        <time>2011-06-03T11:21:01Z</time>
      </trkpt>
      <trkpt lat="45.13444" lon="5.00415">
        <ele>249.37576293945</ele>
        <time>2011-06-03T11:21:12Z</time>
      </trkpt>
      <trkpt lat="45.13492" lon="5.00447">
        <ele>245.10740661621</ele>
        <time>2011-06-03T11:21:21Z</time>
      </trkpt>
      <trkpt lat="45.13545" lon="5.00475">
        <ele>240</ele>
        <time>2011-06-03T11:21:30Z</time>
      </trkpt>
      <trkpt lat="45.13597" lon="5.00487">
        <ele>240</ele>
        <time>2011-06-03T11:21:38Z</time>
      </trkpt>
      <trkpt lat="45.13636" lon="5.00509">
        <ele>239.69059753418</ele>
        <time>2011-06-03T11:21:44Z</time>
      </trkpt>
      <trkpt lat="45.1367" lon="5.00545">
        <ele>239.11883544922</ele>
        <time>2011-06-03T11:21:50Z</time>
      </trkpt>
      <trkpt lat="45.13729" lon="5.00611">
        <ele>243.4020690918</ele>
        <time>2011-06-03T11:22:01Z</time>
      </trkpt>
      <trkpt lat="45.13785" lon="5.00666">
        <ele>253.98687744141</ele>
        <time>2011-06-03T11:22:11Z</time>
      </trkpt>
      <trkpt lat="45.13829" lon="5.00694">
        <ele>261.03610229492</ele>
        <time>2011-06-03T11:22:18Z</time>
      </trkpt>
      <trkpt lat="45.13902" lon="5.00732">
        <ele>265.5578918457</ele>
        <time>2011-06-03T11:22:29Z</time>
      </trkpt>
      <trkpt lat="45.13983" lon="5.00771">
        <ele>270.03430175781</ele>
        <time>2011-06-03T11:22:41Z</time>
      </trkpt>
      <trkpt lat="45.14061" lon="5.00808">
        <ele>271.52767944336</ele>
        <time>2011-06-03T11:22:53Z</time>
      </trkpt>
      <trkpt lat="45.14137" lon="5.00845">
        <ele>264.27984619141</ele>
        <time>2011-06-03T11:23:05Z</time>
      </trkpt>
      <trkpt lat="45.14207" lon="5.00879">
        <ele>261.31546020508</ele>
        <time>2011-06-03T11:23:16Z</time>
      </trkpt>
      <trkpt lat="45.14259" lon="5.00904">
        <ele>262.03018188477</ele>
        <time>2011-06-03T11:23:24Z</time>
      </trkpt>
      <trkpt lat="45.14305" lon="5.00931">
        <ele>264.89196777344</ele>
        <time>2011-06-03T11:23:31Z</time>
      </trkpt>
      <trkpt lat="45.14317" lon="5.00941">
        <ele>265.57409667969</ele>
        <time>2011-06-03T11:23:33Z</time>
      </trkpt>
      <trkpt lat="45.14375" lon="5.01006">
        <ele>265.28778076172</ele>
        <time>2011-06-03T11:23:44Z</time>
      </trkpt>
      <trkpt lat="45.14435" lon="5.01074">
        <ele>265.30718994141</ele>
        <time>2011-06-03T11:23:55Z</time>
      </trkpt>
      <trkpt lat="45.14497" lon="5.0114">
        <ele>259.58245849609</ele>
        <time>2011-06-03T11:24:06Z</time>
      </trkpt>
      <trkpt lat="45.14547" lon="5.01178">
        <ele>255.41644287109</ele>
        <time>2011-06-03T11:24:14Z</time>
      </trkpt>
      <trkpt lat="45.14616" lon="5.01229">
        <ele>246.59201049805</ele>
        <time>2011-06-03T11:24:25Z</time>
      </trkpt>
      <trkpt lat="45.14645" lon="5.0126">
        <ele>242.49899291992</ele>
        <time>2011-06-03T11:24:30Z</time>
      </trkpt>
      <trkpt lat="45.14665" lon="5.01304">
        <ele>240</ele>
        <time>2011-06-03T11:24:35Z</time>
      </trkpt>
      <trkpt lat="45.14692" lon="5.01386">
        <ele>240</ele>
        <time>2011-06-03T11:24:44Z</time>
      </trkpt>
      <trkpt lat="45.14715" lon="5.01454">
        <ele>241.26200866699</ele>
        <time>2011-06-03T11:24:52Z</time>
      </trkpt>
      <trkpt lat="45.14734" lon="5.01496">
        <ele>244.7346496582</ele>
        <time>2011-06-03T11:24:58Z</time>
      </trkpt>
      <trkpt lat="45.14738" lon="5.01503">
        <ele>245.27682495117</ele>
        <time>2011-06-03T11:24:59Z</time>
      </trkpt>
      <trkpt lat="45.14769" lon="5.01536">
        <ele>250.66520690918</ele>
        <time>2011-06-03T11:25:06Z</time>
      </trkpt>
      <trkpt lat="45.14805" lon="5.0157">
        <ele>256.42037963867</ele>
        <time>2011-06-03T11:25:14Z</time>
      </trkpt>
      <trkpt lat="45.14814" lon="5.01578">
        <ele>257.04867553711</ele>
        <time>2011-06-03T11:25:16Z</time>
      </trkpt>
      <trkpt lat="45.14826" lon="5.01575">
        <ele>258.54727172852</ele>
        <time>2011-06-03T11:25:19Z</time>
      </trkpt>
      <trkpt lat="45.14828" lon="5.01555">
        <ele>259.40368652344</ele>
        <time>2011-06-03T11:25:22Z</time>
      </trkpt>
      <trkpt lat="45.1483" lon="5.01528">
        <ele>257.65307617188</ele>
        <time>2011-06-03T11:25:28Z</time>
      </trkpt>
      <trkpt lat="45.1483" lon="5.01506">
        <ele>255.23779296875</ele>
        <time>2011-06-03T11:25:32Z</time>
      </trkpt>
      <trkpt lat="45.14828" lon="5.0148">
        <ele>253.11305236816</ele>
        <time>2011-06-03T11:25:37Z</time>
      </trkpt>
      <trkpt lat="45.1483" lon="5.01461">
        <ele>251.54550170898</ele>
        <time>2011-06-03T11:25:41Z</time>
      </trkpt>
      <trkpt lat="45.14832" lon="5.01438">
        <ele>249.65470886231</ele>
        <time>2011-06-03T11:25:47Z</time>
      </trkpt>
      <trkpt lat="45.14834" lon="5.01442">
        <ele>249.99978637695</ele>
        <time>2011-06-03T11:25:51Z</time>
      </trkpt>
      <trkpt lat="45.14832" lon="5.01464">
        <ele>251.97122192383</ele>
        <time>2011-06-03T11:25:56Z</time>
      </trkpt>
      <trkpt lat="45.14836" lon="5.01481">
        <ele>253.96531677246</ele>
        <time>2011-06-03T11:26:01Z</time>
      </trkpt>
      <trkpt lat="45.14841" lon="5.01494">
        <ele>255.69909667969</ele>
        <time>2011-06-03T11:26:06Z</time>
      </trkpt>
      <trkpt lat="45.1485" lon="5.01502">
        <ele>257.56286621094</ele>
        <time>2011-06-03T11:26:11Z</time>
      </trkpt>
      <trkpt lat="45.14853" lon="5.01505">
        <ele>258.27182006836</ele>
        <time>2011-06-03T11:26:13Z</time>
      </trkpt>
      <trkpt lat="45.14867" lon="5.01516">
        <ele>262.05297851562</ele>
        <time>2011-06-03T11:26:21Z</time>
      </trkpt>
      <trkpt lat="45.14875" lon="5.01521">
        <ele>264.05340576172</ele>
        <time>2011-06-03T11:26:25Z</time>
      </trkpt>
      <trkpt lat="45.14887" lon="5.01538">
        <ele>267.41748046875</ele>
        <time>2011-06-03T11:26:31Z</time>
      </trkpt>
      <trkpt lat="45.14894" lon="5.01549">
        <ele>269.38800048828</ele>
        <time>2011-06-03T11:26:35Z</time>
      </trkpt>
      <trkpt lat="45.14901" lon="5.01559">
        <ele>270.3141784668</ele>
        <time>2011-06-03T11:26:39Z</time>
      </trkpt>
      <trkpt lat="45.14922" lon="5.01581">
        <ele>271.22369384766</ele>
        <time>2011-06-03T11:26:47Z</time>
      </trkpt>
      <trkpt lat="45.14934" lon="5.01589">
        <ele>272.64349365234</ele>
        <time>2011-06-03T11:26:50Z</time>
      </trkpt>
      <trkpt lat="45.14956" lon="5.01595">
        <ele>277.76644897461</ele>
        <time>2011-06-03T11:26:54Z</time>
      </trkpt>
      <trkpt lat="45.14963" lon="5.01598">
        <ele>279.55926513672</ele>
        <time>2011-06-03T11:26:55Z</time>
      </trkpt>
      <trkpt lat="45.14984" lon="5.0161">
        <ele>283.28732299805</ele>
        <time>2011-06-03T11:27:00Z</time>
      </trkpt>
      <trkpt lat="45.15006" lon="5.01622">
        <ele>284.71530151367</ele>
        <time>2011-06-03T11:27:07Z</time>
      </trkpt>
      <trkpt lat="45.15034" lon="5.0164">
        <ele>286.87118530273</ele>
        <time>2011-06-03T11:27:17Z</time>
      </trkpt>
      <trkpt lat="45.15063" lon="5.01659">
        <ele>288.08758544922</ele>
        <time>2011-06-03T11:27:27Z</time>
      </trkpt>
      <trkpt lat="45.15086" lon="5.01677">
        <ele>289.83847045898</ele>
        <time>2011-06-03T11:27:35Z</time>
      </trkpt>
      <trkpt lat="45.15106" lon="5.01693">
        <ele>292.22634887695</ele>
        <time>2011-06-03T11:27:42Z</time>
      </trkpt>
      <trkpt lat="45.15129" lon="5.0171">
        <ele>293.28912353516</ele>
        <time>2011-06-03T11:27:50Z</time>
      </trkpt>
      <trkpt lat="45.15153" lon="5.01725">
        <ele>294.79525756836</ele>
        <time>2011-06-03T11:27:58Z</time>
      </trkpt>
      <trkpt lat="45.15167" lon="5.01735">
        <ele>295.68453979492</ele>
        <time>2011-06-03T11:28:03Z</time>
      </trkpt>
      <trkpt lat="45.15185" lon="5.01748">
        <ele>296.21496582031</ele>
        <time>2011-06-03T11:28:10Z</time>
      </trkpt>
      <trkpt lat="45.15191" lon="5.01747">
        <ele>296.95141601562</ele>
        <time>2011-06-03T11:28:12Z</time>
      </trkpt>
      <trkpt lat="45.15192" lon="5.01729">
        <ele>298.91351318359</ele>
        <time>2011-06-03T11:28:17Z</time>
      </trkpt>
      <trkpt lat="45.15181" lon="5.01715">
        <ele>299.5651550293</ele>
        <time>2011-06-03T11:28:22Z</time>
      </trkpt>
      <trkpt lat="45.15179" lon="5.01713">
        <ele>299.5651550293</ele>
        <time>2011-06-03T11:28:23Z</time>
      </trkpt>
      <trkpt lat="45.15156" lon="5.01694">
        <ele>299.51788330078</ele>
        <time>2011-06-03T11:28:31Z</time>
      </trkpt>
      <trkpt lat="45.15131" lon="5.0167">
        <ele>298.54525756836</ele>
        <time>2011-06-03T11:28:39Z</time>
      </trkpt>
      <trkpt lat="45.15105" lon="5.01644">
        <ele>297.73770141602</ele>
        <time>2011-06-03T11:28:47Z</time>
      </trkpt>
      <trkpt lat="45.15077" lon="5.01617">
        <ele>295.32952880859</ele>
        <time>2011-06-03T11:28:55Z</time>
      </trkpt>
      <trkpt lat="45.15041" lon="5.01588">
        <ele>292.63153076172</ele>
        <time>2011-06-03T11:29:05Z</time>
      </trkpt>
      <trkpt lat="45.15028" lon="5.01577">
        <ele>291.0869140625</ele>
        <time>2011-06-03T11:29:09Z</time>
      </trkpt>
      <trkpt lat="45.15006" lon="5.01558">
        <ele>287.84594726562</ele>
        <time>2011-06-03T11:29:16Z</time>
      </trkpt>
      <trkpt lat="45.14999" lon="5.01553">
        <ele>286.72650146484</ele>
        <time>2011-06-03T11:29:18Z</time>
      </trkpt>
      <trkpt lat="45.14973" lon="5.01536">
        <ele>282.07171630859</ele>
        <time>2011-06-03T11:29:25Z</time>
      </trkpt>
      <trkpt lat="45.14948" lon="5.01516">
        <ele>279.41345214844</ele>
        <time>2011-06-03T11:29:33Z</time>
      </trkpt>
      <trkpt lat="45.14942" lon="5.01502">
        <ele>278.24105834961</ele>
        <time>2011-06-03T11:29:37Z</time>
      </trkpt>
      <trkpt lat="45.1495" lon="5.01486">
        <ele>277.34637451172</ele>
        <time>2011-06-03T11:29:42Z</time>
      </trkpt>
      <trkpt lat="45.14953" lon="5.01485">
        <ele>277.63690185547</ele>
        <time>2011-06-03T11:29:43Z</time>
      </trkpt>
      <trkpt lat="45.1497" lon="5.01481">
        <ele>280.18563842773</ele>
        <time>2011-06-03T11:29:49Z</time>
      </trkpt>
      <trkpt lat="45.14983" lon="5.01472">
        <ele>281.04336547852</ele>
        <time>2011-06-03T11:29:54Z</time>
      </trkpt>
      <trkpt lat="45.14999" lon="5.01463">
        <ele>281.82662963867</ele>
        <time>2011-06-03T11:29:59Z</time>
      </trkpt>
      <trkpt lat="45.15019" lon="5.01465">
        <ele>284.83218383789</ele>
        <time>2011-06-03T11:30:05Z</time>
      </trkpt>
      <trkpt lat="45.15039" lon="5.01469">
        <ele>287.76736450195</ele>
        <time>2011-06-03T11:30:10Z</time>
      </trkpt>
      <trkpt lat="45.15057" lon="5.01473">
        <ele>290.38296508789</ele>
        <time>2011-06-03T11:30:15Z</time>
      </trkpt>
      <trkpt lat="45.15075" lon="5.01474">
        <ele>293.59503173828</ele>
        <time>2011-06-03T11:30:20Z</time>
      </trkpt>
      <trkpt lat="45.15092" lon="5.01476">
        <ele>296.84136962891</ele>
        <time>2011-06-03T11:30:25Z</time>
      </trkpt>
      <trkpt lat="45.15103" lon="5.01478">
        <ele>298.91058349609</ele>
        <time>2011-06-03T11:30:28Z</time>
      </trkpt>
      <trkpt lat="45.15111" lon="5.01466">
        <ele>299.02603149414</ele>
        <time>2011-06-03T11:30:33Z</time>
      </trkpt>
      <trkpt lat="45.1511" lon="5.01462">
        <ele>298.35992431641</ele>
        <time>2011-06-03T11:30:34Z</time>
      </trkpt>
      <trkpt lat="45.15107" lon="5.01438">
        <ele>294.44921875</ele>
        <time>2011-06-03T11:30:40Z</time>
      </trkpt>
      <trkpt lat="45.15111" lon="5.01422">
        <ele>293.5407409668</ele>
        <time>2011-06-03T11:30:44Z</time>
      </trkpt>
      <trkpt lat="45.1512" lon="5.01413">
        <ele>293.92492675781</ele>
        <time>2011-06-03T11:30:48Z</time>
      </trkpt>
      <trkpt lat="45.15134" lon="5.01417">
        <ele>297.14868164062</ele>
        <time>2011-06-03T11:30:53Z</time>
      </trkpt>
      <trkpt lat="45.15152" lon="5.01429">
        <ele>299.85681152344</ele>
        <time>2011-06-03T11:31:00Z</time>
      </trkpt>
      <trkpt lat="45.1517" lon="5.01441">
        <ele>301.95794677734</ele>
        <time>2011-06-03T11:31:06Z</time>
      </trkpt>
      <trkpt lat="45.15186" lon="5.01443">
        <ele>303.26943969727</ele>
        <time>2011-06-03T11:31:11Z</time>
      </trkpt>
      <trkpt lat="45.15199" lon="5.01437">
        <ele>303.77755737305</ele>
        <time>2011-06-03T11:31:15Z</time>
      </trkpt>
      <trkpt lat="45.15202" lon="5.01435">
        <ele>303.88055419922</ele>
        <time>2011-06-03T11:31:16Z</time>
      </trkpt>
      <trkpt lat="45.15216" lon="5.01422">
        <ele>303.94235229492</ele>
        <time>2011-06-03T11:31:22Z</time>
      </trkpt>
      <trkpt lat="45.15224" lon="5.01402">
        <ele>302.46417236328</ele>
        <time>2011-06-03T11:31:27Z</time>
      </trkpt>
      <trkpt lat="45.15225" lon="5.0139">
        <ele>301.10076904297</ele>
        <time>2011-06-03T11:31:30Z</time>
      </trkpt>
      <trkpt lat="45.15233" lon="5.01356">
        <ele>294.24765014648</ele>
        <time>2011-06-03T11:31:37Z</time>
      </trkpt>
      <trkpt lat="45.15246" lon="5.01348">
        <ele>293.10095214844</ele>
        <time>2011-06-03T11:31:41Z</time>
      </trkpt>
      <trkpt lat="45.1525" lon="5.01348">
        <ele>293.12841796875</ele>
        <time>2011-06-03T11:31:42Z</time>
      </trkpt>
      <trkpt lat="45.15272" lon="5.01367">
        <ele>296.35369873047</ele>
        <time>2011-06-03T11:31:50Z</time>
      </trkpt>
      <trkpt lat="45.15286" lon="5.01391">
        <ele>301.36233520508</ele>
        <time>2011-06-03T11:31:57Z</time>
      </trkpt>
      <trkpt lat="45.1529" lon="5.0141">
        <ele>305.11907958984</ele>
        <time>2011-06-03T11:32:02Z</time>
      </trkpt>
      <trkpt lat="45.15295" lon="5.01433">
        <ele>308.54287719727</ele>
        <time>2011-06-03T11:32:07Z</time>
      </trkpt>
      <trkpt lat="45.15303" lon="5.01453">
        <ele>311.72863769531</ele>
        <time>2011-06-03T11:32:12Z</time>
      </trkpt>
      <trkpt lat="45.15315" lon="5.01466">
        <ele>313.64630126953</ele>
        <time>2011-06-03T11:32:17Z</time>
      </trkpt>
      <trkpt lat="45.15335" lon="5.01481">
        <ele>313.94790649414</ele>
        <time>2011-06-03T11:32:23Z</time>
      </trkpt>
      <trkpt lat="45.15356" lon="5.01501">
        <ele>316.07360839844</ele>
        <time>2011-06-03T11:32:30Z</time>
      </trkpt>
      <trkpt lat="45.15379" lon="5.01522">
        <ele>317.7063293457</ele>
        <time>2011-06-03T11:32:38Z</time>
      </trkpt>
      <trkpt lat="45.15395" lon="5.01537">
        <ele>318.33511352539</ele>
        <time>2011-06-03T11:32:44Z</time>
      </trkpt>
      <trkpt lat="45.15409" lon="5.0155">
        <ele>319.25662231445</ele>
        <time>2011-06-03T11:32:49Z</time>
      </trkpt>
      <trkpt lat="45.15427" lon="5.01564">
        <ele>319.50601196289</ele>
        <time>2011-06-03T11:32:55Z</time>
      </trkpt>
      <trkpt lat="45.15453" lon="5.01577">
        <ele>319.41284179688</ele>
        <time>2011-06-03T11:33:03Z</time>
      </trkpt>
      <trkpt lat="45.15475" lon="5.01581">
        <ele>319.65045166016</ele>
        <time>2011-06-03T11:33:10Z</time>
      </trkpt>
      <trkpt lat="45.15488" lon="5.0158">
        <ele>319.56118774414</ele>
        <time>2011-06-03T11:33:15Z</time>
      </trkpt>
      <trkpt lat="45.15509" lon="5.01581">
        <ele>320.34338378906</ele>
        <time>2011-06-03T11:33:21Z</time>
      </trkpt>
      <trkpt lat="45.15528" lon="5.01584">
        <ele>322.02398681641</ele>
        <time>2011-06-03T11:33:26Z</time>
      </trkpt>
      <trkpt lat="45.15544" lon="5.01592">
        <ele>323.40667724609</ele>
        <time>2011-06-03T11:33:31Z</time>
      </trkpt>
      <trkpt lat="45.15555" lon="5.016">
        <ele>324.80075073242</ele>
        <time>2011-06-03T11:33:35Z</time>
      </trkpt>
      <trkpt lat="45.15565" lon="5.01611">
        <ele>325.94619750977</ele>
        <time>2011-06-03T11:33:40Z</time>
      </trkpt>
      <trkpt lat="45.15577" lon="5.01621">
        <ele>327.39767456055</ele>
        <time>2011-06-03T11:33:45Z</time>
      </trkpt>
      <trkpt lat="45.15591" lon="5.01628">
        <ele>328.50317382812</ele>
        <time>2011-06-03T11:33:50Z</time>
      </trkpt>
      <trkpt lat="45.15608" lon="5.01633">
        <ele>329.12115478516</ele>
        <time>2011-06-03T11:33:55Z</time>
      </trkpt>
      <trkpt lat="45.1562" lon="5.01635">
        <ele>329.31539916992</ele>
        <time>2011-06-03T11:33:59Z</time>
      </trkpt>
      <trkpt lat="45.15635" lon="5.01637">
        <ele>329.61654663086</ele>
        <time>2011-06-03T11:34:04Z</time>
      </trkpt>
      <trkpt lat="45.1565" lon="5.01637">
        <ele>329.57092285156</ele>
        <time>2011-06-03T11:34:09Z</time>
      </trkpt>
      <trkpt lat="45.15665" lon="5.01637">
        <ele>329.71682739258</ele>
        <time>2011-06-03T11:34:14Z</time>
      </trkpt>
      <trkpt lat="45.15676" lon="5.01637">
        <ele>329.57092285156</ele>
        <time>2011-06-03T11:34:18Z</time>
      </trkpt>
      <trkpt lat="45.15697" lon="5.01635">
        <ele>329.35635375977</ele>
        <time>2011-06-03T11:34:26Z</time>
      </trkpt>
      <trkpt lat="45.15716" lon="5.01641">
        <ele>330.39489746094</ele>
        <time>2011-06-03T11:34:32Z</time>
      </trkpt>
      <trkpt lat="45.15731" lon="5.0166">
        <ele>333.50521850586</ele>
        <time>2011-06-03T11:34:38Z</time>
      </trkpt>
      <trkpt lat="45.15746" lon="5.01684">
        <ele>336.55087280273</ele>
        <time>2011-06-03T11:34:45Z</time>
      </trkpt>
      <trkpt lat="45.15759" lon="5.01702">
        <ele>339.56475830078</ele>
        <time>2011-06-03T11:34:51Z</time>
      </trkpt>
      <trkpt lat="45.15777" lon="5.01719">
        <ele>343.36535644531</ele>
        <time>2011-06-03T11:34:58Z</time>
      </trkpt>
      <trkpt lat="45.15789" lon="5.0173">
        <ele>345.1081237793</ele>
        <time>2011-06-03T11:35:03Z</time>
      </trkpt>
      <trkpt lat="45.15811" lon="5.01744">
        <ele>346.8059387207</ele>
        <time>2011-06-03T11:35:11Z</time>
      </trkpt>
      <trkpt lat="45.15838" lon="5.01748">
        <ele>345.77230834961</ele>
        <time>2011-06-03T11:35:19Z</time>
      </trkpt>
      <trkpt lat="45.15883" lon="5.01749">
        <ele>344.97915649414</ele>
        <time>2011-06-03T11:35:30Z</time>
      </trkpt>
      <trkpt lat="45.15921" lon="5.01749">
        <ele>342.74084472656</ele>
        <time>2011-06-03T11:35:38Z</time>
      </trkpt>
      <trkpt lat="45.1597" lon="5.01749">
        <ele>340.0475769043</ele>
        <time>2011-06-03T11:35:47Z</time>
      </trkpt>
      <trkpt lat="45.16012" lon="5.01748">
        <ele>342.66436767578</ele>
        <time>2011-06-03T11:35:54Z</time>
      </trkpt>
      <trkpt lat="45.16061" lon="5.01747">
        <ele>344.53515625</ele>
        <time>2011-06-03T11:36:02Z</time>
      </trkpt>
      <trkpt lat="45.16093" lon="5.01748">
        <ele>344.67248535156</ele>
        <time>2011-06-03T11:36:08Z</time>
      </trkpt>
      <trkpt lat="45.16126" lon="5.01756">
        <ele>346.78967285156</ele>
        <time>2011-06-03T11:36:14Z</time>
      </trkpt>
      <trkpt lat="45.16143" lon="5.01764">
        <ele>349.24630737305</ele>
        <time>2011-06-03T11:36:18Z</time>
      </trkpt>
      <trkpt lat="45.16168" lon="5.01779">
        <ele>351.17816162109</ele>
        <time>2011-06-03T11:36:25Z</time>
      </trkpt>
      <trkpt lat="45.16184" lon="5.01793">
        <ele>354.22686767578</ele>
        <time>2011-06-03T11:36:30Z</time>
      </trkpt>
      <trkpt lat="45.16197" lon="5.01816">
        <ele>358.6286315918</ele>
        <time>2011-06-03T11:36:36Z</time>
      </trkpt>
      <trkpt lat="45.16208" lon="5.01833">
        <ele>361.53707885742</ele>
        <time>2011-06-03T11:36:40Z</time>
      </trkpt>
      <trkpt lat="45.16233" lon="5.01859">
        <ele>364.5905456543</ele>
        <time>2011-06-03T11:36:47Z</time>
      </trkpt>
      <trkpt lat="45.16267" lon="5.01883">
        <ele>374.24984741211</ele>
        <time>2011-06-03T11:36:55Z</time>
      </trkpt>
      <trkpt lat="45.16304" lon="5.01921">
        <ele>380</ele>
        <time>2011-06-03T11:37:05Z</time>
      </trkpt>
      <trkpt lat="45.16333" lon="5.0195">
        <ele>380</ele>
        <time>2011-06-03T11:37:13Z</time>
      </trkpt>
      <trkpt lat="45.16365" lon="5.0198">
        <ele>379.79644775391</ele>
        <time>2011-06-03T11:37:20Z</time>
      </trkpt>
      <trkpt lat="45.16403" lon="5.02009">
        <ele>369.84451293945</ele>
        <time>2011-06-03T11:37:27Z</time>
      </trkpt>
      <trkpt lat="45.16454" lon="5.02044">
        <ele>361.91711425781</ele>
        <time>2011-06-03T11:37:36Z</time>
      </trkpt>
      <trkpt lat="45.16489" lon="5.02061">
        <ele>365.57342529297</ele>
        <time>2011-06-03T11:37:43Z</time>
      </trkpt>
      <trkpt lat="45.16499" lon="5.02065">
        <ele>366.55184936523</ele>
        <time>2011-06-03T11:37:45Z</time>
      </trkpt>
      <trkpt lat="45.16527" lon="5.02079">
        <ele>369.37161254883</ele>
        <time>2011-06-03T11:37:52Z</time>
      </trkpt>
      <trkpt lat="45.16557" lon="5.02097">
        <ele>369.50805664062</ele>
        <time>2011-06-03T11:38:00Z</time>
      </trkpt>
      <trkpt lat="45.16594" lon="5.0211">
        <ele>359.61557006836</ele>
        <time>2011-06-03T11:38:08Z</time>
      </trkpt>
      <trkpt lat="45.16633" lon="5.02122">
        <ele>354.38665771484</ele>
        <time>2011-06-03T11:38:15Z</time>
      </trkpt>
      <trkpt lat="45.16653" lon="5.02128">
        <ele>352.81442260742</ele>
        <time>2011-06-03T11:38:18Z</time>
      </trkpt>
      <trkpt lat="45.16712" lon="5.02128">
        <ele>348.70001220703</ele>
        <time>2011-06-03T11:38:25Z</time>
      </trkpt>
      <trkpt lat="45.16739" lon="5.02118">
        <ele>346.24273681641</ele>
        <time>2011-06-03T11:38:28Z</time>
      </trkpt>
      <trkpt lat="45.16764" lon="5.02104">
        <ele>343.90679931641</ele>
        <time>2011-06-03T11:38:31Z</time>
      </trkpt>
      <trkpt lat="45.16793" lon="5.02099">
        <ele>344.27243041992</ele>
        <time>2011-06-03T11:38:35Z</time>
      </trkpt>
      <trkpt lat="45.16806" lon="5.02095">
        <ele>344.77410888672</ele>
        <time>2011-06-03T11:38:37Z</time>
      </trkpt>
      <trkpt lat="45.16856" lon="5.02074">
        <ele>344.17443847656</ele>
        <time>2011-06-03T11:38:44Z</time>
      </trkpt>
      <trkpt lat="45.16899" lon="5.02063">
        <ele>344.88961791992</ele>
        <time>2011-06-03T11:38:50Z</time>
      </trkpt>
      <trkpt lat="45.16951" lon="5.02055">
        <ele>345.22787475586</ele>
        <time>2011-06-03T11:38:57Z</time>
      </trkpt>
      <trkpt lat="45.1702" lon="5.02044">
        <ele>346.37866210938</ele>
        <time>2011-06-03T11:39:06Z</time>
      </trkpt>
      <trkpt lat="45.17092" lon="5.02037">
        <ele>346.00283813477</ele>
        <time>2011-06-03T11:39:15Z</time>
      </trkpt>
      <trkpt lat="45.17135" lon="5.0204">
        <ele>349.9626159668</ele>
        <time>2011-06-03T11:39:21Z</time>
      </trkpt>
      <trkpt lat="45.17166" lon="5.02033">
        <ele>352.48574829102</ele>
        <time>2011-06-03T11:39:27Z</time>
      </trkpt>
      <trkpt lat="45.17182" lon="5.0203">
        <ele>353.88134765625</ele>
        <time>2011-06-03T11:39:30Z</time>
      </trkpt>
      <trkpt lat="45.17207" lon="5.02032">
        <ele>357.75793457031</ele>
        <time>2011-06-03T11:39:36Z</time>
      </trkpt>
      <trkpt lat="45.1721" lon="5.02034">
        <ele>358.56158447266</ele>
        <time>2011-06-03T11:39:37Z</time>
      </trkpt>
      <trkpt lat="45.17224" lon="5.02046">
        <ele>362.88555908203</ele>
        <time>2011-06-03T11:39:42Z</time>
      </trkpt>
      <trkpt lat="45.17241" lon="5.02062">
        <ele>368.39526367188</ele>
        <time>2011-06-03T11:39:47Z</time>
      </trkpt>
      <trkpt lat="45.17266" lon="5.02069">
        <ele>374.20989990234</ele>
        <time>2011-06-03T11:39:52Z</time>
      </trkpt>
      <trkpt lat="45.17308" lon="5.02067">
        <ele>380</ele>
        <time>2011-06-03T11:39:59Z</time>
      </trkpt>
      <trkpt lat="45.17313" lon="5.02068">
        <ele>380</ele>
        <time>2011-06-03T11:40:00Z</time>
      </trkpt>
      <trkpt lat="45.17336" lon="5.02075">
        <ele>380</ele>
        <time>2011-06-03T11:40:04Z</time>
      </trkpt>
      <trkpt lat="45.17371" lon="5.02075">
        <ele>380</ele>
        <time>2011-06-03T11:40:10Z</time>
      </trkpt>
      <trkpt lat="45.17414" lon="5.02071">
        <ele>380</ele>
        <time>2011-06-03T11:40:17Z</time>
      </trkpt>
      <trkpt lat="45.17437" lon="5.02071">
        <ele>380</ele>
        <time>2011-06-03T11:40:21Z</time>
      </trkpt>
      <trkpt lat="45.17482" lon="5.02078">
        <ele>378.07626342773</ele>
        <time>2011-06-03T11:40:27Z</time>
      </trkpt>
      <trkpt lat="45.17488" lon="5.02078">
        <ele>377.23968505859</ele>
        <time>2011-06-03T11:40:28Z</time>
      </trkpt>
      <trkpt lat="45.17512" lon="5.02061">
        <ele>369.34588623047</ele>
        <time>2011-06-03T11:40:32Z</time>
      </trkpt>
      <trkpt lat="45.17517" lon="5.02051">
        <ele>367.0973815918</ele>
        <time>2011-06-03T11:40:33Z</time>
      </trkpt>
      <trkpt lat="45.1752" lon="5.02042">
        <ele>365.45175170898</ele>
        <time>2011-06-03T11:40:34Z</time>
      </trkpt>
      <trkpt lat="45.17544" lon="5.02005">
        <ele>361.04647827148</ele>
        <time>2011-06-03T11:40:39Z</time>
      </trkpt>
      <trkpt lat="45.17563" lon="5.01996">
        <ele>361.13952636719</ele>
        <time>2011-06-03T11:40:42Z</time>
      </trkpt>
      <trkpt lat="45.17576" lon="5.01989">
        <ele>361.33349609375</ele>
        <time>2011-06-03T11:40:44Z</time>
      </trkpt>
      <trkpt lat="45.17617" lon="5.01982">
        <ele>360</ele>
        <time>2011-06-03T11:40:49Z</time>
      </trkpt>
      <trkpt lat="45.17663" lon="5.0199">
        <ele>360</ele>
        <time>2011-06-03T11:40:54Z</time>
      </trkpt>
      <trkpt lat="45.1768" lon="5.01999">
        <ele>360</ele>
        <time>2011-06-03T11:40:56Z</time>
      </trkpt>
      <trkpt lat="45.1773" lon="5.02019">
        <ele>360</ele>
        <time>2011-06-03T11:41:02Z</time>
      </trkpt>
      <trkpt lat="45.17769" lon="5.02031">
        <ele>360</ele>
        <time>2011-06-03T11:41:07Z</time>
      </trkpt>
      <trkpt lat="45.17824" lon="5.02044">
        <ele>360</ele>
        <time>2011-06-03T11:41:14Z</time>
      </trkpt>
      <trkpt lat="45.17875" lon="5.02053">
        <ele>360</ele>
        <time>2011-06-03T11:41:20Z</time>
      </trkpt>
      <trkpt lat="45.17908" lon="5.02039">
        <ele>360</ele>
        <time>2011-06-03T11:41:24Z</time>
      </trkpt>
      <trkpt lat="45.17927" lon="5.02006">
        <ele>359.91870117188</ele>
        <time>2011-06-03T11:41:27Z</time>
      </trkpt>
      <trkpt lat="45.17927" lon="5.01977">
        <ele>360</ele>
        <time>2011-06-03T11:41:29Z</time>
      </trkpt>
      <trkpt lat="45.17924" lon="5.01935">
        <ele>360</ele>
        <time>2011-06-03T11:41:32Z</time>
      </trkpt>
      <trkpt lat="45.17937" lon="5.01885">
        <ele>360</ele>
        <time>2011-06-03T11:41:36Z</time>
      </trkpt>
      <trkpt lat="45.17952" lon="5.01867">
        <ele>360</ele>
        <time>2011-06-03T11:41:38Z</time>
      </trkpt>
      <trkpt lat="45.18" lon="5.01822">
        <ele>355.91833496094</ele>
        <time>2011-06-03T11:41:45Z</time>
      </trkpt>
      <trkpt lat="45.18027" lon="5.01801">
        <ele>351.50933837891</ele>
        <time>2011-06-03T11:41:50Z</time>
      </trkpt>
      <trkpt lat="45.18042" lon="5.01798">
        <ele>349.50180053711</ele>
        <time>2011-06-03T11:41:53Z</time>
      </trkpt>
      <trkpt lat="45.18077" lon="5.01803">
        <ele>345.41708374023</ele>
        <time>2011-06-03T11:42:00Z</time>
      </trkpt>
      <trkpt lat="45.18116" lon="5.01807">
        <ele>340</ele>
        <time>2011-06-03T11:42:06Z</time>
      </trkpt>
      <trkpt lat="45.18128" lon="5.0181">
        <ele>340</ele>
        <time>2011-06-03T11:42:08Z</time>
      </trkpt>
      <trkpt lat="45.18181" lon="5.01815">
        <ele>340</ele>
        <time>2011-06-03T11:42:16Z</time>
      </trkpt>
      <trkpt lat="45.1823" lon="5.01817">
        <ele>340</ele>
        <time>2011-06-03T11:42:23Z</time>
      </trkpt>
      <trkpt lat="45.18251" lon="5.01814">
        <ele>340</ele>
        <time>2011-06-03T11:42:26Z</time>
      </trkpt>
      <trkpt lat="45.18293" lon="5.01811">
        <ele>340</ele>
        <time>2011-06-03T11:42:32Z</time>
      </trkpt>
      <trkpt lat="45.18346" lon="5.0181">
        <ele>340</ele>
        <time>2011-06-03T11:42:40Z</time>
      </trkpt>
      <trkpt lat="45.1839" lon="5.01812">
        <ele>340</ele>
        <time>2011-06-03T11:42:46Z</time>
      </trkpt>
      <trkpt lat="45.18433" lon="5.01807">
        <ele>340</ele>
        <time>2011-06-03T11:42:52Z</time>
      </trkpt>
      <trkpt lat="45.18475" lon="5.01784">
        <ele>340</ele>
        <time>2011-06-03T11:42:59Z</time>
      </trkpt>
      <trkpt lat="45.18504" lon="5.0176">
        <ele>340.19253540039</ele>
        <time>2011-06-03T11:43:05Z</time>
      </trkpt>
      <trkpt lat="45.18512" lon="5.01753">
        <ele>340.4953918457</ele>
        <time>2011-06-03T11:43:07Z</time>
      </trkpt>
      <trkpt lat="45.18524" lon="5.01741">
        <ele>340.8701171875</ele>
        <time>2011-06-03T11:43:10Z</time>
      </trkpt>
      <trkpt lat="45.18541" lon="5.01727">
        <ele>341.56884765625</ele>
        <time>2011-06-03T11:43:14Z</time>
      </trkpt>
      <trkpt lat="45.18551" lon="5.01721">
        <ele>341.77667236328</ele>
        <time>2011-06-03T11:43:16Z</time>
      </trkpt>
      <trkpt lat="45.18571" lon="5.0172">
        <ele>343.54843139648</ele>
        <time>2011-06-03T11:43:20Z</time>
      </trkpt>
      <trkpt lat="45.18608" lon="5.01737">
        <ele>346.91235351562</ele>
        <time>2011-06-03T11:43:28Z</time>
      </trkpt>
      <trkpt lat="45.18629" lon="5.01747">
        <ele>349.02322387695</ele>
        <time>2011-06-03T11:43:34Z</time>
      </trkpt>
      <trkpt lat="45.18655" lon="5.01758">
        <ele>351.19366455078</ele>
        <time>2011-06-03T11:43:42Z</time>
      </trkpt>
      <trkpt lat="45.18684" lon="5.01773">
        <ele>353.25360107422</ele>
        <time>2011-06-03T11:43:51Z</time>
      </trkpt>
      <trkpt lat="45.18705" lon="5.01785">
        <ele>354.81005859375</ele>
        <time>2011-06-03T11:43:58Z</time>
      </trkpt>
      <trkpt lat="45.18732" lon="5.01805">
        <ele>356.62188720703</ele>
        <time>2011-06-03T11:44:07Z</time>
      </trkpt>
      <trkpt lat="45.18752" lon="5.01824">
        <ele>358.58187866211</ele>
        <time>2011-06-03T11:44:14Z</time>
      </trkpt>
      <trkpt lat="45.18781" lon="5.01851">
        <ele>359.86093139648</ele>
        <time>2011-06-03T11:44:24Z</time>
      </trkpt>
      <trkpt lat="45.188" lon="5.01866">
        <ele>361.09979248047</ele>
        <time>2011-06-03T11:44:30Z</time>
      </trkpt>
      <trkpt lat="45.18831" lon="5.01886">
        <ele>362.78692626953</ele>
        <time>2011-06-03T11:44:39Z</time>
      </trkpt>
      <trkpt lat="45.18839" lon="5.01891">
        <ele>363.60479736328</ele>
        <time>2011-06-03T11:44:41Z</time>
      </trkpt>
      <trkpt lat="45.1886" lon="5.01899">
        <ele>365.47598266602</ele>
        <time>2011-06-03T11:44:47Z</time>
      </trkpt>
      <trkpt lat="45.18883" lon="5.01904">
        <ele>366.56079101562</ele>
        <time>2011-06-03T11:44:53Z</time>
      </trkpt>
      <trkpt lat="45.18906" lon="5.01905">
        <ele>367.13220214844</ele>
        <time>2011-06-03T11:44:59Z</time>
      </trkpt>
      <trkpt lat="45.18936" lon="5.01908">
        <ele>367.93319702148</ele>
        <time>2011-06-03T11:45:06Z</time>
      </trkpt>
      <trkpt lat="45.18956" lon="5.0191">
        <ele>368.72186279297</ele>
        <time>2011-06-03T11:45:10Z</time>
      </trkpt>
      <trkpt lat="45.18979" lon="5.01913">
        <ele>369.91558837891</ele>
        <time>2011-06-03T11:45:14Z</time>
      </trkpt>
      <trkpt lat="45.18997" lon="5.01914">
        <ele>370.69128417969</ele>
        <time>2011-06-03T11:45:17Z</time>
      </trkpt>
      <trkpt lat="45.19029" lon="5.01898">
        <ele>370.71591186523</ele>
        <time>2011-06-03T11:45:22Z</time>
      </trkpt>
      <trkpt lat="45.1904" lon="5.01885">
        <ele>370.29647827148</ele>
        <time>2011-06-03T11:45:24Z</time>
      </trkpt>
      <trkpt lat="45.19075" lon="5.01837">
        <ele>370.54888916016</ele>
        <time>2011-06-03T11:45:31Z</time>
      </trkpt>
      <trkpt lat="45.19101" lon="5.01803">
        <ele>372.2307434082</ele>
        <time>2011-06-03T11:45:37Z</time>
      </trkpt>
      <trkpt lat="45.19126" lon="5.01767">
        <ele>374.08129882812</ele>
        <time>2011-06-03T11:45:44Z</time>
      </trkpt>
      <trkpt lat="45.19138" lon="5.01729">
        <ele>373.46276855469</ele>
        <time>2011-06-03T11:45:51Z</time>
      </trkpt>
      <trkpt lat="45.19144" lon="5.01691">
        <ele>370.96389770508</ele>
        <time>2011-06-03T11:45:58Z</time>
      </trkpt>
      <trkpt lat="45.19152" lon="5.01651">
        <ele>370.11108398438</ele>
        <time>2011-06-03T11:46:05Z</time>
      </trkpt>
      <trkpt lat="45.19157" lon="5.01615">
        <ele>368.70068359375</ele>
        <time>2011-06-03T11:46:11Z</time>
      </trkpt>
      <trkpt lat="45.1916" lon="5.01603">
        <ele>368.62286376953</ele>
        <time>2011-06-03T11:46:13Z</time>
      </trkpt>
      <trkpt lat="45.19175" lon="5.0157">
        <ele>369.99963378906</ele>
        <time>2011-06-03T11:46:19Z</time>
      </trkpt>
      <trkpt lat="45.19192" lon="5.01557">
        <ele>370.87512207031</ele>
        <time>2011-06-03T11:46:23Z</time>
      </trkpt>
      <trkpt lat="45.19236" lon="5.01536">
        <ele>377.69180297852</ele>
        <time>2011-06-03T11:46:32Z</time>
      </trkpt>
      <trkpt lat="45.1924" lon="5.01533">
        <ele>378.35269165039</ele>
        <time>2011-06-03T11:46:33Z</time>
      </trkpt>
      <trkpt lat="45.19262" lon="5.01529">
        <ele>381.68856811523</ele>
        <time>2011-06-03T11:46:38Z</time>
      </trkpt>
      <trkpt lat="45.19266" lon="5.01543">
        <ele>382.5537109375</ele>
        <time>2011-06-03T11:46:41Z</time>
      </trkpt>
      <trkpt lat="45.19268" lon="5.01557">
        <ele>382.92834472656</ele>
        <time>2011-06-03T11:46:44Z</time>
      </trkpt>
      <trkpt lat="45.19278" lon="5.0159">
        <ele>383.73971557617</ele>
        <time>2011-06-03T11:46:51Z</time>
      </trkpt>
      <trkpt lat="45.19292" lon="5.01614">
        <ele>384.94915771484</ele>
        <time>2011-06-03T11:46:57Z</time>
      </trkpt>
      <trkpt lat="45.19306" lon="5.01631">
        <ele>386.33126831055</ele>
        <time>2011-06-03T11:47:02Z</time>
      </trkpt>
      <trkpt lat="45.19324" lon="5.01643">
        <ele>387.01330566406</ele>
        <time>2011-06-03T11:47:07Z</time>
      </trkpt>
      <trkpt lat="45.19353" lon="5.01662">
        <ele>386.51440429688</ele>
        <time>2011-06-03T11:47:13Z</time>
      </trkpt>
      <trkpt lat="45.19365" lon="5.01669">
        <ele>385.92880249023</ele>
        <time>2011-06-03T11:47:15Z</time>
      </trkpt>
      <trkpt lat="45.19403" lon="5.01681">
        <ele>384.66641235352</ele>
        <time>2011-06-03T11:47:21Z</time>
      </trkpt>
      <trkpt lat="45.19443" lon="5.01686">
        <ele>384.18231201172</ele>
        <time>2011-06-03T11:47:27Z</time>
      </trkpt>
      <trkpt lat="45.19464" lon="5.01689">
        <ele>385.2405090332</ele>
        <time>2011-06-03T11:47:30Z</time>
      </trkpt>
      <trkpt lat="45.19491" lon="5.01698">
        <ele>385.77279663086</ele>
        <time>2011-06-03T11:47:34Z</time>
      </trkpt>
      <trkpt lat="45.19525" lon="5.01713">
        <ele>390.28036499023</ele>
        <time>2011-06-03T11:47:39Z</time>
      </trkpt>
      <trkpt lat="45.1955" lon="5.01729">
        <ele>391.94610595703</ele>
        <time>2011-06-03T11:47:43Z</time>
      </trkpt>
      <trkpt lat="45.19568" lon="5.01756">
        <ele>392.58331298828</ele>
        <time>2011-06-03T11:47:47Z</time>
      </trkpt>
      <trkpt lat="45.1957" lon="5.01764">
        <ele>392.10003662109</ele>
        <time>2011-06-03T11:47:48Z</time>
      </trkpt>
      <trkpt lat="45.19581" lon="5.01804">
        <ele>389.85870361328</ele>
        <time>2011-06-03T11:47:53Z</time>
      </trkpt>
      <trkpt lat="45.19608" lon="5.01855">
        <ele>387.72955322266</ele>
        <time>2011-06-03T11:47:59Z</time>
      </trkpt>
      <trkpt lat="45.19614" lon="5.01863">
        <ele>386.67868041992</ele>
        <time>2011-06-03T11:48:00Z</time>
      </trkpt>
      <trkpt lat="45.19645" lon="5.0188">
        <ele>383.30227661133</ele>
        <time>2011-06-03T11:48:04Z</time>
      </trkpt>
      <trkpt lat="45.19668" lon="5.01893">
        <ele>379.69696044922</ele>
        <time>2011-06-03T11:48:07Z</time>
      </trkpt>
      <trkpt lat="45.19666" lon="5.01917">
        <ele>377.96109008789</ele>
        <time>2011-06-03T11:48:09Z</time>
      </trkpt>
      <trkpt lat="45.19661" lon="5.01926">
        <ele>377.37072753906</ele>
        <time>2011-06-03T11:48:10Z</time>
      </trkpt>
      <trkpt lat="45.1963" lon="5.01984">
        <ele>369.44409179688</ele>
        <time>2011-06-03T11:48:16Z</time>
      </trkpt>
      <trkpt lat="45.19608" lon="5.02034">
        <ele>361.93530273438</ele>
        <time>2011-06-03T11:48:22Z</time>
      </trkpt>
      <trkpt lat="45.19587" lon="5.02089">
        <ele>361.97369384766</ele>
        <time>2011-06-03T11:48:28Z</time>
      </trkpt>
      <trkpt lat="45.19571" lon="5.02135">
        <ele>362.8984375</ele>
        <time>2011-06-03T11:48:33Z</time>
      </trkpt>
      <trkpt lat="45.19556" lon="5.02167">
        <ele>364.07769775391</ele>
        <time>2011-06-03T11:48:37Z</time>
      </trkpt>
      <trkpt lat="45.19529" lon="5.02204">
        <ele>363.47564697266</ele>
        <time>2011-06-03T11:48:43Z</time>
      </trkpt>
      <trkpt lat="45.19521" lon="5.02244">
        <ele>365.09912109375</ele>
        <time>2011-06-03T11:48:47Z</time>
      </trkpt>
      <trkpt lat="45.19522" lon="5.02306">
        <ele>368.62442016602</ele>
        <time>2011-06-03T11:48:52Z</time>
      </trkpt>
      <trkpt lat="45.1952" lon="5.02364">
        <ele>371.59973144531</ele>
        <time>2011-06-03T11:48:57Z</time>
      </trkpt>
      <trkpt lat="45.19516" lon="5.02398">
        <ele>373.10186767578</ele>
        <time>2011-06-03T11:49:01Z</time>
      </trkpt>
      <trkpt lat="45.19514" lon="5.02406">
        <ele>373.43539428711</ele>
        <time>2011-06-03T11:49:02Z</time>
      </trkpt>
      <trkpt lat="45.19509" lon="5.0244">
        <ele>374.48236083984</ele>
        <time>2011-06-03T11:49:08Z</time>
      </trkpt>
      <trkpt lat="45.19498" lon="5.02459">
        <ele>374.87316894531</ele>
        <time>2011-06-03T11:49:14Z</time>
      </trkpt>
      <trkpt lat="45.19488" lon="5.02469">
        <ele>374.42340087891</ele>
        <time>2011-06-03T11:49:19Z</time>
      </trkpt>
      <trkpt lat="45.1947" lon="5.02476">
        <ele>372.20639038086</ele>
        <time>2011-06-03T11:49:25Z</time>
      </trkpt>
      <trkpt lat="45.19449" lon="5.02487">
        <ele>364.84329223633</ele>
        <time>2011-06-03T11:49:32Z</time>
      </trkpt>
      <trkpt lat="45.19432" lon="5.02504">
        <ele>363.22027587891</ele>
        <time>2011-06-03T11:49:39Z</time>
      </trkpt>
      <trkpt lat="45.19418" lon="5.02531">
        <ele>364.39013671875</ele>
        <time>2011-06-03T11:49:47Z</time>
      </trkpt>
      <trkpt lat="45.19406" lon="5.02554">
        <ele>364.40042114258</ele>
        <time>2011-06-03T11:49:54Z</time>
      </trkpt>
      <trkpt lat="45.19399" lon="5.02578">
        <ele>366.22180175781</ele>
        <time>2011-06-03T11:50:00Z</time>
      </trkpt>
      <trkpt lat="45.19399" lon="5.02599">
        <ele>366.86706542969</ele>
        <time>2011-06-03T11:50:05Z</time>
      </trkpt>
      <trkpt lat="45.19404" lon="5.02633">
        <ele>368.10659790039</ele>
        <time>2011-06-03T11:50:13Z</time>
      </trkpt>
      <trkpt lat="45.19416" lon="5.02645">
        <ele>370.07162475586</ele>
        <time>2011-06-03T11:50:18Z</time>
      </trkpt>
      <trkpt lat="45.19417" lon="5.02646">
        <ele>370.33547973633</ele>
        <time>2011-06-03T11:50:19Z</time>
      </trkpt>
      <trkpt lat="45.19432" lon="5.02648">
        <ele>372.56021118164</ele>
        <time>2011-06-03T11:50:25Z</time>
      </trkpt>
      <trkpt lat="45.19454" lon="5.02649">
        <ele>375.93923950195</ele>
        <time>2011-06-03T11:50:30Z</time>
      </trkpt>
      <trkpt lat="45.19485" lon="5.0265">
        <ele>380.97854614258</ele>
        <time>2011-06-03T11:50:35Z</time>
      </trkpt>
      <trkpt lat="45.19514" lon="5.02652">
        <ele>385.50784301758</ele>
        <time>2011-06-03T11:50:39Z</time>
      </trkpt>
      <trkpt lat="45.19537" lon="5.02663">
        <ele>389.77130126953</ele>
        <time>2011-06-03T11:50:42Z</time>
      </trkpt>
      <trkpt lat="45.19544" lon="5.02669">
        <ele>391.27905273438</ele>
        <time>2011-06-03T11:50:43Z</time>
      </trkpt>
      <trkpt lat="45.19574" lon="5.02695">
        <ele>394.22338867188</ele>
        <time>2011-06-03T11:50:47Z</time>
      </trkpt>
      <trkpt lat="45.19581" lon="5.02703">
        <ele>394.44311523438</ele>
        <time>2011-06-03T11:50:48Z</time>
      </trkpt>
      <trkpt lat="45.19603" lon="5.02746">
        <ele>392.20315551758</ele>
        <time>2011-06-03T11:50:52Z</time>
      </trkpt>
      <trkpt lat="45.1962" lon="5.02795">
        <ele>388.49261474609</ele>
        <time>2011-06-03T11:50:56Z</time>
      </trkpt>
      <trkpt lat="45.19637" lon="5.02828">
        <ele>385.61752319336</ele>
        <time>2011-06-03T11:50:59Z</time>
      </trkpt>
      <trkpt lat="45.19629" lon="5.02856">
        <ele>381.17364501953</ele>
        <time>2011-06-03T11:51:01Z</time>
      </trkpt>
      <trkpt lat="45.19619" lon="5.02907">
        <ele>370.61010742188</ele>
        <time>2011-06-03T11:51:05Z</time>
      </trkpt>
      <trkpt lat="45.19637" lon="5.02923">
        <ele>370.03402709961</ele>
        <time>2011-06-03T11:51:07Z</time>
      </trkpt>
      <trkpt lat="45.19647" lon="5.02928">
        <ele>369.68743896484</ele>
        <time>2011-06-03T11:51:08Z</time>
      </trkpt>
      <trkpt lat="45.197" lon="5.02969">
        <ele>361.15310668945</ele>
        <time>2011-06-03T11:51:13Z</time>
      </trkpt>
      <trkpt lat="45.19705" lon="5.03">
        <ele>360</ele>
        <time>2011-06-03T11:51:15Z</time>
      </trkpt>
      <trkpt lat="45.19701" lon="5.03032">
        <ele>360</ele>
        <time>2011-06-03T11:51:17Z</time>
      </trkpt>
      <trkpt lat="45.19685" lon="5.03051">
        <ele>360</ele>
        <time>2011-06-03T11:51:19Z</time>
      </trkpt>
      <trkpt lat="45.19673" lon="5.03061">
        <ele>360</ele>
        <time>2011-06-03T11:51:21Z</time>
      </trkpt>
      <trkpt lat="45.19643" lon="5.03069">
        <ele>360</ele>
        <time>2011-06-03T11:51:27Z</time>
      </trkpt>
      <trkpt lat="45.19619" lon="5.03074">
        <ele>360</ele>
        <time>2011-06-03T11:51:33Z</time>
      </trkpt>
      <trkpt lat="45.19605" lon="5.03077">
        <ele>360</ele>
        <time>2011-06-03T11:51:37Z</time>
      </trkpt>
      <trkpt lat="45.19598" lon="5.03077">
        <ele>360</ele>
        <time>2011-06-03T11:51:39Z</time>
      </trkpt>
      <trkpt lat="45.19577" lon="5.03074">
        <ele>360</ele>
        <time>2011-06-03T11:51:45Z</time>
      </trkpt>
      <trkpt lat="45.19563" lon="5.03072">
        <ele>360</ele>
        <time>2011-06-03T11:51:50Z</time>
      </trkpt>
      <trkpt lat="45.19544" lon="5.03074">
        <ele>359.85696411133</ele>
        <time>2011-06-03T11:51:57Z</time>
      </trkpt>
      <trkpt lat="45.19529" lon="5.0308">
        <ele>359.89465332031</ele>
        <time>2011-06-03T11:52:04Z</time>
      </trkpt>
      <trkpt lat="45.1952" lon="5.03092">
        <ele>359.72674560547</ele>
        <time>2011-06-03T11:52:09Z</time>
      </trkpt>
      <trkpt lat="45.19524" lon="5.03107">
        <ele>359.85034179688</ele>
        <time>2011-06-03T11:52:14Z</time>
      </trkpt>
      <trkpt lat="45.1953" lon="5.0312">
        <ele>360</ele>
        <time>2011-06-03T11:52:19Z</time>
      </trkpt>
      <trkpt lat="45.19532" lon="5.03122">
        <ele>360</ele>
        <time>2011-06-03T11:52:20Z</time>
      </trkpt>
      <trkpt lat="45.19541" lon="5.03132">
        <ele>360</ele>
        <time>2011-06-03T11:52:25Z</time>
      </trkpt>
      <trkpt lat="45.19544" lon="5.03137">
        <ele>360</ele>
        <time>2011-06-03T11:52:27Z</time>
      </trkpt>
      <trkpt lat="45.19544" lon="5.03162">
        <ele>360</ele>
        <time>2011-06-03T11:52:34Z</time>
      </trkpt>
      <trkpt lat="45.19545" lon="5.03181">
        <ele>360.30792236328</ele>
        <time>2011-06-03T11:52:38Z</time>
      </trkpt>
      <trkpt lat="45.19553" lon="5.03202">
        <ele>360.89404296875</ele>
        <time>2011-06-03T11:52:42Z</time>
      </trkpt>
      <trkpt lat="45.19562" lon="5.03215">
        <ele>361.38510131836</ele>
        <time>2011-06-03T11:52:45Z</time>
      </trkpt>
      <trkpt lat="45.19575" lon="5.03244">
        <ele>362.63705444336</ele>
        <time>2011-06-03T11:52:50Z</time>
      </trkpt>
      <trkpt lat="45.19576" lon="5.03252">
        <ele>362.79611206055</ele>
        <time>2011-06-03T11:52:51Z</time>
      </trkpt>
      <trkpt lat="45.19579" lon="5.03299">
        <ele>364.41625976562</ele>
        <time>2011-06-03T11:52:56Z</time>
      </trkpt>
      <trkpt lat="45.19589" lon="5.03338">
        <ele>366.60321044922</ele>
        <time>2011-06-03T11:53:00Z</time>
      </trkpt>
      <trkpt lat="45.19609" lon="5.03377">
        <ele>369.89071655273</ele>
        <time>2011-06-03T11:53:04Z</time>
      </trkpt>
      <trkpt lat="45.1962" lon="5.03395">
        <ele>372.20922851562</ele>
        <time>2011-06-03T11:53:06Z</time>
      </trkpt>
      <trkpt lat="45.19634" lon="5.03444">
        <ele>376.30877685547</ele>
        <time>2011-06-03T11:53:10Z</time>
      </trkpt>
      <trkpt lat="45.19631" lon="5.03484">
        <ele>376.47113037109</ele>
        <time>2011-06-03T11:53:13Z</time>
      </trkpt>
      <trkpt lat="45.19614" lon="5.03529">
        <ele>371.42678833008</ele>
        <time>2011-06-03T11:53:17Z</time>
      </trkpt>
      <trkpt lat="45.19594" lon="5.03549">
        <ele>368.35372924805</ele>
        <time>2011-06-03T11:53:20Z</time>
      </trkpt>
      <trkpt lat="45.19548" lon="5.03581">
        <ele>363.47698974609</ele>
        <time>2011-06-03T11:53:27Z</time>
      </trkpt>
      <trkpt lat="45.19527" lon="5.03601">
        <ele>359.98004150391</ele>
        <time>2011-06-03T11:53:31Z</time>
      </trkpt>
      <trkpt lat="45.19503" lon="5.03641">
        <ele>360.44976806641</ele>
        <time>2011-06-03T11:53:38Z</time>
      </trkpt>
      <trkpt lat="45.19484" lon="5.03679">
        <ele>362.53317260742</ele>
        <time>2011-06-03T11:53:45Z</time>
      </trkpt>
      <trkpt lat="45.19481" lon="5.03704">
        <ele>364.16970825195</ele>
        <time>2011-06-03T11:53:49Z</time>
      </trkpt>
      <trkpt lat="45.1948" lon="5.03718">
        <ele>364.88412475586</ele>
        <time>2011-06-03T11:53:51Z</time>
      </trkpt>
      <trkpt lat="45.19485" lon="5.03743">
        <ele>367.29296875</ele>
        <time>2011-06-03T11:53:55Z</time>
      </trkpt>
      <trkpt lat="45.19503" lon="5.03785">
        <ele>369.09240722656</ele>
        <time>2011-06-03T11:54:02Z</time>
      </trkpt>
      <trkpt lat="45.1953" lon="5.03828">
        <ele>370.5354309082</ele>
        <time>2011-06-03T11:54:09Z</time>
      </trkpt>
      <trkpt lat="45.19557" lon="5.03873">
        <ele>373.83532714844</ele>
        <time>2011-06-03T11:54:15Z</time>
      </trkpt>
      <trkpt lat="45.19585" lon="5.0393">
        <ele>376.2998046875</ele>
        <time>2011-06-03T11:54:21Z</time>
      </trkpt>
      <trkpt lat="45.19601" lon="5.03959">
        <ele>375.49237060547</ele>
        <time>2011-06-03T11:54:24Z</time>
      </trkpt>
      <trkpt lat="45.19632" lon="5.04022">
        <ele>373.70608520508</ele>
        <time>2011-06-03T11:54:30Z</time>
      </trkpt>
      <trkpt lat="45.19635" lon="5.04029">
        <ele>373.51809692383</ele>
        <time>2011-06-03T11:54:31Z</time>
      </trkpt>
      <trkpt lat="45.19636" lon="5.04049">
        <ele>372.22473144531</ele>
        <time>2011-06-03T11:54:34Z</time>
      </trkpt>
      <trkpt lat="45.19632" lon="5.04054">
        <ele>371.55151367188</ele>
        <time>2011-06-03T11:54:35Z</time>
      </trkpt>
      <trkpt lat="45.19621" lon="5.04062">
        <ele>370.07925415039</ele>
        <time>2011-06-03T11:54:37Z</time>
      </trkpt>
      <trkpt lat="45.19593" lon="5.04092">
        <ele>365.92022705078</ele>
        <time>2011-06-03T11:54:42Z</time>
      </trkpt>
      <trkpt lat="45.1958" lon="5.04121">
        <ele>364.11679077148</ele>
        <time>2011-06-03T11:54:45Z</time>
      </trkpt>
      <trkpt lat="45.19573" lon="5.04168">
        <ele>360.92559814453</ele>
        <time>2011-06-03T11:54:49Z</time>
      </trkpt>
      <trkpt lat="45.19574" lon="5.04267">
        <ele>355.4059753418</ele>
        <time>2011-06-03T11:54:56Z</time>
      </trkpt>
      <trkpt lat="45.19576" lon="5.04313">
        <ele>353.4645690918</ele>
        <time>2011-06-03T11:54:59Z</time>
      </trkpt>
      <trkpt lat="45.19577" lon="5.04441">
        <ele>346.23260498047</ele>
        <time>2011-06-03T11:55:07Z</time>
      </trkpt>
      <trkpt lat="45.19559" lon="5.04482">
        <ele>343.64001464844</ele>
        <time>2011-06-03T11:55:10Z</time>
      </trkpt>
      <trkpt lat="45.19535" lon="5.04488">
        <ele>343.43572998047</ele>
        <time>2011-06-03T11:55:12Z</time>
      </trkpt>
      <trkpt lat="45.19512" lon="5.04482">
        <ele>343.66577148438</ele>
        <time>2011-06-03T11:55:14Z</time>
      </trkpt>
      <trkpt lat="45.19443" lon="5.04453">
        <ele>344.62707519531</ele>
        <time>2011-06-03T11:55:20Z</time>
      </trkpt>
      <trkpt lat="45.19431" lon="5.04448">
        <ele>344.35946655273</ele>
        <time>2011-06-03T11:55:21Z</time>
      </trkpt>
      <trkpt lat="45.19396" lon="5.04447">
        <ele>340.10061645508</ele>
        <time>2011-06-03T11:55:24Z</time>
      </trkpt>
      <trkpt lat="45.19384" lon="5.04453">
        <ele>337.8173828125</ele>
        <time>2011-06-03T11:55:25Z</time>
      </trkpt>
      <trkpt lat="45.19366" lon="5.04473">
        <ele>334.50726318359</ele>
        <time>2011-06-03T11:55:27Z</time>
      </trkpt>
      <trkpt lat="45.1936" lon="5.04484">
        <ele>333.45672607422</ele>
        <time>2011-06-03T11:55:28Z</time>
      </trkpt>
      <trkpt lat="45.19348" lon="5.04498">
        <ele>331.65426635742</ele>
        <time>2011-06-03T11:55:30Z</time>
      </trkpt>
      <trkpt lat="45.19328" lon="5.04507">
        <ele>329.1376953125</ele>
        <time>2011-06-03T11:55:33Z</time>
      </trkpt>
      <trkpt lat="45.19293" lon="5.0453">
        <ele>324.62579345703</ele>
        <time>2011-06-03T11:55:38Z</time>
      </trkpt>
      <trkpt lat="45.19253" lon="5.04551">
        <ele>321.19995117188</ele>
        <time>2011-06-03T11:55:43Z</time>
      </trkpt>
      <trkpt lat="45.19232" lon="5.04561">
        <ele>321</ele>
        <time>2011-06-03T11:55:46Z</time>
      </trkpt>
      <trkpt lat="45.19225" lon="5.04567">
        <ele>321</ele>
        <time>2011-06-03T11:55:48Z</time>
      </trkpt>
      <trkpt lat="45.19216" lon="5.04583">
        <ele>320.78161621094</ele>
        <time>2011-06-03T11:55:53Z</time>
      </trkpt>
      <trkpt lat="45.19204" lon="5.04613">
        <ele>320.41116333008</ele>
        <time>2011-06-03T11:55:58Z</time>
      </trkpt>
      <trkpt lat="45.192" lon="5.04631">
        <ele>320.76037597656</ele>
        <time>2011-06-03T11:56:02Z</time>
      </trkpt>
      <trkpt lat="45.19195" lon="5.04655">
        <ele>320.45269775391</ele>
        <time>2011-06-03T11:56:08Z</time>
      </trkpt>
      <trkpt lat="45.19189" lon="5.04667">
        <ele>319.80502319336</ele>
        <time>2011-06-03T11:56:12Z</time>
      </trkpt>
      <trkpt lat="45.19185" lon="5.0468">
        <ele>319.17846679688</ele>
        <time>2011-06-03T11:56:18Z</time>
      </trkpt>
      <trkpt lat="45.1918" lon="5.04695">
        <ele>318.48495483398</ele>
        <time>2011-06-03T11:56:25Z</time>
      </trkpt>
      <trkpt lat="45.1918" lon="5.04699">
        <ele>318.29956054688</ele>
        <time>2011-06-03T11:56:27Z</time>
      </trkpt>
      <trkpt lat="45.19176" lon="5.04695">
        <ele>318.33731079102</ele>
        <time>2011-06-03T11:56:31Z</time>
      </trkpt>
      <trkpt lat="45.1918" lon="5.04688">
        <ele>318.74072265625</ele>
        <time>2011-06-03T11:56:34Z</time>
      </trkpt>
      <trkpt lat="45.19185" lon="5.04681">
        <ele>319.14239501953</ele>
        <time>2011-06-03T11:56:38Z</time>
      </trkpt>
      <trkpt lat="45.19194" lon="5.04664">
        <ele>320.08157348633</ele>
        <time>2011-06-03T11:56:43Z</time>
      </trkpt>
      <trkpt lat="45.19203" lon="5.04632">
        <ele>320.81454467773</ele>
        <time>2011-06-03T11:56:49Z</time>
      </trkpt>
      <trkpt lat="45.19205" lon="5.04623">
        <ele>320.64651489258</ele>
        <time>2011-06-03T11:56:52Z</time>
      </trkpt>
      <trkpt lat="45.19207" lon="5.04619">
        <ele>320.59545898438</ele>
        <time>2011-06-03T11:56:56Z</time>
      </trkpt>
      <trkpt lat="45.19202" lon="5.0463">
        <ele>320.77420043945</ele>
        <time>2011-06-03T11:57:04Z</time>
      </trkpt>
      <trkpt lat="45.19202" lon="5.04635">
        <ele>320.89080810547</ele>
        <time>2011-06-03T11:57:07Z</time>
      </trkpt>
      <trkpt lat="45.19205" lon="5.04625">
        <ele>320.69412231445</ele>
        <time>2011-06-03T11:57:12Z</time>
      </trkpt>
      <trkpt lat="45.19213" lon="5.04596">
        <ele>320.67175292969</ele>
        <time>2011-06-03T11:57:19Z</time>
      </trkpt>
      <trkpt lat="45.19221" lon="5.04579">
        <ele>320.97387695312</ele>
        <time>2011-06-03T11:57:24Z</time>
      </trkpt>
      <trkpt lat="45.1923" lon="5.04566">
        <ele>321</ele>
        <time>2011-06-03T11:57:29Z</time>
      </trkpt>
      <trkpt lat="45.19241" lon="5.04559">
        <ele>321</ele>
        <time>2011-06-03T11:57:33Z</time>
      </trkpt>
      <trkpt lat="45.19258" lon="5.0455">
        <ele>321.61193847656</ele>
        <time>2011-06-03T11:57:38Z</time>
      </trkpt>
      <trkpt lat="45.19282" lon="5.04538">
        <ele>323.43103027344</ele>
        <time>2011-06-03T11:57:45Z</time>
      </trkpt>
      <trkpt lat="45.19312" lon="5.04521">
        <ele>326.91812133789</ele>
        <time>2011-06-03T11:57:54Z</time>
      </trkpt>
      <trkpt lat="45.19345" lon="5.045">
        <ele>331.27661132812</ele>
        <time>2011-06-03T11:58:04Z</time>
      </trkpt>
      <trkpt lat="45.19349" lon="5.04498">
        <ele>331.70919799805</ele>
        <time>2011-06-03T11:58:05Z</time>
      </trkpt>
      <trkpt lat="45.19354" lon="5.04509">
        <ele>331.71667480469</ele>
        <time>2011-06-03T11:58:09Z</time>
      </trkpt>
      <trkpt lat="45.19352" lon="5.04513">
        <ele>331.216796875</ele>
        <time>2011-06-03T11:58:10Z</time>
      </trkpt>
      <trkpt lat="45.19328" lon="5.04562">
        <ele>327.33764648438</ele>
        <time>2011-06-03T11:58:18Z</time>
      </trkpt>
      <trkpt lat="45.19304" lon="5.04611">
        <ele>323.8717956543</ele>
        <time>2011-06-03T11:58:24Z</time>
      </trkpt>
      <trkpt lat="45.19276" lon="5.04668">
        <ele>321.89276123047</ele>
        <time>2011-06-03T11:58:30Z</time>
      </trkpt>
      <trkpt lat="45.1924" lon="5.04742">
        <ele>319.73870849609</ele>
        <time>2011-06-03T11:58:37Z</time>
      </trkpt>
      <trkpt lat="45.19208" lon="5.04806">
        <ele>318.4794921875</ele>
        <time>2011-06-03T11:58:43Z</time>
      </trkpt>
      <trkpt lat="45.19178" lon="5.0484">
        <ele>317.39459228516</ele>
        <time>2011-06-03T11:58:47Z</time>
      </trkpt>
      <trkpt lat="45.19148" lon="5.04849">
        <ele>315.67431640625</ele>
        <time>2011-06-03T11:58:50Z</time>
      </trkpt>
      <trkpt lat="45.19117" lon="5.04842">
        <ele>313.44958496094</ele>
        <time>2011-06-03T11:58:53Z</time>
      </trkpt>
      <trkpt lat="45.1909" lon="5.04818">
        <ele>311.47204589844</ele>
        <time>2011-06-03T11:58:56Z</time>
      </trkpt>
      <trkpt lat="45.19082" lon="5.04808">
        <ele>310.92272949219</ele>
        <time>2011-06-03T11:58:57Z</time>
      </trkpt>
      <trkpt lat="45.1907" lon="5.04781">
        <ele>310.04382324219</ele>
        <time>2011-06-03T11:58:59Z</time>
      </trkpt>
      <trkpt lat="45.19045" lon="5.0471">
        <ele>311.04498291016</ele>
        <time>2011-06-03T11:59:04Z</time>
      </trkpt>
      <trkpt lat="45.19029" lon="5.04669">
        <ele>311.10076904297</ele>
        <time>2011-06-03T11:59:07Z</time>
      </trkpt>
      <trkpt lat="45.18996" lon="5.04628">
        <ele>311.23974609375</ele>
        <time>2011-06-03T11:59:11Z</time>
      </trkpt>
      <trkpt lat="45.18964" lon="5.04618">
        <ele>310.73736572266</ele>
        <time>2011-06-03T11:59:14Z</time>
      </trkpt>
      <trkpt lat="45.18953" lon="5.0462">
        <ele>310.68759155273</ele>
        <time>2011-06-03T11:59:15Z</time>
      </trkpt>
      <trkpt lat="45.18871" lon="5.04642">
        <ele>306.65542602539</ele>
        <time>2011-06-03T11:59:23Z</time>
      </trkpt>
      <trkpt lat="45.1885" lon="5.04648">
        <ele>305.66186523438</ele>
        <time>2011-06-03T11:59:25Z</time>
      </trkpt>
      <trkpt lat="45.188" lon="5.04652">
        <ele>306.62783813477</ele>
        <time>2011-06-03T11:59:30Z</time>
      </trkpt>
      <trkpt lat="45.18775" lon="5.04649">
        <ele>306.90536499023</ele>
        <time>2011-06-03T11:59:33Z</time>
      </trkpt>
      <trkpt lat="45.18765" lon="5.0467">
        <ele>304.96685791016</ele>
        <time>2011-06-03T11:59:36Z</time>
      </trkpt>
      <trkpt lat="45.18772" lon="5.04686">
        <ele>301.79547119141</ele>
        <time>2011-06-03T11:59:38Z</time>
      </trkpt>
      <trkpt lat="45.18818" lon="5.04738">
        <ele>300</ele>
        <time>2011-06-03T11:59:47Z</time>
      </trkpt>
      <trkpt lat="45.18854" lon="5.04781">
        <ele>300</ele>
        <time>2011-06-03T11:59:55Z</time>
      </trkpt>
      <trkpt lat="45.18872" lon="5.04803">
        <ele>300</ele>
        <time>2011-06-03T11:59:59Z</time>
      </trkpt>
      <trkpt lat="45.18908" lon="5.04846">
        <ele>300</ele>
        <time>2011-06-03T12:00:07Z</time>
      </trkpt>
      <trkpt lat="45.18955" lon="5.04902">
        <ele>302.74914550781</ele>
        <time>2011-06-03T12:00:18Z</time>
      </trkpt>
      <trkpt lat="45.19" lon="5.0495">
        <ele>305.99011230469</ele>
        <time>2011-06-03T12:00:28Z</time>
      </trkpt>
      <trkpt lat="45.19038" lon="5.04992">
        <ele>308.70922851562</ele>
        <time>2011-06-03T12:00:36Z</time>
      </trkpt>
      <trkpt lat="45.1908" lon="5.05038">
        <ele>312.08728027344</ele>
        <time>2011-06-03T12:00:45Z</time>
      </trkpt>
      <trkpt lat="45.19131" lon="5.0509">
        <ele>317.41088867188</ele>
        <time>2011-06-03T12:00:56Z</time>
      </trkpt>
      <trkpt lat="45.1917" lon="5.05133">
        <ele>319.43881225586</ele>
        <time>2011-06-03T12:01:05Z</time>
      </trkpt>
      <trkpt lat="45.19201" lon="5.05174">
        <ele>320.59887695312</ele>
        <time>2011-06-03T12:01:13Z</time>
      </trkpt>
      <trkpt lat="45.19238" lon="5.05225">
        <ele>322.03744506836</ele>
        <time>2011-06-03T12:01:23Z</time>
      </trkpt>
      <trkpt lat="45.19241" lon="5.0523">
        <ele>322.27365112305</ele>
        <time>2011-06-03T12:01:24Z</time>
      </trkpt>
      <trkpt lat="45.19268" lon="5.05267">
        <ele>322.69641113281</ele>
        <time>2011-06-03T12:01:31Z</time>
      </trkpt>
      <trkpt lat="45.19311" lon="5.05327">
        <ele>321.34576416016</ele>
        <time>2011-06-03T12:01:43Z</time>
      </trkpt>
      <trkpt lat="45.19347" lon="5.05377">
        <ele>320.34069824219</ele>
        <time>2011-06-03T12:01:53Z</time>
      </trkpt>
      <trkpt lat="45.19385" lon="5.05423">
        <ele>319.6159362793</ele>
        <time>2011-06-03T12:02:03Z</time>
      </trkpt>
      <trkpt lat="45.19426" lon="5.05464">
        <ele>318.28463745117</ele>
        <time>2011-06-03T12:02:12Z</time>
      </trkpt>
      <trkpt lat="45.19484" lon="5.0552">
        <ele>317.26248168945</ele>
        <time>2011-06-03T12:02:24Z</time>
      </trkpt>
      <trkpt lat="45.19526" lon="5.05567">
        <ele>316.97326660156</ele>
        <time>2011-06-03T12:02:33Z</time>
      </trkpt>
      <trkpt lat="45.19553" lon="5.05607">
        <ele>319.72332763672</ele>
        <time>2011-06-03T12:02:40Z</time>
      </trkpt>
      <trkpt lat="45.19577" lon="5.05646">
        <ele>319.75921630859</ele>
        <time>2011-06-03T12:02:47Z</time>
      </trkpt>
      <trkpt lat="45.19599" lon="5.05696">
        <ele>319.51480102539</ele>
        <time>2011-06-03T12:02:55Z</time>
      </trkpt>
      <trkpt lat="45.19611" lon="5.05752">
        <ele>318.99517822266</ele>
        <time>2011-06-03T12:03:03Z</time>
      </trkpt>
      <trkpt lat="45.19625" lon="5.05804">
        <ele>319.50329589844</ele>
        <time>2011-06-03T12:03:10Z</time>
      </trkpt>
      <trkpt lat="45.19653" lon="5.05874">
        <ele>320</ele>
        <time>2011-06-03T12:03:19Z</time>
      </trkpt>
      <trkpt lat="45.19675" lon="5.05906">
        <ele>320</ele>
        <time>2011-06-03T12:03:24Z</time>
      </trkpt>
      <trkpt lat="45.19711" lon="5.0594">
        <ele>320</ele>
        <time>2011-06-03T12:03:31Z</time>
      </trkpt>
      <trkpt lat="45.19753" lon="5.05981">
        <ele>320</ele>
        <time>2011-06-03T12:03:40Z</time>
      </trkpt>
      <trkpt lat="45.19797" lon="5.06024">
        <ele>320</ele>
        <time>2011-06-03T12:03:50Z</time>
      </trkpt>
      <trkpt lat="45.19844" lon="5.06068">
        <ele>320.2184753418</ele>
        <time>2011-06-03T12:04:01Z</time>
      </trkpt>
      <trkpt lat="45.19884" lon="5.06106">
        <ele>320.29992675781</ele>
        <time>2011-06-03T12:04:11Z</time>
      </trkpt>
      <trkpt lat="45.19923" lon="5.06143">
        <ele>322.78466796875</ele>
        <time>2011-06-03T12:04:21Z</time>
      </trkpt>
      <trkpt lat="45.19958" lon="5.06171">
        <ele>329.21331787109</ele>
        <time>2011-06-03T12:04:29Z</time>
      </trkpt>
      <trkpt lat="45.19999" lon="5.06197">
        <ele>330.81823730469</ele>
        <time>2011-06-03T12:04:37Z</time>
      </trkpt>
      <trkpt lat="45.2005" lon="5.06229">
        <ele>333.94189453125</ele>
        <time>2011-06-03T12:04:47Z</time>
      </trkpt>
      <trkpt lat="45.20093" lon="5.06256">
        <ele>335.29516601562</ele>
        <time>2011-06-03T12:04:56Z</time>
      </trkpt>
      <trkpt lat="45.2014" lon="5.06285">
        <ele>335.84414672852</ele>
        <time>2011-06-03T12:05:06Z</time>
      </trkpt>
      <trkpt lat="45.20191" lon="5.06316">
        <ele>339.30181884766</ele>
        <time>2011-06-03T12:05:17Z</time>
      </trkpt>
      <trkpt lat="45.20228" lon="5.06339">
        <ele>340.15728759766</ele>
        <time>2011-06-03T12:05:25Z</time>
      </trkpt>
      <trkpt lat="45.20268" lon="5.06365">
        <ele>339.84234619141</ele>
        <time>2011-06-03T12:05:34Z</time>
      </trkpt>
      <trkpt lat="45.20306" lon="5.06395">
        <ele>339.77978515625</ele>
        <time>2011-06-03T12:05:43Z</time>
      </trkpt>
      <trkpt lat="45.20342" lon="5.06428">
        <ele>338.88558959961</ele>
        <time>2011-06-03T12:05:52Z</time>
      </trkpt>
      <trkpt lat="45.20371" lon="5.06454">
        <ele>338.42364501953</ele>
        <time>2011-06-03T12:05:59Z</time>
      </trkpt>
      <trkpt lat="45.20398" lon="5.06473">
        <ele>337.95422363281</ele>
        <time>2011-06-03T12:06:05Z</time>
      </trkpt>
      <trkpt lat="45.20418" lon="5.06489">
        <ele>337.48376464844</ele>
        <time>2011-06-03T12:06:09Z</time>
      </trkpt>
      <trkpt lat="45.20454" lon="5.06537">
        <ele>338.21658325195</ele>
        <time>2011-06-03T12:06:17Z</time>
      </trkpt>
      <trkpt lat="45.20484" lon="5.0658">
        <ele>338.47518920898</ele>
        <time>2011-06-03T12:06:24Z</time>
      </trkpt>
      <trkpt lat="45.20508" lon="5.06618">
        <ele>338.28125</ele>
        <time>2011-06-03T12:06:30Z</time>
      </trkpt>
      <trkpt lat="45.20537" lon="5.06659">
        <ele>339.33868408203</ele>
        <time>2011-06-03T12:06:37Z</time>
      </trkpt>
      <trkpt lat="45.20566" lon="5.06707">
        <ele>340</ele>
        <time>2011-06-03T12:06:44Z</time>
      </trkpt>
      <trkpt lat="45.20589" lon="5.06742">
        <ele>340</ele>
        <time>2011-06-03T12:06:49Z</time>
      </trkpt>
      <trkpt lat="45.20626" lon="5.06798">
        <ele>340</ele>
        <time>2011-06-03T12:06:57Z</time>
      </trkpt>
      <trkpt lat="45.20653" lon="5.06849">
        <ele>340</ele>
        <time>2011-06-03T12:07:04Z</time>
      </trkpt>
      <trkpt lat="45.20674" lon="5.06902">
        <ele>340</ele>
        <time>2011-06-03T12:07:11Z</time>
      </trkpt>
      <trkpt lat="45.20677" lon="5.06909">
        <ele>340</ele>
        <time>2011-06-03T12:07:12Z</time>
      </trkpt>
      <trkpt lat="45.20689" lon="5.06927">
        <ele>340</ele>
        <time>2011-06-03T12:07:15Z</time>
      </trkpt>
      <trkpt lat="45.20701" lon="5.0695">
        <ele>340</ele>
        <time>2011-06-03T12:07:19Z</time>
      </trkpt>
      <trkpt lat="45.20705" lon="5.06952">
        <ele>340</ele>
        <time>2011-06-03T12:07:20Z</time>
      </trkpt>
      <trkpt lat="45.20729" lon="5.06973">
        <ele>340</ele>
        <time>2011-06-03T12:07:26Z</time>
      </trkpt>
      <trkpt lat="45.20768" lon="5.07018">
        <ele>340</ele>
        <time>2011-06-03T12:07:35Z</time>
      </trkpt>
      <trkpt lat="45.20802" lon="5.07052">
        <ele>340</ele>
        <time>2011-06-03T12:07:42Z</time>
      </trkpt>
      <trkpt lat="45.20845" lon="5.07081">
        <ele>340</ele>
        <time>2011-06-03T12:07:50Z</time>
      </trkpt>
      <trkpt lat="45.20883" lon="5.07109">
        <ele>340</ele>
        <time>2011-06-03T12:07:58Z</time>
      </trkpt>
      <trkpt lat="45.20922" lon="5.07137">
        <ele>340</ele>
        <time>2011-06-03T12:08:06Z</time>
      </trkpt>
      <trkpt lat="45.20958" lon="5.07158">
        <ele>340</ele>
        <time>2011-06-03T12:08:13Z</time>
      </trkpt>
      <trkpt lat="45.20998" lon="5.07171">
        <ele>340</ele>
        <time>2011-06-03T12:08:21Z</time>
      </trkpt>
      <trkpt lat="45.21023" lon="5.07178">
        <ele>340</ele>
        <time>2011-06-03T12:08:27Z</time>
      </trkpt>
      <trkpt lat="45.21044" lon="5.07185">
        <ele>341.19427490234</ele>
        <time>2011-06-03T12:08:33Z</time>
      </trkpt>
      <trkpt lat="45.21077" lon="5.07193">
        <ele>343.43811035156</ele>
        <time>2011-06-03T12:08:41Z</time>
      </trkpt>
      <trkpt lat="45.21111" lon="5.07208">
        <ele>344.99523925781</ele>
        <time>2011-06-03T12:08:49Z</time>
      </trkpt>
      <trkpt lat="45.21131" lon="5.07219">
        <ele>345.67504882812</ele>
        <time>2011-06-03T12:08:54Z</time>
      </trkpt>
      <trkpt lat="45.21167" lon="5.07238">
        <ele>346.27066040039</ele>
        <time>2011-06-03T12:09:03Z</time>
      </trkpt>
      <trkpt lat="45.2119" lon="5.07251">
        <ele>346.57794189453</ele>
        <time>2011-06-03T12:09:09Z</time>
      </trkpt>
      <trkpt lat="45.21214" lon="5.07264">
        <ele>347.58093261719</ele>
        <time>2011-06-03T12:09:15Z</time>
      </trkpt>
      <trkpt lat="45.21241" lon="5.07288">
        <ele>347.61730957031</ele>
        <time>2011-06-03T12:09:22Z</time>
      </trkpt>
      <trkpt lat="45.21273" lon="5.07319">
        <ele>348.04956054688</ele>
        <time>2011-06-03T12:09:30Z</time>
      </trkpt>
      <trkpt lat="45.21301" lon="5.07344">
        <ele>349.93838500977</ele>
        <time>2011-06-03T12:09:37Z</time>
      </trkpt>
      <trkpt lat="45.21342" lon="5.07367">
        <ele>353.80715942383</ele>
        <time>2011-06-03T12:09:46Z</time>
      </trkpt>
      <trkpt lat="45.21383" lon="5.07387">
        <ele>354.76940917969</ele>
        <time>2011-06-03T12:09:55Z</time>
      </trkpt>
      <trkpt lat="45.21426" lon="5.07408">
        <ele>358.03918457031</ele>
        <time>2011-06-03T12:10:04Z</time>
      </trkpt>
      <trkpt lat="45.21473" lon="5.07431">
        <ele>362.54611206055</ele>
        <time>2011-06-03T12:10:13Z</time>
      </trkpt>
      <trkpt lat="45.21516" lon="5.07452">
        <ele>364.20092773438</ele>
        <time>2011-06-03T12:10:21Z</time>
      </trkpt>
      <trkpt lat="45.21559" lon="5.07473">
        <ele>366.02197265625</ele>
        <time>2011-06-03T12:10:29Z</time>
      </trkpt>
      <trkpt lat="45.21595" lon="5.0749">
        <ele>365.03717041016</ele>
        <time>2011-06-03T12:10:36Z</time>
      </trkpt>
      <trkpt lat="45.2164" lon="5.07513">
        <ele>362.58584594727</ele>
        <time>2011-06-03T12:10:45Z</time>
      </trkpt>
      <trkpt lat="45.21693" lon="5.0754">
        <ele>360.55358886719</ele>
        <time>2011-06-03T12:10:56Z</time>
      </trkpt>
      <trkpt lat="45.21738" lon="5.07562">
        <ele>360</ele>
        <time>2011-06-03T12:11:05Z</time>
      </trkpt>
      <trkpt lat="45.21779" lon="5.07582">
        <ele>360</ele>
        <time>2011-06-03T12:11:13Z</time>
      </trkpt>
      <trkpt lat="45.21828" lon="5.07606">
        <ele>360</ele>
        <time>2011-06-03T12:11:23Z</time>
      </trkpt>
      <trkpt lat="45.21855" lon="5.0761">
        <ele>360</ele>
        <time>2011-06-03T12:11:29Z</time>
      </trkpt>
      <trkpt lat="45.21885" lon="5.07603">
        <ele>360</ele>
        <time>2011-06-03T12:11:36Z</time>
      </trkpt>
      <trkpt lat="45.2191" lon="5.0759">
        <ele>363.48211669922</ele>
        <time>2011-06-03T12:11:43Z</time>
      </trkpt>
      <trkpt lat="45.21941" lon="5.07574">
        <ele>367.31066894531</ele>
        <time>2011-06-03T12:11:52Z</time>
      </trkpt>
      <trkpt lat="45.21978" lon="5.07555">
        <ele>372.89587402344</ele>
        <time>2011-06-03T12:12:03Z</time>
      </trkpt>
      <trkpt lat="45.22012" lon="5.07538">
        <ele>377.64398193359</ele>
        <time>2011-06-03T12:12:13Z</time>
      </trkpt>
      <trkpt lat="45.22039" lon="5.07524">
        <ele>379.41888427734</ele>
        <time>2011-06-03T12:12:21Z</time>
      </trkpt>
      <trkpt lat="45.22081" lon="5.07503">
        <ele>380</ele>
        <time>2011-06-03T12:12:33Z</time>
      </trkpt>
      <trkpt lat="45.22113" lon="5.0749">
        <ele>380</ele>
        <time>2011-06-03T12:12:42Z</time>
      </trkpt>
      <trkpt lat="45.22157" lon="5.07472">
        <ele>380</ele>
        <time>2011-06-03T12:12:54Z</time>
      </trkpt>
      <trkpt lat="45.2219" lon="5.07459">
        <ele>380</ele>
        <time>2011-06-03T12:13:03Z</time>
      </trkpt>
      <trkpt lat="45.22226" lon="5.07445">
        <ele>380</ele>
        <time>2011-06-03T12:13:13Z</time>
      </trkpt>
      <trkpt lat="45.22263" lon="5.07431">
        <ele>380</ele>
        <time>2011-06-03T12:13:23Z</time>
      </trkpt>
      <trkpt lat="45.22303" lon="5.0742">
        <ele>380</ele>
        <time>2011-06-03T12:13:34Z</time>
      </trkpt>
      <trkpt lat="45.22334" lon="5.07416">
        <ele>380</ele>
        <time>2011-06-03T12:13:42Z</time>
      </trkpt>
      <trkpt lat="45.22371" lon="5.0742">
        <ele>380.04293823242</ele>
        <time>2011-06-03T12:13:52Z</time>
      </trkpt>
      <trkpt lat="45.22406" lon="5.07435">
        <ele>381.06796264648</ele>
        <time>2011-06-03T12:14:02Z</time>
      </trkpt>
      <trkpt lat="45.2244" lon="5.07452">
        <ele>386.63604736328</ele>
        <time>2011-06-03T12:14:12Z</time>
      </trkpt>
      <trkpt lat="45.22472" lon="5.07469">
        <ele>389.77590942383</ele>
        <time>2011-06-03T12:14:21Z</time>
      </trkpt>
      <trkpt lat="45.22506" lon="5.07497">
        <ele>392.97595214844</ele>
        <time>2011-06-03T12:14:31Z</time>
      </trkpt>
      <trkpt lat="45.22533" lon="5.0753">
        <ele>395.29751586914</ele>
        <time>2011-06-03T12:14:41Z</time>
      </trkpt>
      <trkpt lat="45.22564" lon="5.07568">
        <ele>397.44033813477</ele>
        <time>2011-06-03T12:14:52Z</time>
      </trkpt>
      <trkpt lat="45.22587" lon="5.076">
        <ele>398.66293334961</ele>
        <time>2011-06-03T12:15:01Z</time>
      </trkpt>
      <trkpt lat="45.22615" lon="5.07633">
        <ele>399</ele>
        <time>2011-06-03T12:15:11Z</time>
      </trkpt>
      <trkpt lat="45.22642" lon="5.07654">
        <ele>400.72482299805</ele>
        <time>2011-06-03T12:15:19Z</time>
      </trkpt>
      <trkpt lat="45.22666" lon="5.0767">
        <ele>402.82754516602</ele>
        <time>2011-06-03T12:15:26Z</time>
      </trkpt>
      <trkpt lat="45.227" lon="5.07693">
        <ele>405.77139282227</ele>
        <time>2011-06-03T12:15:36Z</time>
      </trkpt>
      <trkpt lat="45.22735" lon="5.07714">
        <ele>409.46588134766</ele>
        <time>2011-06-03T12:15:46Z</time>
      </trkpt>
      <trkpt lat="45.22767" lon="5.07725">
        <ele>411.51770019531</ele>
        <time>2011-06-03T12:15:55Z</time>
      </trkpt>
      <trkpt lat="45.22797" lon="5.0773">
        <ele>413.4426574707</ele>
        <time>2011-06-03T12:16:03Z</time>
      </trkpt>
      <trkpt lat="45.2283" lon="5.07737">
        <ele>415.10290527344</ele>
        <time>2011-06-03T12:16:12Z</time>
      </trkpt>
      <trkpt lat="45.2286" lon="5.07742">
        <ele>416.86953735352</ele>
        <time>2011-06-03T12:16:20Z</time>
      </trkpt>
      <trkpt lat="45.22886" lon="5.07748">
        <ele>418.64950561523</ele>
        <time>2011-06-03T12:16:27Z</time>
      </trkpt>
      <trkpt lat="45.22928" lon="5.07751">
        <ele>419.0964050293</ele>
        <time>2011-06-03T12:16:38Z</time>
      </trkpt>
      <trkpt lat="45.22964" lon="5.07745">
        <ele>418.94714355469</ele>
        <time>2011-06-03T12:16:47Z</time>
      </trkpt>
      <trkpt lat="45.23005" lon="5.0774">
        <ele>420</ele>
        <time>2011-06-03T12:16:57Z</time>
      </trkpt>
      <trkpt lat="45.23039" lon="5.07745">
        <ele>420</ele>
        <time>2011-06-03T12:17:06Z</time>
      </trkpt>
      <trkpt lat="45.23077" lon="5.07754">
        <ele>420</ele>
        <time>2011-06-03T12:17:16Z</time>
      </trkpt>
      <trkpt lat="45.23116" lon="5.07763">
        <ele>420</ele>
        <time>2011-06-03T12:17:26Z</time>
      </trkpt>
      <trkpt lat="45.23151" lon="5.07772">
        <ele>420</ele>
        <time>2011-06-03T12:17:35Z</time>
      </trkpt>
      <trkpt lat="45.23185" lon="5.07783">
        <ele>420</ele>
        <time>2011-06-03T12:17:44Z</time>
      </trkpt>
      <trkpt lat="45.23212" lon="5.07802">
        <ele>420</ele>
        <time>2011-06-03T12:17:52Z</time>
      </trkpt>
      <trkpt lat="45.23238" lon="5.07826">
        <ele>420</ele>
        <time>2011-06-03T12:18:00Z</time>
      </trkpt>
      <trkpt lat="45.23251" lon="5.07839">
        <ele>420</ele>
        <time>2011-06-03T12:18:04Z</time>
      </trkpt>
      <trkpt lat="45.23274" lon="5.07866">
        <ele>420</ele>
        <time>2011-06-03T12:18:12Z</time>
      </trkpt>
      <trkpt lat="45.23297" lon="5.07897">
        <ele>420</ele>
        <time>2011-06-03T12:18:21Z</time>
      </trkpt>
      <trkpt lat="45.23323" lon="5.07938">
        <ele>420.28793334961</ele>
        <time>2011-06-03T12:18:32Z</time>
      </trkpt>
      <trkpt lat="45.23344" lon="5.07973">
        <ele>422.45895385742</ele>
        <time>2011-06-03T12:18:41Z</time>
      </trkpt>
      <trkpt lat="45.23364" lon="5.08003">
        <ele>425.66116333008</ele>
        <time>2011-06-03T12:18:49Z</time>
      </trkpt>
      <trkpt lat="45.23376" lon="5.08023">
        <ele>428.69061279297</ele>
        <time>2011-06-03T12:18:54Z</time>
      </trkpt>
      <trkpt lat="45.23391" lon="5.08051">
        <ele>431.06713867188</ele>
        <time>2011-06-03T12:19:01Z</time>
      </trkpt>
      <trkpt lat="45.23409" lon="5.08087">
        <ele>434.154296875</ele>
        <time>2011-06-03T12:19:10Z</time>
      </trkpt>
      <trkpt lat="45.23423" lon="5.08115">
        <ele>435.56561279297</ele>
        <time>2011-06-03T12:19:17Z</time>
      </trkpt>
      <trkpt lat="45.23437" lon="5.08143">
        <ele>437.48608398438</ele>
        <time>2011-06-03T12:19:24Z</time>
      </trkpt>
      <trkpt lat="45.23451" lon="5.08176">
        <ele>438.46130371094</ele>
        <time>2011-06-03T12:19:32Z</time>
      </trkpt>
      <trkpt lat="45.23466" lon="5.08217">
        <ele>439.72229003906</ele>
        <time>2011-06-03T12:19:41Z</time>
      </trkpt>
      <trkpt lat="45.23474" lon="5.08252">
        <ele>440</ele>
        <time>2011-06-03T12:19:48Z</time>
      </trkpt>
      <trkpt lat="45.23478" lon="5.08297">
        <ele>440</ele>
        <time>2011-06-03T12:19:56Z</time>
      </trkpt>
      <trkpt lat="45.23478" lon="5.08345">
        <ele>442.30670166016</ele>
        <time>2011-06-03T12:20:05Z</time>
      </trkpt>
      <trkpt lat="45.23478" lon="5.08384">
        <ele>444.61975097656</ele>
        <time>2011-06-03T12:20:12Z</time>
      </trkpt>
      <trkpt lat="45.23477" lon="5.08439">
        <ele>447.61602783203</ele>
        <time>2011-06-03T12:20:22Z</time>
      </trkpt>
      <trkpt lat="45.23476" lon="5.08495">
        <ele>450.79522705078</ele>
        <time>2011-06-03T12:20:32Z</time>
      </trkpt>
      <trkpt lat="45.23476" lon="5.08535">
        <ele>453.42443847656</ele>
        <time>2011-06-03T12:20:40Z</time>
      </trkpt>
      <trkpt lat="45.23477" lon="5.08567">
        <ele>455.33123779297</ele>
        <time>2011-06-03T12:20:46Z</time>
      </trkpt>
      <trkpt lat="45.23476" lon="5.08599">
        <ele>457.05535888672</ele>
        <time>2011-06-03T12:20:53Z</time>
      </trkpt>
      <trkpt lat="45.23476" lon="5.0863">
        <ele>459.21536254883</ele>
        <time>2011-06-03T12:21:00Z</time>
      </trkpt>
      <trkpt lat="45.23475" lon="5.08657">
        <ele>460.52450561523</ele>
        <time>2011-06-03T12:21:06Z</time>
      </trkpt>
      <trkpt lat="45.23473" lon="5.08692">
        <ele>463.68591308594</ele>
        <time>2011-06-03T12:21:14Z</time>
      </trkpt>
      <trkpt lat="45.23475" lon="5.08721">
        <ele>464.97131347656</ele>
        <time>2011-06-03T12:21:21Z</time>
      </trkpt>
      <trkpt lat="45.23483" lon="5.08738">
        <ele>466.67236328125</ele>
        <time>2011-06-03T12:21:26Z</time>
      </trkpt>
      <trkpt lat="45.23493" lon="5.08745">
        <ele>467.45001220703</ele>
        <time>2011-06-03T12:21:32Z</time>
      </trkpt>
      <trkpt lat="45.23504" lon="5.08743">
        <ele>467.83642578125</ele>
        <time>2011-06-03T12:21:37Z</time>
      </trkpt>
      <trkpt lat="45.23517" lon="5.08728">
        <ele>468.07333374023</ele>
        <time>2011-06-03T12:21:42Z</time>
      </trkpt>
      <trkpt lat="45.23525" lon="5.08706">
        <ele>467.49356079102</ele>
        <time>2011-06-03T12:21:47Z</time>
      </trkpt>
      <trkpt lat="45.23537" lon="5.08675">
        <ele>466.95474243164</ele>
        <time>2011-06-03T12:21:54Z</time>
      </trkpt>
      <trkpt lat="45.23554" lon="5.08643">
        <ele>467.078125</ele>
        <time>2011-06-03T12:22:01Z</time>
      </trkpt>
      <trkpt lat="45.23573" lon="5.08626">
        <ele>467.00073242188</ele>
        <time>2011-06-03T12:22:07Z</time>
      </trkpt>
      <trkpt lat="45.23597" lon="5.08617">
        <ele>467.13879394531</ele>
        <time>2011-06-03T12:22:14Z</time>
      </trkpt>
      <trkpt lat="45.23628" lon="5.08618">
        <ele>467.94567871094</ele>
        <time>2011-06-03T12:22:22Z</time>
      </trkpt>
      <trkpt lat="45.23656" lon="5.0863">
        <ele>469.86340332031</ele>
        <time>2011-06-03T12:22:30Z</time>
      </trkpt>
      <trkpt lat="45.23685" lon="5.08642">
        <ele>473.15182495117</ele>
        <time>2011-06-03T12:22:38Z</time>
      </trkpt>
      <trkpt lat="45.23715" lon="5.08655">
        <ele>475.32498168945</ele>
        <time>2011-06-03T12:22:47Z</time>
      </trkpt>
      <trkpt lat="45.23749" lon="5.08672">
        <ele>477.14459228516</ele>
        <time>2011-06-03T12:22:57Z</time>
      </trkpt>
      <trkpt lat="45.23775" lon="5.08691">
        <ele>478.79766845703</ele>
        <time>2011-06-03T12:23:05Z</time>
      </trkpt>
      <trkpt lat="45.23797" lon="5.08717">
        <ele>479.68640136719</ele>
        <time>2011-06-03T12:23:13Z</time>
      </trkpt>
      <trkpt lat="45.23811" lon="5.08742">
        <ele>480.62271118164</ele>
        <time>2011-06-03T12:23:20Z</time>
      </trkpt>
      <trkpt lat="45.23824" lon="5.08779">
        <ele>484.09533691406</ele>
        <time>2011-06-03T12:23:29Z</time>
      </trkpt>
      <trkpt lat="45.23833" lon="5.08809">
        <ele>487.19625854492</ele>
        <time>2011-06-03T12:23:36Z</time>
      </trkpt>
      <trkpt lat="45.23844" lon="5.08837">
        <ele>490.77438354492</ele>
        <time>2011-06-03T12:23:43Z</time>
      </trkpt>
      <trkpt lat="45.23861" lon="5.08879">
        <ele>494.59268188477</ele>
        <time>2011-06-03T12:23:53Z</time>
      </trkpt>
      <trkpt lat="45.23878" lon="5.08914">
        <ele>496.56878662109</ele>
        <time>2011-06-03T12:24:02Z</time>
      </trkpt>
      <trkpt lat="45.23895" lon="5.08936">
        <ele>498.16488647461</ele>
        <time>2011-06-03T12:24:09Z</time>
      </trkpt>
      <trkpt lat="45.239" lon="5.08948">
        <ele>498.78857421875</ele>
        <time>2011-06-03T12:24:12Z</time>
      </trkpt>
      <trkpt lat="45.23895" lon="5.08964">
        <ele>498.458984375</ele>
        <time>2011-06-03T12:24:16Z</time>
      </trkpt>
      <trkpt lat="45.23874" lon="5.08985">
        <ele>498.69821166992</ele>
        <time>2011-06-03T12:24:23Z</time>
      </trkpt>
      <trkpt lat="45.23844" lon="5.09011">
        <ele>500</ele>
        <time>2011-06-03T12:24:32Z</time>
      </trkpt>
      <trkpt lat="45.23813" lon="5.09039">
        <ele>500</ele>
        <time>2011-06-03T12:24:41Z</time>
      </trkpt>
      <trkpt lat="45.23788" lon="5.09063">
        <ele>500.74499511719</ele>
        <time>2011-06-03T12:24:49Z</time>
      </trkpt>
      <trkpt lat="45.23768" lon="5.09083">
        <ele>501.34219360352</ele>
        <time>2011-06-03T12:24:55Z</time>
      </trkpt>
      <trkpt lat="45.23752" lon="5.09102">
        <ele>501.93408203125</ele>
        <time>2011-06-03T12:24:59Z</time>
      </trkpt>
      <trkpt lat="45.2372" lon="5.09148">
        <ele>503</ele>
        <time>2011-06-03T12:25:06Z</time>
      </trkpt>
      <trkpt lat="45.23693" lon="5.09193">
        <ele>503.95111083984</ele>
        <time>2011-06-03T12:25:12Z</time>
      </trkpt>
      <trkpt lat="45.23667" lon="5.09214">
        <ele>504.00244140625</ele>
        <time>2011-06-03T12:25:16Z</time>
      </trkpt>
      <trkpt lat="45.23652" lon="5.0921">
        <ele>504</ele>
        <time>2011-06-03T12:25:19Z</time>
      </trkpt>
      <trkpt lat="45.2365" lon="5.09212">
        <ele>504</ele>
        <time>2011-06-03T12:25:21Z</time>
      </trkpt>
      <trkpt lat="45.2366" lon="5.09216">
        <ele>504</ele>
        <time>2011-06-03T12:25:27Z</time>
      </trkpt>
      <trkpt lat="45.23669" lon="5.09227">
        <ele>504.25415039062</ele>
        <time>2011-06-03T12:25:30Z</time>
      </trkpt>
      <trkpt lat="45.23679" lon="5.09252">
        <ele>505.07971191406</ele>
        <time>2011-06-03T12:25:34Z</time>
      </trkpt>
      <trkpt lat="45.23685" lon="5.09307">
        <ele>506.05895996094</ele>
        <time>2011-06-03T12:25:41Z</time>
      </trkpt>
      <trkpt lat="45.23692" lon="5.0936">
        <ele>507</ele>
        <time>2011-06-03T12:25:48Z</time>
      </trkpt>
      <trkpt lat="45.23696" lon="5.0938">
        <ele>507.69741821289</ele>
        <time>2011-06-03T12:25:51Z</time>
      </trkpt>
      <trkpt lat="45.23706" lon="5.09419">
        <ele>508.10159301758</ele>
        <time>2011-06-03T12:25:58Z</time>
      </trkpt>
      <trkpt lat="45.23714" lon="5.0944">
        <ele>508.82943725586</ele>
        <time>2011-06-03T12:26:02Z</time>
      </trkpt>
      <trkpt lat="45.23706" lon="5.09469">
        <ele>509.51083374023</ele>
        <time>2011-06-03T12:26:07Z</time>
      </trkpt>
      <trkpt lat="45.23702" lon="5.09474">
        <ele>509.73532104492</ele>
        <time>2011-06-03T12:26:08Z</time>
      </trkpt>
      <trkpt lat="45.23681" lon="5.09501">
        <ele>510</ele>
        <time>2011-06-03T12:26:13Z</time>
      </trkpt>
      <trkpt lat="45.23662" lon="5.09548">
        <ele>510</ele>
        <time>2011-06-03T12:26:20Z</time>
      </trkpt>
      <trkpt lat="45.23645" lon="5.096">
        <ele>510</ele>
        <time>2011-06-03T12:26:26Z</time>
      </trkpt>
      <trkpt lat="45.23629" lon="5.09641">
        <ele>509.96893310547</ele>
        <time>2011-06-03T12:26:30Z</time>
      </trkpt>
      <trkpt lat="45.23602" lon="5.09674">
        <ele>508.0478515625</ele>
        <time>2011-06-03T12:26:34Z</time>
      </trkpt>
      <trkpt lat="45.2356" lon="5.09712">
        <ele>504.11810302734</ele>
        <time>2011-06-03T12:26:40Z</time>
      </trkpt>
      <trkpt lat="45.23529" lon="5.09728">
        <ele>501.33547973633</ele>
        <time>2011-06-03T12:26:45Z</time>
      </trkpt>
      <trkpt lat="45.23516" lon="5.09731">
        <ele>499.41342163086</ele>
        <time>2011-06-03T12:26:47Z</time>
      </trkpt>
      <trkpt lat="45.2351" lon="5.09733">
        <ele>498.48559570312</ele>
        <time>2011-06-03T12:26:48Z</time>
      </trkpt>
      <trkpt lat="45.23472" lon="5.09744">
        <ele>495.27645874023</ele>
        <time>2011-06-03T12:26:54Z</time>
      </trkpt>
      <trkpt lat="45.23429" lon="5.09755">
        <ele>491.67553710938</ele>
        <time>2011-06-03T12:27:00Z</time>
      </trkpt>
      <trkpt lat="45.23376" lon="5.09769">
        <ele>485.61401367188</ele>
        <time>2011-06-03T12:27:06Z</time>
      </trkpt>
      <trkpt lat="45.23367" lon="5.09771">
        <ele>484.31628417969</ele>
        <time>2011-06-03T12:27:07Z</time>
      </trkpt>
      <trkpt lat="45.23312" lon="5.09766">
        <ele>478.62994384766</ele>
        <time>2011-06-03T12:27:12Z</time>
      </trkpt>
      <trkpt lat="45.23289" lon="5.0976">
        <ele>473.8620300293</ele>
        <time>2011-06-03T12:27:14Z</time>
      </trkpt>
      <trkpt lat="45.23251" lon="5.09759">
        <ele>468.4792175293</ele>
        <time>2011-06-03T12:27:17Z</time>
      </trkpt>
      <trkpt lat="45.23187" lon="5.09766">
        <ele>464.16067504883</ele>
        <time>2011-06-03T12:27:22Z</time>
      </trkpt>
      <trkpt lat="45.23122" lon="5.09757">
        <ele>461.09487915039</ele>
        <time>2011-06-03T12:27:27Z</time>
      </trkpt>
      <trkpt lat="45.23057" lon="5.09741">
        <ele>460</ele>
        <time>2011-06-03T12:27:32Z</time>
      </trkpt>
      <trkpt lat="45.22995" lon="5.09719">
        <ele>450.50042724609</ele>
        <time>2011-06-03T12:27:37Z</time>
      </trkpt>
      <trkpt lat="45.22973" lon="5.0971">
        <ele>445.22720336914</ele>
        <time>2011-06-03T12:27:39Z</time>
      </trkpt>
      <trkpt lat="45.22963" lon="5.09705">
        <ele>444.08703613281</ele>
        <time>2011-06-03T12:27:40Z</time>
      </trkpt>
      <trkpt lat="45.22934" lon="5.09695">
        <ele>441.29235839844</ele>
        <time>2011-06-03T12:27:43Z</time>
      </trkpt>
      <trkpt lat="45.22906" lon="5.09689">
        <ele>435.9387512207</ele>
        <time>2011-06-03T12:27:46Z</time>
      </trkpt>
      <trkpt lat="45.22855" lon="5.0967">
        <ele>422.7731628418</ele>
        <time>2011-06-03T12:27:52Z</time>
      </trkpt>
      <trkpt lat="45.22819" lon="5.09651">
        <ele>418.97790527344</ele>
        <time>2011-06-03T12:27:56Z</time>
      </trkpt>
      <trkpt lat="45.22792" lon="5.09648">
        <ele>415.63824462891</ele>
        <time>2011-06-03T12:27:59Z</time>
      </trkpt>
      <trkpt lat="45.22764" lon="5.09636">
        <ele>411.09399414062</ele>
        <time>2011-06-03T12:28:03Z</time>
      </trkpt>
      <trkpt lat="45.22731" lon="5.09605">
        <ele>406.74221801758</ele>
        <time>2011-06-03T12:28:08Z</time>
      </trkpt>
      <trkpt lat="45.22707" lon="5.09574">
        <ele>403.48004150391</ele>
        <time>2011-06-03T12:28:13Z</time>
      </trkpt>
      <trkpt lat="45.22703" lon="5.0957">
        <ele>403.2038269043</ele>
        <time>2011-06-03T12:28:14Z</time>
      </trkpt>
      <trkpt lat="45.227" lon="5.09538">
        <ele>405.18707275391</ele>
        <time>2011-06-03T12:28:18Z</time>
      </trkpt>
      <trkpt lat="45.22686" lon="5.09492">
        <ele>405.49359130859</ele>
        <time>2011-06-03T12:28:22Z</time>
      </trkpt>
      <trkpt lat="45.2268" lon="5.09482">
        <ele>405.08511352539</ele>
        <time>2011-06-03T12:28:23Z</time>
      </trkpt>
      <trkpt lat="45.22665" lon="5.09464">
        <ele>403.21533203125</ele>
        <time>2011-06-03T12:28:25Z</time>
      </trkpt>
      <trkpt lat="45.22627" lon="5.09426">
        <ele>404.07318115234</ele>
        <time>2011-06-03T12:28:30Z</time>
      </trkpt>
      <trkpt lat="45.22579" lon="5.09374">
        <ele>403.58374023438</ele>
        <time>2011-06-03T12:28:37Z</time>
      </trkpt>
      <trkpt lat="45.22553" lon="5.09345">
        <ele>402.78747558594</ele>
        <time>2011-06-03T12:28:41Z</time>
      </trkpt>
      <trkpt lat="45.22544" lon="5.09316">
        <ele>403.51458740234</ele>
        <time>2011-06-03T12:28:44Z</time>
      </trkpt>
      <trkpt lat="45.22549" lon="5.09296">
        <ele>405.87622070312</ele>
        <time>2011-06-03T12:28:46Z</time>
      </trkpt>
      <trkpt lat="45.22563" lon="5.09268">
        <ele>408.64343261719</ele>
        <time>2011-06-03T12:28:49Z</time>
      </trkpt>
      <trkpt lat="45.22573" lon="5.09221">
        <ele>411.68273925781</ele>
        <time>2011-06-03T12:28:53Z</time>
      </trkpt>
      <trkpt lat="45.22566" lon="5.09212">
        <ele>411.73425292969</ele>
        <time>2011-06-03T12:28:54Z</time>
      </trkpt>
      <trkpt lat="45.22551" lon="5.09206">
        <ele>411.40124511719</ele>
        <time>2011-06-03T12:28:56Z</time>
      </trkpt>
      <trkpt lat="45.22536" lon="5.09206">
        <ele>410.85534667969</ele>
        <time>2011-06-03T12:28:58Z</time>
      </trkpt>
      <trkpt lat="45.22529" lon="5.09206">
        <ele>410.63220214844</ele>
        <time>2011-06-03T12:28:59Z</time>
      </trkpt>
      <trkpt lat="45.22502" lon="5.09197">
        <ele>408.87274169922</ele>
        <time>2011-06-03T12:29:04Z</time>
      </trkpt>
      <trkpt lat="45.2247" lon="5.09176">
        <ele>409.5417175293</ele>
        <time>2011-06-03T12:29:11Z</time>
      </trkpt>
      <trkpt lat="45.22445" lon="5.09158">
        <ele>410.92126464844</ele>
        <time>2011-06-03T12:29:17Z</time>
      </trkpt>
      <trkpt lat="45.22424" lon="5.09143">
        <ele>411.84826660156</ele>
        <time>2011-06-03T12:29:22Z</time>
      </trkpt>
      <trkpt lat="45.22387" lon="5.09106">
        <ele>414.36630249023</ele>
        <time>2011-06-03T12:29:30Z</time>
      </trkpt>
      <trkpt lat="45.22351" lon="5.09063">
        <ele>415.15777587891</ele>
        <time>2011-06-03T12:29:38Z</time>
      </trkpt>
      <trkpt lat="45.22321" lon="5.09025">
        <ele>416.26623535156</ele>
        <time>2011-06-03T12:29:45Z</time>
      </trkpt>
      <trkpt lat="45.22289" lon="5.08983">
        <ele>417.068359375</ele>
        <time>2011-06-03T12:29:53Z</time>
      </trkpt>
      <trkpt lat="45.22273" lon="5.08957">
        <ele>417.76998901367</ele>
        <time>2011-06-03T12:29:58Z</time>
      </trkpt>
      <trkpt lat="45.22241" lon="5.08902">
        <ele>420.03631591797</ele>
        <time>2011-06-03T12:30:08Z</time>
      </trkpt>
      <trkpt lat="45.22212" lon="5.08865">
        <ele>420.47662353516</ele>
        <time>2011-06-03T12:30:15Z</time>
      </trkpt>
      <trkpt lat="45.2218" lon="5.08838">
        <ele>419.62393188477</ele>
        <time>2011-06-03T12:30:21Z</time>
      </trkpt>
      <trkpt lat="45.2214" lon="5.08807">
        <ele>419.90173339844</ele>
        <time>2011-06-03T12:30:27Z</time>
      </trkpt>
      <trkpt lat="45.221" lon="5.0877">
        <ele>419.31359863281</ele>
        <time>2011-06-03T12:30:33Z</time>
      </trkpt>
      <trkpt lat="45.22071" lon="5.08746">
        <ele>416.81704711914</ele>
        <time>2011-06-03T12:30:37Z</time>
      </trkpt>
      <trkpt lat="45.22054" lon="5.0872">
        <ele>411.63159179688</ele>
        <time>2011-06-03T12:30:40Z</time>
      </trkpt>
      <trkpt lat="45.22042" lon="5.08697">
        <ele>408.20867919922</ele>
        <time>2011-06-03T12:30:43Z</time>
      </trkpt>
      <trkpt lat="45.2203" lon="5.08683">
        <ele>405.06774902344</ele>
        <time>2011-06-03T12:30:46Z</time>
      </trkpt>
      <trkpt lat="45.22009" lon="5.08686">
        <ele>403.88562011719</ele>
        <time>2011-06-03T12:30:49Z</time>
      </trkpt>
      <trkpt lat="45.21993" lon="5.08694">
        <ele>403.46044921875</ele>
        <time>2011-06-03T12:30:51Z</time>
      </trkpt>
      <trkpt lat="45.21933" lon="5.08728">
        <ele>398.00720214844</ele>
        <time>2011-06-03T12:30:58Z</time>
      </trkpt>
      <trkpt lat="45.21884" lon="5.08754">
        <ele>392.10906982422</ele>
        <time>2011-06-03T12:31:03Z</time>
      </trkpt>
      <trkpt lat="45.21835" lon="5.0878">
        <ele>385.287109375</ele>
        <time>2011-06-03T12:31:08Z</time>
      </trkpt>
      <trkpt lat="45.21811" lon="5.08786">
        <ele>381.47888183594</ele>
        <time>2011-06-03T12:31:12Z</time>
      </trkpt>
      <trkpt lat="45.21798" lon="5.08788">
        <ele>376.06372070312</ele>
        <time>2011-06-03T12:31:16Z</time>
      </trkpt>
      <trkpt lat="45.21794" lon="5.0881">
        <ele>373.22006225586</ele>
        <time>2011-06-03T12:31:20Z</time>
      </trkpt>
      <trkpt lat="45.21794" lon="5.08816">
        <ele>372.88989257812</ele>
        <time>2011-06-03T12:31:21Z</time>
      </trkpt>
      <trkpt lat="45.21795" lon="5.08839">
        <ele>372.15072631836</ele>
        <time>2011-06-03T12:31:24Z</time>
      </trkpt>
      <trkpt lat="45.21799" lon="5.08863">
        <ele>372.67150878906</ele>
        <time>2011-06-03T12:31:27Z</time>
      </trkpt>
      <trkpt lat="45.21818" lon="5.08922">
        <ele>375.90219116211</ele>
        <time>2011-06-03T12:31:34Z</time>
      </trkpt>
      <trkpt lat="45.21838" lon="5.08977">
        <ele>377.18490600586</ele>
        <time>2011-06-03T12:31:40Z</time>
      </trkpt>
      <trkpt lat="45.21865" lon="5.09049">
        <ele>376.52160644531</ele>
        <time>2011-06-03T12:31:48Z</time>
      </trkpt>
      <trkpt lat="45.2189" lon="5.09116">
        <ele>375.88958740234</ele>
        <time>2011-06-03T12:31:56Z</time>
      </trkpt>
      <trkpt lat="45.21911" lon="5.0917">
        <ele>375.80462646484</ele>
        <time>2011-06-03T12:32:02Z</time>
      </trkpt>
      <trkpt lat="45.21925" lon="5.0922">
        <ele>376</ele>
        <time>2011-06-03T12:32:07Z</time>
      </trkpt>
      <trkpt lat="45.21933" lon="5.09266">
        <ele>377</ele>
        <time>2011-06-03T12:32:12Z</time>
      </trkpt>
      <trkpt lat="45.21938" lon="5.09301">
        <ele>377</ele>
        <time>2011-06-03T12:32:17Z</time>
      </trkpt>
      <trkpt lat="45.21943" lon="5.0934">
        <ele>378</ele>
        <time>2011-06-03T12:32:24Z</time>
      </trkpt>
      <trkpt lat="45.21942" lon="5.09367">
        <ele>378</ele>
        <time>2011-06-03T12:32:29Z</time>
      </trkpt>
      <trkpt lat="45.21939" lon="5.09387">
        <ele>378</ele>
        <time>2011-06-03T12:32:33Z</time>
      </trkpt>
      <trkpt lat="45.21934" lon="5.09424">
        <ele>378</ele>
        <time>2011-06-03T12:32:40Z</time>
      </trkpt>
      <trkpt lat="45.21928" lon="5.09457">
        <ele>378</ele>
        <time>2011-06-03T12:32:46Z</time>
      </trkpt>
      <trkpt lat="45.21924" lon="5.09483">
        <ele>378.40185546875</ele>
        <time>2011-06-03T12:32:52Z</time>
      </trkpt>
      <trkpt lat="45.21917" lon="5.09521">
        <ele>379</ele>
        <time>2011-06-03T12:33:00Z</time>
      </trkpt>
      <trkpt lat="45.21912" lon="5.09549">
        <ele>379.60287475586</ele>
        <time>2011-06-03T12:33:06Z</time>
      </trkpt>
      <trkpt lat="45.21906" lon="5.09589">
        <ele>379.73107910156</ele>
        <time>2011-06-03T12:33:15Z</time>
      </trkpt>
      <trkpt lat="45.21903" lon="5.09623">
        <ele>380.84271240234</ele>
        <time>2011-06-03T12:33:22Z</time>
      </trkpt>
      <trkpt lat="45.21903" lon="5.09663">
        <ele>382.87924194336</ele>
        <time>2011-06-03T12:33:30Z</time>
      </trkpt>
      <trkpt lat="45.21902" lon="5.09722">
        <ele>388.17840576172</ele>
        <time>2011-06-03T12:33:41Z</time>
      </trkpt>
      <trkpt lat="45.219" lon="5.09768">
        <ele>392.07260131836</ele>
        <time>2011-06-03T12:33:50Z</time>
      </trkpt>
      <trkpt lat="45.21898" lon="5.09823">
        <ele>395.75216674805</ele>
        <time>2011-06-03T12:34:00Z</time>
      </trkpt>
      <trkpt lat="45.21898" lon="5.09846">
        <ele>397.36520385742</ele>
        <time>2011-06-03T12:34:05Z</time>
      </trkpt>
      <trkpt lat="45.21898" lon="5.09876">
        <ele>399.54153442383</ele>
        <time>2011-06-03T12:34:11Z</time>
      </trkpt>
      <trkpt lat="45.21898" lon="5.09917">
        <ele>400.67541503906</ele>
        <time>2011-06-03T12:34:18Z</time>
      </trkpt>
      <trkpt lat="45.21901" lon="5.09967">
        <ele>401.26031494141</ele>
        <time>2011-06-03T12:34:27Z</time>
      </trkpt>
      <trkpt lat="45.21902" lon="5.10003">
        <ele>401.90014648438</ele>
        <time>2011-06-03T12:34:34Z</time>
      </trkpt>
      <trkpt lat="45.21901" lon="5.10029">
        <ele>401.84222412109</ele>
        <time>2011-06-03T12:34:39Z</time>
      </trkpt>
      <trkpt lat="45.21905" lon="5.10091">
        <ele>403.92449951172</ele>
        <time>2011-06-03T12:34:49Z</time>
      </trkpt>
      <trkpt lat="45.21907" lon="5.10134">
        <ele>405.01907348633</ele>
        <time>2011-06-03T12:34:56Z</time>
      </trkpt>
      <trkpt lat="45.21908" lon="5.10179">
        <ele>405.70739746094</ele>
        <time>2011-06-03T12:35:03Z</time>
      </trkpt>
      <trkpt lat="45.21914" lon="5.10235">
        <ele>407.91424560547</ele>
        <time>2011-06-03T12:35:11Z</time>
      </trkpt>
      <trkpt lat="45.21925" lon="5.10276">
        <ele>410.2509765625</ele>
        <time>2011-06-03T12:35:18Z</time>
      </trkpt>
      <trkpt lat="45.21936" lon="5.10311">
        <ele>412.6657409668</ele>
        <time>2011-06-03T12:35:25Z</time>
      </trkpt>
      <trkpt lat="45.21952" lon="5.10362">
        <ele>413.68524169922</ele>
        <time>2011-06-03T12:35:36Z</time>
      </trkpt>
      <trkpt lat="45.21959" lon="5.10379">
        <ele>414.06231689453</ele>
        <time>2011-06-03T12:35:40Z</time>
      </trkpt>
      <trkpt lat="45.21972" lon="5.10424">
        <ele>414.69073486328</ele>
        <time>2011-06-03T12:35:50Z</time>
      </trkpt>
      <trkpt lat="45.21977" lon="5.10442">
        <ele>415.18966674805</ele>
        <time>2011-06-03T12:35:54Z</time>
      </trkpt>
      <trkpt lat="45.21988" lon="5.10476">
        <ele>416.89367675781</ele>
        <time>2011-06-03T12:36:01Z</time>
      </trkpt>
      <trkpt lat="45.22005" lon="5.10527">
        <ele>419.52044677734</ele>
        <time>2011-06-03T12:36:10Z</time>
      </trkpt>
      <trkpt lat="45.22025" lon="5.10593">
        <ele>419.61206054688</ele>
        <time>2011-06-03T12:36:20Z</time>
      </trkpt>
      <trkpt lat="45.22041" lon="5.10648">
        <ele>420.61489868164</ele>
        <time>2011-06-03T12:36:28Z</time>
      </trkpt>
      <trkpt lat="45.2205" lon="5.10683">
        <ele>420.20553588867</ele>
        <time>2011-06-03T12:36:33Z</time>
      </trkpt>
      <trkpt lat="45.22063" lon="5.10749">
        <ele>420.30499267578</ele>
        <time>2011-06-03T12:36:42Z</time>
      </trkpt>
      <trkpt lat="45.22078" lon="5.10828">
        <ele>419.06900024414</ele>
        <time>2011-06-03T12:36:52Z</time>
      </trkpt>
      <trkpt lat="45.22094" lon="5.10908">
        <ele>417.49841308594</ele>
        <time>2011-06-03T12:37:02Z</time>
      </trkpt>
      <trkpt lat="45.22111" lon="5.10983">
        <ele>416.20611572266</ele>
        <time>2011-06-03T12:37:12Z</time>
      </trkpt>
      <trkpt lat="45.22126" lon="5.11049">
        <ele>414.65588378906</ele>
        <time>2011-06-03T12:37:21Z</time>
      </trkpt>
      <trkpt lat="45.22143" lon="5.11101">
        <ele>415.42150878906</ele>
        <time>2011-06-03T12:37:28Z</time>
      </trkpt>
      <trkpt lat="45.22164" lon="5.11157">
        <ele>417.72863769531</ele>
        <time>2011-06-03T12:37:35Z</time>
      </trkpt>
      <trkpt lat="45.22195" lon="5.1123">
        <ele>419.02191162109</ele>
        <time>2011-06-03T12:37:44Z</time>
      </trkpt>
      <trkpt lat="45.22224" lon="5.1128">
        <ele>420</ele>
        <time>2011-06-03T12:37:51Z</time>
      </trkpt>
      <trkpt lat="45.22255" lon="5.11325">
        <ele>420</ele>
        <time>2011-06-03T12:37:58Z</time>
      </trkpt>
      <trkpt lat="45.22287" lon="5.11366">
        <ele>420</ele>
        <time>2011-06-03T12:38:04Z</time>
      </trkpt>
      <trkpt lat="45.22292" lon="5.11374">
        <ele>420</ele>
        <time>2011-06-03T12:38:05Z</time>
      </trkpt>
      <trkpt lat="45.223" lon="5.11395">
        <ele>420</ele>
        <time>2011-06-03T12:38:07Z</time>
      </trkpt>
      <trkpt lat="45.22301" lon="5.11432">
        <ele>420</ele>
        <time>2011-06-03T12:38:10Z</time>
      </trkpt>
      <trkpt lat="45.22299" lon="5.11445">
        <ele>420</ele>
        <time>2011-06-03T12:38:11Z</time>
      </trkpt>
      <trkpt lat="45.22282" lon="5.11483">
        <ele>420</ele>
        <time>2011-06-03T12:38:15Z</time>
      </trkpt>
      <trkpt lat="45.22272" lon="5.11492">
        <ele>420</ele>
        <time>2011-06-03T12:38:17Z</time>
      </trkpt>
      <trkpt lat="45.22244" lon="5.11506">
        <ele>420</ele>
        <time>2011-06-03T12:38:24Z</time>
      </trkpt>
      <trkpt lat="45.22226" lon="5.11514">
        <ele>420</ele>
        <time>2011-06-03T12:38:29Z</time>
      </trkpt>
      <trkpt lat="45.22202" lon="5.11531">
        <ele>420</ele>
        <time>2011-06-03T12:38:37Z</time>
      </trkpt>
      <trkpt lat="45.2219" lon="5.11547">
        <ele>419.84338378906</ele>
        <time>2011-06-03T12:38:43Z</time>
      </trkpt>
      <trkpt lat="45.22181" lon="5.11568">
        <ele>419.50006103516</ele>
        <time>2011-06-03T12:38:49Z</time>
      </trkpt>
      <trkpt lat="45.2217" lon="5.11599">
        <ele>420.76293945312</ele>
        <time>2011-06-03T12:38:57Z</time>
      </trkpt>
      <trkpt lat="45.22158" lon="5.11641">
        <ele>426.59494018555</ele>
        <time>2011-06-03T12:39:08Z</time>
      </trkpt>
      <trkpt lat="45.22149" lon="5.1167">
        <ele>429.18920898438</ele>
        <time>2011-06-03T12:39:16Z</time>
      </trkpt>
      <trkpt lat="45.22139" lon="5.11702">
        <ele>432.54071044922</ele>
        <time>2011-06-03T12:39:25Z</time>
      </trkpt>
      <trkpt lat="45.22133" lon="5.1172">
        <ele>433.23080444336</ele>
        <time>2011-06-03T12:39:30Z</time>
      </trkpt>
      <trkpt lat="45.22125" lon="5.11746">
        <ele>435.10696411133</ele>
        <time>2011-06-03T12:39:38Z</time>
      </trkpt>
      <trkpt lat="45.22116" lon="5.11772">
        <ele>435.60794067383</ele>
        <time>2011-06-03T12:39:46Z</time>
      </trkpt>
      <trkpt lat="45.22107" lon="5.118">
        <ele>437.12258911133</ele>
        <time>2011-06-03T12:39:54Z</time>
      </trkpt>
      <trkpt lat="45.221" lon="5.11823">
        <ele>438.22137451172</ele>
        <time>2011-06-03T12:40:01Z</time>
      </trkpt>
      <trkpt lat="45.22095" lon="5.11844">
        <ele>439.38632202148</ele>
        <time>2011-06-03T12:40:07Z</time>
      </trkpt>
      <trkpt lat="45.2209" lon="5.11875">
        <ele>441.76397705078</ele>
        <time>2011-06-03T12:40:15Z</time>
      </trkpt>
      <trkpt lat="45.22086" lon="5.11905">
        <ele>443.63671875</ele>
        <time>2011-06-03T12:40:23Z</time>
      </trkpt>
      <trkpt lat="45.22081" lon="5.11937">
        <ele>446.68692016602</ele>
        <time>2011-06-03T12:40:31Z</time>
      </trkpt>
      <trkpt lat="45.22075" lon="5.1197">
        <ele>448.70791625977</ele>
        <time>2011-06-03T12:40:39Z</time>
      </trkpt>
      <trkpt lat="45.22071" lon="5.12003">
        <ele>451.96099853516</ele>
        <time>2011-06-03T12:40:47Z</time>
      </trkpt>
      <trkpt lat="45.22065" lon="5.12041">
        <ele>453.85119628906</ele>
        <time>2011-06-03T12:40:57Z</time>
      </trkpt>
      <trkpt lat="45.22062" lon="5.12069">
        <ele>455.27728271484</ele>
        <time>2011-06-03T12:41:05Z</time>
      </trkpt>
      <trkpt lat="45.22058" lon="5.12097">
        <ele>456.84057617188</ele>
        <time>2011-06-03T12:41:13Z</time>
      </trkpt>
      <trkpt lat="45.22055" lon="5.12102">
        <ele>457.01568603516</ele>
        <time>2011-06-03T12:41:15Z</time>
      </trkpt>
      <trkpt lat="45.22057" lon="5.12105">
        <ele>457.53201293945</ele>
        <time>2011-06-03T12:41:19Z</time>
      </trkpt>
      <trkpt lat="45.22057" lon="5.12102">
        <ele>457.30282592773</ele>
        <time>2011-06-03T12:41:20Z</time>
      </trkpt>
      <trkpt lat="45.22068" lon="5.12085">
        <ele>457.38061523438</ele>
        <time>2011-06-03T12:41:25Z</time>
      </trkpt>
      <trkpt lat="45.22085" lon="5.12066">
        <ele>460.20080566406</ele>
        <time>2011-06-03T12:41:31Z</time>
      </trkpt>
      <trkpt lat="45.22097" lon="5.12044">
        <ele>460.27529907227</ele>
        <time>2011-06-03T12:41:37Z</time>
      </trkpt>
      <trkpt lat="45.22099" lon="5.12042">
        <ele>460.24453735352</ele>
        <time>2011-06-03T12:41:40Z</time>
      </trkpt>
      <trkpt lat="45.22095" lon="5.12043">
        <ele>459.79266357422</ele>
        <time>2011-06-03T12:41:50Z</time>
      </trkpt>
      <trkpt lat="45.22089" lon="5.12056">
        <ele>460.58154296875</ele>
        <time>2011-06-03T12:41:56Z</time>
      </trkpt>
      <trkpt lat="45.22076" lon="5.12076">
        <ele>458.6233215332</ele>
        <time>2011-06-03T12:42:02Z</time>
      </trkpt>
      <trkpt lat="45.22063" lon="5.1209">
        <ele>457.01763916016</ele>
        <time>2011-06-03T12:42:07Z</time>
      </trkpt>
      <trkpt lat="45.22055" lon="5.12107">
        <ele>457.5393371582</ele>
        <time>2011-06-03T12:42:11Z</time>
      </trkpt>
      <trkpt lat="45.22049" lon="5.12141">
        <ele>459.85067749023</ele>
        <time>2011-06-03T12:42:19Z</time>
      </trkpt>
      <trkpt lat="45.22044" lon="5.12168">
        <ele>461.29956054688</ele>
        <time>2011-06-03T12:42:26Z</time>
      </trkpt>
      <trkpt lat="45.22039" lon="5.12199">
        <ele>463.083984375</ele>
        <time>2011-06-03T12:42:34Z</time>
      </trkpt>
      <trkpt lat="45.22033" lon="5.1223">
        <ele>464.78082275391</ele>
        <time>2011-06-03T12:42:42Z</time>
      </trkpt>
      <trkpt lat="45.22026" lon="5.12253">
        <ele>466.29336547852</ele>
        <time>2011-06-03T12:42:48Z</time>
      </trkpt>
      <trkpt lat="45.22024" lon="5.12276">
        <ele>468.03845214844</ele>
        <time>2011-06-03T12:42:54Z</time>
      </trkpt>
      <trkpt lat="45.22023" lon="5.123">
        <ele>469.93243408203</ele>
        <time>2011-06-03T12:43:00Z</time>
      </trkpt>
      <trkpt lat="45.22022" lon="5.12329">
        <ele>471.26989746094</ele>
        <time>2011-06-03T12:43:07Z</time>
      </trkpt>
      <trkpt lat="45.22022" lon="5.12354">
        <ele>473.67572021484</ele>
        <time>2011-06-03T12:43:13Z</time>
      </trkpt>
      <trkpt lat="45.22025" lon="5.12383">
        <ele>475.80825805664</ele>
        <time>2011-06-03T12:43:19Z</time>
      </trkpt>
      <trkpt lat="45.22031" lon="5.12419">
        <ele>477.357421875</ele>
        <time>2011-06-03T12:43:27Z</time>
      </trkpt>
      <trkpt lat="45.22039" lon="5.12448">
        <ele>480.19076538086</ele>
        <time>2011-06-03T12:43:34Z</time>
      </trkpt>
      <trkpt lat="45.22059" lon="5.12489">
        <ele>483.3193359375</ele>
        <time>2011-06-03T12:43:45Z</time>
      </trkpt>
      <trkpt lat="45.22077" lon="5.12523">
        <ele>485.58181762695</ele>
        <time>2011-06-03T12:43:55Z</time>
      </trkpt>
      <trkpt lat="45.22086" lon="5.12552">
        <ele>488.01736450195</ele>
        <time>2011-06-03T12:44:03Z</time>
      </trkpt>
      <trkpt lat="45.22089" lon="5.12577">
        <ele>489.39855957031</ele>
        <time>2011-06-03T12:44:10Z</time>
      </trkpt>
      <trkpt lat="45.22086" lon="5.12598">
        <ele>490.34503173828</ele>
        <time>2011-06-03T12:44:16Z</time>
      </trkpt>
      <trkpt lat="45.22082" lon="5.12619">
        <ele>491.5693359375</ele>
        <time>2011-06-03T12:44:22Z</time>
      </trkpt>
      <trkpt lat="45.22079" lon="5.12645">
        <ele>493.23739624023</ele>
        <time>2011-06-03T12:44:29Z</time>
      </trkpt>
      <trkpt lat="45.2208" lon="5.12668">
        <ele>494.10211181641</ele>
        <time>2011-06-03T12:44:35Z</time>
      </trkpt>
      <trkpt lat="45.22083" lon="5.12694">
        <ele>495.97668457031</ele>
        <time>2011-06-03T12:44:42Z</time>
      </trkpt>
      <trkpt lat="45.22086" lon="5.12716">
        <ele>497.0094909668</ele>
        <time>2011-06-03T12:44:48Z</time>
      </trkpt>
      <trkpt lat="45.22091" lon="5.12746">
        <ele>499.02038574219</ele>
        <time>2011-06-03T12:44:57Z</time>
      </trkpt>
      <trkpt lat="45.22093" lon="5.1277">
        <ele>499.82318115234</ele>
        <time>2011-06-03T12:45:04Z</time>
      </trkpt>
      <trkpt lat="45.22099" lon="5.12792">
        <ele>500</ele>
        <time>2011-06-03T12:45:10Z</time>
      </trkpt>
      <trkpt lat="45.22111" lon="5.12818">
        <ele>500</ele>
        <time>2011-06-03T12:45:18Z</time>
      </trkpt>
      <trkpt lat="45.22122" lon="5.12837">
        <ele>500</ele>
        <time>2011-06-03T12:45:24Z</time>
      </trkpt>
      <trkpt lat="45.22136" lon="5.12862">
        <ele>500.02395629883</ele>
        <time>2011-06-03T12:45:32Z</time>
      </trkpt>
      <trkpt lat="45.22154" lon="5.1289">
        <ele>501</ele>
        <time>2011-06-03T12:45:41Z</time>
      </trkpt>
      <trkpt lat="45.22177" lon="5.12912">
        <ele>501</ele>
        <time>2011-06-03T12:45:50Z</time>
      </trkpt>
      <trkpt lat="45.22198" lon="5.12928">
        <ele>501</ele>
        <time>2011-06-03T12:45:57Z</time>
      </trkpt>
      <trkpt lat="45.22226" lon="5.1295">
        <ele>501</ele>
        <time>2011-06-03T12:46:05Z</time>
      </trkpt>
      <trkpt lat="45.22258" lon="5.12978">
        <ele>501</ele>
        <time>2011-06-03T12:46:14Z</time>
      </trkpt>
      <trkpt lat="45.22288" lon="5.13">
        <ele>501</ele>
        <time>2011-06-03T12:46:22Z</time>
      </trkpt>
      <trkpt lat="45.22322" lon="5.13013">
        <ele>501</ele>
        <time>2011-06-03T12:46:30Z</time>
      </trkpt>
      <trkpt lat="45.22355" lon="5.13019">
        <ele>501</ele>
        <time>2011-06-03T12:46:38Z</time>
      </trkpt>
      <trkpt lat="45.2238" lon="5.13028">
        <ele>501</ele>
        <time>2011-06-03T12:46:44Z</time>
      </trkpt>
      <trkpt lat="45.224" lon="5.13051">
        <ele>501</ele>
        <time>2011-06-03T12:46:50Z</time>
      </trkpt>
      <trkpt lat="45.22409" lon="5.13081">
        <ele>501</ele>
        <time>2011-06-03T12:46:55Z</time>
      </trkpt>
      <trkpt lat="45.22406" lon="5.13105">
        <ele>501</ele>
        <time>2011-06-03T12:46:59Z</time>
      </trkpt>
      <trkpt lat="45.22404" lon="5.13138">
        <ele>501.96484375</ele>
        <time>2011-06-03T12:47:04Z</time>
      </trkpt>
      <trkpt lat="45.22409" lon="5.13167">
        <ele>502</ele>
        <time>2011-06-03T12:47:09Z</time>
      </trkpt>
      <trkpt lat="45.22412" lon="5.13191">
        <ele>502</ele>
        <time>2011-06-03T12:47:14Z</time>
      </trkpt>
      <trkpt lat="45.22425" lon="5.13207">
        <ele>502</ele>
        <time>2011-06-03T12:47:19Z</time>
      </trkpt>
      <trkpt lat="45.22451" lon="5.13222">
        <ele>502</ele>
        <time>2011-06-03T12:47:26Z</time>
      </trkpt>
      <trkpt lat="45.22455" lon="5.13224">
        <ele>502</ele>
        <time>2011-06-03T12:47:27Z</time>
      </trkpt>
      <trkpt lat="45.22471" lon="5.13231">
        <ele>502</ele>
        <time>2011-06-03T12:47:31Z</time>
      </trkpt>
      <trkpt lat="45.22488" lon="5.13239">
        <ele>502.34164428711</ele>
        <time>2011-06-03T12:47:35Z</time>
      </trkpt>
      <trkpt lat="45.22525" lon="5.13256">
        <ele>503</ele>
        <time>2011-06-03T12:47:43Z</time>
      </trkpt>
      <trkpt lat="45.22554" lon="5.1328">
        <ele>504.00778198242</ele>
        <time>2011-06-03T12:47:50Z</time>
      </trkpt>
      <trkpt lat="45.22587" lon="5.13309">
        <ele>505.25204467773</ele>
        <time>2011-06-03T12:47:59Z</time>
      </trkpt>
      <trkpt lat="45.22611" lon="5.13331">
        <ele>506.0041809082</ele>
        <time>2011-06-03T12:48:06Z</time>
      </trkpt>
      <trkpt lat="45.22636" lon="5.13352">
        <ele>506.88342285156</ele>
        <time>2011-06-03T12:48:13Z</time>
      </trkpt>
      <trkpt lat="45.22675" lon="5.13386">
        <ele>508.93814086914</ele>
        <time>2011-06-03T12:48:24Z</time>
      </trkpt>
      <trkpt lat="45.2271" lon="5.13417">
        <ele>510.00299072266</ele>
        <time>2011-06-03T12:48:33Z</time>
      </trkpt>
      <trkpt lat="45.2273" lon="5.13434">
        <ele>509.46313476562</ele>
        <time>2011-06-03T12:48:38Z</time>
      </trkpt>
      <trkpt lat="45.22775" lon="5.13473">
        <ele>508.95782470703</ele>
        <time>2011-06-03T12:48:49Z</time>
      </trkpt>
      <trkpt lat="45.22808" lon="5.13502">
        <ele>512.07299804688</ele>
        <time>2011-06-03T12:48:57Z</time>
      </trkpt>
      <trkpt lat="45.22823" lon="5.13519">
        <ele>513.10491943359</ele>
        <time>2011-06-03T12:49:01Z</time>
      </trkpt>
      <trkpt lat="45.22839" lon="5.13555">
        <ele>516.14947509766</ele>
        <time>2011-06-03T12:49:07Z</time>
      </trkpt>
      <trkpt lat="45.22859" lon="5.13598">
        <ele>519.46234130859</ele>
        <time>2011-06-03T12:49:15Z</time>
      </trkpt>
      <trkpt lat="45.22883" lon="5.1363">
        <ele>520</ele>
        <time>2011-06-03T12:49:21Z</time>
      </trkpt>
      <trkpt lat="45.22923" lon="5.13669">
        <ele>520</ele>
        <time>2011-06-03T12:49:29Z</time>
      </trkpt>
      <trkpt lat="45.22941" lon="5.13693">
        <ele>520</ele>
        <time>2011-06-03T12:49:33Z</time>
      </trkpt>
      <trkpt lat="45.22949" lon="5.13705">
        <ele>520</ele>
        <time>2011-06-03T12:49:35Z</time>
      </trkpt>
      <trkpt lat="45.22971" lon="5.13765">
        <ele>520</ele>
        <time>2011-06-03T12:49:43Z</time>
      </trkpt>
      <trkpt lat="45.22983" lon="5.13792">
        <ele>519.69830322266</ele>
        <time>2011-06-03T12:49:47Z</time>
      </trkpt>
      <trkpt lat="45.23009" lon="5.13821">
        <ele>519.06958007812</ele>
        <time>2011-06-03T12:49:53Z</time>
      </trkpt>
      <trkpt lat="45.23046" lon="5.13848">
        <ele>518.12377929688</ele>
        <time>2011-06-03T12:50:01Z</time>
      </trkpt>
      <trkpt lat="45.23056" lon="5.13853">
        <ele>517.951171875</ele>
        <time>2011-06-03T12:50:03Z</time>
      </trkpt>
      <trkpt lat="45.23089" lon="5.13876">
        <ele>517.13922119141</ele>
        <time>2011-06-03T12:50:10Z</time>
      </trkpt>
      <trkpt lat="45.23129" lon="5.13913">
        <ele>515.65771484375</ele>
        <time>2011-06-03T12:50:18Z</time>
      </trkpt>
      <trkpt lat="45.23162" lon="5.13944">
        <ele>514.68615722656</ele>
        <time>2011-06-03T12:50:25Z</time>
      </trkpt>
      <trkpt lat="45.23205" lon="5.13973">
        <ele>517.09600830078</ele>
        <time>2011-06-03T12:50:34Z</time>
      </trkpt>
      <trkpt lat="45.23215" lon="5.13979">
        <ele>517.64337158203</ele>
        <time>2011-06-03T12:50:36Z</time>
      </trkpt>
      <trkpt lat="45.23229" lon="5.13989">
        <ele>518.14849853516</ele>
        <time>2011-06-03T12:50:39Z</time>
      </trkpt>
      <trkpt lat="45.2326" lon="5.14028">
        <ele>518.70520019531</ele>
        <time>2011-06-03T12:50:47Z</time>
      </trkpt>
      <trkpt lat="45.23286" lon="5.14072">
        <ele>517.99243164062</ele>
        <time>2011-06-03T12:50:55Z</time>
      </trkpt>
      <trkpt lat="45.23309" lon="5.1411">
        <ele>518.14678955078</ele>
        <time>2011-06-03T12:51:03Z</time>
      </trkpt>
      <trkpt lat="45.23331" lon="5.14149">
        <ele>518.48681640625</ele>
        <time>2011-06-03T12:51:12Z</time>
      </trkpt>
      <trkpt lat="45.23345" lon="5.14174">
        <ele>518.85327148438</ele>
        <time>2011-06-03T12:51:19Z</time>
      </trkpt>
      <trkpt lat="45.2336" lon="5.14201">
        <ele>519.94641113281</ele>
        <time>2011-06-03T12:51:26Z</time>
      </trkpt>
      <trkpt lat="45.23378" lon="5.14233">
        <ele>520</ele>
        <time>2011-06-03T12:51:34Z</time>
      </trkpt>
      <trkpt lat="45.23402" lon="5.14276">
        <ele>520</ele>
        <time>2011-06-03T12:51:44Z</time>
      </trkpt>
      <trkpt lat="45.23429" lon="5.1432">
        <ele>520</ele>
        <time>2011-06-03T12:51:54Z</time>
      </trkpt>
      <trkpt lat="45.23451" lon="5.14356">
        <ele>520</ele>
        <time>2011-06-03T12:52:01Z</time>
      </trkpt>
      <trkpt lat="45.23478" lon="5.14398">
        <ele>520</ele>
        <time>2011-06-03T12:52:08Z</time>
      </trkpt>
      <trkpt lat="45.2351" lon="5.14451">
        <ele>519.64074707031</ele>
        <time>2011-06-03T12:52:16Z</time>
      </trkpt>
      <trkpt lat="45.23547" lon="5.14509">
        <ele>519</ele>
        <time>2011-06-03T12:52:25Z</time>
      </trkpt>
      <trkpt lat="45.23567" lon="5.1454">
        <ele>519.44018554688</ele>
        <time>2011-06-03T12:52:30Z</time>
      </trkpt>
      <trkpt lat="45.23602" lon="5.14598">
        <ele>520</ele>
        <time>2011-06-03T12:52:39Z</time>
      </trkpt>
      <trkpt lat="45.2364" lon="5.1466">
        <ele>520</ele>
        <time>2011-06-03T12:52:48Z</time>
      </trkpt>
      <trkpt lat="45.23652" lon="5.1468">
        <ele>520</ele>
        <time>2011-06-03T12:52:51Z</time>
      </trkpt>
      <trkpt lat="45.23661" lon="5.14699">
        <ele>520</ele>
        <time>2011-06-03T12:52:55Z</time>
      </trkpt>
      <trkpt lat="45.23661" lon="5.14698">
        <ele>520</ele>
        <time>2011-06-03T12:52:56Z</time>
      </trkpt>
      <trkpt lat="45.2366" lon="5.14692">
        <ele>520</ele>
        <time>2011-06-03T12:53:00Z</time>
      </trkpt>
      <trkpt lat="45.2365" lon="5.14678">
        <ele>520</ele>
        <time>2011-06-03T12:53:06Z</time>
      </trkpt>
      <trkpt lat="45.2365" lon="5.14674">
        <ele>520</ele>
        <time>2011-06-03T12:53:10Z</time>
      </trkpt>
      <trkpt lat="45.2365" lon="5.14673">
        <ele>520</ele>
        <time>2011-06-03T12:53:11Z</time>
      </trkpt>
      <trkpt lat="45.23654" lon="5.14678">
        <ele>520</ele>
        <time>2011-06-03T12:53:46Z</time>
      </trkpt>
      <trkpt lat="45.2366" lon="5.14692">
        <ele>520</ele>
        <time>2011-06-03T12:53:51Z</time>
      </trkpt>
      <trkpt lat="45.23662" lon="5.14702">
        <ele>520</ele>
        <time>2011-06-03T12:53:53Z</time>
      </trkpt>
      <trkpt lat="45.23676" lon="5.1474">
        <ele>520</ele>
        <time>2011-06-03T12:54:00Z</time>
      </trkpt>
      <trkpt lat="45.2369" lon="5.14776">
        <ele>520</ele>
        <time>2011-06-03T12:54:06Z</time>
      </trkpt>
      <trkpt lat="45.23708" lon="5.1482">
        <ele>520</ele>
        <time>2011-06-03T12:54:12Z</time>
      </trkpt>
      <trkpt lat="45.23728" lon="5.14881">
        <ele>519.93682861328</ele>
        <time>2011-06-03T12:54:19Z</time>
      </trkpt>
      <trkpt lat="45.2375" lon="5.1494">
        <ele>520</ele>
        <time>2011-06-03T12:54:26Z</time>
      </trkpt>
      <trkpt lat="45.23783" lon="5.15011">
        <ele>519.88122558594</ele>
        <time>2011-06-03T12:54:35Z</time>
      </trkpt>
      <trkpt lat="45.23816" lon="5.15066">
        <ele>520</ele>
        <time>2011-06-03T12:54:43Z</time>
      </trkpt>
      <trkpt lat="45.23866" lon="5.15129">
        <ele>520</ele>
        <time>2011-06-03T12:54:54Z</time>
      </trkpt>
      <trkpt lat="45.23909" lon="5.15186">
        <ele>520</ele>
        <time>2011-06-03T12:55:04Z</time>
      </trkpt>
      <trkpt lat="45.23949" lon="5.15237">
        <ele>520</ele>
        <time>2011-06-03T12:55:13Z</time>
      </trkpt>
      <trkpt lat="45.23984" lon="5.15282">
        <ele>520</ele>
        <time>2011-06-03T12:55:21Z</time>
      </trkpt>
      <trkpt lat="45.24033" lon="5.15343">
        <ele>520</ele>
        <time>2011-06-03T12:55:32Z</time>
      </trkpt>
      <trkpt lat="45.24075" lon="5.15396">
        <ele>520</ele>
        <time>2011-06-03T12:55:41Z</time>
      </trkpt>
      <trkpt lat="45.24114" lon="5.15446">
        <ele>520</ele>
        <time>2011-06-03T12:55:49Z</time>
      </trkpt>
      <trkpt lat="45.24167" lon="5.15515">
        <ele>520</ele>
        <time>2011-06-03T12:56:00Z</time>
      </trkpt>
      <trkpt lat="45.24216" lon="5.1558">
        <ele>520</ele>
        <time>2011-06-03T12:56:10Z</time>
      </trkpt>
      <trkpt lat="45.2424" lon="5.15615">
        <ele>520.70318603516</ele>
        <time>2011-06-03T12:56:15Z</time>
      </trkpt>
      <trkpt lat="45.24277" lon="5.15699">
        <ele>523.14721679688</ele>
        <time>2011-06-03T12:56:25Z</time>
      </trkpt>
      <trkpt lat="45.24297" lon="5.15736">
        <ele>524.17681884766</ele>
        <time>2011-06-03T12:56:30Z</time>
      </trkpt>
      <trkpt lat="45.24339" lon="5.1578">
        <ele>524.12359619141</ele>
        <time>2011-06-03T12:56:38Z</time>
      </trkpt>
      <trkpt lat="45.24376" lon="5.15818">
        <ele>524.57928466797</ele>
        <time>2011-06-03T12:56:45Z</time>
      </trkpt>
      <trkpt lat="45.24409" lon="5.15855">
        <ele>525.66418457031</ele>
        <time>2011-06-03T12:56:52Z</time>
      </trkpt>
      <trkpt lat="45.24417" lon="5.15864">
        <ele>526.02630615234</ele>
        <time>2011-06-03T12:56:54Z</time>
      </trkpt>
      <trkpt lat="45.24434" lon="5.1588">
        <ele>526.18756103516</ele>
        <time>2011-06-03T12:56:58Z</time>
      </trkpt>
      <trkpt lat="45.24441" lon="5.15887">
        <ele>526.05621337891</ele>
        <time>2011-06-03T12:57:00Z</time>
      </trkpt>
      <trkpt lat="45.24466" lon="5.15917">
        <ele>527.56274414062</ele>
        <time>2011-06-03T12:57:07Z</time>
      </trkpt>
      <trkpt lat="45.24483" lon="5.15935">
        <ele>528.35467529297</ele>
        <time>2011-06-03T12:57:12Z</time>
      </trkpt>
      <trkpt lat="45.24494" lon="5.15947">
        <ele>529.32928466797</ele>
        <time>2011-06-03T12:57:16Z</time>
      </trkpt>
      <trkpt lat="45.24519" lon="5.15978">
        <ele>530</ele>
        <time>2011-06-03T12:57:24Z</time>
      </trkpt>
      <trkpt lat="45.2454" lon="5.16002">
        <ele>530</ele>
        <time>2011-06-03T12:57:30Z</time>
      </trkpt>
      <trkpt lat="45.24571" lon="5.16038">
        <ele>529.43579101562</ele>
        <time>2011-06-03T12:57:38Z</time>
      </trkpt>
      <trkpt lat="45.24599" lon="5.1607">
        <ele>528.41955566406</ele>
        <time>2011-06-03T12:57:45Z</time>
      </trkpt>
      <trkpt lat="45.2463" lon="5.16107">
        <ele>528</ele>
        <time>2011-06-03T12:57:52Z</time>
      </trkpt>
      <trkpt lat="45.24644" lon="5.16144">
        <ele>529.03503417969</ele>
        <time>2011-06-03T12:57:57Z</time>
      </trkpt>
      <trkpt lat="45.24646" lon="5.16152">
        <ele>529.12426757812</ele>
        <time>2011-06-03T12:57:58Z</time>
      </trkpt>
      <trkpt lat="45.24658" lon="5.16234">
        <ele>530</ele>
        <time>2011-06-03T12:58:08Z</time>
      </trkpt>
      <trkpt lat="45.24665" lon="5.16288">
        <ele>530</ele>
        <time>2011-06-03T12:58:14Z</time>
      </trkpt>
      <trkpt lat="45.24673" lon="5.16349">
        <ele>530</ele>
        <time>2011-06-03T12:58:21Z</time>
      </trkpt>
      <trkpt lat="45.24683" lon="5.16421">
        <ele>530</ele>
        <time>2011-06-03T12:58:30Z</time>
      </trkpt>
      <trkpt lat="45.2469" lon="5.16468">
        <ele>530</ele>
        <time>2011-06-03T12:58:36Z</time>
      </trkpt>
      <trkpt lat="45.24702" lon="5.16522">
        <ele>530</ele>
        <time>2011-06-03T12:58:42Z</time>
      </trkpt>
      <trkpt lat="45.24733" lon="5.16622">
        <ele>530</ele>
        <time>2011-06-03T12:58:53Z</time>
      </trkpt>
      <trkpt lat="45.24761" lon="5.16709">
        <ele>530</ele>
        <time>2011-06-03T12:59:03Z</time>
      </trkpt>
      <trkpt lat="45.24781" lon="5.16772">
        <ele>530</ele>
        <time>2011-06-03T12:59:10Z</time>
      </trkpt>
      <trkpt lat="45.24791" lon="5.16806">
        <ele>530</ele>
        <time>2011-06-03T12:59:14Z</time>
      </trkpt>
      <trkpt lat="45.24802" lon="5.16863">
        <ele>530</ele>
        <time>2011-06-03T12:59:20Z</time>
      </trkpt>
      <trkpt lat="45.24804" lon="5.16922">
        <ele>530</ele>
        <time>2011-06-03T12:59:26Z</time>
      </trkpt>
      <trkpt lat="45.24807" lon="5.16979">
        <ele>530</ele>
        <time>2011-06-03T12:59:32Z</time>
      </trkpt>
      <trkpt lat="45.24816" lon="5.17038">
        <ele>530</ele>
        <time>2011-06-03T12:59:38Z</time>
      </trkpt>
      <trkpt lat="45.24832" lon="5.17114">
        <ele>530</ele>
        <time>2011-06-03T12:59:46Z</time>
      </trkpt>
      <trkpt lat="45.2484" lon="5.1716">
        <ele>530</ele>
        <time>2011-06-03T12:59:51Z</time>
      </trkpt>
      <trkpt lat="45.24846" lon="5.17216">
        <ele>530</ele>
        <time>2011-06-03T12:59:57Z</time>
      </trkpt>
      <trkpt lat="45.2485" lon="5.17287">
        <ele>530</ele>
        <time>2011-06-03T13:00:05Z</time>
      </trkpt>
      <trkpt lat="45.24848" lon="5.17352">
        <ele>530</ele>
        <time>2011-06-03T13:00:12Z</time>
      </trkpt>
      <trkpt lat="45.24843" lon="5.17424">
        <ele>530.18139648438</ele>
        <time>2011-06-03T13:00:20Z</time>
      </trkpt>
      <trkpt lat="45.24846" lon="5.17476">
        <ele>531.14111328125</ele>
        <time>2011-06-03T13:00:26Z</time>
      </trkpt>
      <trkpt lat="45.24851" lon="5.1753">
        <ele>531.50354003906</ele>
        <time>2011-06-03T13:00:33Z</time>
      </trkpt>
      <trkpt lat="45.24857" lon="5.17578">
        <ele>531.43267822266</ele>
        <time>2011-06-03T13:00:40Z</time>
      </trkpt>
      <trkpt lat="45.24863" lon="5.17639">
        <ele>530.91638183594</ele>
        <time>2011-06-03T13:00:49Z</time>
      </trkpt>
      <trkpt lat="45.24866" lon="5.17695">
        <ele>530.80267333984</ele>
        <time>2011-06-03T13:00:57Z</time>
      </trkpt>
      <trkpt lat="45.24867" lon="5.17756">
        <ele>531.00469970703</ele>
        <time>2011-06-03T13:01:05Z</time>
      </trkpt>
      <trkpt lat="45.24867" lon="5.17802">
        <ele>533.21771240234</ele>
        <time>2011-06-03T13:01:11Z</time>
      </trkpt>
      <trkpt lat="45.24873" lon="5.17857">
        <ele>532.77856445312</ele>
        <time>2011-06-03T13:01:18Z</time>
      </trkpt>
      <trkpt lat="45.24891" lon="5.17928">
        <ele>531.64862060547</ele>
        <time>2011-06-03T13:01:27Z</time>
      </trkpt>
      <trkpt lat="45.24912" lon="5.18008">
        <ele>531.47503662109</ele>
        <time>2011-06-03T13:01:37Z</time>
      </trkpt>
      <trkpt lat="45.24934" lon="5.1806">
        <ele>532.84497070312</ele>
        <time>2011-06-03T13:01:44Z</time>
      </trkpt>
      <trkpt lat="45.24963" lon="5.18109">
        <ele>533.2998046875</ele>
        <time>2011-06-03T13:01:51Z</time>
      </trkpt>
      <trkpt lat="45.24987" lon="5.18151">
        <ele>534.81506347656</ele>
        <time>2011-06-03T13:01:57Z</time>
      </trkpt>
      <trkpt lat="45.24996" lon="5.18176">
        <ele>536.31896972656</ele>
        <time>2011-06-03T13:02:00Z</time>
      </trkpt>
      <trkpt lat="45.25011" lon="5.18259">
        <ele>538.13916015625</ele>
        <time>2011-06-03T13:02:09Z</time>
      </trkpt>
      <trkpt lat="45.25026" lon="5.18345">
        <ele>540</ele>
        <time>2011-06-03T13:02:18Z</time>
      </trkpt>
      <trkpt lat="45.25043" lon="5.18433">
        <ele>538.16217041016</ele>
        <time>2011-06-03T13:02:27Z</time>
      </trkpt>
      <trkpt lat="45.25055" lon="5.185">
        <ele>540</ele>
        <time>2011-06-03T13:02:34Z</time>
      </trkpt>
      <trkpt lat="45.25063" lon="5.18548">
        <ele>539.39593505859</ele>
        <time>2011-06-03T13:02:39Z</time>
      </trkpt>
      <trkpt lat="45.25075" lon="5.18619">
        <ele>540</ele>
        <time>2011-06-03T13:02:46Z</time>
      </trkpt>
      <trkpt lat="45.25088" lon="5.18688">
        <ele>539.48864746094</ele>
        <time>2011-06-03T13:02:53Z</time>
      </trkpt>
      <trkpt lat="45.25097" lon="5.18747">
        <ele>539.95263671875</ele>
        <time>2011-06-03T13:02:59Z</time>
      </trkpt>
      <trkpt lat="45.25107" lon="5.18813">
        <ele>540</ele>
        <time>2011-06-03T13:03:05Z</time>
      </trkpt>
      <trkpt lat="45.25103" lon="5.1886">
        <ele>539.30810546875</ele>
        <time>2011-06-03T13:03:09Z</time>
      </trkpt>
      <trkpt lat="45.25082" lon="5.18939">
        <ele>540</ele>
        <time>2011-06-03T13:03:17Z</time>
      </trkpt>
      <trkpt lat="45.25069" lon="5.18983">
        <ele>537.57696533203</ele>
        <time>2011-06-03T13:03:23Z</time>
      </trkpt>
      <trkpt lat="45.25056" lon="5.1902">
        <ele>537.56182861328</ele>
        <time>2011-06-03T13:03:30Z</time>
      </trkpt>
      <trkpt lat="45.2504" lon="5.1906">
        <ele>536.68591308594</ele>
        <time>2011-06-03T13:03:38Z</time>
      </trkpt>
      <trkpt lat="45.25023" lon="5.19105">
        <ele>537.75854492188</ele>
        <time>2011-06-03T13:03:47Z</time>
      </trkpt>
      <trkpt lat="45.25007" lon="5.19144">
        <ele>540.44244384766</ele>
        <time>2011-06-03T13:03:55Z</time>
      </trkpt>
      <trkpt lat="45.24991" lon="5.1919">
        <ele>543.6591796875</ele>
        <time>2011-06-03T13:04:04Z</time>
      </trkpt>
      <trkpt lat="45.24987" lon="5.192">
        <ele>543.93383789062</ele>
        <time>2011-06-03T13:04:06Z</time>
      </trkpt>
      <trkpt lat="45.24979" lon="5.19249">
        <ele>544.5380859375</ele>
        <time>2011-06-03T13:04:14Z</time>
      </trkpt>
      <trkpt lat="45.24976" lon="5.19293">
        <ele>544.86517333984</ele>
        <time>2011-06-03T13:04:21Z</time>
      </trkpt>
      <trkpt lat="45.24972" lon="5.19353">
        <ele>546.01623535156</ele>
        <time>2011-06-03T13:04:30Z</time>
      </trkpt>
      <trkpt lat="45.24969" lon="5.19397">
        <ele>546.25219726562</ele>
        <time>2011-06-03T13:04:37Z</time>
      </trkpt>
      <trkpt lat="45.24961" lon="5.19403">
        <ele>546.82897949219</ele>
        <time>2011-06-03T13:04:42Z</time>
      </trkpt>
      <trkpt lat="45.2496" lon="5.19403">
        <ele>546.8564453125</ele>
        <time>2011-06-03T13:04:44Z</time>
      </trkpt>
      <trkpt lat="45.24969" lon="5.1941">
        <ele>546.25219726562</ele>
        <time>2011-06-03T13:04:54Z</time>
      </trkpt>
      <trkpt lat="45.24968" lon="5.19417">
        <ele>546.33459472656</ele>
        <time>2011-06-03T13:04:56Z</time>
      </trkpt>
      <trkpt lat="45.24963" lon="5.19444">
        <ele>546.63671875</ele>
        <time>2011-06-03T13:05:03Z</time>
      </trkpt>
      <trkpt lat="45.2496" lon="5.19456">
        <ele>547.03173828125</ele>
        <time>2011-06-03T13:05:06Z</time>
      </trkpt>
      <trkpt lat="45.2495" lon="5.19484">
        <ele>548.39703369141</ele>
        <time>2011-06-03T13:05:12Z</time>
      </trkpt>
      <trkpt lat="45.24935" lon="5.1952">
        <ele>551.05694580078</ele>
        <time>2011-06-03T13:05:19Z</time>
      </trkpt>
      <trkpt lat="45.24926" lon="5.19537">
        <ele>551.68731689453</ele>
        <time>2011-06-03T13:05:22Z</time>
      </trkpt>
      <trkpt lat="45.24899" lon="5.19594">
        <ele>552.58508300781</ele>
        <time>2011-06-03T13:05:31Z</time>
      </trkpt>
      <trkpt lat="45.24881" lon="5.19621">
        <ele>553.45373535156</ele>
        <time>2011-06-03T13:05:36Z</time>
      </trkpt>
      <trkpt lat="45.24852" lon="5.19649">
        <ele>555.88079833984</ele>
        <time>2011-06-03T13:05:42Z</time>
      </trkpt>
      <trkpt lat="45.2483" lon="5.19663">
        <ele>557.46514892578</ele>
        <time>2011-06-03T13:05:45Z</time>
      </trkpt>
      <trkpt lat="45.24804" lon="5.19694">
        <ele>558.09210205078</ele>
        <time>2011-06-03T13:05:49Z</time>
      </trkpt>
      <trkpt lat="45.24805" lon="5.19716">
        <ele>557.22863769531</ele>
        <time>2011-06-03T13:05:51Z</time>
      </trkpt>
      <trkpt lat="45.2482" lon="5.1974">
        <ele>556.17443847656</ele>
        <time>2011-06-03T13:05:54Z</time>
      </trkpt>
      <trkpt lat="45.24829" lon="5.19768">
        <ele>554.67041015625</ele>
        <time>2011-06-03T13:05:58Z</time>
      </trkpt>
      <trkpt lat="45.24829" lon="5.19773">
        <ele>554.46270751953</ele>
        <time>2011-06-03T13:05:59Z</time>
      </trkpt>
      <trkpt lat="45.24828" lon="5.19785">
        <ele>553.90051269531</ele>
        <time>2011-06-03T13:06:01Z</time>
      </trkpt>
      <trkpt lat="45.24828" lon="5.19835">
        <ele>552.28948974609</ele>
        <time>2011-06-03T13:06:09Z</time>
      </trkpt>
      <trkpt lat="45.24828" lon="5.19842">
        <ele>552.05432128906</ele>
        <time>2011-06-03T13:06:10Z</time>
      </trkpt>
      <trkpt lat="45.24827" lon="5.19862">
        <ele>551.44836425781</ele>
        <time>2011-06-03T13:06:13Z</time>
      </trkpt>
      <trkpt lat="45.24826" lon="5.19904">
        <ele>550.00811767578</ele>
        <time>2011-06-03T13:06:19Z</time>
      </trkpt>
      <trkpt lat="45.24824" lon="5.19924">
        <ele>549.49035644531</ele>
        <time>2011-06-03T13:06:22Z</time>
      </trkpt>
      <trkpt lat="45.24813" lon="5.19964">
        <ele>549.53558349609</ele>
        <time>2011-06-03T13:06:28Z</time>
      </trkpt>
      <trkpt lat="45.24795" lon="5.20018">
        <ele>549.47552490234</ele>
        <time>2011-06-03T13:06:35Z</time>
      </trkpt>
      <trkpt lat="45.2479" lon="5.20034">
        <ele>549.43603515625</ele>
        <time>2011-06-03T13:06:37Z</time>
      </trkpt>
      <trkpt lat="45.24773" lon="5.20083">
        <ele>550.55541992188</ele>
        <time>2011-06-03T13:06:44Z</time>
      </trkpt>
      <trkpt lat="45.24753" lon="5.20143">
        <ele>551.43969726562</ele>
        <time>2011-06-03T13:06:53Z</time>
      </trkpt>
      <trkpt lat="45.24741" lon="5.20181">
        <ele>552.34490966797</ele>
        <time>2011-06-03T13:06:59Z</time>
      </trkpt>
      <trkpt lat="45.24728" lon="5.20221">
        <ele>554.53210449219</ele>
        <time>2011-06-03T13:07:06Z</time>
      </trkpt>
      <trkpt lat="45.24718" lon="5.20252">
        <ele>555.54705810547</ele>
        <time>2011-06-03T13:07:11Z</time>
      </trkpt>
      <trkpt lat="45.24708" lon="5.20284">
        <ele>557.25024414062</ele>
        <time>2011-06-03T13:07:16Z</time>
      </trkpt>
      <trkpt lat="45.24705" lon="5.20314">
        <ele>558.23107910156</ele>
        <time>2011-06-03T13:07:20Z</time>
      </trkpt>
      <trkpt lat="45.24707" lon="5.20333">
        <ele>558.06628417969</ele>
        <time>2011-06-03T13:07:23Z</time>
      </trkpt>
      <trkpt lat="45.24717" lon="5.20362">
        <ele>558.17608642578</ele>
        <time>2011-06-03T13:07:28Z</time>
      </trkpt>
      <trkpt lat="45.24724" lon="5.20382">
        <ele>558</ele>
        <time>2011-06-03T13:07:31Z</time>
      </trkpt>
      <trkpt lat="45.24729" lon="5.20396">
        <ele>558.30676269531</ele>
        <time>2011-06-03T13:07:33Z</time>
      </trkpt>
      <trkpt lat="45.2474" lon="5.2043">
        <ele>559.93402099609</ele>
        <time>2011-06-03T13:07:38Z</time>
      </trkpt>
      <trkpt lat="45.24749" lon="5.20458">
        <ele>561.38055419922</ele>
        <time>2011-06-03T13:07:42Z</time>
      </trkpt>
      <trkpt lat="45.2477" lon="5.20512">
        <ele>564.43572998047</ele>
        <time>2011-06-03T13:07:49Z</time>
      </trkpt>
      <trkpt lat="45.24788" lon="5.20564">
        <ele>566.73785400391</ele>
        <time>2011-06-03T13:07:56Z</time>
      </trkpt>
      <trkpt lat="45.24808" lon="5.20621">
        <ele>568.2744140625</ele>
        <time>2011-06-03T13:08:04Z</time>
      </trkpt>
      <trkpt lat="45.24812" lon="5.20635">
        <ele>568.62634277344</ele>
        <time>2011-06-03T13:08:06Z</time>
      </trkpt>
      <trkpt lat="45.24829" lon="5.20686">
        <ele>569.15234375</ele>
        <time>2011-06-03T13:08:14Z</time>
      </trkpt>
      <trkpt lat="45.24833" lon="5.20701">
        <ele>569.24481201172</ele>
        <time>2011-06-03T13:08:17Z</time>
      </trkpt>
      <trkpt lat="45.24841" lon="5.20724">
        <ele>569.73236083984</ele>
        <time>2011-06-03T13:08:21Z</time>
      </trkpt>
      <trkpt lat="45.24853" lon="5.20764">
        <ele>570</ele>
        <time>2011-06-03T13:08:27Z</time>
      </trkpt>
      <trkpt lat="45.24858" lon="5.20783">
        <ele>570.02465820312</ele>
        <time>2011-06-03T13:08:30Z</time>
      </trkpt>
      <trkpt lat="45.24869" lon="5.20819">
        <ele>570.34375</ele>
        <time>2011-06-03T13:08:35Z</time>
      </trkpt>
      <trkpt lat="45.24886" lon="5.20866">
        <ele>571</ele>
        <time>2011-06-03T13:08:42Z</time>
      </trkpt>
      <trkpt lat="45.24907" lon="5.20913">
        <ele>571.85015869141</ele>
        <time>2011-06-03T13:08:50Z</time>
      </trkpt>
      <trkpt lat="45.24931" lon="5.20957">
        <ele>572.46203613281</ele>
        <time>2011-06-03T13:08:58Z</time>
      </trkpt>
      <trkpt lat="45.24956" lon="5.20997">
        <ele>573.36859130859</ele>
        <time>2011-06-03T13:09:05Z</time>
      </trkpt>
      <trkpt lat="45.2498" lon="5.21035">
        <ele>575.26013183594</ele>
        <time>2011-06-03T13:09:11Z</time>
      </trkpt>
      <trkpt lat="45.25014" lon="5.21084">
        <ele>576.53295898438</ele>
        <time>2011-06-03T13:09:19Z</time>
      </trkpt>
      <trkpt lat="45.25048" lon="5.21132">
        <ele>578</ele>
        <time>2011-06-03T13:09:27Z</time>
      </trkpt>
      <trkpt lat="45.2508" lon="5.21185">
        <ele>578</ele>
        <time>2011-06-03T13:09:35Z</time>
      </trkpt>
      <trkpt lat="45.25101" lon="5.21241">
        <ele>578.88751220703</ele>
        <time>2011-06-03T13:09:41Z</time>
      </trkpt>
      <trkpt lat="45.2513" lon="5.21315">
        <ele>578.33081054688</ele>
        <time>2011-06-03T13:09:48Z</time>
      </trkpt>
      <trkpt lat="45.25144" lon="5.21361">
        <ele>577.64538574219</ele>
        <time>2011-06-03T13:09:53Z</time>
      </trkpt>
      <trkpt lat="45.25147" lon="5.21378">
        <ele>577.42565917969</ele>
        <time>2011-06-03T13:09:55Z</time>
      </trkpt>
      <trkpt lat="45.25147" lon="5.21446">
        <ele>575.62805175781</ele>
        <time>2011-06-03T13:10:03Z</time>
      </trkpt>
      <trkpt lat="45.25141" lon="5.21532">
        <ele>573.71270751953</ele>
        <time>2011-06-03T13:10:12Z</time>
      </trkpt>
      <trkpt lat="45.25123" lon="5.21582">
        <ele>573.22174072266</ele>
        <time>2011-06-03T13:10:18Z</time>
      </trkpt>
      <trkpt lat="45.25116" lon="5.21597">
        <ele>573.16510009766</ele>
        <time>2011-06-03T13:10:20Z</time>
      </trkpt>
      <trkpt lat="45.25105" lon="5.21649">
        <ele>572.33630371094</ele>
        <time>2011-06-03T13:10:26Z</time>
      </trkpt>
      <trkpt lat="45.25102" lon="5.21695">
        <ele>570.69329833984</ele>
        <time>2011-06-03T13:10:31Z</time>
      </trkpt>
      <trkpt lat="45.25098" lon="5.21727">
        <ele>572.13006591797</ele>
        <time>2011-06-03T13:10:36Z</time>
      </trkpt>
      <trkpt lat="45.25095" lon="5.21747">
        <ele>573.06048583984</ele>
        <time>2011-06-03T13:10:41Z</time>
      </trkpt>
      <trkpt lat="45.25096" lon="5.21752">
        <ele>573.16174316406</ele>
        <time>2011-06-03T13:10:42Z</time>
      </trkpt>
      <trkpt lat="45.25108" lon="5.21777">
        <ele>573.16864013672</ele>
        <time>2011-06-03T13:10:47Z</time>
      </trkpt>
      <trkpt lat="45.25118" lon="5.21799">
        <ele>573.205078125</ele>
        <time>2011-06-03T13:10:51Z</time>
      </trkpt>
      <trkpt lat="45.25126" lon="5.21846">
        <ele>574.30706787109</ele>
        <time>2011-06-03T13:10:58Z</time>
      </trkpt>
      <trkpt lat="45.25126" lon="5.21852">
        <ele>574.7216796875</ele>
        <time>2011-06-03T13:10:59Z</time>
      </trkpt>
      <trkpt lat="45.25131" lon="5.21878">
        <ele>575.93835449219</ele>
        <time>2011-06-03T13:11:03Z</time>
      </trkpt>
      <trkpt lat="45.25138" lon="5.21898">
        <ele>576.98937988281</ele>
        <time>2011-06-03T13:11:06Z</time>
      </trkpt>
      <trkpt lat="45.25164" lon="5.21934">
        <ele>579.29431152344</ele>
        <time>2011-06-03T13:11:13Z</time>
      </trkpt>
      <trkpt lat="45.25191" lon="5.21965">
        <ele>580</ele>
        <time>2011-06-03T13:11:20Z</time>
      </trkpt>
      <trkpt lat="45.25209" lon="5.21987">
        <ele>580</ele>
        <time>2011-06-03T13:11:25Z</time>
      </trkpt>
      <trkpt lat="45.25216" lon="5.22016">
        <ele>580</ele>
        <time>2011-06-03T13:11:30Z</time>
      </trkpt>
      <trkpt lat="45.25212" lon="5.22026">
        <ele>580</ele>
        <time>2011-06-03T13:11:32Z</time>
      </trkpt>
      <trkpt lat="45.25183" lon="5.22063">
        <ele>580</ele>
        <time>2011-06-03T13:11:40Z</time>
      </trkpt>
      <trkpt lat="45.25167" lon="5.22085">
        <ele>580</ele>
        <time>2011-06-03T13:11:45Z</time>
      </trkpt>
      <trkpt lat="45.25141" lon="5.2212">
        <ele>580</ele>
        <time>2011-06-03T13:11:53Z</time>
      </trkpt>
      <trkpt lat="45.25122" lon="5.22162">
        <ele>580</ele>
        <time>2011-06-03T13:12:01Z</time>
      </trkpt>
      <trkpt lat="45.25109" lon="5.22215">
        <ele>580</ele>
        <time>2011-06-03T13:12:09Z</time>
      </trkpt>
      <trkpt lat="45.25099" lon="5.22276">
        <ele>580</ele>
        <time>2011-06-03T13:12:17Z</time>
      </trkpt>
      <trkpt lat="45.25082" lon="5.2234">
        <ele>580.03369140625</ele>
        <time>2011-06-03T13:12:25Z</time>
      </trkpt>
      <trkpt lat="45.25066" lon="5.22407">
        <ele>581.27990722656</ele>
        <time>2011-06-03T13:12:33Z</time>
      </trkpt>
      <trkpt lat="45.25054" lon="5.22458">
        <ele>582.09985351562</ele>
        <time>2011-06-03T13:12:39Z</time>
      </trkpt>
      <trkpt lat="45.25034" lon="5.22506">
        <ele>583.68518066406</ele>
        <time>2011-06-03T13:12:45Z</time>
      </trkpt>
      <trkpt lat="45.25019" lon="5.22541">
        <ele>585.77801513672</ele>
        <time>2011-06-03T13:12:49Z</time>
      </trkpt>
      <trkpt lat="45.24999" lon="5.22568">
        <ele>588.08239746094</ele>
        <time>2011-06-03T13:12:53Z</time>
      </trkpt>
      <trkpt lat="45.24982" lon="5.22585">
        <ele>589.35021972656</ele>
        <time>2011-06-03T13:12:56Z</time>
      </trkpt>
      <trkpt lat="45.24965" lon="5.22614">
        <ele>591.74908447266</ele>
        <time>2011-06-03T13:13:00Z</time>
      </trkpt>
      <trkpt lat="45.24947" lon="5.22665">
        <ele>594.52764892578</ele>
        <time>2011-06-03T13:13:07Z</time>
      </trkpt>
      <trkpt lat="45.24932" lon="5.22698">
        <ele>596.29217529297</ele>
        <time>2011-06-03T13:13:13Z</time>
      </trkpt>
      <trkpt lat="45.24915" lon="5.22728">
        <ele>598.30590820312</ele>
        <time>2011-06-03T13:13:20Z</time>
      </trkpt>
      <trkpt lat="45.24895" lon="5.22745">
        <ele>599.75317382812</ele>
        <time>2011-06-03T13:13:27Z</time>
      </trkpt>
      <trkpt lat="45.24871" lon="5.22757">
        <ele>600</ele>
        <time>2011-06-03T13:13:34Z</time>
      </trkpt>
      <trkpt lat="45.24854" lon="5.22781">
        <ele>600</ele>
        <time>2011-06-03T13:13:41Z</time>
      </trkpt>
      <trkpt lat="45.24836" lon="5.22808">
        <ele>600</ele>
        <time>2011-06-03T13:13:48Z</time>
      </trkpt>
      <trkpt lat="45.24823" lon="5.22829">
        <ele>600</ele>
        <time>2011-06-03T13:13:53Z</time>
      </trkpt>
      <trkpt lat="45.24812" lon="5.22866">
        <ele>600.14099121094</ele>
        <time>2011-06-03T13:14:00Z</time>
      </trkpt>
      <trkpt lat="45.24797" lon="5.22924">
        <ele>601.31964111328</ele>
        <time>2011-06-03T13:14:09Z</time>
      </trkpt>
      <trkpt lat="45.24781" lon="5.22981">
        <ele>601.88269042969</ele>
        <time>2011-06-03T13:14:17Z</time>
      </trkpt>
      <trkpt lat="45.24762" lon="5.2305">
        <ele>602.58306884766</ele>
        <time>2011-06-03T13:14:26Z</time>
      </trkpt>
      <trkpt lat="45.24745" lon="5.23107">
        <ele>603.89202880859</ele>
        <time>2011-06-03T13:14:34Z</time>
      </trkpt>
      <trkpt lat="45.24723" lon="5.23172">
        <ele>604.95635986328</ele>
        <time>2011-06-03T13:14:43Z</time>
      </trkpt>
      <trkpt lat="45.24713" lon="5.23206">
        <ele>605.34088134766</ele>
        <time>2011-06-03T13:14:47Z</time>
      </trkpt>
      <trkpt lat="45.2471" lon="5.23245">
        <ele>605.43701171875</ele>
        <time>2011-06-03T13:14:51Z</time>
      </trkpt>
      <trkpt lat="45.24718" lon="5.23305">
        <ele>606.12127685547</ele>
        <time>2011-06-03T13:14:58Z</time>
      </trkpt>
      <trkpt lat="45.24726" lon="5.23344">
        <ele>608.79833984375</ele>
        <time>2011-06-03T13:15:03Z</time>
      </trkpt>
      <trkpt lat="45.24741" lon="5.23375">
        <ele>611.01275634766</ele>
        <time>2011-06-03T13:15:08Z</time>
      </trkpt>
      <trkpt lat="45.24771" lon="5.23407">
        <ele>613.32678222656</ele>
        <time>2011-06-03T13:15:16Z</time>
      </trkpt>
      <trkpt lat="45.24792" lon="5.23444">
        <ele>614.45269775391</ele>
        <time>2011-06-03T13:15:23Z</time>
      </trkpt>
      <trkpt lat="45.24818" lon="5.235">
        <ele>616.11993408203</ele>
        <time>2011-06-03T13:15:32Z</time>
      </trkpt>
      <trkpt lat="45.24854" lon="5.23571">
        <ele>614.69189453125</ele>
        <time>2011-06-03T13:15:43Z</time>
      </trkpt>
      <trkpt lat="45.2487" lon="5.23617">
        <ele>614.6201171875</ele>
        <time>2011-06-03T13:15:49Z</time>
      </trkpt>
      <trkpt lat="45.24894" lon="5.23702">
        <ele>615.73217773438</ele>
        <time>2011-06-03T13:15:59Z</time>
      </trkpt>
      <trkpt lat="45.24916" lon="5.23766">
        <ele>615.60858154297</ele>
        <time>2011-06-03T13:16:07Z</time>
      </trkpt>
      <trkpt lat="45.24935" lon="5.23815">
        <ele>615.36999511719</ele>
        <time>2011-06-03T13:16:13Z</time>
      </trkpt>
      <trkpt lat="45.24948" lon="5.23848">
        <ele>614.65258789062</ele>
        <time>2011-06-03T13:16:17Z</time>
      </trkpt>
      <trkpt lat="45.24951" lon="5.23857">
        <ele>614.47033691406</ele>
        <time>2011-06-03T13:16:18Z</time>
      </trkpt>
      <trkpt lat="45.24955" lon="5.23874">
        <ele>613.77368164062</ele>
        <time>2011-06-03T13:16:20Z</time>
      </trkpt>
      <trkpt lat="45.2496" lon="5.23891">
        <ele>612.74078369141</ele>
        <time>2011-06-03T13:16:22Z</time>
      </trkpt>
      <trkpt lat="45.24963" lon="5.23899">
        <ele>611.93737792969</ele>
        <time>2011-06-03T13:16:23Z</time>
      </trkpt>
      <trkpt lat="45.24979" lon="5.23913">
        <ele>610.02600097656</ele>
        <time>2011-06-03T13:16:26Z</time>
      </trkpt>
      <trkpt lat="45.24997" lon="5.23911">
        <ele>609.48358154297</ele>
        <time>2011-06-03T13:16:29Z</time>
      </trkpt>
      <trkpt lat="45.2502" lon="5.23904">
        <ele>608.87713623047</ele>
        <time>2011-06-03T13:16:33Z</time>
      </trkpt>
      <trkpt lat="45.25032" lon="5.23898">
        <ele>608.32604980469</ele>
        <time>2011-06-03T13:16:35Z</time>
      </trkpt>
      <trkpt lat="45.25046" lon="5.23894">
        <ele>607.50378417969</ele>
        <time>2011-06-03T13:16:37Z</time>
      </trkpt>
      <trkpt lat="45.25077" lon="5.23892">
        <ele>606.08917236328</ele>
        <time>2011-06-03T13:16:41Z</time>
      </trkpt>
      <trkpt lat="45.25109" lon="5.23885">
        <ele>604.03607177734</ele>
        <time>2011-06-03T13:16:45Z</time>
      </trkpt>
      <trkpt lat="45.25143" lon="5.23865">
        <ele>600.94732666016</ele>
        <time>2011-06-03T13:16:50Z</time>
      </trkpt>
      <trkpt lat="45.25191" lon="5.23846">
        <ele>595.85998535156</ele>
        <time>2011-06-03T13:16:56Z</time>
      </trkpt>
      <trkpt lat="45.2522" lon="5.23838">
        <ele>592.47088623047</ele>
        <time>2011-06-03T13:17:00Z</time>
      </trkpt>
      <trkpt lat="45.25245" lon="5.23833">
        <ele>589.53930664062</ele>
        <time>2011-06-03T13:17:04Z</time>
      </trkpt>
      <trkpt lat="45.25285" lon="5.23826">
        <ele>584.22857666016</ele>
        <time>2011-06-03T13:17:09Z</time>
      </trkpt>
      <trkpt lat="45.25293" lon="5.23825">
        <ele>583.62091064453</ele>
        <time>2011-06-03T13:17:10Z</time>
      </trkpt>
      <trkpt lat="45.25317" lon="5.2383">
        <ele>581.69097900391</ele>
        <time>2011-06-03T13:17:13Z</time>
      </trkpt>
      <trkpt lat="45.25334" lon="5.23848">
        <ele>579.81982421875</ele>
        <time>2011-06-03T13:17:16Z</time>
      </trkpt>
      <trkpt lat="45.25338" lon="5.23879">
        <ele>579.72235107422</ele>
        <time>2011-06-03T13:17:19Z</time>
      </trkpt>
      <trkpt lat="45.2533" lon="5.23918">
        <ele>581.37145996094</ele>
        <time>2011-06-03T13:17:23Z</time>
      </trkpt>
      <trkpt lat="45.25317" lon="5.23938">
        <ele>582.01342773438</ele>
        <time>2011-06-03T13:17:26Z</time>
      </trkpt>
      <trkpt lat="45.25295" lon="5.23963">
        <ele>583.05548095703</ele>
        <time>2011-06-03T13:17:32Z</time>
      </trkpt>
      <trkpt lat="45.25287" lon="5.23998">
        <ele>582.40319824219</ele>
        <time>2011-06-03T13:17:37Z</time>
      </trkpt>
      <trkpt lat="45.25293" lon="5.24017">
        <ele>581.27709960938</ele>
        <time>2011-06-03T13:17:39Z</time>
      </trkpt>
      <trkpt lat="45.25308" lon="5.24051">
        <ele>578.74145507812</ele>
        <time>2011-06-03T13:17:43Z</time>
      </trkpt>
      <trkpt lat="45.25309" lon="5.2408">
        <ele>575.76507568359</ele>
        <time>2011-06-03T13:17:46Z</time>
      </trkpt>
      <trkpt lat="45.25305" lon="5.24091">
        <ele>575.23638916016</ele>
        <time>2011-06-03T13:17:47Z</time>
      </trkpt>
      <trkpt lat="45.25294" lon="5.24125">
        <ele>573.59936523438</ele>
        <time>2011-06-03T13:17:50Z</time>
      </trkpt>
      <trkpt lat="45.25266" lon="5.24181">
        <ele>571.66088867188</ele>
        <time>2011-06-03T13:17:55Z</time>
      </trkpt>
      <trkpt lat="45.25267" lon="5.24211">
        <ele>568.33923339844</ele>
        <time>2011-06-03T13:17:58Z</time>
      </trkpt>
      <trkpt lat="45.25273" lon="5.24221">
        <ele>566.64495849609</ele>
        <time>2011-06-03T13:17:59Z</time>
      </trkpt>
      <trkpt lat="45.25311" lon="5.24239">
        <ele>561.82360839844</ele>
        <time>2011-06-03T13:18:03Z</time>
      </trkpt>
      <trkpt lat="45.25321" lon="5.24235">
        <ele>560.02209472656</ele>
        <time>2011-06-03T13:18:04Z</time>
      </trkpt>
      <trkpt lat="45.25389" lon="5.2421">
        <ele>547.63421630859</ele>
        <time>2011-06-03T13:18:10Z</time>
      </trkpt>
      <trkpt lat="45.25443" lon="5.24166">
        <ele>537.41223144531</ele>
        <time>2011-06-03T13:18:14Z</time>
      </trkpt>
      <trkpt lat="45.25497" lon="5.24116">
        <ele>530.28088378906</ele>
        <time>2011-06-03T13:18:18Z</time>
      </trkpt>
      <trkpt lat="45.25512" lon="5.2411">
        <ele>525.91058349609</ele>
        <time>2011-06-03T13:18:19Z</time>
      </trkpt>
      <trkpt lat="45.25545" lon="5.24097">
        <ele>518.17803955078</ele>
        <time>2011-06-03T13:18:22Z</time>
      </trkpt>
      <trkpt lat="45.25562" lon="5.24104">
        <ele>511.55776977539</ele>
        <time>2011-06-03T13:18:25Z</time>
      </trkpt>
      <trkpt lat="45.25561" lon="5.24124">
        <ele>509.09686279297</ele>
        <time>2011-06-03T13:18:27Z</time>
      </trkpt>
      <trkpt lat="45.25558" lon="5.24134">
        <ele>509.48388671875</ele>
        <time>2011-06-03T13:18:28Z</time>
      </trkpt>
      <trkpt lat="45.25532" lon="5.24202">
        <ele>511.0964050293</ele>
        <time>2011-06-03T13:18:34Z</time>
      </trkpt>
      <trkpt lat="45.25505" lon="5.24272">
        <ele>513.671875</ele>
        <time>2011-06-03T13:18:39Z</time>
      </trkpt>
      <trkpt lat="45.25473" lon="5.24325">
        <ele>518.58032226562</ele>
        <time>2011-06-03T13:18:43Z</time>
      </trkpt>
      <trkpt lat="45.25451" lon="5.24373">
        <ele>518.322265625</ele>
        <time>2011-06-03T13:18:47Z</time>
      </trkpt>
      <trkpt lat="45.25448" lon="5.24388">
        <ele>517.88452148438</ele>
        <time>2011-06-03T13:18:48Z</time>
      </trkpt>
      <trkpt lat="45.2544" lon="5.24449">
        <ele>518.16595458984</ele>
        <time>2011-06-03T13:18:52Z</time>
      </trkpt>
      <trkpt lat="45.25445" lon="5.24476">
        <ele>518</ele>
        <time>2011-06-03T13:18:56Z</time>
      </trkpt>
      <trkpt lat="45.25454" lon="5.24476">
        <ele>518</ele>
        <time>2011-06-03T13:18:58Z</time>
      </trkpt>
      <trkpt lat="45.2549" lon="5.24459">
        <ele>517.53533935547</ele>
        <time>2011-06-03T13:19:04Z</time>
      </trkpt>
      <trkpt lat="45.2553" lon="5.24439">
        <ele>512.70910644531</ele>
        <time>2011-06-03T13:19:10Z</time>
      </trkpt>
      <trkpt lat="45.2557" lon="5.24418">
        <ele>510.60412597656</ele>
        <time>2011-06-03T13:19:16Z</time>
      </trkpt>
      <trkpt lat="45.25591" lon="5.24407">
        <ele>510.28033447266</ele>
        <time>2011-06-03T13:19:19Z</time>
      </trkpt>
      <trkpt lat="45.25622" lon="5.2438">
        <ele>509.13732910156</ele>
        <time>2011-06-03T13:19:24Z</time>
      </trkpt>
      <trkpt lat="45.25667" lon="5.24324">
        <ele>507.33740234375</ele>
        <time>2011-06-03T13:19:32Z</time>
      </trkpt>
      <trkpt lat="45.25719" lon="5.24258">
        <ele>505.47924804688</ele>
        <time>2011-06-03T13:19:42Z</time>
      </trkpt>
      <trkpt lat="45.25749" lon="5.2422">
        <ele>502.80523681641</ele>
        <time>2011-06-03T13:19:48Z</time>
      </trkpt>
      <trkpt lat="45.25768" lon="5.24196">
        <ele>500.15823364258</ele>
        <time>2011-06-03T13:19:52Z</time>
      </trkpt>
      <trkpt lat="45.25777" lon="5.24184">
        <ele>499.60986328125</ele>
        <time>2011-06-03T13:19:54Z</time>
      </trkpt>
      <trkpt lat="45.258" lon="5.24157">
        <ele>499</ele>
        <time>2011-06-03T13:19:59Z</time>
      </trkpt>
      <trkpt lat="45.25828" lon="5.24124">
        <ele>499</ele>
        <time>2011-06-03T13:20:06Z</time>
      </trkpt>
      <trkpt lat="45.25838" lon="5.24114">
        <ele>499</ele>
        <time>2011-06-03T13:20:11Z</time>
      </trkpt>
      <trkpt lat="45.25844" lon="5.24113">
        <ele>499</ele>
        <time>2011-06-03T13:20:13Z</time>
      </trkpt>
      <trkpt lat="45.25849" lon="5.2411">
        <ele>499</ele>
        <time>2011-06-03T13:20:17Z</time>
      </trkpt>
      <trkpt lat="45.25851" lon="5.24106">
        <ele>499</ele>
        <time>2011-06-03T13:20:33Z</time>
      </trkpt>
      <trkpt lat="45.25855" lon="5.24098">
        <ele>499</ele>
        <time>2011-06-03T13:20:36Z</time>
      </trkpt>
      <trkpt lat="45.25869" lon="5.24091">
        <ele>499</ele>
        <time>2011-06-03T13:20:42Z</time>
      </trkpt>
      <trkpt lat="45.25866" lon="5.24087">
        <ele>499</ele>
        <time>2011-06-03T13:20:46Z</time>
      </trkpt>
      <trkpt lat="45.2586" lon="5.24104">
        <ele>499</ele>
        <time>2011-06-03T13:20:51Z</time>
      </trkpt>
      <trkpt lat="45.25851" lon="5.24122">
        <ele>499</ele>
        <time>2011-06-03T13:20:55Z</time>
      </trkpt>
      <trkpt lat="45.25843" lon="5.24142">
        <ele>499.10437011719</ele>
        <time>2011-06-03T13:20:59Z</time>
      </trkpt>
      <trkpt lat="45.25846" lon="5.24163">
        <ele>499.87170410156</ele>
        <time>2011-06-03T13:21:03Z</time>
      </trkpt>
      <trkpt lat="45.25856" lon="5.24192">
        <ele>501.62554931641</ele>
        <time>2011-06-03T13:21:09Z</time>
      </trkpt>
      <trkpt lat="45.25861" lon="5.24208">
        <ele>503.4013671875</ele>
        <time>2011-06-03T13:21:13Z</time>
      </trkpt>
      <trkpt lat="45.25869" lon="5.24228">
        <ele>505.29214477539</ele>
        <time>2011-06-03T13:21:19Z</time>
      </trkpt>
      <trkpt lat="45.25884" lon="5.24247">
        <ele>506.59005737305</ele>
        <time>2011-06-03T13:21:25Z</time>
      </trkpt>
      <trkpt lat="45.25899" lon="5.24264">
        <ele>508.203125</ele>
        <time>2011-06-03T13:21:32Z</time>
      </trkpt>
      <trkpt lat="45.25901" lon="5.24267">
        <ele>508.45440673828</ele>
        <time>2011-06-03T13:21:33Z</time>
      </trkpt>
      <trkpt lat="45.25902" lon="5.24284">
        <ele>509.80249023438</ele>
        <time>2011-06-03T13:21:37Z</time>
      </trkpt>
      <trkpt lat="45.25904" lon="5.24299">
        <ele>510.68017578125</ele>
        <time>2011-06-03T13:21:43Z</time>
      </trkpt>
      <trkpt lat="45.25924" lon="5.24307">
        <ele>511.11175537109</ele>
        <time>2011-06-03T13:21:50Z</time>
      </trkpt>
      <trkpt lat="45.25939" lon="5.24321">
        <ele>512.09710693359</ele>
        <time>2011-06-03T13:21:56Z</time>
      </trkpt>
      <trkpt lat="45.25953" lon="5.24341">
        <ele>513.23083496094</ele>
        <time>2011-06-03T13:22:02Z</time>
      </trkpt>
      <trkpt lat="45.25969" lon="5.24364">
        <ele>514.21557617188</ele>
        <time>2011-06-03T13:22:09Z</time>
      </trkpt>
      <trkpt lat="45.25989" lon="5.24386">
        <ele>514.21508789062</ele>
        <time>2011-06-03T13:22:16Z</time>
      </trkpt>
      <trkpt lat="45.26012" lon="5.24422">
        <ele>515.73718261719</ele>
        <time>2011-06-03T13:22:25Z</time>
      </trkpt>
      <trkpt lat="45.26032" lon="5.24458">
        <ele>516.79949951172</ele>
        <time>2011-06-03T13:22:34Z</time>
      </trkpt>
      <trkpt lat="45.26041" lon="5.24482">
        <ele>518.06762695312</ele>
        <time>2011-06-03T13:22:40Z</time>
      </trkpt>
      <trkpt lat="45.26046" lon="5.24509">
        <ele>519.35052490234</ele>
        <time>2011-06-03T13:22:47Z</time>
      </trkpt>
      <trkpt lat="45.26049" lon="5.24528">
        <ele>520.45391845703</ele>
        <time>2011-06-03T13:22:53Z</time>
      </trkpt>
      <trkpt lat="45.26054" lon="5.2455">
        <ele>520.94317626953</ele>
        <time>2011-06-03T13:23:00Z</time>
      </trkpt>
      <trkpt lat="45.26057" lon="5.24569">
        <ele>521.91046142578</ele>
        <time>2011-06-03T13:23:07Z</time>
      </trkpt>
      <trkpt lat="45.2606" lon="5.24584">
        <ele>522.70043945312</ele>
        <time>2011-06-03T13:23:13Z</time>
      </trkpt>
      <trkpt lat="45.26064" lon="5.24604">
        <ele>523.91577148438</ele>
        <time>2011-06-03T13:23:20Z</time>
      </trkpt>
      <trkpt lat="45.26065" lon="5.24625">
        <ele>525.173828125</ele>
        <time>2011-06-03T13:23:26Z</time>
      </trkpt>
      <trkpt lat="45.26074" lon="5.24644">
        <ele>525.37249755859</ele>
        <time>2011-06-03T13:23:31Z</time>
      </trkpt>
      <trkpt lat="45.26088" lon="5.24667">
        <ele>525.26751708984</ele>
        <time>2011-06-03T13:23:36Z</time>
      </trkpt>
      <trkpt lat="45.26109" lon="5.24698">
        <ele>522.88665771484</ele>
        <time>2011-06-03T13:23:42Z</time>
      </trkpt>
      <trkpt lat="45.26139" lon="5.24725">
        <ele>520</ele>
        <time>2011-06-03T13:23:48Z</time>
      </trkpt>
      <trkpt lat="45.26171" lon="5.2475">
        <ele>520</ele>
        <time>2011-06-03T13:23:53Z</time>
      </trkpt>
      <trkpt lat="45.26191" lon="5.24768">
        <ele>520</ele>
        <time>2011-06-03T13:23:56Z</time>
      </trkpt>
      <trkpt lat="45.26211" lon="5.2479">
        <ele>520</ele>
        <time>2011-06-03T13:23:59Z</time>
      </trkpt>
      <trkpt lat="45.26218" lon="5.24798">
        <ele>520</ele>
        <time>2011-06-03T13:24:00Z</time>
      </trkpt>
      <trkpt lat="45.26255" lon="5.24839">
        <ele>520</ele>
        <time>2011-06-03T13:24:05Z</time>
      </trkpt>
      <trkpt lat="45.26263" lon="5.24847">
        <ele>520</ele>
        <time>2011-06-03T13:24:06Z</time>
      </trkpt>
      <trkpt lat="45.263" lon="5.24866">
        <ele>520</ele>
        <time>2011-06-03T13:24:10Z</time>
      </trkpt>
      <trkpt lat="45.26336" lon="5.24902">
        <ele>520</ele>
        <time>2011-06-03T13:24:14Z</time>
      </trkpt>
      <trkpt lat="45.26343" lon="5.24914">
        <ele>520</ele>
        <time>2011-06-03T13:24:15Z</time>
      </trkpt>
      <trkpt lat="45.2637" lon="5.24963">
        <ele>520</ele>
        <time>2011-06-03T13:24:19Z</time>
      </trkpt>
      <trkpt lat="45.26404" lon="5.24992">
        <ele>520</ele>
        <time>2011-06-03T13:24:23Z</time>
      </trkpt>
      <trkpt lat="45.26414" lon="5.24996">
        <ele>520</ele>
        <time>2011-06-03T13:24:24Z</time>
      </trkpt>
      <trkpt lat="45.26455" lon="5.25011">
        <ele>520</ele>
        <time>2011-06-03T13:24:29Z</time>
      </trkpt>
      <trkpt lat="45.26481" lon="5.25025">
        <ele>520.07110595703</ele>
        <time>2011-06-03T13:24:33Z</time>
      </trkpt>
      <trkpt lat="45.26498" lon="5.25015">
        <ele>520.83428955078</ele>
        <time>2011-06-03T13:24:36Z</time>
      </trkpt>
      <trkpt lat="45.26516" lon="5.24997">
        <ele>524.17645263672</ele>
        <time>2011-06-03T13:24:40Z</time>
      </trkpt>
      <trkpt lat="45.26531" lon="5.24964">
        <ele>525.37170410156</ele>
        <time>2011-06-03T13:24:45Z</time>
      </trkpt>
      <trkpt lat="45.26537" lon="5.24921">
        <ele>525.46759033203</ele>
        <time>2011-06-03T13:24:51Z</time>
      </trkpt>
      <trkpt lat="45.26538" lon="5.24893">
        <ele>524.89068603516</ele>
        <time>2011-06-03T13:24:55Z</time>
      </trkpt>
      <trkpt lat="45.26538" lon="5.24874">
        <ele>524.85546875</ele>
        <time>2011-06-03T13:24:58Z</time>
      </trkpt>
      <trkpt lat="45.26537" lon="5.24824">
        <ele>528.90911865234</ele>
        <time>2011-06-03T13:25:06Z</time>
      </trkpt>
      <trkpt lat="45.26536" lon="5.24777">
        <ele>533.36627197266</ele>
        <time>2011-06-03T13:25:14Z</time>
      </trkpt>
      <trkpt lat="45.26536" lon="5.24742">
        <ele>537.56384277344</ele>
        <time>2011-06-03T13:25:20Z</time>
      </trkpt>
      <trkpt lat="45.26537" lon="5.247">
        <ele>542.30950927734</ele>
        <time>2011-06-03T13:25:28Z</time>
      </trkpt>
      <trkpt lat="45.26537" lon="5.24669">
        <ele>544.84716796875</ele>
        <time>2011-06-03T13:25:34Z</time>
      </trkpt>
      <trkpt lat="45.26537" lon="5.24636">
        <ele>548.20672607422</ele>
        <time>2011-06-03T13:25:41Z</time>
      </trkpt>
      <trkpt lat="45.26529" lon="5.24589">
        <ele>551.47698974609</ele>
        <time>2011-06-03T13:25:51Z</time>
      </trkpt>
      <trkpt lat="45.26518" lon="5.24546">
        <ele>553.64337158203</ele>
        <time>2011-06-03T13:26:00Z</time>
      </trkpt>
      <trkpt lat="45.26511" lon="5.24506">
        <ele>555.69781494141</ele>
        <time>2011-06-03T13:26:08Z</time>
      </trkpt>
      <trkpt lat="45.2651" lon="5.24475">
        <ele>557.70208740234</ele>
        <time>2011-06-03T13:26:14Z</time>
      </trkpt>
      <trkpt lat="45.26503" lon="5.24442">
        <ele>559.61926269531</ele>
        <time>2011-06-03T13:26:21Z</time>
      </trkpt>
      <trkpt lat="45.26492" lon="5.24413">
        <ele>558.95874023438</ele>
        <time>2011-06-03T13:26:28Z</time>
      </trkpt>
      <trkpt lat="45.26483" lon="5.24379">
        <ele>560.48895263672</ele>
        <time>2011-06-03T13:26:36Z</time>
      </trkpt>
      <trkpt lat="45.2648" lon="5.24345">
        <ele>562.22491455078</ele>
        <time>2011-06-03T13:26:43Z</time>
      </trkpt>
      <trkpt lat="45.26489" lon="5.24325">
        <ele>565.19775390625</ele>
        <time>2011-06-03T13:26:48Z</time>
      </trkpt>
      <trkpt lat="45.26497" lon="5.24309">
        <ele>568.08001708984</ele>
        <time>2011-06-03T13:26:52Z</time>
      </trkpt>
      <trkpt lat="45.26508" lon="5.24309">
        <ele>570.05535888672</ele>
        <time>2011-06-03T13:26:56Z</time>
      </trkpt>
      <trkpt lat="45.26504" lon="5.2432">
        <ele>568.26354980469</ele>
        <time>2011-06-03T13:26:59Z</time>
      </trkpt>
      <trkpt lat="45.265" lon="5.24326">
        <ele>566.6943359375</ele>
        <time>2011-06-03T13:27:01Z</time>
      </trkpt>
      <trkpt lat="45.2649" lon="5.24356">
        <ele>562.96649169922</ele>
        <time>2011-06-03T13:27:08Z</time>
      </trkpt>
      <trkpt lat="45.26496" lon="5.24387">
        <ele>562.29919433594</ele>
        <time>2011-06-03T13:27:15Z</time>
      </trkpt>
      <trkpt lat="45.26508" lon="5.24404">
        <ele>562.78851318359</ele>
        <time>2011-06-03T13:27:20Z</time>
      </trkpt>
      <trkpt lat="45.26522" lon="5.24411">
        <ele>564.65106201172</ele>
        <time>2011-06-03T13:27:25Z</time>
      </trkpt>
      <trkpt lat="45.26542" lon="5.24416">
        <ele>567.52337646484</ele>
        <time>2011-06-03T13:27:31Z</time>
      </trkpt>
      <trkpt lat="45.26565" lon="5.24424">
        <ele>571.20855712891</ele>
        <time>2011-06-03T13:27:38Z</time>
      </trkpt>
      <trkpt lat="45.26577" lon="5.24442">
        <ele>572.73895263672</ele>
        <time>2011-06-03T13:27:43Z</time>
      </trkpt>
      <trkpt lat="45.26577" lon="5.24462">
        <ele>570.71099853516</ele>
        <time>2011-06-03T13:27:47Z</time>
      </trkpt>
      <trkpt lat="45.26567" lon="5.24491">
        <ele>566.51171875</ele>
        <time>2011-06-03T13:27:54Z</time>
      </trkpt>
      <trkpt lat="45.26558" lon="5.24521">
        <ele>562.17059326172</ele>
        <time>2011-06-03T13:28:01Z</time>
      </trkpt>
      <trkpt lat="45.26563" lon="5.24548">
        <ele>561.07446289062</ele>
        <time>2011-06-03T13:28:07Z</time>
      </trkpt>
      <trkpt lat="45.26577" lon="5.24572">
        <ele>561.95910644531</ele>
        <time>2011-06-03T13:28:14Z</time>
      </trkpt>
      <trkpt lat="45.26595" lon="5.24586">
        <ele>563.34576416016</ele>
        <time>2011-06-03T13:28:20Z</time>
      </trkpt>
      <trkpt lat="45.2661" lon="5.2459">
        <ele>565.08984375</ele>
        <time>2011-06-03T13:28:25Z</time>
      </trkpt>
      <trkpt lat="45.26625" lon="5.24589">
        <ele>566.33935546875</ele>
        <time>2011-06-03T13:28:30Z</time>
      </trkpt>
      <trkpt lat="45.26642" lon="5.24586">
        <ele>568.19165039062</ele>
        <time>2011-06-03T13:28:36Z</time>
      </trkpt>
      <trkpt lat="45.26656" lon="5.2458">
        <ele>571.53881835938</ele>
        <time>2011-06-03T13:28:41Z</time>
      </trkpt>
      <trkpt lat="45.26674" lon="5.24566">
        <ele>576.78149414062</ele>
        <time>2011-06-03T13:28:48Z</time>
      </trkpt>
      <trkpt lat="45.26685" lon="5.24558">
        <ele>579.42724609375</ele>
        <time>2011-06-03T13:28:52Z</time>
      </trkpt>
      <trkpt lat="45.26699" lon="5.24547">
        <ele>581.92785644531</ele>
        <time>2011-06-03T13:28:58Z</time>
      </trkpt>
      <trkpt lat="45.26713" lon="5.24541">
        <ele>583.39038085938</ele>
        <time>2011-06-03T13:29:03Z</time>
      </trkpt>
      <trkpt lat="45.26724" lon="5.24544">
        <ele>584.06396484375</ele>
        <time>2011-06-03T13:29:07Z</time>
      </trkpt>
      <trkpt lat="45.26736" lon="5.24556">
        <ele>584.43530273438</ele>
        <time>2011-06-03T13:29:12Z</time>
      </trkpt>
      <trkpt lat="45.26741" lon="5.24576">
        <ele>582.90576171875</ele>
        <time>2011-06-03T13:29:17Z</time>
      </trkpt>
      <trkpt lat="45.26739" lon="5.24599">
        <ele>580.52435302734</ele>
        <time>2011-06-03T13:29:23Z</time>
      </trkpt>
      <trkpt lat="45.26729" lon="5.24634">
        <ele>578.0107421875</ele>
        <time>2011-06-03T13:29:32Z</time>
      </trkpt>
      <trkpt lat="45.2673" lon="5.24661">
        <ele>576.44146728516</ele>
        <time>2011-06-03T13:29:39Z</time>
      </trkpt>
      <trkpt lat="45.26738" lon="5.24686">
        <ele>576.56561279297</ele>
        <time>2011-06-03T13:29:46Z</time>
      </trkpt>
      <trkpt lat="45.26746" lon="5.24706">
        <ele>576.59143066406</ele>
        <time>2011-06-03T13:29:52Z</time>
      </trkpt>
      <trkpt lat="45.26756" lon="5.24728">
        <ele>577.10650634766</ele>
        <time>2011-06-03T13:29:59Z</time>
      </trkpt>
      <trkpt lat="45.26765" lon="5.24742">
        <ele>578.20452880859</ele>
        <time>2011-06-03T13:30:04Z</time>
      </trkpt>
      <trkpt lat="45.26778" lon="5.24756">
        <ele>580.05072021484</ele>
        <time>2011-06-03T13:30:10Z</time>
      </trkpt>
      <trkpt lat="45.26793" lon="5.24768">
        <ele>582.47863769531</ele>
        <time>2011-06-03T13:30:17Z</time>
      </trkpt>
      <trkpt lat="45.26808" lon="5.24777">
        <ele>584.42657470703</ele>
        <time>2011-06-03T13:30:23Z</time>
      </trkpt>
      <trkpt lat="45.26834" lon="5.24793">
        <ele>588.58679199219</ele>
        <time>2011-06-03T13:30:32Z</time>
      </trkpt>
      <trkpt lat="45.26851" lon="5.24802">
        <ele>590.05798339844</ele>
        <time>2011-06-03T13:30:38Z</time>
      </trkpt>
      <trkpt lat="45.26866" lon="5.24813">
        <ele>591.76226806641</ele>
        <time>2011-06-03T13:30:43Z</time>
      </trkpt>
      <trkpt lat="45.26886" lon="5.24826">
        <ele>594.92492675781</ele>
        <time>2011-06-03T13:30:50Z</time>
      </trkpt>
      <trkpt lat="45.26907" lon="5.24845">
        <ele>597.91375732422</ele>
        <time>2011-06-03T13:30:57Z</time>
      </trkpt>
      <trkpt lat="45.26934" lon="5.24879">
        <ele>600.27551269531</ele>
        <time>2011-06-03T13:31:06Z</time>
      </trkpt>
      <trkpt lat="45.26968" lon="5.24925">
        <ele>602.29943847656</ele>
        <time>2011-06-03T13:31:17Z</time>
      </trkpt>
      <trkpt lat="45.26995" lon="5.24961">
        <ele>602.57299804688</ele>
        <time>2011-06-03T13:31:26Z</time>
      </trkpt>
      <trkpt lat="45.27013" lon="5.24977">
        <ele>602.73706054688</ele>
        <time>2011-06-03T13:31:31Z</time>
      </trkpt>
      <trkpt lat="45.27028" lon="5.24984">
        <ele>603.59808349609</ele>
        <time>2011-06-03T13:31:35Z</time>
      </trkpt>
      <trkpt lat="45.2706" lon="5.24991">
        <ele>604.47869873047</ele>
        <time>2011-06-03T13:31:43Z</time>
      </trkpt>
      <trkpt lat="45.27091" lon="5.24996">
        <ele>605.41430664062</ele>
        <time>2011-06-03T13:31:51Z</time>
      </trkpt>
      <trkpt lat="45.27123" lon="5.24999">
        <ele>606.48962402344</ele>
        <time>2011-06-03T13:31:59Z</time>
      </trkpt>
      <trkpt lat="45.27152" lon="5.24992">
        <ele>608.37670898438</ele>
        <time>2011-06-03T13:32:07Z</time>
      </trkpt>
      <trkpt lat="45.27191" lon="5.24984">
        <ele>609.94464111328</ele>
        <time>2011-06-03T13:32:17Z</time>
      </trkpt>
      <trkpt lat="45.27219" lon="5.24983">
        <ele>610</ele>
        <time>2011-06-03T13:32:24Z</time>
      </trkpt>
      <trkpt lat="45.27258" lon="5.24991">
        <ele>610</ele>
        <time>2011-06-03T13:32:34Z</time>
      </trkpt>
      <trkpt lat="45.27294" lon="5.24999">
        <ele>610</ele>
        <time>2011-06-03T13:32:43Z</time>
      </trkpt>
      <trkpt lat="45.2731" lon="5.25003">
        <ele>610</ele>
        <time>2011-06-03T13:32:47Z</time>
      </trkpt>
      <trkpt lat="45.27355" lon="5.25013">
        <ele>610</ele>
        <time>2011-06-03T13:32:58Z</time>
      </trkpt>
      <trkpt lat="45.27391" lon="5.25021">
        <ele>610</ele>
        <time>2011-06-03T13:33:07Z</time>
      </trkpt>
      <trkpt lat="45.27431" lon="5.2503">
        <ele>610</ele>
        <time>2011-06-03T13:33:17Z</time>
      </trkpt>
      <trkpt lat="45.27477" lon="5.2504">
        <ele>610</ele>
        <time>2011-06-03T13:33:28Z</time>
      </trkpt>
      <trkpt lat="45.27522" lon="5.2505">
        <ele>610</ele>
        <time>2011-06-03T13:33:37Z</time>
      </trkpt>
      <trkpt lat="45.2757" lon="5.25061">
        <ele>611.06469726562</ele>
        <time>2011-06-03T13:33:45Z</time>
      </trkpt>
      <trkpt lat="45.27632" lon="5.25075">
        <ele>615.51416015625</ele>
        <time>2011-06-03T13:33:55Z</time>
      </trkpt>
      <trkpt lat="45.27682" lon="5.25087">
        <ele>617.54235839844</ele>
        <time>2011-06-03T13:34:04Z</time>
      </trkpt>
      <trkpt lat="45.27725" lon="5.25097">
        <ele>620</ele>
        <time>2011-06-03T13:34:13Z</time>
      </trkpt>
      <trkpt lat="45.27757" lon="5.25103">
        <ele>620</ele>
        <time>2011-06-03T13:34:20Z</time>
      </trkpt>
      <trkpt lat="45.27795" lon="5.25103">
        <ele>620</ele>
        <time>2011-06-03T13:34:28Z</time>
      </trkpt>
      <trkpt lat="45.27835" lon="5.25096">
        <ele>619.8740234375</ele>
        <time>2011-06-03T13:34:35Z</time>
      </trkpt>
      <trkpt lat="45.27893" lon="5.25086">
        <ele>618</ele>
        <time>2011-06-03T13:34:44Z</time>
      </trkpt>
      <trkpt lat="45.27942" lon="5.25077">
        <ele>618</ele>
        <time>2011-06-03T13:34:53Z</time>
      </trkpt>
      <trkpt lat="45.27972" lon="5.25073">
        <ele>618</ele>
        <time>2011-06-03T13:34:59Z</time>
      </trkpt>
      <trkpt lat="45.27996" lon="5.25068">
        <ele>618</ele>
        <time>2011-06-03T13:35:05Z</time>
      </trkpt>
      <trkpt lat="45.28036" lon="5.25058">
        <ele>618</ele>
        <time>2011-06-03T13:35:14Z</time>
      </trkpt>
      <trkpt lat="45.28063" lon="5.25044">
        <ele>618</ele>
        <time>2011-06-03T13:35:20Z</time>
      </trkpt>
      <trkpt lat="45.28093" lon="5.25023">
        <ele>618</ele>
        <time>2011-06-03T13:35:26Z</time>
      </trkpt>
      <trkpt lat="45.28142" lon="5.24989">
        <ele>615.76403808594</ele>
        <time>2011-06-03T13:35:34Z</time>
      </trkpt>
      <trkpt lat="45.28198" lon="5.24951">
        <ele>612.7265625</ele>
        <time>2011-06-03T13:35:42Z</time>
      </trkpt>
      <trkpt lat="45.28228" lon="5.2493">
        <ele>610.77838134766</ele>
        <time>2011-06-03T13:35:46Z</time>
      </trkpt>
      <trkpt lat="45.28273" lon="5.24897">
        <ele>609.41772460938</ele>
        <time>2011-06-03T13:35:52Z</time>
      </trkpt>
      <trkpt lat="45.28294" lon="5.24867">
        <ele>608.33087158203</ele>
        <time>2011-06-03T13:35:56Z</time>
      </trkpt>
      <trkpt lat="45.28319" lon="5.24809">
        <ele>605.20153808594</ele>
        <time>2011-06-03T13:36:03Z</time>
      </trkpt>
      <trkpt lat="45.28325" lon="5.24793">
        <ele>604.41821289062</ele>
        <time>2011-06-03T13:36:05Z</time>
      </trkpt>
      <trkpt lat="45.28336" lon="5.24741">
        <ele>601.37475585938</ele>
        <time>2011-06-03T13:36:11Z</time>
      </trkpt>
      <trkpt lat="45.28352" lon="5.2469">
        <ele>595.9150390625</ele>
        <time>2011-06-03T13:36:17Z</time>
      </trkpt>
      <trkpt lat="45.28381" lon="5.24638">
        <ele>589.62750244141</ele>
        <time>2011-06-03T13:36:24Z</time>
      </trkpt>
      <trkpt lat="45.2841" lon="5.24627">
        <ele>590.5244140625</ele>
        <time>2011-06-03T13:36:28Z</time>
      </trkpt>
      <trkpt lat="45.28453" lon="5.24632">
        <ele>592.59985351562</ele>
        <time>2011-06-03T13:36:33Z</time>
      </trkpt>
      <trkpt lat="45.2849" lon="5.24619">
        <ele>592.49169921875</ele>
        <time>2011-06-03T13:36:37Z</time>
      </trkpt>
      <trkpt lat="45.28532" lon="5.24582">
        <ele>588.19140625</ele>
        <time>2011-06-03T13:36:42Z</time>
      </trkpt>
      <trkpt lat="45.28584" lon="5.24523">
        <ele>583.27264404297</ele>
        <time>2011-06-03T13:36:48Z</time>
      </trkpt>
      <trkpt lat="45.28642" lon="5.24474">
        <ele>582.54730224609</ele>
        <time>2011-06-03T13:36:54Z</time>
      </trkpt>
      <trkpt lat="45.28692" lon="5.24428">
        <ele>581.97985839844</ele>
        <time>2011-06-03T13:36:59Z</time>
      </trkpt>
      <trkpt lat="45.2871" lon="5.24405">
        <ele>578.83178710938</ele>
        <time>2011-06-03T13:37:01Z</time>
      </trkpt>
      <trkpt lat="45.28783" lon="5.24312">
        <ele>566.75817871094</ele>
        <time>2011-06-03T13:37:09Z</time>
      </trkpt>
      <trkpt lat="45.28841" lon="5.24241">
        <ele>561.84808349609</ele>
        <time>2011-06-03T13:37:15Z</time>
      </trkpt>
      <trkpt lat="45.28928" lon="5.24135">
        <ele>550.23931884766</ele>
        <time>2011-06-03T13:37:24Z</time>
      </trkpt>
      <trkpt lat="45.28947" lon="5.24112">
        <ele>547.04302978516</ele>
        <time>2011-06-03T13:37:26Z</time>
      </trkpt>
      <trkpt lat="45.2898" lon="5.24093">
        <ele>542.84173583984</ele>
        <time>2011-06-03T13:37:29Z</time>
      </trkpt>
      <trkpt lat="45.28993" lon="5.2409">
        <ele>541.78088378906</ele>
        <time>2011-06-03T13:37:30Z</time>
      </trkpt>
      <trkpt lat="45.29025" lon="5.24061">
        <ele>542.18768310547</ele>
        <time>2011-06-03T13:37:33Z</time>
      </trkpt>
      <trkpt lat="45.29044" lon="5.24018">
        <ele>539.44696044922</ele>
        <time>2011-06-03T13:37:36Z</time>
      </trkpt>
      <trkpt lat="45.29051" lon="5.24004">
        <ele>537.92651367188</ele>
        <time>2011-06-03T13:37:37Z</time>
      </trkpt>
      <trkpt lat="45.29089" lon="5.2395">
        <ele>534.13031005859</ele>
        <time>2011-06-03T13:37:42Z</time>
      </trkpt>
      <trkpt lat="45.29089" lon="5.23932">
        <ele>531.85693359375</ele>
        <time>2011-06-03T13:37:44Z</time>
      </trkpt>
      <trkpt lat="45.29077" lon="5.23925">
        <ele>529.83557128906</ele>
        <time>2011-06-03T13:37:46Z</time>
      </trkpt>
      <trkpt lat="45.29069" lon="5.23927">
        <ele>528.70208740234</ele>
        <time>2011-06-03T13:37:47Z</time>
      </trkpt>
      <trkpt lat="45.29062" lon="5.23931">
        <ele>528.03179931641</ele>
        <time>2011-06-03T13:37:48Z</time>
      </trkpt>
      <trkpt lat="45.29002" lon="5.23967">
        <ele>520.72979736328</ele>
        <time>2011-06-03T13:37:56Z</time>
      </trkpt>
      <trkpt lat="45.28978" lon="5.23961">
        <ele>516.93768310547</ele>
        <time>2011-06-03T13:37:59Z</time>
      </trkpt>
      <trkpt lat="45.28975" lon="5.23937">
        <ele>513.30944824219</ele>
        <time>2011-06-03T13:38:01Z</time>
      </trkpt>
      <trkpt lat="45.28974" lon="5.23911">
        <ele>510.25415039062</ele>
        <time>2011-06-03T13:38:03Z</time>
      </trkpt>
      <trkpt lat="45.28968" lon="5.2387">
        <ele>505.26501464844</ele>
        <time>2011-06-03T13:38:06Z</time>
      </trkpt>
      <trkpt lat="45.2895" lon="5.23814">
        <ele>500</ele>
        <time>2011-06-03T13:38:10Z</time>
      </trkpt>
      <trkpt lat="45.28922" lon="5.23798">
        <ele>499.73446655273</ele>
        <time>2011-06-03T13:38:13Z</time>
      </trkpt>
      <trkpt lat="45.28901" lon="5.23809">
        <ele>500.58636474609</ele>
        <time>2011-06-03T13:38:15Z</time>
      </trkpt>
      <trkpt lat="45.28876" lon="5.23842">
        <ele>504.82659912109</ele>
        <time>2011-06-03T13:38:18Z</time>
      </trkpt>
      <trkpt lat="45.28849" lon="5.23871">
        <ele>507.7633972168</ele>
        <time>2011-06-03T13:38:21Z</time>
      </trkpt>
      <trkpt lat="45.28825" lon="5.23876">
        <ele>506.88854980469</ele>
        <time>2011-06-03T13:38:23Z</time>
      </trkpt>
      <trkpt lat="45.2874" lon="5.23908">
        <ele>507.92660522461</ele>
        <time>2011-06-03T13:38:30Z</time>
      </trkpt>
      <trkpt lat="45.28691" lon="5.23926">
        <ele>509.05603027344</ele>
        <time>2011-06-03T13:38:34Z</time>
      </trkpt>
      <trkpt lat="45.28662" lon="5.23948">
        <ele>511.79260253906</ele>
        <time>2011-06-03T13:38:37Z</time>
      </trkpt>
      <trkpt lat="45.28648" lon="5.23945">
        <ele>512.42645263672</ele>
        <time>2011-06-03T13:38:40Z</time>
      </trkpt>
      <trkpt lat="45.28653" lon="5.23927">
        <ele>510.76028442383</ele>
        <time>2011-06-03T13:38:42Z</time>
      </trkpt>
      <trkpt lat="45.28666" lon="5.23916">
        <ele>508.94598388672</ele>
        <time>2011-06-03T13:38:44Z</time>
      </trkpt>
      <trkpt lat="45.28711" lon="5.23866">
        <ele>500.505859375</ele>
        <time>2011-06-03T13:38:51Z</time>
      </trkpt>
      <trkpt lat="45.28718" lon="5.23857">
        <ele>500</ele>
        <time>2011-06-03T13:38:52Z</time>
      </trkpt>
      <trkpt lat="45.28773" lon="5.23791">
        <ele>499.46496582031</ele>
        <time>2011-06-03T13:38:59Z</time>
      </trkpt>
      <trkpt lat="45.2879" lon="5.23772">
        <ele>499</ele>
        <time>2011-06-03T13:39:01Z</time>
      </trkpt>
      <trkpt lat="45.28838" lon="5.23737">
        <ele>499</ele>
        <time>2011-06-03T13:39:06Z</time>
      </trkpt>
      <trkpt lat="45.28902" lon="5.23703">
        <ele>499</ele>
        <time>2011-06-03T13:39:12Z</time>
      </trkpt>
      <trkpt lat="45.28969" lon="5.2367">
        <ele>499</ele>
        <time>2011-06-03T13:39:18Z</time>
      </trkpt>
      <trkpt lat="45.29037" lon="5.23638">
        <ele>497.92098999023</ele>
        <time>2011-06-03T13:39:24Z</time>
      </trkpt>
      <trkpt lat="45.29074" lon="5.23631">
        <ele>493.49624633789</ele>
        <time>2011-06-03T13:39:27Z</time>
      </trkpt>
      <trkpt lat="45.29142" lon="5.2359">
        <ele>479.95892333984</ele>
        <time>2011-06-03T13:39:33Z</time>
      </trkpt>
      <trkpt lat="45.29234" lon="5.23531">
        <ele>479</ele>
        <time>2011-06-03T13:39:41Z</time>
      </trkpt>
      <trkpt lat="45.29257" lon="5.2352">
        <ele>479</ele>
        <time>2011-06-03T13:39:43Z</time>
      </trkpt>
      <trkpt lat="45.29304" lon="5.23514">
        <ele>479</ele>
        <time>2011-06-03T13:39:47Z</time>
      </trkpt>
      <trkpt lat="45.29349" lon="5.23513">
        <ele>478.12026977539</ele>
        <time>2011-06-03T13:39:51Z</time>
      </trkpt>
      <trkpt lat="45.29379" lon="5.23528">
        <ele>476.72286987305</ele>
        <time>2011-06-03T13:39:54Z</time>
      </trkpt>
      <trkpt lat="45.29394" lon="5.23551">
        <ele>476.13290405273</ele>
        <time>2011-06-03T13:39:56Z</time>
      </trkpt>
      <trkpt lat="45.2941" lon="5.23587">
        <ele>474.06344604492</ele>
        <time>2011-06-03T13:40:00Z</time>
      </trkpt>
      <trkpt lat="45.29413" lon="5.23592">
        <ele>473.87292480469</ele>
        <time>2011-06-03T13:40:01Z</time>
      </trkpt>
      <trkpt lat="45.29422" lon="5.23627">
        <ele>473.87530517578</ele>
        <time>2011-06-03T13:40:07Z</time>
      </trkpt>
      <trkpt lat="45.29426" lon="5.23661">
        <ele>473.89639282227</ele>
        <time>2011-06-03T13:40:14Z</time>
      </trkpt>
      <trkpt lat="45.29434" lon="5.23673">
        <ele>473.23052978516</ele>
        <time>2011-06-03T13:40:18Z</time>
      </trkpt>
      <trkpt lat="45.29457" lon="5.23673">
        <ele>470.59283447266</ele>
        <time>2011-06-03T13:40:24Z</time>
      </trkpt>
      <trkpt lat="45.29467" lon="5.23672">
        <ele>469.60406494141</ele>
        <time>2011-06-03T13:40:26Z</time>
      </trkpt>
      <trkpt lat="45.29476" lon="5.23672">
        <ele>469</ele>
        <time>2011-06-03T13:40:28Z</time>
      </trkpt>
      <trkpt lat="45.29498" lon="5.23664">
        <ele>468.91766357422</ele>
        <time>2011-06-03T13:40:34Z</time>
      </trkpt>
      <trkpt lat="45.29503" lon="5.23655">
        <ele>468.58633422852</ele>
        <time>2011-06-03T13:40:36Z</time>
      </trkpt>
      <trkpt lat="45.29506" lon="5.23643">
        <ele>468.1589050293</ele>
        <time>2011-06-03T13:40:38Z</time>
      </trkpt>
      <trkpt lat="45.29509" lon="5.23607">
        <ele>467.173828125</ele>
        <time>2011-06-03T13:40:43Z</time>
      </trkpt>
      <trkpt lat="45.29514" lon="5.23582">
        <ele>466.45629882812</ele>
        <time>2011-06-03T13:40:46Z</time>
      </trkpt>
      <trkpt lat="45.29517" lon="5.23557">
        <ele>465.68725585938</ele>
        <time>2011-06-03T13:40:49Z</time>
      </trkpt>
      <trkpt lat="45.29522" lon="5.23532">
        <ele>465.11413574219</ele>
        <time>2011-06-03T13:40:52Z</time>
      </trkpt>
      <trkpt lat="45.29535" lon="5.23456">
        <ele>465.97680664062</ele>
        <time>2011-06-03T13:41:00Z</time>
      </trkpt>
      <trkpt lat="45.29552" lon="5.23388">
        <ele>469.02880859375</ele>
        <time>2011-06-03T13:41:07Z</time>
      </trkpt>
      <trkpt lat="45.29557" lon="5.23367">
        <ele>469.21487426758</ele>
        <time>2011-06-03T13:41:09Z</time>
      </trkpt>
      <trkpt lat="45.29557" lon="5.23313">
        <ele>466.28143310547</ele>
        <time>2011-06-03T13:41:14Z</time>
      </trkpt>
      <trkpt lat="45.29554" lon="5.23291">
        <ele>464.20770263672</ele>
        <time>2011-06-03T13:41:16Z</time>
      </trkpt>
      <trkpt lat="45.29554" lon="5.23222">
        <ele>461.62896728516</ele>
        <time>2011-06-03T13:41:22Z</time>
      </trkpt>
      <trkpt lat="45.29554" lon="5.23146">
        <ele>458.10333251953</ele>
        <time>2011-06-03T13:41:28Z</time>
      </trkpt>
      <trkpt lat="45.29555" lon="5.23082">
        <ele>452.67834472656</ele>
        <time>2011-06-03T13:41:33Z</time>
      </trkpt>
      <trkpt lat="45.2956" lon="5.23018">
        <ele>449.8147277832</ele>
        <time>2011-06-03T13:41:38Z</time>
      </trkpt>
      <trkpt lat="45.29573" lon="5.22953">
        <ele>446.89169311523</ele>
        <time>2011-06-03T13:41:43Z</time>
      </trkpt>
      <trkpt lat="45.296" lon="5.2288">
        <ele>444.1025390625</ele>
        <time>2011-06-03T13:41:49Z</time>
      </trkpt>
      <trkpt lat="45.29618" lon="5.22812">
        <ele>440.88635253906</ele>
        <time>2011-06-03T13:41:55Z</time>
      </trkpt>
      <trkpt lat="45.29646" lon="5.22736">
        <ele>440</ele>
        <time>2011-06-03T13:42:02Z</time>
      </trkpt>
      <trkpt lat="45.29689" lon="5.22651">
        <ele>440</ele>
        <time>2011-06-03T13:42:10Z</time>
      </trkpt>
      <trkpt lat="45.29715" lon="5.22592">
        <ele>440</ele>
        <time>2011-06-03T13:42:15Z</time>
      </trkpt>
      <trkpt lat="45.29734" lon="5.22526">
        <ele>439.92834472656</ele>
        <time>2011-06-03T13:42:20Z</time>
      </trkpt>
      <trkpt lat="45.29757" lon="5.22482">
        <ele>439</ele>
        <time>2011-06-03T13:42:24Z</time>
      </trkpt>
      <trkpt lat="45.29789" lon="5.22428">
        <ele>438.40756225586</ele>
        <time>2011-06-03T13:42:29Z</time>
      </trkpt>
      <trkpt lat="45.29829" lon="5.22363">
        <ele>435.95104980469</ele>
        <time>2011-06-03T13:42:35Z</time>
      </trkpt>
      <trkpt lat="45.29843" lon="5.22341">
        <ele>433.52661132812</ele>
        <time>2011-06-03T13:42:37Z</time>
      </trkpt>
      <trkpt lat="45.29851" lon="5.2233">
        <ele>432.22946166992</ele>
        <time>2011-06-03T13:42:38Z</time>
      </trkpt>
      <trkpt lat="45.29893" lon="5.22286">
        <ele>428.29916381836</ele>
        <time>2011-06-03T13:42:43Z</time>
      </trkpt>
      <trkpt lat="45.29945" lon="5.22233">
        <ele>425.73590087891</ele>
        <time>2011-06-03T13:42:49Z</time>
      </trkpt>
      <trkpt lat="45.29995" lon="5.22177">
        <ele>420.61248779297</ele>
        <time>2011-06-03T13:42:55Z</time>
      </trkpt>
      <trkpt lat="45.30032" lon="5.22145">
        <ele>420.82827758789</ele>
        <time>2011-06-03T13:42:59Z</time>
      </trkpt>
      <trkpt lat="45.30092" lon="5.22114">
        <ele>422.64221191406</ele>
        <time>2011-06-03T13:43:05Z</time>
      </trkpt>
      <trkpt lat="45.30164" lon="5.22074">
        <ele>422.01605224609</ele>
        <time>2011-06-03T13:43:12Z</time>
      </trkpt>
      <trkpt lat="45.302" lon="5.22039">
        <ele>419.3376159668</ele>
        <time>2011-06-03T13:43:16Z</time>
      </trkpt>
      <trkpt lat="45.3027" lon="5.21959">
        <ele>408.59658813477</ele>
        <time>2011-06-03T13:43:24Z</time>
      </trkpt>
      <trkpt lat="45.30313" lon="5.21935">
        <ele>402.64416503906</ele>
        <time>2011-06-03T13:43:28Z</time>
      </trkpt>
      <trkpt lat="45.30324" lon="5.21932">
        <ele>401.40414428711</ele>
        <time>2011-06-03T13:43:29Z</time>
      </trkpt>
      <trkpt lat="45.30336" lon="5.21931">
        <ele>400.46350097656</ele>
        <time>2011-06-03T13:43:30Z</time>
      </trkpt>
      <trkpt lat="45.30382" lon="5.21921">
        <ele>400</ele>
        <time>2011-06-03T13:43:34Z</time>
      </trkpt>
      <trkpt lat="45.30408" lon="5.21894">
        <ele>400.12435913086</ele>
        <time>2011-06-03T13:43:37Z</time>
      </trkpt>
      <trkpt lat="45.30414" lon="5.21863">
        <ele>400</ele>
        <time>2011-06-03T13:43:39Z</time>
      </trkpt>
      <trkpt lat="45.30429" lon="5.21791">
        <ele>400</ele>
        <time>2011-06-03T13:43:44Z</time>
      </trkpt>
      <trkpt lat="45.30444" lon="5.2177">
        <ele>399.70629882812</ele>
        <time>2011-06-03T13:43:46Z</time>
      </trkpt>
      <trkpt lat="45.30507" lon="5.21707">
        <ele>399</ele>
        <time>2011-06-03T13:43:53Z</time>
      </trkpt>
      <trkpt lat="45.30552" lon="5.21663">
        <ele>398.13122558594</ele>
        <time>2011-06-03T13:43:58Z</time>
      </trkpt>
      <trkpt lat="45.30606" lon="5.21611">
        <ele>395.98736572266</ele>
        <time>2011-06-03T13:44:04Z</time>
      </trkpt>
      <trkpt lat="45.30643" lon="5.21576">
        <ele>393.68316650391</ele>
        <time>2011-06-03T13:44:08Z</time>
      </trkpt>
      <trkpt lat="45.30705" lon="5.21514">
        <ele>384.21917724609</ele>
        <time>2011-06-03T13:44:15Z</time>
      </trkpt>
      <trkpt lat="45.30741" lon="5.2148">
        <ele>380.29501342773</ele>
        <time>2011-06-03T13:44:19Z</time>
      </trkpt>
      <trkpt lat="45.30785" lon="5.21436">
        <ele>380</ele>
        <time>2011-06-03T13:44:24Z</time>
      </trkpt>
      <trkpt lat="45.30854" lon="5.21368">
        <ele>380</ele>
        <time>2011-06-03T13:44:32Z</time>
      </trkpt>
      <trkpt lat="45.30863" lon="5.21359">
        <ele>380</ele>
        <time>2011-06-03T13:44:33Z</time>
      </trkpt>
      <trkpt lat="45.30906" lon="5.21317">
        <ele>380</ele>
        <time>2011-06-03T13:44:38Z</time>
      </trkpt>
      <trkpt lat="45.30948" lon="5.21275">
        <ele>380</ele>
        <time>2011-06-03T13:44:43Z</time>
      </trkpt>
      <trkpt lat="45.31004" lon="5.21209">
        <ele>380</ele>
        <time>2011-06-03T13:44:50Z</time>
      </trkpt>
      <trkpt lat="45.31072" lon="5.21108">
        <ele>380</ele>
        <time>2011-06-03T13:44:59Z</time>
      </trkpt>
      <trkpt lat="45.31141" lon="5.21007">
        <ele>379.25592041016</ele>
        <time>2011-06-03T13:45:08Z</time>
      </trkpt>
      <trkpt lat="45.3121" lon="5.20902">
        <ele>379</ele>
        <time>2011-06-03T13:45:17Z</time>
      </trkpt>
      <trkpt lat="45.3127" lon="5.20814">
        <ele>379</ele>
        <time>2011-06-03T13:45:25Z</time>
      </trkpt>
      <trkpt lat="45.31321" lon="5.20747">
        <ele>377.86389160156</ele>
        <time>2011-06-03T13:45:32Z</time>
      </trkpt>
      <trkpt lat="45.31371" lon="5.20698">
        <ele>372.94735717773</ele>
        <time>2011-06-03T13:45:39Z</time>
      </trkpt>
      <trkpt lat="45.31406" lon="5.20663">
        <ele>369.77960205078</ele>
        <time>2011-06-03T13:45:44Z</time>
      </trkpt>
      <trkpt lat="45.31432" lon="5.20631">
        <ele>366.43395996094</ele>
        <time>2011-06-03T13:45:48Z</time>
      </trkpt>
      <trkpt lat="45.31479" lon="5.20576">
        <ele>361.54739379883</ele>
        <time>2011-06-03T13:45:55Z</time>
      </trkpt>
      <trkpt lat="45.31509" lon="5.20542">
        <ele>359.37777709961</ele>
        <time>2011-06-03T13:46:00Z</time>
      </trkpt>
      <trkpt lat="45.31542" lon="5.20502">
        <ele>351.32794189453</ele>
        <time>2011-06-03T13:46:06Z</time>
      </trkpt>
      <trkpt lat="45.31564" lon="5.20472">
        <ele>345.56097412109</ele>
        <time>2011-06-03T13:46:11Z</time>
      </trkpt>
      <trkpt lat="45.31572" lon="5.20466">
        <ele>344.17794799805</ele>
        <time>2011-06-03T13:46:14Z</time>
      </trkpt>
      <trkpt lat="45.31573" lon="5.20454">
        <ele>341.87475585938</ele>
        <time>2011-06-03T13:46:19Z</time>
      </trkpt>
      <trkpt lat="45.31569" lon="5.20447">
        <ele>340.53115844727</ele>
        <time>2011-06-03T13:46:21Z</time>
      </trkpt>
      <trkpt lat="45.31557" lon="5.20431">
        <ele>340</ele>
        <time>2011-06-03T13:46:25Z</time>
      </trkpt>
      <trkpt lat="45.31545" lon="5.20409">
        <ele>340</ele>
        <time>2011-06-03T13:46:29Z</time>
      </trkpt>
      <trkpt lat="45.31522" lon="5.20383">
        <ele>340</ele>
        <time>2011-06-03T13:46:36Z</time>
      </trkpt>
      <trkpt lat="45.31503" lon="5.20362">
        <ele>340</ele>
        <time>2011-06-03T13:46:42Z</time>
      </trkpt>
      <trkpt lat="45.31485" lon="5.20344">
        <ele>340.20977783203</ele>
        <time>2011-06-03T13:46:47Z</time>
      </trkpt>
      <trkpt lat="45.31475" lon="5.20331">
        <ele>340</ele>
        <time>2011-06-03T13:46:50Z</time>
      </trkpt>
      <trkpt lat="45.31446" lon="5.20294">
        <ele>345.95178222656</ele>
        <time>2011-06-03T13:46:58Z</time>
      </trkpt>
      <trkpt lat="45.31429" lon="5.20275">
        <ele>353.32537841797</ele>
        <time>2011-06-03T13:47:03Z</time>
      </trkpt>
      <trkpt lat="45.31408" lon="5.20253">
        <ele>358.19290161133</ele>
        <time>2011-06-03T13:47:09Z</time>
      </trkpt>
      <trkpt lat="45.31392" lon="5.20215">
        <ele>361.49340820312</ele>
        <time>2011-06-03T13:47:16Z</time>
      </trkpt>
      <trkpt lat="45.31385" lon="5.20197">
        <ele>365.55422973633</ele>
        <time>2011-06-03T13:47:19Z</time>
      </trkpt>
      <trkpt lat="45.31373" lon="5.20154">
        <ele>373.34020996094</ele>
        <time>2011-06-03T13:47:26Z</time>
      </trkpt>
      <trkpt lat="45.31362" lon="5.20117">
        <ele>376.58920288086</ele>
        <time>2011-06-03T13:47:33Z</time>
      </trkpt>
      <trkpt lat="45.3135" lon="5.20071">
        <ele>379.49090576172</ele>
        <time>2011-06-03T13:47:42Z</time>
      </trkpt>
      <trkpt lat="45.31341" lon="5.20039">
        <ele>380.64947509766</ele>
        <time>2011-06-03T13:47:49Z</time>
      </trkpt>
      <trkpt lat="45.3133" lon="5.19997">
        <ele>380.80783081055</ele>
        <time>2011-06-03T13:47:58Z</time>
      </trkpt>
      <trkpt lat="45.31322" lon="5.19954">
        <ele>380.87142944336</ele>
        <time>2011-06-03T13:48:07Z</time>
      </trkpt>
      <trkpt lat="45.31316" lon="5.1992">
        <ele>381</ele>
        <time>2011-06-03T13:48:14Z</time>
      </trkpt>
      <trkpt lat="45.31311" lon="5.1988">
        <ele>381</ele>
        <time>2011-06-03T13:48:22Z</time>
      </trkpt>
      <trkpt lat="45.31308" lon="5.19846">
        <ele>381</ele>
        <time>2011-06-03T13:48:29Z</time>
      </trkpt>
      <trkpt lat="45.31307" lon="5.19818">
        <ele>381</ele>
        <time>2011-06-03T13:48:35Z</time>
      </trkpt>
      <trkpt lat="45.31308" lon="5.19792">
        <ele>381</ele>
        <time>2011-06-03T13:48:40Z</time>
      </trkpt>
      <trkpt lat="45.31315" lon="5.19749">
        <ele>381</ele>
        <time>2011-06-03T13:48:48Z</time>
      </trkpt>
      <trkpt lat="45.3133" lon="5.19697">
        <ele>381.09155273438</ele>
        <time>2011-06-03T13:48:59Z</time>
      </trkpt>
      <trkpt lat="45.3134" lon="5.19668">
        <ele>383.04510498047</ele>
        <time>2011-06-03T13:49:06Z</time>
      </trkpt>
      <trkpt lat="45.31344" lon="5.19646">
        <ele>384.40466308594</ele>
        <time>2011-06-03T13:49:11Z</time>
      </trkpt>
      <trkpt lat="45.31345" lon="5.19607">
        <ele>384.89904785156</ele>
        <time>2011-06-03T13:49:18Z</time>
      </trkpt>
      <trkpt lat="45.31347" lon="5.19581">
        <ele>385.34878540039</ele>
        <time>2011-06-03T13:49:23Z</time>
      </trkpt>
      <trkpt lat="45.31347" lon="5.1955">
        <ele>384.79541015625</ele>
        <time>2011-06-03T13:49:29Z</time>
      </trkpt>
      <trkpt lat="45.31344" lon="5.19519">
        <ele>384.33471679688</ele>
        <time>2011-06-03T13:49:35Z</time>
      </trkpt>
      <trkpt lat="45.31341" lon="5.19488">
        <ele>383.87902832031</ele>
        <time>2011-06-03T13:49:41Z</time>
      </trkpt>
      <trkpt lat="45.3134" lon="5.19457">
        <ele>383.68676757812</ele>
        <time>2011-06-03T13:49:47Z</time>
      </trkpt>
      <trkpt lat="45.3134" lon="5.19418">
        <ele>383.68676757812</ele>
        <time>2011-06-03T13:49:55Z</time>
      </trkpt>
      <trkpt lat="45.31337" lon="5.19373">
        <ele>382.82159423828</ele>
        <time>2011-06-03T13:50:04Z</time>
      </trkpt>
      <trkpt lat="45.3133" lon="5.19337">
        <ele>382.11608886719</ele>
        <time>2011-06-03T13:50:10Z</time>
      </trkpt>
      <trkpt lat="45.31316" lon="5.19266">
        <ele>382.62420654297</ele>
        <time>2011-06-03T13:50:20Z</time>
      </trkpt>
      <trkpt lat="45.31306" lon="5.19223">
        <ele>383.95108032227</ele>
        <time>2011-06-03T13:50:26Z</time>
      </trkpt>
      <trkpt lat="45.31295" lon="5.19197">
        <ele>384.69808959961</ele>
        <time>2011-06-03T13:50:30Z</time>
      </trkpt>
      <trkpt lat="45.31269" lon="5.19141">
        <ele>390.28042602539</ele>
        <time>2011-06-03T13:50:38Z</time>
      </trkpt>
      <trkpt lat="45.31247" lon="5.191">
        <ele>399.09613037109</ele>
        <time>2011-06-03T13:50:44Z</time>
      </trkpt>
      <trkpt lat="45.31221" lon="5.19048">
        <ele>400.02996826172</ele>
        <time>2011-06-03T13:50:52Z</time>
      </trkpt>
      <trkpt lat="45.31204" lon="5.19019">
        <ele>400.45220947266</ele>
        <time>2011-06-03T13:50:57Z</time>
      </trkpt>
      <trkpt lat="45.31175" lon="5.18986">
        <ele>400.69165039062</ele>
        <time>2011-06-03T13:51:05Z</time>
      </trkpt>
      <trkpt lat="45.31146" lon="5.18956">
        <ele>401.7353515625</ele>
        <time>2011-06-03T13:51:13Z</time>
      </trkpt>
      <trkpt lat="45.31123" lon="5.18931">
        <ele>402.58679199219</ele>
        <time>2011-06-03T13:51:19Z</time>
      </trkpt>
      <trkpt lat="45.31087" lon="5.18885">
        <ele>402.86395263672</ele>
        <time>2011-06-03T13:51:28Z</time>
      </trkpt>
      <trkpt lat="45.31059" lon="5.18843">
        <ele>403.82360839844</ele>
        <time>2011-06-03T13:51:35Z</time>
      </trkpt>
      <trkpt lat="45.31025" lon="5.18797">
        <ele>405</ele>
        <time>2011-06-03T13:51:42Z</time>
      </trkpt>
      <trkpt lat="45.30981" lon="5.18749">
        <ele>405.63192749023</ele>
        <time>2011-06-03T13:51:49Z</time>
      </trkpt>
      <trkpt lat="45.30939" lon="5.18701">
        <ele>407</ele>
        <time>2011-06-03T13:51:55Z</time>
      </trkpt>
      <trkpt lat="45.309" lon="5.18644">
        <ele>407.60681152344</ele>
        <time>2011-06-03T13:52:01Z</time>
      </trkpt>
      <trkpt lat="45.30869" lon="5.1858">
        <ele>408.71917724609</ele>
        <time>2011-06-03T13:52:07Z</time>
      </trkpt>
      <trkpt lat="45.30832" lon="5.18501">
        <ele>408.09741210938</ele>
        <time>2011-06-03T13:52:15Z</time>
      </trkpt>
      <trkpt lat="45.30796" lon="5.18426">
        <ele>405.67434692383</ele>
        <time>2011-06-03T13:52:23Z</time>
      </trkpt>
      <trkpt lat="45.30743" lon="5.18313">
        <ele>402.77447509766</ele>
        <time>2011-06-03T13:52:35Z</time>
      </trkpt>
      <trkpt lat="45.30716" lon="5.18256">
        <ele>401.45910644531</ele>
        <time>2011-06-03T13:52:41Z</time>
      </trkpt>
      <trkpt lat="45.30705" lon="5.18197">
        <ele>402.61059570312</ele>
        <time>2011-06-03T13:52:46Z</time>
      </trkpt>
      <trkpt lat="45.30708" lon="5.18174">
        <ele>402.51446533203</ele>
        <time>2011-06-03T13:52:48Z</time>
      </trkpt>
      <trkpt lat="45.30723" lon="5.1807">
        <ele>403.96514892578</ele>
        <time>2011-06-03T13:52:57Z</time>
      </trkpt>
      <trkpt lat="45.30733" lon="5.17967">
        <ele>404.33419799805</ele>
        <time>2011-06-03T13:53:05Z</time>
      </trkpt>
      <trkpt lat="45.30744" lon="5.1787">
        <ele>400.53317260742</ele>
        <time>2011-06-03T13:53:12Z</time>
      </trkpt>
      <trkpt lat="45.30753" lon="5.17775">
        <ele>396.67462158203</ele>
        <time>2011-06-03T13:53:19Z</time>
      </trkpt>
      <trkpt lat="45.30763" lon="5.17677">
        <ele>392.41912841797</ele>
        <time>2011-06-03T13:53:27Z</time>
      </trkpt>
      <trkpt lat="45.30774" lon="5.17571">
        <ele>387.72354125977</ele>
        <time>2011-06-03T13:53:35Z</time>
      </trkpt>
      <trkpt lat="45.30788" lon="5.17429">
        <ele>383.40664672852</ele>
        <time>2011-06-03T13:53:45Z</time>
      </trkpt>
      <trkpt lat="45.30799" lon="5.17323">
        <ele>380.76156616211</ele>
        <time>2011-06-03T13:53:53Z</time>
      </trkpt>
      <trkpt lat="45.30815" lon="5.17246">
        <ele>382.38262939453</ele>
        <time>2011-06-03T13:53:59Z</time>
      </trkpt>
      <trkpt lat="45.30833" lon="5.17202">
        <ele>382.73480224609</ele>
        <time>2011-06-03T13:54:03Z</time>
      </trkpt>
      <trkpt lat="45.3087" lon="5.17116">
        <ele>382.66424560547</ele>
        <time>2011-06-03T13:54:11Z</time>
      </trkpt>
      <trkpt lat="45.30919" lon="5.17006">
        <ele>383.70703125</ele>
        <time>2011-06-03T13:54:21Z</time>
      </trkpt>
      <trkpt lat="45.30957" lon="5.16918">
        <ele>381.58609008789</ele>
        <time>2011-06-03T13:54:29Z</time>
      </trkpt>
      <trkpt lat="45.30982" lon="5.16859">
        <ele>381.69931030273</ele>
        <time>2011-06-03T13:54:35Z</time>
      </trkpt>
      <trkpt lat="45.31004" lon="5.16807">
        <ele>381.80331420898</ele>
        <time>2011-06-03T13:54:41Z</time>
      </trkpt>
      <trkpt lat="45.31007" lon="5.16799">
        <ele>381.79669189453</ele>
        <time>2011-06-03T13:54:42Z</time>
      </trkpt>
      <trkpt lat="45.31031" lon="5.16745">
        <ele>382.18017578125</ele>
        <time>2011-06-03T13:54:49Z</time>
      </trkpt>
      <trkpt lat="45.31051" lon="5.167">
        <ele>383.12265014648</ele>
        <time>2011-06-03T13:54:55Z</time>
      </trkpt>
      <trkpt lat="45.31058" lon="5.16685">
        <ele>383.30520629883</ele>
        <time>2011-06-03T13:54:57Z</time>
      </trkpt>
      <trkpt lat="45.31084" lon="5.16642">
        <ele>383.88806152344</ele>
        <time>2011-06-03T13:55:03Z</time>
      </trkpt>
      <trkpt lat="45.31124" lon="5.16578">
        <ele>384.53186035156</ele>
        <time>2011-06-03T13:55:11Z</time>
      </trkpt>
      <trkpt lat="45.3117" lon="5.16506">
        <ele>383.10006713867</ele>
        <time>2011-06-03T13:55:20Z</time>
      </trkpt>
      <trkpt lat="45.31206" lon="5.16444">
        <ele>382</ele>
        <time>2011-06-03T13:55:27Z</time>
      </trkpt>
      <trkpt lat="45.31245" lon="5.16371">
        <ele>381.16479492188</ele>
        <time>2011-06-03T13:55:35Z</time>
      </trkpt>
      <trkpt lat="45.31254" lon="5.16356">
        <ele>380.86267089844</ele>
        <time>2011-06-03T13:55:37Z</time>
      </trkpt>
      <trkpt lat="45.31262" lon="5.16342">
        <ele>380.57427978516</ele>
        <time>2011-06-03T13:55:41Z</time>
      </trkpt>
      <trkpt lat="45.31254" lon="5.16329">
        <ele>380.86267089844</ele>
        <time>2011-06-03T13:55:46Z</time>
      </trkpt>
      <trkpt lat="45.3125" lon="5.16326">
        <ele>381</ele>
        <time>2011-06-03T13:55:47Z</time>
      </trkpt>
      <trkpt lat="45.31218" lon="5.16301">
        <ele>382</ele>
        <time>2011-06-03T13:55:54Z</time>
      </trkpt>
      <trkpt lat="45.31184" lon="5.16274">
        <ele>382</ele>
        <time>2011-06-03T13:56:00Z</time>
      </trkpt>
      <trkpt lat="45.31142" lon="5.16241">
        <ele>382</ele>
        <time>2011-06-03T13:56:06Z</time>
      </trkpt>
      <trkpt lat="45.31101" lon="5.16207">
        <ele>383</ele>
        <time>2011-06-03T13:56:11Z</time>
      </trkpt>
      <trkpt lat="45.31063" lon="5.16176">
        <ele>382.25714111328</ele>
        <time>2011-06-03T13:56:15Z</time>
      </trkpt>
      <trkpt lat="45.31044" lon="5.16161">
        <ele>382</ele>
        <time>2011-06-03T13:56:17Z</time>
      </trkpt>
      <trkpt lat="45.31034" lon="5.16153">
        <ele>382</ele>
        <time>2011-06-03T13:56:18Z</time>
      </trkpt>
      <trkpt lat="45.31016" lon="5.16138">
        <ele>381.96734619141</ele>
        <time>2011-06-03T13:56:20Z</time>
      </trkpt>
      <trkpt lat="45.30968" lon="5.16099">
        <ele>382</ele>
        <time>2011-06-03T13:56:25Z</time>
      </trkpt>
      <trkpt lat="45.30885" lon="5.16032">
        <ele>381.25741577148</ele>
        <time>2011-06-03T13:56:34Z</time>
      </trkpt>
      <trkpt lat="45.30795" lon="5.15958">
        <ele>380.86877441406</ele>
        <time>2011-06-03T13:56:44Z</time>
      </trkpt>
      <trkpt lat="45.30695" lon="5.15876">
        <ele>381</ele>
        <time>2011-06-03T13:56:55Z</time>
      </trkpt>
      <trkpt lat="45.30629" lon="5.15821">
        <ele>380</ele>
        <time>2011-06-03T13:57:02Z</time>
      </trkpt>
      <trkpt lat="45.30577" lon="5.15767">
        <ele>377.91586303711</ele>
        <time>2011-06-03T13:57:08Z</time>
      </trkpt>
      <trkpt lat="45.30529" lon="5.15734">
        <ele>376.46759033203</ele>
        <time>2011-06-03T13:57:13Z</time>
      </trkpt>
      <trkpt lat="45.30482" lon="5.15721">
        <ele>376.62344360352</ele>
        <time>2011-06-03T13:57:18Z</time>
      </trkpt>
      <trkpt lat="45.30432" lon="5.15716">
        <ele>377.45709228516</ele>
        <time>2011-06-03T13:57:24Z</time>
      </trkpt>
      <trkpt lat="45.30385" lon="5.15711">
        <ele>378</ele>
        <time>2011-06-03T13:57:31Z</time>
      </trkpt>
      <trkpt lat="45.30352" lon="5.1571">
        <ele>378.15270996094</ele>
        <time>2011-06-03T13:57:37Z</time>
      </trkpt>
      <trkpt lat="45.30342" lon="5.1571">
        <ele>378.31741333008</ele>
        <time>2011-06-03T13:57:39Z</time>
      </trkpt>
      <trkpt lat="45.30309" lon="5.15714">
        <ele>379.45462036133</ele>
        <time>2011-06-03T13:57:47Z</time>
      </trkpt>
      <trkpt lat="45.30275" lon="5.15726">
        <ele>382.18176269531</ele>
        <time>2011-06-03T13:57:56Z</time>
      </trkpt>
      <trkpt lat="45.30247" lon="5.15741">
        <ele>384.99273681641</ele>
        <time>2011-06-03T13:58:04Z</time>
      </trkpt>
      <trkpt lat="45.30217" lon="5.15762">
        <ele>387.80981445312</ele>
        <time>2011-06-03T13:58:13Z</time>
      </trkpt>
      <trkpt lat="45.30193" lon="5.15776">
        <ele>391.2705078125</ele>
        <time>2011-06-03T13:58:20Z</time>
      </trkpt>
      <trkpt lat="45.30175" lon="5.15773">
        <ele>393.85229492188</ele>
        <time>2011-06-03T13:58:25Z</time>
      </trkpt>
      <trkpt lat="45.30161" lon="5.15757">
        <ele>395.66357421875</ele>
        <time>2011-06-03T13:58:30Z</time>
      </trkpt>
      <trkpt lat="45.30151" lon="5.15725">
        <ele>398.14474487305</ele>
        <time>2011-06-03T13:58:37Z</time>
      </trkpt>
      <trkpt lat="45.30148" lon="5.15695">
        <ele>399.66033935547</ele>
        <time>2011-06-03T13:58:43Z</time>
      </trkpt>
      <trkpt lat="45.30146" lon="5.15646">
        <ele>400.96179199219</ele>
        <time>2011-06-03T13:58:53Z</time>
      </trkpt>
      <trkpt lat="45.30141" lon="5.15618">
        <ele>401.82479858398</ele>
        <time>2011-06-03T13:58:59Z</time>
      </trkpt>
      <trkpt lat="45.30129" lon="5.15573">
        <ele>404.16717529297</ele>
        <time>2011-06-03T13:59:08Z</time>
      </trkpt>
      <trkpt lat="45.30115" lon="5.15524">
        <ele>407.42163085938</ele>
        <time>2011-06-03T13:59:18Z</time>
      </trkpt>
      <trkpt lat="45.30104" lon="5.15481">
        <ele>410.54565429688</ele>
        <time>2011-06-03T13:59:27Z</time>
      </trkpt>
      <trkpt lat="45.3009" lon="5.15435">
        <ele>415.83190917969</ele>
        <time>2011-06-03T13:59:37Z</time>
      </trkpt>
      <trkpt lat="45.3008" lon="5.15398">
        <ele>419.98428344727</ele>
        <time>2011-06-03T13:59:45Z</time>
      </trkpt>
      <trkpt lat="45.30074" lon="5.1537">
        <ele>420.86846923828</ele>
        <time>2011-06-03T13:59:51Z</time>
      </trkpt>
      <trkpt lat="45.30072" lon="5.15343">
        <ele>421.87030029297</ele>
        <time>2011-06-03T13:59:57Z</time>
      </trkpt>
      <trkpt lat="45.30068" lon="5.15314">
        <ele>422.63366699219</ele>
        <time>2011-06-03T14:00:03Z</time>
      </trkpt>
      <trkpt lat="45.30065" lon="5.15285">
        <ele>423.49163818359</ele>
        <time>2011-06-03T14:00:09Z</time>
      </trkpt>
      <trkpt lat="45.30057" lon="5.15249">
        <ele>425.71588134766</ele>
        <time>2011-06-03T14:00:17Z</time>
      </trkpt>
      <trkpt lat="45.30053" lon="5.15216">
        <ele>426.76016235352</ele>
        <time>2011-06-03T14:00:24Z</time>
      </trkpt>
      <trkpt lat="45.3005" lon="5.15185">
        <ele>428.62683105469</ele>
        <time>2011-06-03T14:00:31Z</time>
      </trkpt>
      <trkpt lat="45.30047" lon="5.15168">
        <ele>429.76837158203</ele>
        <time>2011-06-03T14:00:36Z</time>
      </trkpt>
      <trkpt lat="45.30042" lon="5.15148">
        <ele>431.28903198242</ele>
        <time>2011-06-03T14:00:41Z</time>
      </trkpt>
      <trkpt lat="45.30038" lon="5.15125">
        <ele>431.89547729492</ele>
        <time>2011-06-03T14:00:46Z</time>
      </trkpt>
      <trkpt lat="45.30031" lon="5.15096">
        <ele>432.50988769531</ele>
        <time>2011-06-03T14:00:52Z</time>
      </trkpt>
      <trkpt lat="45.3002" lon="5.15056">
        <ele>434.32510375977</ele>
        <time>2011-06-03T14:01:01Z</time>
      </trkpt>
      <trkpt lat="45.30018" lon="5.15029">
        <ele>432.93963623047</ele>
        <time>2011-06-03T14:01:07Z</time>
      </trkpt>
      <trkpt lat="45.30019" lon="5.14995">
        <ele>431.24932861328</ele>
        <time>2011-06-03T14:01:14Z</time>
      </trkpt>
      <trkpt lat="45.30022" lon="5.14964">
        <ele>429.47094726562</ele>
        <time>2011-06-03T14:01:21Z</time>
      </trkpt>
      <trkpt lat="45.30015" lon="5.14933">
        <ele>429.80444335938</ele>
        <time>2011-06-03T14:01:28Z</time>
      </trkpt>
      <trkpt lat="45.30005" lon="5.14905">
        <ele>431.166015625</ele>
        <time>2011-06-03T14:01:35Z</time>
      </trkpt>
      <trkpt lat="45.29996" lon="5.14881">
        <ele>432.33023071289</ele>
        <time>2011-06-03T14:01:41Z</time>
      </trkpt>
      <trkpt lat="45.2999" lon="5.1486">
        <ele>432.80941772461</ele>
        <time>2011-06-03T14:01:46Z</time>
      </trkpt>
      <trkpt lat="45.29981" lon="5.14832">
        <ele>433.72961425781</ele>
        <time>2011-06-03T14:01:53Z</time>
      </trkpt>
      <trkpt lat="45.29974" lon="5.14808">
        <ele>435.4599609375</ele>
        <time>2011-06-03T14:02:00Z</time>
      </trkpt>
      <trkpt lat="45.29967" lon="5.14784">
        <ele>437.96621704102</ele>
        <time>2011-06-03T14:02:06Z</time>
      </trkpt>
      <trkpt lat="45.2996" lon="5.14758">
        <ele>440.32858276367</ele>
        <time>2011-06-03T14:02:12Z</time>
      </trkpt>
      <trkpt lat="45.29951" lon="5.14728">
        <ele>444.15151977539</ele>
        <time>2011-06-03T14:02:19Z</time>
      </trkpt>
      <trkpt lat="45.29942" lon="5.14703">
        <ele>447.33380126953</ele>
        <time>2011-06-03T14:02:25Z</time>
      </trkpt>
      <trkpt lat="45.29929" lon="5.14683">
        <ele>451.39013671875</ele>
        <time>2011-06-03T14:02:31Z</time>
      </trkpt>
      <trkpt lat="45.29911" lon="5.14678">
        <ele>455.23040771484</ele>
        <time>2011-06-03T14:02:37Z</time>
      </trkpt>
      <trkpt lat="45.29892" lon="5.14678">
        <ele>457.23196411133</ele>
        <time>2011-06-03T14:02:43Z</time>
      </trkpt>
      <trkpt lat="45.29876" lon="5.14671">
        <ele>457.86145019531</ele>
        <time>2011-06-03T14:02:48Z</time>
      </trkpt>
      <trkpt lat="45.29859" lon="5.14649">
        <ele>458.61846923828</ele>
        <time>2011-06-03T14:02:54Z</time>
      </trkpt>
      <trkpt lat="45.29843" lon="5.14626">
        <ele>459</ele>
        <time>2011-06-03T14:03:00Z</time>
      </trkpt>
      <trkpt lat="45.29818" lon="5.14582">
        <ele>461</ele>
        <time>2011-06-03T14:03:09Z</time>
      </trkpt>
      <trkpt lat="45.29799" lon="5.14534">
        <ele>460.94320678711</ele>
        <time>2011-06-03T14:03:17Z</time>
      </trkpt>
      <trkpt lat="45.29784" lon="5.14483">
        <ele>461</ele>
        <time>2011-06-03T14:03:25Z</time>
      </trkpt>
      <trkpt lat="45.29773" lon="5.14435">
        <ele>460.62487792969</ele>
        <time>2011-06-03T14:03:32Z</time>
      </trkpt>
      <trkpt lat="45.29766" lon="5.14411">
        <ele>460.13049316406</ele>
        <time>2011-06-03T14:03:35Z</time>
      </trkpt>
      <trkpt lat="45.2976" lon="5.14373">
        <ele>459.74597167969</ele>
        <time>2011-06-03T14:03:39Z</time>
      </trkpt>
      <trkpt lat="45.29761" lon="5.14291">
        <ele>458.80090332031</ele>
        <time>2011-06-03T14:03:46Z</time>
      </trkpt>
      <trkpt lat="45.29757" lon="5.14212">
        <ele>458.49877929688</ele>
        <time>2011-06-03T14:03:52Z</time>
      </trkpt>
      <trkpt lat="45.29745" lon="5.14146">
        <ele>457.39065551758</ele>
        <time>2011-06-03T14:03:57Z</time>
      </trkpt>
      <trkpt lat="45.29728" lon="5.14067">
        <ele>453.49661254883</ele>
        <time>2011-06-03T14:04:03Z</time>
      </trkpt>
      <trkpt lat="45.29719" lon="5.14025">
        <ele>449.02047729492</ele>
        <time>2011-06-03T14:04:06Z</time>
      </trkpt>
      <trkpt lat="45.297" lon="5.13956">
        <ele>439.42343139648</ele>
        <time>2011-06-03T14:04:11Z</time>
      </trkpt>
      <trkpt lat="45.29688" lon="5.13919">
        <ele>438.08813476562</ele>
        <time>2011-06-03T14:04:14Z</time>
      </trkpt>
      <trkpt lat="45.29689" lon="5.13898">
        <ele>438</ele>
        <time>2011-06-03T14:04:17Z</time>
      </trkpt>
      <trkpt lat="45.297" lon="5.1389">
        <ele>438.0041809082</ele>
        <time>2011-06-03T14:04:19Z</time>
      </trkpt>
      <trkpt lat="45.29737" lon="5.13862">
        <ele>438.54162597656</ele>
        <time>2011-06-03T14:04:25Z</time>
      </trkpt>
      <trkpt lat="45.29776" lon="5.13825">
        <ele>439.55484008789</ele>
        <time>2011-06-03T14:04:31Z</time>
      </trkpt>
      <trkpt lat="45.29781" lon="5.13817">
        <ele>440.61856079102</ele>
        <time>2011-06-03T14:04:32Z</time>
      </trkpt>
      <trkpt lat="45.29803" lon="5.13781">
        <ele>443.97033691406</ele>
        <time>2011-06-03T14:04:36Z</time>
      </trkpt>
      <trkpt lat="45.29834" lon="5.13723">
        <ele>453.17150878906</ele>
        <time>2011-06-03T14:04:42Z</time>
      </trkpt>
      <trkpt lat="45.29838" lon="5.13714">
        <ele>453.7399597168</ele>
        <time>2011-06-03T14:04:43Z</time>
      </trkpt>
      <trkpt lat="45.2986" lon="5.13641">
        <ele>454.87734985352</ele>
        <time>2011-06-03T14:04:50Z</time>
      </trkpt>
      <trkpt lat="45.29868" lon="5.13609">
        <ele>454.6272277832</ele>
        <time>2011-06-03T14:04:53Z</time>
      </trkpt>
      <trkpt lat="45.2987" lon="5.13598">
        <ele>454.67660522461</ele>
        <time>2011-06-03T14:04:54Z</time>
      </trkpt>
      <trkpt lat="45.29877" lon="5.13564">
        <ele>455.88629150391</ele>
        <time>2011-06-03T14:04:57Z</time>
      </trkpt>
      <trkpt lat="45.29882" lon="5.13522">
        <ele>456.93731689453</ele>
        <time>2011-06-03T14:05:01Z</time>
      </trkpt>
      <trkpt lat="45.29871" lon="5.13441">
        <ele>453.06188964844</ele>
        <time>2011-06-03T14:05:08Z</time>
      </trkpt>
      <trkpt lat="45.29868" lon="5.13394">
        <ele>451.70233154297</ele>
        <time>2011-06-03T14:05:12Z</time>
      </trkpt>
      <trkpt lat="45.29855" lon="5.13336">
        <ele>447.45123291016</ele>
        <time>2011-06-03T14:05:17Z</time>
      </trkpt>
      <trkpt lat="45.29838" lon="5.1326">
        <ele>444.22149658203</ele>
        <time>2011-06-03T14:05:23Z</time>
      </trkpt>
      <trkpt lat="45.29829" lon="5.13183">
        <ele>441.06173706055</ele>
        <time>2011-06-03T14:05:29Z</time>
      </trkpt>
      <trkpt lat="45.29821" lon="5.13111">
        <ele>435.31768798828</ele>
        <time>2011-06-03T14:05:35Z</time>
      </trkpt>
      <trkpt lat="45.29816" lon="5.13075">
        <ele>430.92770385742</ele>
        <time>2011-06-03T14:05:38Z</time>
      </trkpt>
      <trkpt lat="45.29816" lon="5.13049">
        <ele>429.94546508789</ele>
        <time>2011-06-03T14:05:40Z</time>
      </trkpt>
      <trkpt lat="45.29829" lon="5.12959">
        <ele>435.28375244141</ele>
        <time>2011-06-03T14:05:47Z</time>
      </trkpt>
      <trkpt lat="45.29835" lon="5.12921">
        <ele>434.85815429688</ele>
        <time>2011-06-03T14:05:50Z</time>
      </trkpt>
      <trkpt lat="45.29836" lon="5.12896">
        <ele>433.33248901367</ele>
        <time>2011-06-03T14:05:52Z</time>
      </trkpt>
      <trkpt lat="45.2983" lon="5.12832">
        <ele>425.09777832031</ele>
        <time>2011-06-03T14:05:57Z</time>
      </trkpt>
      <trkpt lat="45.29834" lon="5.12726">
        <ele>419.21115112305</ele>
        <time>2011-06-03T14:06:05Z</time>
      </trkpt>
      <trkpt lat="45.29856" lon="5.12679">
        <ele>419.26068115234</ele>
        <time>2011-06-03T14:06:09Z</time>
      </trkpt>
      <trkpt lat="45.29873" lon="5.1262">
        <ele>419.3518371582</ele>
        <time>2011-06-03T14:06:14Z</time>
      </trkpt>
      <trkpt lat="45.2988" lon="5.12571">
        <ele>418.0754699707</ele>
        <time>2011-06-03T14:06:18Z</time>
      </trkpt>
      <trkpt lat="45.29899" lon="5.1251">
        <ele>422.37292480469</ele>
        <time>2011-06-03T14:06:23Z</time>
      </trkpt>
      <trkpt lat="45.29901" lon="5.12442">
        <ele>421.59970092773</ele>
        <time>2011-06-03T14:06:28Z</time>
      </trkpt>
      <trkpt lat="45.29893" lon="5.12391">
        <ele>416.52947998047</ele>
        <time>2011-06-03T14:06:32Z</time>
      </trkpt>
      <trkpt lat="45.29893" lon="5.12314">
        <ele>414.41397094727</ele>
        <time>2011-06-03T14:06:38Z</time>
      </trkpt>
      <trkpt lat="45.299" lon="5.12236">
        <ele>414.81085205078</ele>
        <time>2011-06-03T14:06:44Z</time>
      </trkpt>
      <trkpt lat="45.29899" lon="5.12174">
        <ele>412.75256347656</ele>
        <time>2011-06-03T14:06:49Z</time>
      </trkpt>
      <trkpt lat="45.29889" lon="5.12102">
        <ele>408.65856933594</ele>
        <time>2011-06-03T14:06:55Z</time>
      </trkpt>
      <trkpt lat="45.29876" lon="5.12012">
        <ele>405.73983764648</ele>
        <time>2011-06-03T14:07:03Z</time>
      </trkpt>
      <trkpt lat="45.29874" lon="5.11976">
        <ele>404.998046875</ele>
        <time>2011-06-03T14:07:06Z</time>
      </trkpt>
      <trkpt lat="45.29882" lon="5.11884">
        <ele>403.59573364258</ele>
        <time>2011-06-03T14:07:13Z</time>
      </trkpt>
      <trkpt lat="45.29895" lon="5.11781">
        <ele>401.83050537109</ele>
        <time>2011-06-03T14:07:21Z</time>
      </trkpt>
      <trkpt lat="45.29904" lon="5.11704">
        <ele>401.1005859375</ele>
        <time>2011-06-03T14:07:27Z</time>
      </trkpt>
      <trkpt lat="45.29919" lon="5.11602">
        <ele>400.11849975586</ele>
        <time>2011-06-03T14:07:35Z</time>
      </trkpt>
      <trkpt lat="45.29932" lon="5.11533">
        <ele>400</ele>
        <time>2011-06-03T14:07:41Z</time>
      </trkpt>
      <trkpt lat="45.29947" lon="5.11458">
        <ele>400</ele>
        <time>2011-06-03T14:07:48Z</time>
      </trkpt>
      <trkpt lat="45.29961" lon="5.11389">
        <ele>400</ele>
        <time>2011-06-03T14:07:55Z</time>
      </trkpt>
      <trkpt lat="45.29967" lon="5.11324">
        <ele>400</ele>
        <time>2011-06-03T14:08:01Z</time>
      </trkpt>
      <trkpt lat="45.29969" lon="5.11256">
        <ele>400</ele>
        <time>2011-06-03T14:08:07Z</time>
      </trkpt>
      <trkpt lat="45.2998" lon="5.11211">
        <ele>400</ele>
        <time>2011-06-03T14:08:11Z</time>
      </trkpt>
      <trkpt lat="45.30009" lon="5.1114">
        <ele>400</ele>
        <time>2011-06-03T14:08:18Z</time>
      </trkpt>
      <trkpt lat="45.30016" lon="5.1111">
        <ele>400</ele>
        <time>2011-06-03T14:08:21Z</time>
      </trkpt>
      <trkpt lat="45.30017" lon="5.11045">
        <ele>400</ele>
        <time>2011-06-03T14:08:27Z</time>
      </trkpt>
      <trkpt lat="45.30018" lon="5.10954">
        <ele>400</ele>
        <time>2011-06-03T14:08:35Z</time>
      </trkpt>
      <trkpt lat="45.30027" lon="5.10885">
        <ele>400</ele>
        <time>2011-06-03T14:08:41Z</time>
      </trkpt>
      <trkpt lat="45.30043" lon="5.10784">
        <ele>407.44454956055</ele>
        <time>2011-06-03T14:08:49Z</time>
      </trkpt>
      <trkpt lat="45.3005" lon="5.10722">
        <ele>414.72875976562</ele>
        <time>2011-06-03T14:08:54Z</time>
      </trkpt>
      <trkpt lat="45.3004" lon="5.10673">
        <ele>413.15551757812</ele>
        <time>2011-06-03T14:08:58Z</time>
      </trkpt>
      <trkpt lat="45.30013" lon="5.10591">
        <ele>408.85873413086</ele>
        <time>2011-06-03T14:09:05Z</time>
      </trkpt>
      <trkpt lat="45.29977" lon="5.10514">
        <ele>405.27209472656</ele>
        <time>2011-06-03T14:09:12Z</time>
      </trkpt>
      <trkpt lat="45.29942" lon="5.10439">
        <ele>401.46520996094</ele>
        <time>2011-06-03T14:09:19Z</time>
      </trkpt>
      <trkpt lat="45.29921" lon="5.10386">
        <ele>400.97882080078</ele>
        <time>2011-06-03T14:09:24Z</time>
      </trkpt>
      <trkpt lat="45.29911" lon="5.10354">
        <ele>400.3854675293</ele>
        <time>2011-06-03T14:09:27Z</time>
      </trkpt>
      <trkpt lat="45.29879" lon="5.10304">
        <ele>400.08862304688</ele>
        <time>2011-06-03T14:09:33Z</time>
      </trkpt>
      <trkpt lat="45.29845" lon="5.10268">
        <ele>400</ele>
        <time>2011-06-03T14:09:38Z</time>
      </trkpt>
      <trkpt lat="45.29806" lon="5.10211">
        <ele>398.04187011719</ele>
        <time>2011-06-03T14:09:44Z</time>
      </trkpt>
      <trkpt lat="45.29782" lon="5.10137">
        <ele>392.9345703125</ele>
        <time>2011-06-03T14:09:50Z</time>
      </trkpt>
      <trkpt lat="45.29754" lon="5.10042">
        <ele>390.53411865234</ele>
        <time>2011-06-03T14:09:58Z</time>
      </trkpt>
      <trkpt lat="45.29734" lon="5.0998">
        <ele>390.07409667969</ele>
        <time>2011-06-03T14:10:03Z</time>
      </trkpt>
      <trkpt lat="45.29716" lon="5.09912">
        <ele>389.42053222656</ele>
        <time>2011-06-03T14:10:08Z</time>
      </trkpt>
      <trkpt lat="45.29711" lon="5.09899">
        <ele>387.9508972168</ele>
        <time>2011-06-03T14:10:09Z</time>
      </trkpt>
      <trkpt lat="45.29684" lon="5.09859">
        <ele>383.32427978516</ele>
        <time>2011-06-03T14:10:13Z</time>
      </trkpt>
      <trkpt lat="45.29668" lon="5.09813">
        <ele>380.64514160156</ele>
        <time>2011-06-03T14:10:17Z</time>
      </trkpt>
      <trkpt lat="45.29666" lon="5.09788">
        <ele>383.06814575195</ele>
        <time>2011-06-03T14:10:19Z</time>
      </trkpt>
      <trkpt lat="45.29663" lon="5.09764">
        <ele>385.6064453125</ele>
        <time>2011-06-03T14:10:21Z</time>
      </trkpt>
      <trkpt lat="45.29649" lon="5.09712">
        <ele>385.49267578125</ele>
        <time>2011-06-03T14:10:26Z</time>
      </trkpt>
      <trkpt lat="45.29622" lon="5.09637">
        <ele>384.04858398438</ele>
        <time>2011-06-03T14:10:34Z</time>
      </trkpt>
      <trkpt lat="45.29605" lon="5.09597">
        <ele>382.92651367188</ele>
        <time>2011-06-03T14:10:38Z</time>
      </trkpt>
      <trkpt lat="45.29573" lon="5.09523">
        <ele>385.44775390625</ele>
        <time>2011-06-03T14:10:45Z</time>
      </trkpt>
      <trkpt lat="45.29544" lon="5.09444">
        <ele>384.88766479492</ele>
        <time>2011-06-03T14:10:52Z</time>
      </trkpt>
      <trkpt lat="45.29514" lon="5.09331">
        <ele>384.17855834961</ele>
        <time>2011-06-03T14:11:01Z</time>
      </trkpt>
      <trkpt lat="45.29497" lon="5.0926">
        <ele>384.95547485352</ele>
        <time>2011-06-03T14:11:07Z</time>
      </trkpt>
      <trkpt lat="45.29479" lon="5.09189">
        <ele>383.14208984375</ele>
        <time>2011-06-03T14:11:14Z</time>
      </trkpt>
      <trkpt lat="45.29466" lon="5.0912">
        <ele>379.71179199219</ele>
        <time>2011-06-03T14:11:21Z</time>
      </trkpt>
      <trkpt lat="45.29451" lon="5.0905">
        <ele>373.31237792969</ele>
        <time>2011-06-03T14:11:27Z</time>
      </trkpt>
      <trkpt lat="45.29431" lon="5.08982">
        <ele>367.22470092773</ele>
        <time>2011-06-03T14:11:33Z</time>
      </trkpt>
      <trkpt lat="45.2942" lon="5.08915">
        <ele>362.86260986328</ele>
        <time>2011-06-03T14:11:39Z</time>
      </trkpt>
      <trkpt lat="45.29416" lon="5.08846">
        <ele>360.9924621582</ele>
        <time>2011-06-03T14:11:45Z</time>
      </trkpt>
      <trkpt lat="45.294" lon="5.08774">
        <ele>360</ele>
        <time>2011-06-03T14:11:51Z</time>
      </trkpt>
      <trkpt lat="45.29372" lon="5.08686">
        <ele>358.19720458984</ele>
        <time>2011-06-03T14:11:58Z</time>
      </trkpt>
      <trkpt lat="45.29342" lon="5.08597">
        <ele>356.14166259766</ele>
        <time>2011-06-03T14:12:05Z</time>
      </trkpt>
      <trkpt lat="45.29318" lon="5.08523">
        <ele>355.38128662109</ele>
        <time>2011-06-03T14:12:11Z</time>
      </trkpt>
      <trkpt lat="45.29305" lon="5.08465">
        <ele>354.07568359375</ele>
        <time>2011-06-03T14:12:16Z</time>
      </trkpt>
      <trkpt lat="45.29305" lon="5.08424">
        <ele>353.27774047852</ele>
        <time>2011-06-03T14:12:20Z</time>
      </trkpt>
      <trkpt lat="45.29321" lon="5.08346">
        <ele>351.46105957031</ele>
        <time>2011-06-03T14:12:27Z</time>
      </trkpt>
      <trkpt lat="45.29336" lon="5.08263">
        <ele>349.17651367188</ele>
        <time>2011-06-03T14:12:34Z</time>
      </trkpt>
      <trkpt lat="45.29348" lon="5.08186">
        <ele>348.78598022461</ele>
        <time>2011-06-03T14:12:41Z</time>
      </trkpt>
      <trkpt lat="45.2935" lon="5.08175">
        <ele>348.46841430664</ele>
        <time>2011-06-03T14:12:42Z</time>
      </trkpt>
      <trkpt lat="45.29346" lon="5.08121">
        <ele>347.56997680664</ele>
        <time>2011-06-03T14:12:47Z</time>
      </trkpt>
      <trkpt lat="45.29327" lon="5.08056">
        <ele>345.00653076172</ele>
        <time>2011-06-03T14:12:53Z</time>
      </trkpt>
      <trkpt lat="45.29316" lon="5.08023">
        <ele>344.53890991211</ele>
        <time>2011-06-03T14:12:56Z</time>
      </trkpt>
      <trkpt lat="45.29308" lon="5.07968">
        <ele>343.74496459961</ele>
        <time>2011-06-03T14:13:01Z</time>
      </trkpt>
      <trkpt lat="45.29306" lon="5.07901">
        <ele>341.99810791016</ele>
        <time>2011-06-03T14:13:08Z</time>
      </trkpt>
      <trkpt lat="45.29302" lon="5.07877">
        <ele>342.10845947266</ele>
        <time>2011-06-03T14:13:11Z</time>
      </trkpt>
      <trkpt lat="45.29298" lon="5.0783">
        <ele>341.96862792969</ele>
        <time>2011-06-03T14:13:16Z</time>
      </trkpt>
      <trkpt lat="45.29283" lon="5.07783">
        <ele>343.28247070312</ele>
        <time>2011-06-03T14:13:21Z</time>
      </trkpt>
      <trkpt lat="45.29262" lon="5.07743">
        <ele>344.52584838867</ele>
        <time>2011-06-03T14:13:26Z</time>
      </trkpt>
      <trkpt lat="45.2925" lon="5.07712">
        <ele>345.74905395508</ele>
        <time>2011-06-03T14:13:30Z</time>
      </trkpt>
      <trkpt lat="45.29245" lon="5.07696">
        <ele>346.15560913086</ele>
        <time>2011-06-03T14:13:32Z</time>
      </trkpt>
      <trkpt lat="45.29239" lon="5.0766">
        <ele>344.99899291992</ele>
        <time>2011-06-03T14:13:36Z</time>
      </trkpt>
      <trkpt lat="45.29239" lon="5.0762">
        <ele>342.39236450195</ele>
        <time>2011-06-03T14:13:40Z</time>
      </trkpt>
      <trkpt lat="45.29241" lon="5.07557">
        <ele>339.35513305664</ele>
        <time>2011-06-03T14:13:46Z</time>
      </trkpt>
      <trkpt lat="45.29242" lon="5.07516">
        <ele>338.30377197266</ele>
        <time>2011-06-03T14:13:50Z</time>
      </trkpt>
      <trkpt lat="45.29241" lon="5.07454">
        <ele>337.31750488281</ele>
        <time>2011-06-03T14:13:56Z</time>
      </trkpt>
      <trkpt lat="45.29241" lon="5.07424">
        <ele>337.33123779297</ele>
        <time>2011-06-03T14:13:59Z</time>
      </trkpt>
      <trkpt lat="45.29225" lon="5.07367">
        <ele>336.89428710938</ele>
        <time>2011-06-03T14:14:05Z</time>
      </trkpt>
      <trkpt lat="45.2921" lon="5.0733">
        <ele>339.49084472656</ele>
        <time>2011-06-03T14:14:09Z</time>
      </trkpt>
      <trkpt lat="45.292" lon="5.07279">
        <ele>340.77011108398</ele>
        <time>2011-06-03T14:14:14Z</time>
      </trkpt>
      <trkpt lat="45.29192" lon="5.07203">
        <ele>340.65118408203</ele>
        <time>2011-06-03T14:14:21Z</time>
      </trkpt>
      <trkpt lat="45.29181" lon="5.07125">
        <ele>339.96002197266</ele>
        <time>2011-06-03T14:14:28Z</time>
      </trkpt>
      <trkpt lat="45.29173" lon="5.07063">
        <ele>338.96899414062</ele>
        <time>2011-06-03T14:14:34Z</time>
      </trkpt>
      <trkpt lat="45.29159" lon="5.06993">
        <ele>338.7780456543</ele>
        <time>2011-06-03T14:14:41Z</time>
      </trkpt>
      <trkpt lat="45.29152" lon="5.06928">
        <ele>338.77899169922</ele>
        <time>2011-06-03T14:14:47Z</time>
      </trkpt>
      <trkpt lat="45.29149" lon="5.06883">
        <ele>338.92260742188</ele>
        <time>2011-06-03T14:14:51Z</time>
      </trkpt>
      <trkpt lat="45.2914" lon="5.06791">
        <ele>337.42263793945</ele>
        <time>2011-06-03T14:14:59Z</time>
      </trkpt>
      <trkpt lat="45.29135" lon="5.06723">
        <ele>337.14898681641</ele>
        <time>2011-06-03T14:15:05Z</time>
      </trkpt>
      <trkpt lat="45.2914" lon="5.06652">
        <ele>335.94091796875</ele>
        <time>2011-06-03T14:15:11Z</time>
      </trkpt>
      <trkpt lat="45.29151" lon="5.06585">
        <ele>335.2653503418</ele>
        <time>2011-06-03T14:15:17Z</time>
      </trkpt>
      <trkpt lat="45.29166" lon="5.06505">
        <ele>332.28375244141</ele>
        <time>2011-06-03T14:15:24Z</time>
      </trkpt>
      <trkpt lat="45.29186" lon="5.06438">
        <ele>328.96252441406</ele>
        <time>2011-06-03T14:15:30Z</time>
      </trkpt>
      <trkpt lat="45.29193" lon="5.06391">
        <ele>327.19140625</ele>
        <time>2011-06-03T14:15:34Z</time>
      </trkpt>
      <trkpt lat="45.2919" lon="5.06367">
        <ele>326.9762878418</ele>
        <time>2011-06-03T14:15:36Z</time>
      </trkpt>
      <trkpt lat="45.29182" lon="5.06319">
        <ele>327.49478149414</ele>
        <time>2011-06-03T14:15:40Z</time>
      </trkpt>
      <trkpt lat="45.29188" lon="5.06271">
        <ele>326.36456298828</ele>
        <time>2011-06-03T14:15:44Z</time>
      </trkpt>
      <trkpt lat="45.29197" lon="5.06238">
        <ele>325.69036865234</ele>
        <time>2011-06-03T14:15:47Z</time>
      </trkpt>
      <trkpt lat="45.29203" lon="5.0617">
        <ele>325.11358642578</ele>
        <time>2011-06-03T14:15:53Z</time>
      </trkpt>
      <trkpt lat="45.29204" lon="5.0606">
        <ele>326.49490356445</ele>
        <time>2011-06-03T14:16:03Z</time>
      </trkpt>
      <trkpt lat="45.29205" lon="5.05989">
        <ele>327.84750366211</ele>
        <time>2011-06-03T14:16:10Z</time>
      </trkpt>
      <trkpt lat="45.29208" lon="5.0597">
        <ele>328.15148925781</ele>
        <time>2011-06-03T14:16:12Z</time>
      </trkpt>
      <trkpt lat="45.29221" lon="5.05929">
        <ele>326.29541015625</ele>
        <time>2011-06-03T14:16:17Z</time>
      </trkpt>
      <trkpt lat="45.29234" lon="5.05895">
        <ele>323.8210144043</ele>
        <time>2011-06-03T14:16:22Z</time>
      </trkpt>
      <trkpt lat="45.29238" lon="5.0588">
        <ele>322.99157714844</ele>
        <time>2011-06-03T14:16:24Z</time>
      </trkpt>
      <trkpt lat="45.29239" lon="5.05841">
        <ele>323.22930908203</ele>
        <time>2011-06-03T14:16:29Z</time>
      </trkpt>
      <trkpt lat="45.29237" lon="5.05815">
        <ele>324.09478759766</ele>
        <time>2011-06-03T14:16:33Z</time>
      </trkpt>
      <trkpt lat="45.29237" lon="5.05808">
        <ele>324.28656005859</ele>
        <time>2011-06-03T14:16:34Z</time>
      </trkpt>
      <trkpt lat="45.29236" lon="5.05759">
        <ele>323.20599365234</ele>
        <time>2011-06-03T14:16:41Z</time>
      </trkpt>
      <trkpt lat="45.29235" lon="5.05735">
        <ele>322.28262329102</ele>
        <time>2011-06-03T14:16:44Z</time>
      </trkpt>
      <trkpt lat="45.29236" lon="5.05697">
        <ele>321.03961181641</ele>
        <time>2011-06-03T14:16:49Z</time>
      </trkpt>
      <trkpt lat="45.29238" lon="5.05664">
        <ele>319.84765625</ele>
        <time>2011-06-03T14:16:53Z</time>
      </trkpt>
      <trkpt lat="45.2924" lon="5.05614">
        <ele>319.04440307617</ele>
        <time>2011-06-03T14:16:59Z</time>
      </trkpt>
      <trkpt lat="45.29239" lon="5.05606">
        <ele>319</ele>
        <time>2011-06-03T14:17:00Z</time>
      </trkpt>
      <trkpt lat="45.29232" lon="5.05552">
        <ele>318</ele>
        <time>2011-06-03T14:17:06Z</time>
      </trkpt>
      <trkpt lat="45.29234" lon="5.05512">
        <ele>318</ele>
        <time>2011-06-03T14:17:10Z</time>
      </trkpt>
      <trkpt lat="45.29237" lon="5.05503">
        <ele>318</ele>
        <time>2011-06-03T14:17:11Z</time>
      </trkpt>
      <trkpt lat="45.29259" lon="5.05442">
        <ele>315.982421875</ele>
        <time>2011-06-03T14:17:18Z</time>
      </trkpt>
      <trkpt lat="45.29262" lon="5.05434">
        <ele>315.23876953125</ele>
        <time>2011-06-03T14:17:19Z</time>
      </trkpt>
      <trkpt lat="45.29267" lon="5.05416">
        <ele>313.9831237793</ele>
        <time>2011-06-03T14:17:21Z</time>
      </trkpt>
      <trkpt lat="45.29271" lon="5.0537">
        <ele>312.56042480469</ele>
        <time>2011-06-03T14:17:26Z</time>
      </trkpt>
      <trkpt lat="45.29264" lon="5.05332">
        <ele>314.04357910156</ele>
        <time>2011-06-03T14:17:30Z</time>
      </trkpt>
      <trkpt lat="45.2925" lon="5.0528">
        <ele>316.09906005859</ele>
        <time>2011-06-03T14:17:36Z</time>
      </trkpt>
      <trkpt lat="45.29243" lon="5.05241">
        <ele>315.42175292969</ele>
        <time>2011-06-03T14:17:40Z</time>
      </trkpt>
      <trkpt lat="45.29226" lon="5.05165">
        <ele>316.11090087891</ele>
        <time>2011-06-03T14:17:47Z</time>
      </trkpt>
      <trkpt lat="45.29221" lon="5.05143">
        <ele>316.37149047852</ele>
        <time>2011-06-03T14:17:49Z</time>
      </trkpt>
      <trkpt lat="45.29218" lon="5.05132">
        <ele>315.91198730469</ele>
        <time>2011-06-03T14:17:50Z</time>
      </trkpt>
      <trkpt lat="45.292" lon="5.05071">
        <ele>313.02581787109</ele>
        <time>2011-06-03T14:17:56Z</time>
      </trkpt>
      <trkpt lat="45.29177" lon="5.05004">
        <ele>316.05450439453</ele>
        <time>2011-06-03T14:18:03Z</time>
      </trkpt>
      <trkpt lat="45.29148" lon="5.04923">
        <ele>323.86770629883</ele>
        <time>2011-06-03T14:18:12Z</time>
      </trkpt>
      <trkpt lat="45.29145" lon="5.04913">
        <ele>324.58679199219</ele>
        <time>2011-06-03T14:18:13Z</time>
      </trkpt>
      <trkpt lat="45.29137" lon="5.04855">
        <ele>326.99188232422</ele>
        <time>2011-06-03T14:18:19Z</time>
      </trkpt>
      <trkpt lat="45.29136" lon="5.04845">
        <ele>326.86486816406</ele>
        <time>2011-06-03T14:18:20Z</time>
      </trkpt>
      <trkpt lat="45.29128" lon="5.04768">
        <ele>325.08798217773</ele>
        <time>2011-06-03T14:18:28Z</time>
      </trkpt>
      <trkpt lat="45.29121" lon="5.04692">
        <ele>322.79339599609</ele>
        <time>2011-06-03T14:18:36Z</time>
      </trkpt>
      <trkpt lat="45.29126" lon="5.04627">
        <ele>320.32366943359</ele>
        <time>2011-06-03T14:18:42Z</time>
      </trkpt>
      <trkpt lat="45.29134" lon="5.04526">
        <ele>320.55575561523</ele>
        <time>2011-06-03T14:18:51Z</time>
      </trkpt>
      <trkpt lat="45.29142" lon="5.04447">
        <ele>321.53503417969</ele>
        <time>2011-06-03T14:18:58Z</time>
      </trkpt>
      <trkpt lat="45.29145" lon="5.04413">
        <ele>319.96307373047</ele>
        <time>2011-06-03T14:19:01Z</time>
      </trkpt>
      <trkpt lat="45.2915" lon="5.04352">
        <ele>316.51550292969</ele>
        <time>2011-06-03T14:19:06Z</time>
      </trkpt>
      <trkpt lat="45.29153" lon="5.04305">
        <ele>312.86987304688</ele>
        <time>2011-06-03T14:19:10Z</time>
      </trkpt>
      <trkpt lat="45.29155" lon="5.04295">
        <ele>312.37377929688</ele>
        <time>2011-06-03T14:19:11Z</time>
      </trkpt>
      <trkpt lat="45.29156" lon="5.04272">
        <ele>311.85797119141</ele>
        <time>2011-06-03T14:19:14Z</time>
      </trkpt>
      <trkpt lat="45.2915" lon="5.04259">
        <ele>313.7633972168</ele>
        <time>2011-06-03T14:19:17Z</time>
      </trkpt>
      <trkpt lat="45.29144" lon="5.04262">
        <ele>314.32989501953</ele>
        <time>2011-06-03T14:19:19Z</time>
      </trkpt>
      <trkpt lat="45.29131" lon="5.04269">
        <ele>315.46835327148</ele>
        <time>2011-06-03T14:19:24Z</time>
      </trkpt>
      <trkpt lat="45.29116" lon="5.04268">
        <ele>317.19183349609</ele>
        <time>2011-06-03T14:19:28Z</time>
      </trkpt>
      <trkpt lat="45.29108" lon="5.04268">
        <ele>318.05087280273</ele>
        <time>2011-06-03T14:19:30Z</time>
      </trkpt>
      <trkpt lat="45.2908" lon="5.04269">
        <ele>321.35498046875</ele>
        <time>2011-06-03T14:19:37Z</time>
      </trkpt>
      <trkpt lat="45.29057" lon="5.04274">
        <ele>324.30755615234</ele>
        <time>2011-06-03T14:19:43Z</time>
      </trkpt>
      <trkpt lat="45.2903" lon="5.0428">
        <ele>326.81524658203</ele>
        <time>2011-06-03T14:19:50Z</time>
      </trkpt>
      <trkpt lat="45.29008" lon="5.04289">
        <ele>329.47253417969</ele>
        <time>2011-06-03T14:19:57Z</time>
      </trkpt>
      <trkpt lat="45.28989" lon="5.04294">
        <ele>331.76251220703</ele>
        <time>2011-06-03T14:20:03Z</time>
      </trkpt>
      <trkpt lat="45.28963" lon="5.04304">
        <ele>334.89929199219</ele>
        <time>2011-06-03T14:20:11Z</time>
      </trkpt>
      <trkpt lat="45.28944" lon="5.04315">
        <ele>337.32952880859</ele>
        <time>2011-06-03T14:20:17Z</time>
      </trkpt>
      <trkpt lat="45.28911" lon="5.04327">
        <ele>337.81988525391</ele>
        <time>2011-06-03T14:20:27Z</time>
      </trkpt>
      <trkpt lat="45.28886" lon="5.04338">
        <ele>338.11657714844</ele>
        <time>2011-06-03T14:20:35Z</time>
      </trkpt>
      <trkpt lat="45.28866" lon="5.04345">
        <ele>338.81695556641</ele>
        <time>2011-06-03T14:20:41Z</time>
      </trkpt>
      <trkpt lat="45.28845" lon="5.04354">
        <ele>342.20989990234</ele>
        <time>2011-06-03T14:20:48Z</time>
      </trkpt>
      <trkpt lat="45.28822" lon="5.04363">
        <ele>345.80075073242</ele>
        <time>2011-06-03T14:20:55Z</time>
      </trkpt>
      <trkpt lat="45.28791" lon="5.0437">
        <ele>350.75665283203</ele>
        <time>2011-06-03T14:21:04Z</time>
      </trkpt>
      <trkpt lat="45.28768" lon="5.04367">
        <ele>355.15924072266</ele>
        <time>2011-06-03T14:21:11Z</time>
      </trkpt>
      <trkpt lat="45.2875" lon="5.04353">
        <ele>358.30920410156</ele>
        <time>2011-06-03T14:21:17Z</time>
      </trkpt>
      <trkpt lat="45.28745" lon="5.04333">
        <ele>358.994140625</ele>
        <time>2011-06-03T14:21:21Z</time>
      </trkpt>
      <trkpt lat="45.28749" lon="5.04307">
        <ele>359</ele>
        <time>2011-06-03T14:21:26Z</time>
      </trkpt>
      <trkpt lat="45.28763" lon="5.04291">
        <ele>358.58706665039</ele>
        <time>2011-06-03T14:21:31Z</time>
      </trkpt>
      <trkpt lat="45.2878" lon="5.04288">
        <ele>357.39596557617</ele>
        <time>2011-06-03T14:21:36Z</time>
      </trkpt>
      <trkpt lat="45.28807" lon="5.04281">
        <ele>354.55047607422</ele>
        <time>2011-06-03T14:21:44Z</time>
      </trkpt>
      <trkpt lat="45.28836" lon="5.04266">
        <ele>351.38513183594</ele>
        <time>2011-06-03T14:21:53Z</time>
      </trkpt>
      <trkpt lat="45.28862" lon="5.04241">
        <ele>346.82092285156</ele>
        <time>2011-06-03T14:22:02Z</time>
      </trkpt>
      <trkpt lat="45.28879" lon="5.0422">
        <ele>346.70001220703</ele>
        <time>2011-06-03T14:22:07Z</time>
      </trkpt>
      <trkpt lat="45.289" lon="5.04194">
        <ele>346.78958129883</ele>
        <time>2011-06-03T14:22:12Z</time>
      </trkpt>
      <trkpt lat="45.28931" lon="5.04155">
        <ele>347.57119750977</ele>
        <time>2011-06-03T14:22:19Z</time>
      </trkpt>
      <trkpt lat="45.28957" lon="5.04119">
        <ele>347.87951660156</ele>
        <time>2011-06-03T14:22:25Z</time>
      </trkpt>
      <trkpt lat="45.28965" lon="5.04106">
        <ele>348.06924438477</ele>
        <time>2011-06-03T14:22:27Z</time>
      </trkpt>
      <trkpt lat="45.28976" lon="5.04077">
        <ele>348.05410766602</ele>
        <time>2011-06-03T14:22:31Z</time>
      </trkpt>
      <trkpt lat="45.28983" lon="5.04034">
        <ele>349.30017089844</ele>
        <time>2011-06-03T14:22:36Z</time>
      </trkpt>
      <trkpt lat="45.28983" lon="5.04013">
        <ele>349.513671875</ele>
        <time>2011-06-03T14:22:38Z</time>
      </trkpt>
      <trkpt lat="45.28977" lon="5.03981">
        <ele>350.28271484375</ele>
        <time>2011-06-03T14:22:41Z</time>
      </trkpt>
      <trkpt lat="45.28959" lon="5.0393">
        <ele>349.65600585938</ele>
        <time>2011-06-03T14:22:46Z</time>
      </trkpt>
      <trkpt lat="45.28938" lon="5.03896">
        <ele>352.09991455078</ele>
        <time>2011-06-03T14:22:50Z</time>
      </trkpt>
      <trkpt lat="45.28915" lon="5.03853">
        <ele>353.75970458984</ele>
        <time>2011-06-03T14:22:55Z</time>
      </trkpt>
      <trkpt lat="45.2891" lon="5.03837">
        <ele>353.59393310547</ele>
        <time>2011-06-03T14:22:57Z</time>
      </trkpt>
      <trkpt lat="45.28896" lon="5.0381">
        <ele>353.02838134766</ele>
        <time>2011-06-03T14:23:03Z</time>
      </trkpt>
      <trkpt lat="45.28879" lon="5.03792">
        <ele>353.45913696289</ele>
        <time>2011-06-03T14:23:10Z</time>
      </trkpt>
      <trkpt lat="45.28855" lon="5.03782">
        <ele>354.68856811523</ele>
        <time>2011-06-03T14:23:18Z</time>
      </trkpt>
      <trkpt lat="45.28832" lon="5.03781">
        <ele>356.22473144531</ele>
        <time>2011-06-03T14:23:25Z</time>
      </trkpt>
      <trkpt lat="45.28808" lon="5.03788">
        <ele>358.18682861328</ele>
        <time>2011-06-03T14:23:32Z</time>
      </trkpt>
      <trkpt lat="45.28779" lon="5.03802">
        <ele>358.99258422852</ele>
        <time>2011-06-03T14:23:41Z</time>
      </trkpt>
      <trkpt lat="45.28754" lon="5.03816">
        <ele>359.70141601562</ele>
        <time>2011-06-03T14:23:49Z</time>
      </trkpt>
      <trkpt lat="45.28732" lon="5.03828">
        <ele>361.7839050293</ele>
        <time>2011-06-03T14:23:56Z</time>
      </trkpt>
      <trkpt lat="45.28728" lon="5.0383">
        <ele>362.29699707031</ele>
        <time>2011-06-03T14:23:57Z</time>
      </trkpt>
      <trkpt lat="45.28687" lon="5.03847">
        <ele>369.28820800781</ele>
        <time>2011-06-03T14:24:05Z</time>
      </trkpt>
      <trkpt lat="45.28648" lon="5.03861">
        <ele>375.74365234375</ele>
        <time>2011-06-03T14:24:12Z</time>
      </trkpt>
      <trkpt lat="45.28611" lon="5.0387">
        <ele>381.74102783203</ele>
        <time>2011-06-03T14:24:18Z</time>
      </trkpt>
      <trkpt lat="45.28568" lon="5.03887">
        <ele>387.61520385742</ele>
        <time>2011-06-03T14:24:25Z</time>
      </trkpt>
      <trkpt lat="45.28526" lon="5.0391">
        <ele>393.92837524414</ele>
        <time>2011-06-03T14:24:32Z</time>
      </trkpt>
      <trkpt lat="45.28519" lon="5.03913">
        <ele>394.47595214844</ele>
        <time>2011-06-03T14:24:33Z</time>
      </trkpt>
      <trkpt lat="45.28502" lon="5.03909">
        <ele>395.55227661133</ele>
        <time>2011-06-03T14:24:36Z</time>
      </trkpt>
      <trkpt lat="45.28498" lon="5.03892">
        <ele>395.51721191406</ele>
        <time>2011-06-03T14:24:39Z</time>
      </trkpt>
      <trkpt lat="45.28503" lon="5.03873">
        <ele>394.72039794922</ele>
        <time>2011-06-03T14:24:43Z</time>
      </trkpt>
      <trkpt lat="45.2851" lon="5.03864">
        <ele>394.01089477539</ele>
        <time>2011-06-03T14:24:46Z</time>
      </trkpt>
      <trkpt lat="45.28531" lon="5.03837">
        <ele>393.27404785156</ele>
        <time>2011-06-03T14:24:56Z</time>
      </trkpt>
      <trkpt lat="45.2855" lon="5.03803">
        <ele>393.06118774414</ele>
        <time>2011-06-03T14:25:06Z</time>
      </trkpt>
      <trkpt lat="45.28566" lon="5.03762">
        <ele>393.94110107422</ele>
        <time>2011-06-03T14:25:16Z</time>
      </trkpt>
      <trkpt lat="45.28587" lon="5.0372">
        <ele>394.21032714844</ele>
        <time>2011-06-03T14:25:27Z</time>
      </trkpt>
      <trkpt lat="45.28605" lon="5.03691">
        <ele>389.67587280273</ele>
        <time>2011-06-03T14:25:35Z</time>
      </trkpt>
      <trkpt lat="45.28621" lon="5.03656">
        <ele>385.01205444336</ele>
        <time>2011-06-03T14:25:44Z</time>
      </trkpt>
      <trkpt lat="45.28624" lon="5.03626">
        <ele>382.07824707031</ele>
        <time>2011-06-03T14:25:50Z</time>
      </trkpt>
      <trkpt lat="45.28617" lon="5.03596">
        <ele>380.01962280273</ele>
        <time>2011-06-03T14:25:56Z</time>
      </trkpt>
      <trkpt lat="45.28604" lon="5.03577">
        <ele>379.41485595703</ele>
        <time>2011-06-03T14:26:01Z</time>
      </trkpt>
      <trkpt lat="45.28588" lon="5.03565">
        <ele>379.43579101562</ele>
        <time>2011-06-03T14:26:06Z</time>
      </trkpt>
      <trkpt lat="45.28557" lon="5.03555">
        <ele>380.87139892578</ele>
        <time>2011-06-03T14:26:14Z</time>
      </trkpt>
      <trkpt lat="45.28525" lon="5.0355">
        <ele>388.9697265625</ele>
        <time>2011-06-03T14:26:22Z</time>
      </trkpt>
      <trkpt lat="45.28494" lon="5.03544">
        <ele>393.34133911133</ele>
        <time>2011-06-03T14:26:30Z</time>
      </trkpt>
      <trkpt lat="45.28466" lon="5.03539">
        <ele>397.39562988281</ele>
        <time>2011-06-03T14:26:37Z</time>
      </trkpt>
      <trkpt lat="45.28451" lon="5.03536">
        <ele>399.36801147461</ele>
        <time>2011-06-03T14:26:41Z</time>
      </trkpt>
      <trkpt lat="45.28407" lon="5.03528">
        <ele>403.41192626953</ele>
        <time>2011-06-03T14:26:52Z</time>
      </trkpt>
      <trkpt lat="45.28376" lon="5.03521">
        <ele>410.28625488281</ele>
        <time>2011-06-03T14:27:00Z</time>
      </trkpt>
      <trkpt lat="45.28329" lon="5.03508">
        <ele>420</ele>
        <time>2011-06-03T14:27:13Z</time>
      </trkpt>
      <trkpt lat="45.28297" lon="5.03492">
        <ele>420</ele>
        <time>2011-06-03T14:27:22Z</time>
      </trkpt>
      <trkpt lat="45.28268" lon="5.03467">
        <ele>420</ele>
        <time>2011-06-03T14:27:31Z</time>
      </trkpt>
      <trkpt lat="45.28238" lon="5.0344">
        <ele>420</ele>
        <time>2011-06-03T14:27:40Z</time>
      </trkpt>
      <trkpt lat="45.28208" lon="5.03422">
        <ele>420.09219360352</ele>
        <time>2011-06-03T14:27:48Z</time>
      </trkpt>
      <trkpt lat="45.28177" lon="5.03414">
        <ele>420.63232421875</ele>
        <time>2011-06-03T14:27:55Z</time>
      </trkpt>
      <trkpt lat="45.28143" lon="5.03413">
        <ele>421</ele>
        <time>2011-06-03T14:28:02Z</time>
      </trkpt>
      <trkpt lat="45.28094" lon="5.03419">
        <ele>421.5986328125</ele>
        <time>2011-06-03T14:28:11Z</time>
      </trkpt>
      <trkpt lat="45.28033" lon="5.03426">
        <ele>422.27639770508</ele>
        <time>2011-06-03T14:28:21Z</time>
      </trkpt>
      <trkpt lat="45.27976" lon="5.03434">
        <ele>422.94326782227</ele>
        <time>2011-06-03T14:28:29Z</time>
      </trkpt>
      <trkpt lat="45.27918" lon="5.03439">
        <ele>422.82797241211</ele>
        <time>2011-06-03T14:28:36Z</time>
      </trkpt>
      <trkpt lat="45.27864" lon="5.03445">
        <ele>423</ele>
        <time>2011-06-03T14:28:42Z</time>
      </trkpt>
      <trkpt lat="45.27817" lon="5.03451">
        <ele>419.71697998047</ele>
        <time>2011-06-03T14:28:48Z</time>
      </trkpt>
      <trkpt lat="45.27775" lon="5.03456">
        <ele>416.87139892578</ele>
        <time>2011-06-03T14:28:54Z</time>
      </trkpt>
      <trkpt lat="45.27736" lon="5.0346">
        <ele>418.05990600586</ele>
        <time>2011-06-03T14:29:00Z</time>
      </trkpt>
      <trkpt lat="45.27684" lon="5.03465">
        <ele>419.83911132812</ele>
        <time>2011-06-03T14:29:08Z</time>
      </trkpt>
      <trkpt lat="45.27613" lon="5.03473">
        <ele>422.94390869141</ele>
        <time>2011-06-03T14:29:19Z</time>
      </trkpt>
      <trkpt lat="45.27559" lon="5.03478">
        <ele>422.86590576172</ele>
        <time>2011-06-03T14:29:27Z</time>
      </trkpt>
      <trkpt lat="45.27527" lon="5.03482">
        <ele>424.98052978516</ele>
        <time>2011-06-03T14:29:33Z</time>
      </trkpt>
      <trkpt lat="45.27488" lon="5.03487">
        <ele>423.77044677734</ele>
        <time>2011-06-03T14:29:40Z</time>
      </trkpt>
      <trkpt lat="45.2744" lon="5.03493">
        <ele>422.20751953125</ele>
        <time>2011-06-03T14:29:47Z</time>
      </trkpt>
      <trkpt lat="45.27401" lon="5.03496">
        <ele>421.5</ele>
        <time>2011-06-03T14:29:52Z</time>
      </trkpt>
      <trkpt lat="45.27348" lon="5.03478">
        <ele>419.15765380859</ele>
        <time>2011-06-03T14:29:58Z</time>
      </trkpt>
      <trkpt lat="45.27292" lon="5.0344">
        <ele>414.87673950195</ele>
        <time>2011-06-03T14:30:04Z</time>
      </trkpt>
      <trkpt lat="45.27262" lon="5.03416">
        <ele>413.62512207031</ele>
        <time>2011-06-03T14:30:07Z</time>
      </trkpt>
      <trkpt lat="45.2723" lon="5.03364">
        <ele>414.35165405273</ele>
        <time>2011-06-03T14:30:11Z</time>
      </trkpt>
      <trkpt lat="45.27225" lon="5.03348">
        <ele>415.88235473633</ele>
        <time>2011-06-03T14:30:12Z</time>
      </trkpt>
      <trkpt lat="45.27214" lon="5.03298">
        <ele>420.37274169922</ele>
        <time>2011-06-03T14:30:15Z</time>
      </trkpt>
      <trkpt lat="45.27209" lon="5.03281">
        <ele>420.82458496094</ele>
        <time>2011-06-03T14:30:16Z</time>
      </trkpt>
      <trkpt lat="45.27179" lon="5.03229">
        <ele>421.35110473633</ele>
        <time>2011-06-03T14:30:20Z</time>
      </trkpt>
      <trkpt lat="45.27119" lon="5.0317">
        <ele>420.74938964844</ele>
        <time>2011-06-03T14:30:26Z</time>
      </trkpt>
      <trkpt lat="45.27047" lon="5.03133">
        <ele>411.09497070312</ele>
        <time>2011-06-03T14:30:32Z</time>
      </trkpt>
      <trkpt lat="45.26945" lon="5.03082">
        <ele>396.33456420898</ele>
        <time>2011-06-03T14:30:40Z</time>
      </trkpt>
      <trkpt lat="45.26853" lon="5.03041">
        <ele>388.47314453125</ele>
        <time>2011-06-03T14:30:47Z</time>
      </trkpt>
      <trkpt lat="45.26773" lon="5.03006">
        <ele>383.98199462891</ele>
        <time>2011-06-03T14:30:53Z</time>
      </trkpt>
      <trkpt lat="45.26693" lon="5.02966">
        <ele>381.58190917969</ele>
        <time>2011-06-03T14:30:59Z</time>
      </trkpt>
      <trkpt lat="45.26598" lon="5.02925">
        <ele>382.67538452148</ele>
        <time>2011-06-03T14:31:06Z</time>
      </trkpt>
      <trkpt lat="45.26558" lon="5.02908">
        <ele>380.84048461914</ele>
        <time>2011-06-03T14:31:09Z</time>
      </trkpt>
      <trkpt lat="45.26531" lon="5.029">
        <ele>378.73706054688</ele>
        <time>2011-06-03T14:31:11Z</time>
      </trkpt>
      <trkpt lat="45.26462" lon="5.02903">
        <ele>366.5947265625</ele>
        <time>2011-06-03T14:31:16Z</time>
      </trkpt>
      <trkpt lat="45.26367" lon="5.02922">
        <ele>362.11535644531</ele>
        <time>2011-06-03T14:31:23Z</time>
      </trkpt>
      <trkpt lat="45.26299" lon="5.0294">
        <ele>355.47113037109</ele>
        <time>2011-06-03T14:31:28Z</time>
      </trkpt>
      <trkpt lat="45.26244" lon="5.02934">
        <ele>345.67532348633</ele>
        <time>2011-06-03T14:31:32Z</time>
      </trkpt>
      <trkpt lat="45.26203" lon="5.02919">
        <ele>345.24038696289</ele>
        <time>2011-06-03T14:31:35Z</time>
      </trkpt>
      <trkpt lat="45.26123" lon="5.02883">
        <ele>343.06857299805</ele>
        <time>2011-06-03T14:31:41Z</time>
      </trkpt>
      <trkpt lat="45.26097" lon="5.02873">
        <ele>342.30743408203</ele>
        <time>2011-06-03T14:31:43Z</time>
      </trkpt>
      <trkpt lat="45.26057" lon="5.02879">
        <ele>337.73370361328</ele>
        <time>2011-06-03T14:31:46Z</time>
      </trkpt>
      <trkpt lat="45.25977" lon="5.02907">
        <ele>332.18426513672</ele>
        <time>2011-06-03T14:31:52Z</time>
      </trkpt>
      <trkpt lat="45.2595" lon="5.0291">
        <ele>332.5231628418</ele>
        <time>2011-06-03T14:31:54Z</time>
      </trkpt>
      <trkpt lat="45.25872" lon="5.02892">
        <ele>329.62927246094</ele>
        <time>2011-06-03T14:32:00Z</time>
      </trkpt>
      <trkpt lat="45.25833" lon="5.02879">
        <ele>326.794921875</ele>
        <time>2011-06-03T14:32:03Z</time>
      </trkpt>
      <trkpt lat="45.25761" lon="5.02829">
        <ele>321.31259155273</ele>
        <time>2011-06-03T14:32:09Z</time>
      </trkpt>
      <trkpt lat="45.25727" lon="5.02799">
        <ele>320.94281005859</ele>
        <time>2011-06-03T14:32:12Z</time>
      </trkpt>
      <trkpt lat="45.2568" lon="5.02766">
        <ele>315.31994628906</ele>
        <time>2011-06-03T14:32:16Z</time>
      </trkpt>
      <trkpt lat="45.25631" lon="5.02724">
        <ele>310.20452880859</ele>
        <time>2011-06-03T14:32:21Z</time>
      </trkpt>
      <trkpt lat="45.25597" lon="5.02691">
        <ele>306.88537597656</ele>
        <time>2011-06-03T14:32:26Z</time>
      </trkpt>
      <trkpt lat="45.25573" lon="5.02658">
        <ele>305.29733276367</ele>
        <time>2011-06-03T14:32:30Z</time>
      </trkpt>
      <trkpt lat="45.25558" lon="5.02622">
        <ele>301.32550048828</ele>
        <time>2011-06-03T14:32:35Z</time>
      </trkpt>
      <trkpt lat="45.25542" lon="5.0259">
        <ele>300</ele>
        <time>2011-06-03T14:32:40Z</time>
      </trkpt>
      <trkpt lat="45.25522" lon="5.02539">
        <ele>300</ele>
        <time>2011-06-03T14:32:46Z</time>
      </trkpt>
      <trkpt lat="45.25498" lon="5.02486">
        <ele>300</ele>
        <time>2011-06-03T14:32:53Z</time>
      </trkpt>
      <trkpt lat="45.25482" lon="5.02454">
        <ele>300</ele>
        <time>2011-06-03T14:32:59Z</time>
      </trkpt>
      <trkpt lat="45.2548" lon="5.0245">
        <ele>300</ele>
        <time>2011-06-03T14:33:00Z</time>
      </trkpt>
      <trkpt lat="45.25483" lon="5.02437">
        <ele>300</ele>
        <time>2011-06-03T14:33:05Z</time>
      </trkpt>
      <trkpt lat="45.25483" lon="5.02434">
        <ele>300</ele>
        <time>2011-06-03T14:33:06Z</time>
      </trkpt>
      <trkpt lat="45.25481" lon="5.0242">
        <ele>300</ele>
        <time>2011-06-03T14:33:12Z</time>
      </trkpt>
      <trkpt lat="45.25482" lon="5.02421">
        <ele>300</ele>
        <time>2011-06-03T14:33:13Z</time>
      </trkpt>
      <trkpt lat="45.25474" lon="5.02407">
        <ele>300</ele>
        <time>2011-06-03T14:33:38Z</time>
      </trkpt>
      <trkpt lat="45.2546" lon="5.02405">
        <ele>300</ele>
        <time>2011-06-03T14:33:42Z</time>
      </trkpt>
      <trkpt lat="45.25454" lon="5.02421">
        <ele>300</ele>
        <time>2011-06-03T14:33:45Z</time>
      </trkpt>
      <trkpt lat="45.25444" lon="5.02438">
        <ele>300</ele>
        <time>2011-06-03T14:33:48Z</time>
      </trkpt>
      <trkpt lat="45.25409" lon="5.02478">
        <ele>300</ele>
        <time>2011-06-03T14:33:56Z</time>
      </trkpt>
      <trkpt lat="45.25387" lon="5.02505">
        <ele>300</ele>
        <time>2011-06-03T14:34:01Z</time>
      </trkpt>
      <trkpt lat="45.2535" lon="5.02547">
        <ele>300</ele>
        <time>2011-06-03T14:34:09Z</time>
      </trkpt>
      <trkpt lat="45.25313" lon="5.02588">
        <ele>300</ele>
        <time>2011-06-03T14:34:17Z</time>
      </trkpt>
      <trkpt lat="45.25288" lon="5.02616">
        <ele>300</ele>
        <time>2011-06-03T14:34:23Z</time>
      </trkpt>
      <trkpt lat="45.25253" lon="5.02656">
        <ele>300</ele>
        <time>2011-06-03T14:34:31Z</time>
      </trkpt>
      <trkpt lat="45.25221" lon="5.02694">
        <ele>299</ele>
        <time>2011-06-03T14:34:38Z</time>
      </trkpt>
      <trkpt lat="45.25182" lon="5.02737">
        <ele>299</ele>
        <time>2011-06-03T14:34:46Z</time>
      </trkpt>
      <trkpt lat="45.25146" lon="5.02776">
        <ele>299</ele>
        <time>2011-06-03T14:34:53Z</time>
      </trkpt>
      <trkpt lat="45.25125" lon="5.02797">
        <ele>298.83856201172</ele>
        <time>2011-06-03T14:34:57Z</time>
      </trkpt>
      <trkpt lat="45.25108" lon="5.02808">
        <ele>298.87268066406</ele>
        <time>2011-06-03T14:35:00Z</time>
      </trkpt>
      <trkpt lat="45.25076" lon="5.02809">
        <ele>298</ele>
        <time>2011-06-03T14:35:05Z</time>
      </trkpt>
      <trkpt lat="45.25058" lon="5.02798">
        <ele>298</ele>
        <time>2011-06-03T14:35:08Z</time>
      </trkpt>
      <trkpt lat="45.25012" lon="5.02751">
        <ele>296.439453125</ele>
        <time>2011-06-03T14:35:17Z</time>
      </trkpt>
      <trkpt lat="45.24979" lon="5.02715">
        <ele>298.30712890625</ele>
        <time>2011-06-03T14:35:24Z</time>
      </trkpt>
      <trkpt lat="45.24949" lon="5.02664">
        <ele>298.98516845703</ele>
        <time>2011-06-03T14:35:32Z</time>
      </trkpt>
      <trkpt lat="45.24933" lon="5.02614">
        <ele>299.04364013672</ele>
        <time>2011-06-03T14:35:39Z</time>
      </trkpt>
      <trkpt lat="45.24925" lon="5.02571">
        <ele>298.87133789062</ele>
        <time>2011-06-03T14:35:45Z</time>
      </trkpt>
      <trkpt lat="45.24907" lon="5.02535">
        <ele>299</ele>
        <time>2011-06-03T14:35:51Z</time>
      </trkpt>
      <trkpt lat="45.24888" lon="5.02526">
        <ele>299</ele>
        <time>2011-06-03T14:35:55Z</time>
      </trkpt>
      <trkpt lat="45.2487" lon="5.0253">
        <ele>299</ele>
        <time>2011-06-03T14:35:59Z</time>
      </trkpt>
      <trkpt lat="45.24862" lon="5.02536">
        <ele>299</ele>
        <time>2011-06-03T14:36:01Z</time>
      </trkpt>
      <trkpt lat="45.24852" lon="5.02545">
        <ele>299</ele>
        <time>2011-06-03T14:36:04Z</time>
      </trkpt>
      <trkpt lat="45.24838" lon="5.02541">
        <ele>299</ele>
        <time>2011-06-03T14:36:08Z</time>
      </trkpt>
      <trkpt lat="45.24831" lon="5.02529">
        <ele>299</ele>
        <time>2011-06-03T14:36:10Z</time>
      </trkpt>
      <trkpt lat="45.24809" lon="5.02481">
        <ele>298.31884765625</ele>
        <time>2011-06-03T14:36:16Z</time>
      </trkpt>
      <trkpt lat="45.2478" lon="5.02425">
        <ele>298</ele>
        <time>2011-06-03T14:36:22Z</time>
      </trkpt>
      <trkpt lat="45.24758" lon="5.02383">
        <ele>297</ele>
        <time>2011-06-03T14:36:26Z</time>
      </trkpt>
      <trkpt lat="45.24727" lon="5.02316">
        <ele>296.31304931641</ele>
        <time>2011-06-03T14:36:32Z</time>
      </trkpt>
      <trkpt lat="45.24719" lon="5.02295">
        <ele>296.21484375</ele>
        <time>2011-06-03T14:36:34Z</time>
      </trkpt>
      <trkpt lat="45.24703" lon="5.02252">
        <ele>298.34860229492</ele>
        <time>2011-06-03T14:36:39Z</time>
      </trkpt>
      <trkpt lat="45.24682" lon="5.02197">
        <ele>301.40655517578</ele>
        <time>2011-06-03T14:36:47Z</time>
      </trkpt>
      <trkpt lat="45.24662" lon="5.02142">
        <ele>302.95910644531</ele>
        <time>2011-06-03T14:36:55Z</time>
      </trkpt>
      <trkpt lat="45.24647" lon="5.02098">
        <ele>306.21765136719</ele>
        <time>2011-06-03T14:37:01Z</time>
      </trkpt>
      <trkpt lat="45.24629" lon="5.02046">
        <ele>310.85565185547</ele>
        <time>2011-06-03T14:37:07Z</time>
      </trkpt>
      <trkpt lat="45.24599" lon="5.01959">
        <ele>318.07763671875</ele>
        <time>2011-06-03T14:37:16Z</time>
      </trkpt>
      <trkpt lat="45.2457" lon="5.01879">
        <ele>318.66442871094</ele>
        <time>2011-06-03T14:37:24Z</time>
      </trkpt>
      <trkpt lat="45.24541" lon="5.01787">
        <ele>318.92840576172</ele>
        <time>2011-06-03T14:37:33Z</time>
      </trkpt>
      <trkpt lat="45.24533" lon="5.01716">
        <ele>316.98550415039</ele>
        <time>2011-06-03T14:37:39Z</time>
      </trkpt>
      <trkpt lat="45.24524" lon="5.01601">
        <ele>307.943359375</ele>
        <time>2011-06-03T14:37:48Z</time>
      </trkpt>
      <trkpt lat="45.24512" lon="5.01511">
        <ele>301.66217041016</ele>
        <time>2011-06-03T14:37:55Z</time>
      </trkpt>
      <trkpt lat="45.24503" lon="5.01462">
        <ele>299.51507568359</ele>
        <time>2011-06-03T14:37:59Z</time>
      </trkpt>
      <trkpt lat="45.24491" lon="5.01415">
        <ele>298.29574584961</ele>
        <time>2011-06-03T14:38:03Z</time>
      </trkpt>
      <trkpt lat="45.24468" lon="5.01385">
        <ele>298.14367675781</ele>
        <time>2011-06-03T14:38:07Z</time>
      </trkpt>
      <trkpt lat="45.24447" lon="5.01392">
        <ele>298.92272949219</ele>
        <time>2011-06-03T14:38:10Z</time>
      </trkpt>
      <trkpt lat="45.24409" lon="5.01404">
        <ele>299.15460205078</ele>
        <time>2011-06-03T14:38:16Z</time>
      </trkpt>
      <trkpt lat="45.24382" lon="5.01412">
        <ele>300.82507324219</ele>
        <time>2011-06-03T14:38:21Z</time>
      </trkpt>
      <trkpt lat="45.24356" lon="5.01409">
        <ele>304.32043457031</ele>
        <time>2011-06-03T14:38:26Z</time>
      </trkpt>
      <trkpt lat="45.24343" lon="5.01401">
        <ele>305.79809570312</ele>
        <time>2011-06-03T14:38:29Z</time>
      </trkpt>
      <trkpt lat="45.24316" lon="5.0138">
        <ele>311.06369018555</ele>
        <time>2011-06-03T14:38:36Z</time>
      </trkpt>
      <trkpt lat="45.243" lon="5.01361">
        <ele>315.74560546875</ele>
        <time>2011-06-03T14:38:41Z</time>
      </trkpt>
      <trkpt lat="45.24296" lon="5.01332">
        <ele>317.53442382812</ele>
        <time>2011-06-03T14:38:46Z</time>
      </trkpt>
      <trkpt lat="45.24305" lon="5.01311">
        <ele>318.45452880859</ele>
        <time>2011-06-03T14:38:50Z</time>
      </trkpt>
      <trkpt lat="45.24324" lon="5.01294">
        <ele>316.1516418457</ele>
        <time>2011-06-03T14:38:56Z</time>
      </trkpt>
      <trkpt lat="45.24334" lon="5.0128">
        <ele>314.6667175293</ele>
        <time>2011-06-03T14:39:01Z</time>
      </trkpt>
      <trkpt lat="45.24349" lon="5.01258">
        <ele>312.82565307617</ele>
        <time>2011-06-03T14:39:06Z</time>
      </trkpt>
      <trkpt lat="45.24361" lon="5.01228">
        <ele>309.89764404297</ele>
        <time>2011-06-03T14:39:12Z</time>
      </trkpt>
      <trkpt lat="45.24374" lon="5.01203">
        <ele>305.69775390625</ele>
        <time>2011-06-03T14:39:18Z</time>
      </trkpt>
      <trkpt lat="45.24393" lon="5.01185">
        <ele>300.69812011719</ele>
        <time>2011-06-03T14:39:24Z</time>
      </trkpt>
      <trkpt lat="45.24412" lon="5.01174">
        <ele>299.35229492188</ele>
        <time>2011-06-03T14:39:30Z</time>
      </trkpt>
      <trkpt lat="45.24424" lon="5.01154">
        <ele>298.8869934082</ele>
        <time>2011-06-03T14:39:35Z</time>
      </trkpt>
      <trkpt lat="45.24426" lon="5.0113">
        <ele>298.654296875</ele>
        <time>2011-06-03T14:39:40Z</time>
      </trkpt>
      <trkpt lat="45.24417" lon="5.01105">
        <ele>298.97015380859</ele>
        <time>2011-06-03T14:39:46Z</time>
      </trkpt>
      <trkpt lat="45.24401" lon="5.01079">
        <ele>300.64080810547</ele>
        <time>2011-06-03T14:39:53Z</time>
      </trkpt>
      <trkpt lat="45.24382" lon="5.0106">
        <ele>303.83120727539</ele>
        <time>2011-06-03T14:40:00Z</time>
      </trkpt>
      <trkpt lat="45.2436" lon="5.01051">
        <ele>310.400390625</ele>
        <time>2011-06-03T14:40:07Z</time>
      </trkpt>
      <trkpt lat="45.24332" lon="5.01048">
        <ele>315.47125244141</ele>
        <time>2011-06-03T14:40:15Z</time>
      </trkpt>
      <trkpt lat="45.24304" lon="5.01048">
        <ele>321.58163452148</ele>
        <time>2011-06-03T14:40:23Z</time>
      </trkpt>
      <trkpt lat="45.24275" lon="5.0104">
        <ele>327.205078125</ele>
        <time>2011-06-03T14:40:31Z</time>
      </trkpt>
      <trkpt lat="45.24255" lon="5.01018">
        <ele>331.92224121094</ele>
        <time>2011-06-03T14:40:38Z</time>
      </trkpt>
      <trkpt lat="45.24241" lon="5.00989">
        <ele>335.29943847656</ele>
        <time>2011-06-03T14:40:45Z</time>
      </trkpt>
      <trkpt lat="45.24235" lon="5.00955">
        <ele>336.83752441406</ele>
        <time>2011-06-03T14:40:52Z</time>
      </trkpt>
      <trkpt lat="45.24233" lon="5.00924">
        <ele>336.86660766602</ele>
        <time>2011-06-03T14:40:58Z</time>
      </trkpt>
      <trkpt lat="45.24231" lon="5.00913">
        <ele>337.02044677734</ele>
        <time>2011-06-03T14:41:00Z</time>
      </trkpt>
      <trkpt lat="45.24217" lon="5.00893">
        <ele>338.83184814453</ele>
        <time>2011-06-03T14:41:05Z</time>
      </trkpt>
      <trkpt lat="45.24205" lon="5.00896">
        <ele>340.57922363281</ele>
        <time>2011-06-03T14:41:08Z</time>
      </trkpt>
      <trkpt lat="45.24197" lon="5.00912">
        <ele>341.66250610352</ele>
        <time>2011-06-03T14:41:11Z</time>
      </trkpt>
      <trkpt lat="45.24198" lon="5.00924">
        <ele>341.673828125</ele>
        <time>2011-06-03T14:41:13Z</time>
      </trkpt>
      <trkpt lat="45.24207" lon="5.00975">
        <ele>341.12890625</ele>
        <time>2011-06-03T14:41:21Z</time>
      </trkpt>
      <trkpt lat="45.24202" lon="5.01011">
        <ele>341.34857177734</ele>
        <time>2011-06-03T14:41:27Z</time>
      </trkpt>
      <trkpt lat="45.24189" lon="5.01031">
        <ele>342.96997070312</ele>
        <time>2011-06-03T14:41:32Z</time>
      </trkpt>
      <trkpt lat="45.24181" lon="5.01036">
        <ele>344.19046020508</ele>
        <time>2011-06-03T14:41:34Z</time>
      </trkpt>
      <trkpt lat="45.24152" lon="5.01045">
        <ele>349.25057983398</ele>
        <time>2011-06-03T14:41:42Z</time>
      </trkpt>
      <trkpt lat="45.24117" lon="5.01051">
        <ele>354.17318725586</ele>
        <time>2011-06-03T14:41:51Z</time>
      </trkpt>
      <trkpt lat="45.2408" lon="5.01058">
        <ele>359.01931762695</ele>
        <time>2011-06-03T14:42:01Z</time>
      </trkpt>
      <trkpt lat="45.24055" lon="5.01064">
        <ele>360</ele>
        <time>2011-06-03T14:42:08Z</time>
      </trkpt>
      <trkpt lat="45.24019" lon="5.0107">
        <ele>360</ele>
        <time>2011-06-03T14:42:18Z</time>
      </trkpt>
      <trkpt lat="45.23995" lon="5.01075">
        <ele>360</ele>
        <time>2011-06-03T14:42:25Z</time>
      </trkpt>
      <trkpt lat="45.23962" lon="5.01081">
        <ele>360</ele>
        <time>2011-06-03T14:42:34Z</time>
      </trkpt>
      <trkpt lat="45.23921" lon="5.01088">
        <ele>360</ele>
        <time>2011-06-03T14:42:45Z</time>
      </trkpt>
      <trkpt lat="45.23898" lon="5.01091">
        <ele>360</ele>
        <time>2011-06-03T14:42:51Z</time>
      </trkpt>
      <trkpt lat="45.23885" lon="5.01094">
        <ele>360</ele>
        <time>2011-06-03T14:42:54Z</time>
      </trkpt>
      <trkpt lat="45.23864" lon="5.01096">
        <ele>360</ele>
        <time>2011-06-03T14:42:58Z</time>
      </trkpt>
      <trkpt lat="45.23848" lon="5.01094">
        <ele>360</ele>
        <time>2011-06-03T14:43:01Z</time>
      </trkpt>
      <trkpt lat="45.23806" lon="5.01083">
        <ele>360</ele>
        <time>2011-06-03T14:43:08Z</time>
      </trkpt>
      <trkpt lat="45.23781" lon="5.01077">
        <ele>360</ele>
        <time>2011-06-03T14:43:12Z</time>
      </trkpt>
      <trkpt lat="45.23733" lon="5.01063">
        <ele>360</ele>
        <time>2011-06-03T14:43:19Z</time>
      </trkpt>
      <trkpt lat="45.23677" lon="5.01049">
        <ele>359.84017944336</ele>
        <time>2011-06-03T14:43:27Z</time>
      </trkpt>
      <trkpt lat="45.23608" lon="5.01032">
        <ele>360</ele>
        <time>2011-06-03T14:43:36Z</time>
      </trkpt>
      <trkpt lat="45.23567" lon="5.01014">
        <ele>358.0563659668</ele>
        <time>2011-06-03T14:43:41Z</time>
      </trkpt>
      <trkpt lat="45.23527" lon="5.00991">
        <ele>355.08065795898</ele>
        <time>2011-06-03T14:43:46Z</time>
      </trkpt>
      <trkpt lat="45.23475" lon="5.00978">
        <ele>354.33239746094</ele>
        <time>2011-06-03T14:43:52Z</time>
      </trkpt>
      <trkpt lat="45.23457" lon="5.00974">
        <ele>354.70419311523</ele>
        <time>2011-06-03T14:43:54Z</time>
      </trkpt>
      <trkpt lat="45.23408" lon="5.00966">
        <ele>355.92108154297</ele>
        <time>2011-06-03T14:43:59Z</time>
      </trkpt>
      <trkpt lat="45.23336" lon="5.00955">
        <ele>359</ele>
        <time>2011-06-03T14:44:06Z</time>
      </trkpt>
      <trkpt lat="45.23284" lon="5.00947">
        <ele>359</ele>
        <time>2011-06-03T14:44:11Z</time>
      </trkpt>
      <trkpt lat="45.23274" lon="5.00943">
        <ele>358.96319580078</ele>
        <time>2011-06-03T14:44:12Z</time>
      </trkpt>
      <trkpt lat="45.23239" lon="5.00925">
        <ele>358.30401611328</ele>
        <time>2011-06-03T14:44:16Z</time>
      </trkpt>
      <trkpt lat="45.23223" lon="5.00919">
        <ele>358.09460449219</ele>
        <time>2011-06-03T14:44:18Z</time>
      </trkpt>
      <trkpt lat="45.23192" lon="5.00916">
        <ele>358.03359985352</ele>
        <time>2011-06-03T14:44:22Z</time>
      </trkpt>
      <trkpt lat="45.23178" lon="5.00914">
        <ele>358.1510925293</ele>
        <time>2011-06-03T14:44:24Z</time>
      </trkpt>
      <trkpt lat="45.23166" lon="5.00912">
        <ele>358.38034057617</ele>
        <time>2011-06-03T14:44:26Z</time>
      </trkpt>
      <trkpt lat="45.2316" lon="5.00911">
        <ele>358.79107666016</ele>
        <time>2011-06-03T14:44:27Z</time>
      </trkpt>
      <trkpt lat="45.2314" lon="5.00906">
        <ele>360.50741577148</ele>
        <time>2011-06-03T14:44:31Z</time>
      </trkpt>
      <trkpt lat="45.23135" lon="5.00905">
        <ele>360.80801391602</ele>
        <time>2011-06-03T14:44:32Z</time>
      </trkpt>
      <trkpt lat="45.23127" lon="5.00903">
        <ele>361.38479614258</ele>
        <time>2011-06-03T14:44:34Z</time>
      </trkpt>
      <trkpt lat="45.23108" lon="5.00899">
        <ele>362.69848632812</ele>
        <time>2011-06-03T14:44:39Z</time>
      </trkpt>
      <trkpt lat="45.23087" lon="5.00893">
        <ele>364.41625976562</ele>
        <time>2011-06-03T14:44:46Z</time>
      </trkpt>
      <trkpt lat="45.23068" lon="5.00888">
        <ele>365.62078857422</ele>
        <time>2011-06-03T14:44:52Z</time>
      </trkpt>
      <trkpt lat="45.23042" lon="5.00881">
        <ele>367.81985473633</ele>
        <time>2011-06-03T14:44:59Z</time>
      </trkpt>
      <trkpt lat="45.23017" lon="5.00875">
        <ele>369.88751220703</ele>
        <time>2011-06-03T14:45:05Z</time>
      </trkpt>
      <trkpt lat="45.22984" lon="5.00867">
        <ele>373.06997680664</ele>
        <time>2011-06-03T14:45:13Z</time>
      </trkpt>
      <trkpt lat="45.22956" lon="5.0086">
        <ele>376.22302246094</ele>
        <time>2011-06-03T14:45:20Z</time>
      </trkpt>
      <trkpt lat="45.22934" lon="5.00859">
        <ele>378.30334472656</ele>
        <time>2011-06-03T14:45:26Z</time>
      </trkpt>
      <trkpt lat="45.22914" lon="5.00862">
        <ele>380.20935058594</ele>
        <time>2011-06-03T14:45:31Z</time>
      </trkpt>
      <trkpt lat="45.22891" lon="5.00869">
        <ele>381.95986938477</ele>
        <time>2011-06-03T14:45:37Z</time>
      </trkpt>
      <trkpt lat="45.22855" lon="5.00883">
        <ele>383.08239746094</ele>
        <time>2011-06-03T14:45:45Z</time>
      </trkpt>
      <trkpt lat="45.22839" lon="5.00904">
        <ele>381.94430541992</ele>
        <time>2011-06-03T14:45:49Z</time>
      </trkpt>
      <trkpt lat="45.22835" lon="5.00922">
        <ele>380.49737548828</ele>
        <time>2011-06-03T14:45:51Z</time>
      </trkpt>
      <trkpt lat="45.22828" lon="5.00997">
        <ele>374.54321289062</ele>
        <time>2011-06-03T14:45:59Z</time>
      </trkpt>
      <trkpt lat="45.22826" lon="5.01034">
        <ele>373.1103515625</ele>
        <time>2011-06-03T14:46:03Z</time>
      </trkpt>
      <trkpt lat="45.22823" lon="5.01076">
        <ele>373.99606323242</ele>
        <time>2011-06-03T14:46:08Z</time>
      </trkpt>
      <trkpt lat="45.22819" lon="5.01132">
        <ele>374.91589355469</ele>
        <time>2011-06-03T14:46:15Z</time>
      </trkpt>
      <trkpt lat="45.22816" lon="5.01179">
        <ele>375.82153320312</ele>
        <time>2011-06-03T14:46:22Z</time>
      </trkpt>
      <trkpt lat="45.22813" lon="5.01229">
        <ele>376.46154785156</ele>
        <time>2011-06-03T14:46:30Z</time>
      </trkpt>
      <trkpt lat="45.22808" lon="5.01272">
        <ele>377.60754394531</ele>
        <time>2011-06-03T14:46:38Z</time>
      </trkpt>
      <trkpt lat="45.22798" lon="5.01312">
        <ele>378</ele>
        <time>2011-06-03T14:46:46Z</time>
      </trkpt>
      <trkpt lat="45.22791" lon="5.01331">
        <ele>378</ele>
        <time>2011-06-03T14:46:51Z</time>
      </trkpt>
      <trkpt lat="45.22778" lon="5.01368">
        <ele>378.26165771484</ele>
        <time>2011-06-03T14:46:58Z</time>
      </trkpt>
      <trkpt lat="45.22776" lon="5.01374">
        <ele>378.44879150391</ele>
        <time>2011-06-03T14:46:59Z</time>
      </trkpt>
      <trkpt lat="45.22762" lon="5.01413">
        <ele>379.49584960938</ele>
        <time>2011-06-03T14:47:07Z</time>
      </trkpt>
      <trkpt lat="45.22746" lon="5.01453">
        <ele>381.91970825195</ele>
        <time>2011-06-03T14:47:15Z</time>
      </trkpt>
      <trkpt lat="45.22728" lon="5.01496">
        <ele>385.43832397461</ele>
        <time>2011-06-03T14:47:24Z</time>
      </trkpt>
      <trkpt lat="45.22708" lon="5.01537">
        <ele>389.52563476562</ele>
        <time>2011-06-03T14:47:33Z</time>
      </trkpt>
      <trkpt lat="45.22687" lon="5.01577">
        <ele>392.98791503906</ele>
        <time>2011-06-03T14:47:42Z</time>
      </trkpt>
      <trkpt lat="45.22672" lon="5.01607">
        <ele>395.45239257812</ele>
        <time>2011-06-03T14:47:49Z</time>
      </trkpt>
      <trkpt lat="45.22652" lon="5.01642">
        <ele>397.51232910156</ele>
        <time>2011-06-03T14:47:57Z</time>
      </trkpt>
      <trkpt lat="45.2263" lon="5.01675">
        <ele>398.23788452148</ele>
        <time>2011-06-03T14:48:05Z</time>
      </trkpt>
      <trkpt lat="45.22621" lon="5.01686">
        <ele>398.18704223633</ele>
        <time>2011-06-03T14:48:08Z</time>
      </trkpt>
      <trkpt lat="45.2261" lon="5.01696">
        <ele>398.02294921875</ele>
        <time>2011-06-03T14:48:11Z</time>
      </trkpt>
      <trkpt lat="45.22586" lon="5.017">
        <ele>398.88812255859</ele>
        <time>2011-06-03T14:48:17Z</time>
      </trkpt>
      <trkpt lat="45.22578" lon="5.01699">
        <ele>399.15762329102</ele>
        <time>2011-06-03T14:48:19Z</time>
      </trkpt>
      <trkpt lat="45.22557" lon="5.01699">
        <ele>399.79797363281</ele>
        <time>2011-06-03T14:48:24Z</time>
      </trkpt>
      <trkpt lat="45.2253" lon="5.0171">
        <ele>399.95639038086</ele>
        <time>2011-06-03T14:48:30Z</time>
      </trkpt>
      <trkpt lat="45.22505" lon="5.01728">
        <ele>399.17303466797</ele>
        <time>2011-06-03T14:48:35Z</time>
      </trkpt>
      <trkpt lat="45.22489" lon="5.01746">
        <ele>398.54827880859</ele>
        <time>2011-06-03T14:48:38Z</time>
      </trkpt>
      <trkpt lat="45.22475" lon="5.0177">
        <ele>398.10186767578</ele>
        <time>2011-06-03T14:48:41Z</time>
      </trkpt>
      <trkpt lat="45.22451" lon="5.018">
        <ele>396.35900878906</ele>
        <time>2011-06-03T14:48:45Z</time>
      </trkpt>
      <trkpt lat="45.22427" lon="5.01813">
        <ele>394.99151611328</ele>
        <time>2011-06-03T14:48:48Z</time>
      </trkpt>
      <trkpt lat="45.22409" lon="5.01819">
        <ele>393.58172607422</ele>
        <time>2011-06-03T14:48:50Z</time>
      </trkpt>
      <trkpt lat="45.22374" lon="5.0182">
        <ele>389.15185546875</ele>
        <time>2011-06-03T14:48:54Z</time>
      </trkpt>
      <trkpt lat="45.22365" lon="5.01817">
        <ele>387.69247436523</ele>
        <time>2011-06-03T14:48:55Z</time>
      </trkpt>
      <trkpt lat="45.22319" lon="5.01815">
        <ele>385.17547607422</ele>
        <time>2011-06-03T14:49:00Z</time>
      </trkpt>
      <trkpt lat="45.2231" lon="5.0182">
        <ele>385.24307250977</ele>
        <time>2011-06-03T14:49:01Z</time>
      </trkpt>
      <trkpt lat="45.22283" lon="5.01836">
        <ele>383.15512084961</ele>
        <time>2011-06-03T14:49:04Z</time>
      </trkpt>
      <trkpt lat="45.22264" lon="5.01847">
        <ele>383.94921875</ele>
        <time>2011-06-03T14:49:06Z</time>
      </trkpt>
      <trkpt lat="45.22234" lon="5.01842">
        <ele>381.86605834961</ele>
        <time>2011-06-03T14:49:09Z</time>
      </trkpt>
      <trkpt lat="45.22226" lon="5.01832">
        <ele>380.32641601562</ele>
        <time>2011-06-03T14:49:10Z</time>
      </trkpt>
      <trkpt lat="45.22202" lon="5.01813">
        <ele>375.2825012207</ele>
        <time>2011-06-03T14:49:13Z</time>
      </trkpt>
      <trkpt lat="45.22185" lon="5.01818">
        <ele>374.58410644531</ele>
        <time>2011-06-03T14:49:15Z</time>
      </trkpt>
      <trkpt lat="45.22176" lon="5.01824">
        <ele>374.64248657227</ele>
        <time>2011-06-03T14:49:16Z</time>
      </trkpt>
      <trkpt lat="45.22127" lon="5.01858">
        <ele>374.96176147461</ele>
        <time>2011-06-03T14:49:22Z</time>
      </trkpt>
      <trkpt lat="45.22104" lon="5.01894">
        <ele>375.61877441406</ele>
        <time>2011-06-03T14:49:26Z</time>
      </trkpt>
      <trkpt lat="45.22096" lon="5.01929">
        <ele>376.3603515625</ele>
        <time>2011-06-03T14:49:29Z</time>
      </trkpt>
      <trkpt lat="45.22096" lon="5.01941">
        <ele>376.81695556641</ele>
        <time>2011-06-03T14:49:30Z</time>
      </trkpt>
      <trkpt lat="45.22087" lon="5.0199">
        <ele>378.92416381836</ele>
        <time>2011-06-03T14:49:34Z</time>
      </trkpt>
      <trkpt lat="45.22064" lon="5.02011">
        <ele>375.06259155273</ele>
        <time>2011-06-03T14:49:37Z</time>
      </trkpt>
      <trkpt lat="45.2205" lon="5.0203">
        <ele>373.98489379883</ele>
        <time>2011-06-03T14:49:39Z</time>
      </trkpt>
      <trkpt lat="45.22049" lon="5.02059">
        <ele>375.14236450195</ele>
        <time>2011-06-03T14:49:41Z</time>
      </trkpt>
      <trkpt lat="45.22041" lon="5.02097">
        <ele>376.34643554688</ele>
        <time>2011-06-03T14:49:44Z</time>
      </trkpt>
      <trkpt lat="45.22021" lon="5.02111">
        <ele>373.53381347656</ele>
        <time>2011-06-03T14:49:46Z</time>
      </trkpt>
      <trkpt lat="45.22002" lon="5.02118">
        <ele>372.58483886719</ele>
        <time>2011-06-03T14:49:48Z</time>
      </trkpt>
      <trkpt lat="45.21982" lon="5.02127">
        <ele>368.06042480469</ele>
        <time>2011-06-03T14:49:50Z</time>
      </trkpt>
      <trkpt lat="45.21943" lon="5.02124">
        <ele>360.38363647461</ele>
        <time>2011-06-03T14:49:54Z</time>
      </trkpt>
      <trkpt lat="45.21922" lon="5.02094">
        <ele>358.39883422852</ele>
        <time>2011-06-03T14:49:57Z</time>
      </trkpt>
      <trkpt lat="45.21915" lon="5.02071">
        <ele>357.02642822266</ele>
        <time>2011-06-03T14:49:59Z</time>
      </trkpt>
      <trkpt lat="45.21906" lon="5.02022">
        <ele>354.21209716797</ele>
        <time>2011-06-03T14:50:03Z</time>
      </trkpt>
      <trkpt lat="45.21895" lon="5.01975">
        <ele>351.31796264648</ele>
        <time>2011-06-03T14:50:07Z</time>
      </trkpt>
      <trkpt lat="45.21888" lon="5.01942">
        <ele>347.9426574707</ele>
        <time>2011-06-03T14:50:10Z</time>
      </trkpt>
      <trkpt lat="45.21869" lon="5.01912">
        <ele>346.67929077148</ele>
        <time>2011-06-03T14:50:14Z</time>
      </trkpt>
      <trkpt lat="45.2184" lon="5.01906">
        <ele>346.74234008789</ele>
        <time>2011-06-03T14:50:18Z</time>
      </trkpt>
      <trkpt lat="45.21825" lon="5.01913">
        <ele>346.70428466797</ele>
        <time>2011-06-03T14:50:20Z</time>
      </trkpt>
      <trkpt lat="45.21778" lon="5.01945">
        <ele>346.09448242188</ele>
        <time>2011-06-03T14:50:26Z</time>
      </trkpt>
      <trkpt lat="45.21722" lon="5.01991">
        <ele>345.28912353516</ele>
        <time>2011-06-03T14:50:33Z</time>
      </trkpt>
      <trkpt lat="45.21695" lon="5.02011">
        <ele>345.265625</ele>
        <time>2011-06-03T14:50:36Z</time>
      </trkpt>
      <trkpt lat="45.21659" lon="5.02033">
        <ele>346.60729980469</ele>
        <time>2011-06-03T14:50:40Z</time>
      </trkpt>
      <trkpt lat="45.21651" lon="5.02038">
        <ele>347.30422973633</ele>
        <time>2011-06-03T14:50:41Z</time>
      </trkpt>
      <trkpt lat="45.21643" lon="5.02044">
        <ele>347.99774169922</ele>
        <time>2011-06-03T14:50:42Z</time>
      </trkpt>
      <trkpt lat="45.21613" lon="5.02083">
        <ele>350.97711181641</ele>
        <time>2011-06-03T14:50:47Z</time>
      </trkpt>
      <trkpt lat="45.21609" lon="5.02092">
        <ele>351.37020874023</ele>
        <time>2011-06-03T14:50:48Z</time>
      </trkpt>
      <trkpt lat="45.21593" lon="5.02128">
        <ele>353.20776367188</ele>
        <time>2011-06-03T14:50:52Z</time>
      </trkpt>
      <trkpt lat="45.2157" lon="5.0215">
        <ele>354.88671875</ele>
        <time>2011-06-03T14:50:56Z</time>
      </trkpt>
      <trkpt lat="45.21557" lon="5.02153">
        <ele>355.46865844727</ele>
        <time>2011-06-03T14:50:58Z</time>
      </trkpt>
      <trkpt lat="45.21506" lon="5.02161">
        <ele>358.5869140625</ele>
        <time>2011-06-03T14:51:06Z</time>
      </trkpt>
      <trkpt lat="45.21494" lon="5.02164">
        <ele>359</ele>
        <time>2011-06-03T14:51:08Z</time>
      </trkpt>
      <trkpt lat="45.21473" lon="5.02171">
        <ele>359</ele>
        <time>2011-06-03T14:51:12Z</time>
      </trkpt>
      <trkpt lat="45.21432" lon="5.02188">
        <ele>359</ele>
        <time>2011-06-03T14:51:20Z</time>
      </trkpt>
      <trkpt lat="45.21401" lon="5.02201">
        <ele>359</ele>
        <time>2011-06-03T14:51:27Z</time>
      </trkpt>
      <trkpt lat="45.21366" lon="5.02223">
        <ele>359.07080078125</ele>
        <time>2011-06-03T14:51:35Z</time>
      </trkpt>
      <trkpt lat="45.21357" lon="5.02228">
        <ele>359.44500732422</ele>
        <time>2011-06-03T14:51:37Z</time>
      </trkpt>
      <trkpt lat="45.21331" lon="5.02231">
        <ele>359.84075927734</ele>
        <time>2011-06-03T14:51:42Z</time>
      </trkpt>
      <trkpt lat="45.21317" lon="5.02227">
        <ele>360.66885375977</ele>
        <time>2011-06-03T14:51:45Z</time>
      </trkpt>
      <trkpt lat="45.21279" lon="5.02205">
        <ele>364.34475708008</ele>
        <time>2011-06-03T14:51:53Z</time>
      </trkpt>
      <trkpt lat="45.21266" lon="5.02196">
        <ele>364.47915649414</ele>
        <time>2011-06-03T14:51:56Z</time>
      </trkpt>
      <trkpt lat="45.21233" lon="5.02164">
        <ele>364.78491210938</ele>
        <time>2011-06-03T14:52:04Z</time>
      </trkpt>
      <trkpt lat="45.21199" lon="5.02153">
        <ele>368.97946166992</ele>
        <time>2011-06-03T14:52:11Z</time>
      </trkpt>
      <trkpt lat="45.21178" lon="5.02151">
        <ele>371.70999145508</ele>
        <time>2011-06-03T14:52:15Z</time>
      </trkpt>
      <trkpt lat="45.21161" lon="5.02134">
        <ele>375.14288330078</ele>
        <time>2011-06-03T14:52:19Z</time>
      </trkpt>
      <trkpt lat="45.21158" lon="5.02104">
        <ele>378.42468261719</ele>
        <time>2011-06-03T14:52:23Z</time>
      </trkpt>
      <trkpt lat="45.21164" lon="5.02034">
        <ele>382.29443359375</ele>
        <time>2011-06-03T14:52:33Z</time>
      </trkpt>
      <trkpt lat="45.21166" lon="5.01993">
        <ele>382.04724121094</ele>
        <time>2011-06-03T14:52:40Z</time>
      </trkpt>
      <trkpt lat="45.21167" lon="5.01949">
        <ele>381.06628417969</ele>
        <time>2011-06-03T14:52:47Z</time>
      </trkpt>
      <trkpt lat="45.2117" lon="5.01887">
        <ele>375.03717041016</ele>
        <time>2011-06-03T14:52:56Z</time>
      </trkpt>
      <trkpt lat="45.2117" lon="5.01865">
        <ele>372.69381713867</ele>
        <time>2011-06-03T14:52:59Z</time>
      </trkpt>
      <trkpt lat="45.21164" lon="5.01833">
        <ele>371.25756835938</ele>
        <time>2011-06-03T14:53:04Z</time>
      </trkpt>
      <trkpt lat="45.21158" lon="5.01819">
        <ele>370.17233276367</ele>
        <time>2011-06-03T14:53:06Z</time>
      </trkpt>
      <trkpt lat="45.21137" lon="5.01793">
        <ele>369.53991699219</ele>
        <time>2011-06-03T14:53:10Z</time>
      </trkpt>
      <trkpt lat="45.21109" lon="5.01784">
        <ele>375.20413208008</ele>
        <time>2011-06-03T14:53:14Z</time>
      </trkpt>
      <trkpt lat="45.21101" lon="5.01784">
        <ele>375.98690795898</ele>
        <time>2011-06-03T14:53:15Z</time>
      </trkpt>
      <trkpt lat="45.21049" lon="5.01779">
        <ele>376.59515380859</ele>
        <time>2011-06-03T14:53:22Z</time>
      </trkpt>
      <trkpt lat="45.21033" lon="5.01772">
        <ele>376.85287475586</ele>
        <time>2011-06-03T14:53:24Z</time>
      </trkpt>
      <trkpt lat="45.21001" lon="5.01739">
        <ele>375.17877197266</ele>
        <time>2011-06-03T14:53:29Z</time>
      </trkpt>
      <trkpt lat="45.20995" lon="5.01708">
        <ele>372.94583129883</ele>
        <time>2011-06-03T14:53:32Z</time>
      </trkpt>
      <trkpt lat="45.20994" lon="5.01677">
        <ele>370.89212036133</ele>
        <time>2011-06-03T14:53:35Z</time>
      </trkpt>
      <trkpt lat="45.20978" lon="5.01604">
        <ele>365.04531860352</ele>
        <time>2011-06-03T14:53:42Z</time>
      </trkpt>
      <trkpt lat="45.20958" lon="5.01553">
        <ele>362.23089599609</ele>
        <time>2011-06-03T14:53:47Z</time>
      </trkpt>
      <trkpt lat="45.20931" lon="5.01525">
        <ele>362.50277709961</ele>
        <time>2011-06-03T14:53:51Z</time>
      </trkpt>
      <trkpt lat="45.20869" lon="5.01494">
        <ele>364.06326293945</ele>
        <time>2011-06-03T14:53:59Z</time>
      </trkpt>
      <trkpt lat="45.20824" lon="5.01469">
        <ele>366.17526245117</ele>
        <time>2011-06-03T14:54:05Z</time>
      </trkpt>
      <trkpt lat="45.20776" lon="5.01433">
        <ele>369.40866088867</ele>
        <time>2011-06-03T14:54:12Z</time>
      </trkpt>
      <trkpt lat="45.20742" lon="5.01397">
        <ele>372.60565185547</ele>
        <time>2011-06-03T14:54:18Z</time>
      </trkpt>
      <trkpt lat="45.20698" lon="5.0137">
        <ele>378.36163330078</ele>
        <time>2011-06-03T14:54:26Z</time>
      </trkpt>
      <trkpt lat="45.20693" lon="5.01366">
        <ele>378.71267700195</ele>
        <time>2011-06-03T14:54:27Z</time>
      </trkpt>
      <trkpt lat="45.20671" lon="5.01337">
        <ele>378.93804931641</ele>
        <time>2011-06-03T14:54:32Z</time>
      </trkpt>
      <trkpt lat="45.20642" lon="5.01282">
        <ele>378.85522460938</ele>
        <time>2011-06-03T14:54:40Z</time>
      </trkpt>
      <trkpt lat="45.20611" lon="5.01237">
        <ele>376.10998535156</ele>
        <time>2011-06-03T14:54:47Z</time>
      </trkpt>
      <trkpt lat="45.20581" lon="5.01214">
        <ele>374.81469726562</ele>
        <time>2011-06-03T14:54:52Z</time>
      </trkpt>
      <trkpt lat="45.20546" lon="5.012">
        <ele>373.58032226562</ele>
        <time>2011-06-03T14:54:57Z</time>
      </trkpt>
      <trkpt lat="45.20499" lon="5.0118">
        <ele>373.51391601562</ele>
        <time>2011-06-03T14:55:03Z</time>
      </trkpt>
      <trkpt lat="45.20456" lon="5.01179">
        <ele>375.02111816406</ele>
        <time>2011-06-03T14:55:08Z</time>
      </trkpt>
      <trkpt lat="45.20436" lon="5.01166">
        <ele>375.6220703125</ele>
        <time>2011-06-03T14:55:11Z</time>
      </trkpt>
      <trkpt lat="45.20432" lon="5.0114">
        <ele>374.97146606445</ele>
        <time>2011-06-03T14:55:14Z</time>
      </trkpt>
      <trkpt lat="45.2044" lon="5.01113">
        <ele>373.34927368164</ele>
        <time>2011-06-03T14:55:18Z</time>
      </trkpt>
      <trkpt lat="45.20443" lon="5.01086">
        <ele>373.10668945312</ele>
        <time>2011-06-03T14:55:21Z</time>
      </trkpt>
      <trkpt lat="45.20428" lon="5.01073">
        <ele>375.04177856445</ele>
        <time>2011-06-03T14:55:24Z</time>
      </trkpt>
      <trkpt lat="45.20403" lon="5.01079">
        <ele>376.798828125</ele>
        <time>2011-06-03T14:55:28Z</time>
      </trkpt>
      <trkpt lat="45.20379" lon="5.01101">
        <ele>378.34674072266</ele>
        <time>2011-06-03T14:55:32Z</time>
      </trkpt>
      <trkpt lat="45.20356" lon="5.01126">
        <ele>379.81573486328</ele>
        <time>2011-06-03T14:55:36Z</time>
      </trkpt>
      <trkpt lat="45.2032" lon="5.01141">
        <ele>383.87258911133</ele>
        <time>2011-06-03T14:55:41Z</time>
      </trkpt>
      <trkpt lat="45.20304" lon="5.01147">
        <ele>385.84484863281</ele>
        <time>2011-06-03T14:55:43Z</time>
      </trkpt>
      <trkpt lat="45.20284" lon="5.01139">
        <ele>388.3388671875</ele>
        <time>2011-06-03T14:55:46Z</time>
      </trkpt>
      <trkpt lat="45.20287" lon="5.01113">
        <ele>389.23449707031</ele>
        <time>2011-06-03T14:55:49Z</time>
      </trkpt>
      <trkpt lat="45.20299" lon="5.01102">
        <ele>389.05139160156</ele>
        <time>2011-06-03T14:55:51Z</time>
      </trkpt>
      <trkpt lat="45.2032" lon="5.01086">
        <ele>389.21438598633</ele>
        <time>2011-06-03T14:55:55Z</time>
      </trkpt>
      <trkpt lat="45.20329" lon="5.01076">
        <ele>390.78094482422</ele>
        <time>2011-06-03T14:55:57Z</time>
      </trkpt>
      <trkpt lat="45.2034" lon="5.01041">
        <ele>395.36364746094</ele>
        <time>2011-06-03T14:56:02Z</time>
      </trkpt>
      <trkpt lat="45.20338" lon="5.01033">
        <ele>396.99786376953</ele>
        <time>2011-06-03T14:56:03Z</time>
      </trkpt>
      <trkpt lat="45.2032" lon="5.00993">
        <ele>400</ele>
        <time>2011-06-03T14:56:09Z</time>
      </trkpt>
      <trkpt lat="45.2029" lon="5.0096">
        <ele>397.21810913086</ele>
        <time>2011-06-03T14:56:15Z</time>
      </trkpt>
      <trkpt lat="45.20274" lon="5.00943">
        <ele>395.26025390625</ele>
        <time>2011-06-03T14:56:18Z</time>
      </trkpt>
      <trkpt lat="45.20246" lon="5.00933">
        <ele>389.24383544922</ele>
        <time>2011-06-03T14:56:22Z</time>
      </trkpt>
      <trkpt lat="45.20186" lon="5.00914">
        <ele>382.01837158203</ele>
        <time>2011-06-03T14:56:29Z</time>
      </trkpt>
      <trkpt lat="45.20116" lon="5.00879">
        <ele>374.86193847656</ele>
        <time>2011-06-03T14:56:36Z</time>
      </trkpt>
      <trkpt lat="45.20052" lon="5.00842">
        <ele>370.94619750977</ele>
        <time>2011-06-03T14:56:42Z</time>
      </trkpt>
      <trkpt lat="45.20031" lon="5.0083">
        <ele>369.54049682617</ele>
        <time>2011-06-03T14:56:44Z</time>
      </trkpt>
      <trkpt lat="45.20021" lon="5.00824">
        <ele>370.02328491211</ele>
        <time>2011-06-03T14:56:45Z</time>
      </trkpt>
      <trkpt lat="45.19991" lon="5.00793">
        <ele>371.88473510742</ele>
        <time>2011-06-03T14:56:49Z</time>
      </trkpt>
      <trkpt lat="45.19952" lon="5.00764">
        <ele>373.71417236328</ele>
        <time>2011-06-03T14:56:54Z</time>
      </trkpt>
      <trkpt lat="45.19884" lon="5.00733">
        <ele>373.92459106445</ele>
        <time>2011-06-03T14:57:02Z</time>
      </trkpt>
      <trkpt lat="45.19842" lon="5.00702">
        <ele>371.26028442383</ele>
        <time>2011-06-03T14:57:08Z</time>
      </trkpt>
      <trkpt lat="45.19822" lon="5.0069">
        <ele>371.4723815918</ele>
        <time>2011-06-03T14:57:11Z</time>
      </trkpt>
      <trkpt lat="45.19805" lon="5.00664">
        <ele>370.68957519531</ele>
        <time>2011-06-03T14:57:15Z</time>
      </trkpt>
      <trkpt lat="45.19802" lon="5.00644">
        <ele>368.78414916992</ele>
        <time>2011-06-03T14:57:17Z</time>
      </trkpt>
      <trkpt lat="45.19788" lon="5.00585">
        <ele>365.33627319336</ele>
        <time>2011-06-03T14:57:22Z</time>
      </trkpt>
      <trkpt lat="45.19772" lon="5.00527">
        <ele>363.13143920898</ele>
        <time>2011-06-03T14:57:26Z</time>
      </trkpt>
      <trkpt lat="45.19744" lon="5.00469">
        <ele>359.71643066406</ele>
        <time>2011-06-03T14:57:30Z</time>
      </trkpt>
      <trkpt lat="45.19698" lon="5.00393">
        <ele>350.70785522461</ele>
        <time>2011-06-03T14:57:35Z</time>
      </trkpt>
      <trkpt lat="45.19688" lon="5.00378">
        <ele>349.20147705078</ele>
        <time>2011-06-03T14:57:36Z</time>
      </trkpt>
      <trkpt lat="45.19659" lon="5.0033">
        <ele>348.34603881836</ele>
        <time>2011-06-03T14:57:39Z</time>
      </trkpt>
      <trkpt lat="45.19611" lon="5.00254">
        <ele>353.99035644531</ele>
        <time>2011-06-03T14:57:44Z</time>
      </trkpt>
      <trkpt lat="45.19567" lon="5.00184">
        <ele>353.06954956055</ele>
        <time>2011-06-03T14:57:49Z</time>
      </trkpt>
      <trkpt lat="45.19529" lon="5.00125">
        <ele>353.0559387207</ele>
        <time>2011-06-03T14:57:54Z</time>
      </trkpt>
      <trkpt lat="45.19499" lon="5.00078">
        <ele>355.20687866211</ele>
        <time>2011-06-03T14:57:59Z</time>
      </trkpt>
      <trkpt lat="45.19474" lon="5.00043">
        <ele>357.40200805664</ele>
        <time>2011-06-03T14:58:04Z</time>
      </trkpt>
      <trkpt lat="45.19459" lon="5.00027">
        <ele>358.48690795898</ele>
        <time>2011-06-03T14:58:07Z</time>
      </trkpt>
      <trkpt lat="45.19434" lon="5.0002">
        <ele>359.83892822266</ele>
        <time>2011-06-03T14:58:12Z</time>
      </trkpt>
      <trkpt lat="45.19417" lon="5.00022">
        <ele>360.63986206055</ele>
        <time>2011-06-03T14:58:16Z</time>
      </trkpt>
      <trkpt lat="45.19409" lon="5.00022">
        <ele>361.18194580078</ele>
        <time>2011-06-03T14:58:18Z</time>
      </trkpt>
      <trkpt lat="45.19387" lon="5.00024">
        <ele>362.64129638672</ele>
        <time>2011-06-03T14:58:24Z</time>
      </trkpt>
      <trkpt lat="45.19367" lon="5.00024">
        <ele>364.86602783203</ele>
        <time>2011-06-03T14:58:30Z</time>
      </trkpt>
      <trkpt lat="45.19346" lon="5.00018">
        <ele>368.10012817383</ele>
        <time>2011-06-03T14:58:36Z</time>
      </trkpt>
      <trkpt lat="45.19321" lon="5.00002">
        <ele>372.92724609375</ele>
        <time>2011-06-03T14:58:44Z</time>
      </trkpt>
      <trkpt lat="45.19301" lon="4.99989">
        <ele>368.06439208984</ele>
        <time>2011-06-03T14:58:51Z</time>
      </trkpt>
      <trkpt lat="45.19274" lon="4.99972">
        <ele>371.39108276367</ele>
        <time>2011-06-03T14:59:00Z</time>
      </trkpt>
      <trkpt lat="45.19255" lon="4.99953">
        <ele>375.28179931641</ele>
        <time>2011-06-03T14:59:07Z</time>
      </trkpt>
      <trkpt lat="45.19231" lon="4.99932">
        <ele>379.09036254883</ele>
        <time>2011-06-03T14:59:15Z</time>
      </trkpt>
      <trkpt lat="45.19215" lon="4.9993">
        <ele>379.39495849609</ele>
        <time>2011-06-03T14:59:20Z</time>
      </trkpt>
      <trkpt lat="45.19191" lon="4.99935">
        <ele>378.52276611328</ele>
        <time>2011-06-03T14:59:27Z</time>
      </trkpt>
      <trkpt lat="45.1917" lon="4.99927">
        <ele>379.59606933594</ele>
        <time>2011-06-03T14:59:33Z</time>
      </trkpt>
      <trkpt lat="45.19149" lon="4.99907">
        <ele>382.07849121094</ele>
        <time>2011-06-03T14:59:40Z</time>
      </trkpt>
      <trkpt lat="45.19116" lon="4.99895">
        <ele>382.04586791992</ele>
        <time>2011-06-03T14:59:48Z</time>
      </trkpt>
      <trkpt lat="45.19097" lon="4.99891">
        <ele>381.40167236328</ele>
        <time>2011-06-03T14:59:52Z</time>
      </trkpt>
      <trkpt lat="45.19083" lon="4.99882">
        <ele>381.205078125</ele>
        <time>2011-06-03T14:59:55Z</time>
      </trkpt>
      <trkpt lat="45.19064" lon="4.99862">
        <ele>379.62826538086</ele>
        <time>2011-06-03T14:59:59Z</time>
      </trkpt>
      <trkpt lat="45.19055" lon="4.99848">
        <ele>378.93374633789</ele>
        <time>2011-06-03T15:00:01Z</time>
      </trkpt>
      <trkpt lat="45.19034" lon="4.99796">
        <ele>381.00942993164</ele>
        <time>2011-06-03T15:00:07Z</time>
      </trkpt>
      <trkpt lat="45.19" lon="4.99745">
        <ele>382.14932250977</ele>
        <time>2011-06-03T15:00:14Z</time>
      </trkpt>
      <trkpt lat="45.18957" lon="4.99686">
        <ele>390.03344726562</ele>
        <time>2011-06-03T15:00:23Z</time>
      </trkpt>
      <trkpt lat="45.18925" lon="4.99642">
        <ele>394.48733520508</ele>
        <time>2011-06-03T15:00:30Z</time>
      </trkpt>
      <trkpt lat="45.18903" lon="4.9963">
        <ele>394.78656005859</ele>
        <time>2011-06-03T15:00:34Z</time>
      </trkpt>
      <trkpt lat="45.18893" lon="4.99634">
        <ele>393.04153442383</ele>
        <time>2011-06-03T15:00:36Z</time>
      </trkpt>
      <trkpt lat="45.18882" lon="4.99642">
        <ele>390.4482421875</ele>
        <time>2011-06-03T15:00:38Z</time>
      </trkpt>
      <trkpt lat="45.18848" lon="4.99642">
        <ele>387.33517456055</ele>
        <time>2011-06-03T15:00:43Z</time>
      </trkpt>
      <trkpt lat="45.18809" lon="4.99632">
        <ele>386.47805786133</ele>
        <time>2011-06-03T15:00:48Z</time>
      </trkpt>
      <trkpt lat="45.1876" lon="4.99618">
        <ele>385.67013549805</ele>
        <time>2011-06-03T15:00:54Z</time>
      </trkpt>
      <trkpt lat="45.18727" lon="4.99598">
        <ele>387.25723266602</ele>
        <time>2011-06-03T15:00:58Z</time>
      </trkpt>
      <trkpt lat="45.18696" lon="4.99569">
        <ele>390.72680664062</ele>
        <time>2011-06-03T15:01:02Z</time>
      </trkpt>
      <trkpt lat="45.18659" lon="4.99561">
        <ele>389.91485595703</ele>
        <time>2011-06-03T15:01:06Z</time>
      </trkpt>
      <trkpt lat="45.18642" lon="4.9957">
        <ele>389.31072998047</ele>
        <time>2011-06-03T15:01:08Z</time>
      </trkpt>
      <trkpt lat="45.18625" lon="4.99583">
        <ele>387.55844116211</ele>
        <time>2011-06-03T15:01:10Z</time>
      </trkpt>
      <trkpt lat="45.18588" lon="4.99593">
        <ele>388.83535766602</ele>
        <time>2011-06-03T15:01:14Z</time>
      </trkpt>
      <trkpt lat="45.18568" lon="4.99593">
        <ele>390.24588012695</ele>
        <time>2011-06-03T15:01:16Z</time>
      </trkpt>
      <trkpt lat="45.18547" lon="4.99608">
        <ele>387.83599853516</ele>
        <time>2011-06-03T15:01:19Z</time>
      </trkpt>
      <trkpt lat="45.18538" lon="4.99642">
        <ele>381.08245849609</ele>
        <time>2011-06-03T15:01:22Z</time>
      </trkpt>
      <trkpt lat="45.18521" lon="4.99669">
        <ele>377.73059082031</ele>
        <time>2011-06-03T15:01:25Z</time>
      </trkpt>
      <trkpt lat="45.18502" lon="4.99677">
        <ele>379.56317138672</ele>
        <time>2011-06-03T15:01:27Z</time>
      </trkpt>
      <trkpt lat="45.18485" lon="4.99672">
        <ele>380.92636108398</ele>
        <time>2011-06-03T15:01:29Z</time>
      </trkpt>
      <trkpt lat="45.18444" lon="4.99651">
        <ele>385.56170654297</ele>
        <time>2011-06-03T15:01:35Z</time>
      </trkpt>
      <trkpt lat="45.18418" lon="4.99649">
        <ele>386.71099853516</ele>
        <time>2011-06-03T15:01:39Z</time>
      </trkpt>
      <trkpt lat="45.18389" lon="4.99642">
        <ele>384.1604309082</ele>
        <time>2011-06-03T15:01:44Z</time>
      </trkpt>
      <trkpt lat="45.18359" lon="4.99623">
        <ele>382.81414794922</ele>
        <time>2011-06-03T15:01:49Z</time>
      </trkpt>
      <trkpt lat="45.18327" lon="4.99568">
        <ele>385.60104370117</ele>
        <time>2011-06-03T15:01:55Z</time>
      </trkpt>
      <trkpt lat="45.18314" lon="4.99548">
        <ele>387.10864257812</ele>
        <time>2011-06-03T15:01:57Z</time>
      </trkpt>
      <trkpt lat="45.18283" lon="4.99513">
        <ele>389.2278137207</ele>
        <time>2011-06-03T15:02:01Z</time>
      </trkpt>
      <trkpt lat="45.18248" lon="4.99496">
        <ele>387.94903564453</ele>
        <time>2011-06-03T15:02:05Z</time>
      </trkpt>
      <trkpt lat="45.1824" lon="4.99496">
        <ele>387.65435791016</ele>
        <time>2011-06-03T15:02:06Z</time>
      </trkpt>
      <trkpt lat="45.18167" lon="4.99504">
        <ele>384.29028320312</ele>
        <time>2011-06-03T15:02:14Z</time>
      </trkpt>
      <trkpt lat="45.18129" lon="4.99508">
        <ele>384.59332275391</ele>
        <time>2011-06-03T15:02:18Z</time>
      </trkpt>
      <trkpt lat="45.18095" lon="4.99534">
        <ele>382.04763793945</ele>
        <time>2011-06-03T15:02:22Z</time>
      </trkpt>
      <trkpt lat="45.18082" lon="4.99551">
        <ele>380.14859008789</ele>
        <time>2011-06-03T15:02:24Z</time>
      </trkpt>
      <trkpt lat="45.18053" lon="4.99573">
        <ele>376.30508422852</ele>
        <time>2011-06-03T15:02:28Z</time>
      </trkpt>
      <trkpt lat="45.18031" lon="4.99572">
        <ele>375.5725402832</ele>
        <time>2011-06-03T15:02:31Z</time>
      </trkpt>
      <trkpt lat="45.18015" lon="4.99557">
        <ele>376.80340576172</ele>
        <time>2011-06-03T15:02:33Z</time>
      </trkpt>
      <trkpt lat="45.17973" lon="4.99496">
        <ele>379.08450317383</ele>
        <time>2011-06-03T15:02:41Z</time>
      </trkpt>
      <trkpt lat="45.17964" lon="4.9948">
        <ele>379.03582763672</ele>
        <time>2011-06-03T15:02:43Z</time>
      </trkpt>
      <trkpt lat="45.17954" lon="4.99441">
        <ele>380.09234619141</ele>
        <time>2011-06-03T15:02:47Z</time>
      </trkpt>
      <trkpt lat="45.17951" lon="4.99405">
        <ele>382.7395324707</ele>
        <time>2011-06-03T15:02:50Z</time>
      </trkpt>
      <trkpt lat="45.17933" lon="4.99352">
        <ele>386.72308349609</ele>
        <time>2011-06-03T15:02:55Z</time>
      </trkpt>
      <trkpt lat="45.17909" lon="4.99339">
        <ele>385.59255981445</ele>
        <time>2011-06-03T15:02:58Z</time>
      </trkpt>
      <trkpt lat="45.17901" lon="4.99339">
        <ele>385.12295532227</ele>
        <time>2011-06-03T15:02:59Z</time>
      </trkpt>
      <trkpt lat="45.17884" lon="4.99341">
        <ele>384.03622436523</ele>
        <time>2011-06-03T15:03:01Z</time>
      </trkpt>
      <trkpt lat="45.17855" lon="4.99333">
        <ele>384.09344482422</ele>
        <time>2011-06-03T15:03:05Z</time>
      </trkpt>
      <trkpt lat="45.17817" lon="4.99312">
        <ele>384.89370727539</ele>
        <time>2011-06-03T15:03:11Z</time>
      </trkpt>
      <trkpt lat="45.17797" lon="4.99292">
        <ele>385.58740234375</ele>
        <time>2011-06-03T15:03:15Z</time>
      </trkpt>
      <trkpt lat="45.17784" lon="4.99269">
        <ele>387.26251220703</ele>
        <time>2011-06-03T15:03:19Z</time>
      </trkpt>
      <trkpt lat="45.17777" lon="4.99253">
        <ele>388.77490234375</ele>
        <time>2011-06-03T15:03:22Z</time>
      </trkpt>
      <trkpt lat="45.17773" lon="4.99243">
        <ele>389.72055053711</ele>
        <time>2011-06-03T15:03:24Z</time>
      </trkpt>
      <trkpt lat="45.17772" lon="4.99231">
        <ele>391.33493041992</ele>
        <time>2011-06-03T15:03:26Z</time>
      </trkpt>
      <trkpt lat="45.17771" lon="4.9921">
        <ele>394.80651855469</ele>
        <time>2011-06-03T15:03:30Z</time>
      </trkpt>
      <trkpt lat="45.17765" lon="4.99186">
        <ele>397.70779418945</ele>
        <time>2011-06-03T15:03:35Z</time>
      </trkpt>
      <trkpt lat="45.17759" lon="4.99173">
        <ele>398.77255249023</ele>
        <time>2011-06-03T15:03:40Z</time>
      </trkpt>
      <trkpt lat="45.17751" lon="4.99166">
        <ele>398.15682983398</ele>
        <time>2011-06-03T15:03:45Z</time>
      </trkpt>
      <trkpt lat="45.17735" lon="4.9916">
        <ele>399.76510620117</ele>
        <time>2011-06-03T15:03:51Z</time>
      </trkpt>
      <trkpt lat="45.17719" lon="4.99157">
        <ele>400.38000488281</ele>
        <time>2011-06-03T15:03:57Z</time>
      </trkpt>
      <trkpt lat="45.17701" lon="4.99154">
        <ele>400.99035644531</ele>
        <time>2011-06-03T15:04:03Z</time>
      </trkpt>
      <trkpt lat="45.17688" lon="4.99152">
        <ele>401.48187255859</ele>
        <time>2011-06-03T15:04:07Z</time>
      </trkpt>
      <trkpt lat="45.1766" lon="4.9915">
        <ele>401.13931274414</ele>
        <time>2011-06-03T15:04:15Z</time>
      </trkpt>
      <trkpt lat="45.17638" lon="4.99147">
        <ele>399.63290405273</ele>
        <time>2011-06-03T15:04:21Z</time>
      </trkpt>
      <trkpt lat="45.17625" lon="4.99145">
        <ele>398.73519897461</ele>
        <time>2011-06-03T15:04:24Z</time>
      </trkpt>
      <trkpt lat="45.176" lon="4.99128">
        <ele>397.64309692383</ele>
        <time>2011-06-03T15:04:30Z</time>
      </trkpt>
      <trkpt lat="45.1759" lon="4.99114">
        <ele>397.3283996582</ele>
        <time>2011-06-03T15:04:33Z</time>
      </trkpt>
      <trkpt lat="45.17583" lon="4.99083">
        <ele>398.0178527832</ele>
        <time>2011-06-03T15:04:37Z</time>
      </trkpt>
      <trkpt lat="45.17585" lon="4.99051">
        <ele>395.25750732422</ele>
        <time>2011-06-03T15:04:40Z</time>
      </trkpt>
      <trkpt lat="45.17585" lon="4.99014">
        <ele>391.64617919922</ele>
        <time>2011-06-03T15:04:43Z</time>
      </trkpt>
      <trkpt lat="45.17594" lon="4.9896">
        <ele>385.56967163086</ele>
        <time>2011-06-03T15:04:47Z</time>
      </trkpt>
      <trkpt lat="45.17616" lon="4.98927">
        <ele>385.51940917969</ele>
        <time>2011-06-03T15:04:50Z</time>
      </trkpt>
      <trkpt lat="45.17644" lon="4.98903">
        <ele>389.97039794922</ele>
        <time>2011-06-03T15:04:53Z</time>
      </trkpt>
      <trkpt lat="45.17648" lon="4.98873">
        <ele>390.07278442383</ele>
        <time>2011-06-03T15:04:55Z</time>
      </trkpt>
      <trkpt lat="45.1764" lon="4.98845">
        <ele>386.66937255859</ele>
        <time>2011-06-03T15:04:57Z</time>
      </trkpt>
      <trkpt lat="45.17627" lon="4.98822">
        <ele>381.67654418945</ele>
        <time>2011-06-03T15:04:59Z</time>
      </trkpt>
      <trkpt lat="45.17626" lon="4.98786">
        <ele>378.20877075195</ele>
        <time>2011-06-03T15:05:02Z</time>
      </trkpt>
      <trkpt lat="45.17645" lon="4.9877">
        <ele>380.16186523438</ele>
        <time>2011-06-03T15:05:04Z</time>
      </trkpt>
      <trkpt lat="45.17654" lon="4.98766">
        <ele>381.41848754883</ele>
        <time>2011-06-03T15:05:05Z</time>
      </trkpt>
      <trkpt lat="45.1771" lon="4.98758">
        <ele>384.26971435547</ele>
        <time>2011-06-03T15:05:11Z</time>
      </trkpt>
      <trkpt lat="45.17762" lon="4.98763">
        <ele>388.38919067383</ele>
        <time>2011-06-03T15:05:17Z</time>
      </trkpt>
      <trkpt lat="45.1783" lon="4.9877">
        <ele>394.00454711914</ele>
        <time>2011-06-03T15:05:25Z</time>
      </trkpt>
      <trkpt lat="45.17863" lon="4.98755">
        <ele>392.31454467773</ele>
        <time>2011-06-03T15:05:29Z</time>
      </trkpt>
      <trkpt lat="45.1787" lon="4.98748">
        <ele>390.94445800781</ele>
        <time>2011-06-03T15:05:30Z</time>
      </trkpt>
      <trkpt lat="45.17902" lon="4.98717">
        <ele>384.87780761719</ele>
        <time>2011-06-03T15:05:34Z</time>
      </trkpt>
      <trkpt lat="45.17915" lon="4.9869">
        <ele>377.99569702148</ele>
        <time>2011-06-03T15:05:37Z</time>
      </trkpt>
      <trkpt lat="45.1791" lon="4.98669">
        <ele>371.40078735352</ele>
        <time>2011-06-03T15:05:39Z</time>
      </trkpt>
      <trkpt lat="45.17895" lon="4.98653">
        <ele>367.53909301758</ele>
        <time>2011-06-03T15:05:41Z</time>
      </trkpt>
      <trkpt lat="45.17873" lon="4.98648">
        <ele>365.42950439453</ele>
        <time>2011-06-03T15:05:43Z</time>
      </trkpt>
      <trkpt lat="45.1786" lon="4.98653">
        <ele>365.76849365234</ele>
        <time>2011-06-03T15:05:44Z</time>
      </trkpt>
      <trkpt lat="45.17838" lon="4.98664">
        <ele>366.76333618164</ele>
        <time>2011-06-03T15:05:46Z</time>
      </trkpt>
      <trkpt lat="45.17803" lon="4.98662">
        <ele>365.03973388672</ele>
        <time>2011-06-03T15:05:49Z</time>
      </trkpt>
      <trkpt lat="45.17791" lon="4.98656">
        <ele>363.39715576172</ele>
        <time>2011-06-03T15:05:50Z</time>
      </trkpt>
      <trkpt lat="45.17727" lon="4.98639">
        <ele>357.98593139648</ele>
        <time>2011-06-03T15:05:55Z</time>
      </trkpt>
      <trkpt lat="45.17693" lon="4.98616">
        <ele>353.57601928711</ele>
        <time>2011-06-03T15:05:58Z</time>
      </trkpt>
      <trkpt lat="45.17685" lon="4.98562">
        <ele>344.78253173828</ele>
        <time>2011-06-03T15:06:01Z</time>
      </trkpt>
      <trkpt lat="45.17694" lon="4.98527">
        <ele>340.09552001953</ele>
        <time>2011-06-03T15:06:03Z</time>
      </trkpt>
      <trkpt lat="45.17717" lon="4.98476">
        <ele>335.93032836914</ele>
        <time>2011-06-03T15:06:06Z</time>
      </trkpt>
      <trkpt lat="45.17722" lon="4.98456">
        <ele>335.04013061523</ele>
        <time>2011-06-03T15:06:07Z</time>
      </trkpt>
      <trkpt lat="45.1774" lon="4.98357">
        <ele>328.07339477539</ele>
        <time>2011-06-03T15:06:12Z</time>
      </trkpt>
      <trkpt lat="45.17734" lon="4.98306">
        <ele>323.65277099609</ele>
        <time>2011-06-03T15:06:15Z</time>
      </trkpt>
      <trkpt lat="45.17707" lon="4.98264">
        <ele>320.48245239258</ele>
        <time>2011-06-03T15:06:18Z</time>
      </trkpt>
      <trkpt lat="45.17701" lon="4.98249">
        <ele>319.53707885742</ele>
        <time>2011-06-03T15:06:19Z</time>
      </trkpt>
      <trkpt lat="45.17686" lon="4.98218">
        <ele>317.19760131836</ele>
        <time>2011-06-03T15:06:21Z</time>
      </trkpt>
      <trkpt lat="45.17671" lon="4.98146">
        <ele>312.20861816406</ele>
        <time>2011-06-03T15:06:25Z</time>
      </trkpt>
      <trkpt lat="45.17671" lon="4.98108">
        <ele>310.78649902344</ele>
        <time>2011-06-03T15:06:27Z</time>
      </trkpt>
      <trkpt lat="45.17673" lon="4.98038">
        <ele>307.48468017578</ele>
        <time>2011-06-03T15:06:31Z</time>
      </trkpt>
      <trkpt lat="45.1766" lon="4.97973">
        <ele>305.01644897461</ele>
        <time>2011-06-03T15:06:35Z</time>
      </trkpt>
      <trkpt lat="45.17651" lon="4.97941">
        <ele>303.87316894531</ele>
        <time>2011-06-03T15:06:37Z</time>
      </trkpt>
      <trkpt lat="45.1763" lon="4.979">
        <ele>301.41918945312</ele>
        <time>2011-06-03T15:06:40Z</time>
      </trkpt>
      <trkpt lat="45.17619" lon="4.97891">
        <ele>300.50823974609</ele>
        <time>2011-06-03T15:06:41Z</time>
      </trkpt>
      <trkpt lat="45.17587" lon="4.97849">
        <ele>296.45703125</ele>
        <time>2011-06-03T15:06:45Z</time>
      </trkpt>
      <trkpt lat="45.17584" lon="4.97816">
        <ele>293.5817565918</ele>
        <time>2011-06-03T15:06:47Z</time>
      </trkpt>
      <trkpt lat="45.17583" lon="4.97743">
        <ele>288.00372314453</ele>
        <time>2011-06-03T15:06:51Z</time>
      </trkpt>
      <trkpt lat="45.17574" lon="4.97691">
        <ele>287.44653320312</ele>
        <time>2011-06-03T15:06:54Z</time>
      </trkpt>
      <trkpt lat="45.17556" lon="4.97668">
        <ele>286.36328125</ele>
        <time>2011-06-03T15:06:56Z</time>
      </trkpt>
      <trkpt lat="45.17545" lon="4.9766">
        <ele>286.01928710938</ele>
        <time>2011-06-03T15:06:57Z</time>
      </trkpt>
      <trkpt lat="45.17491" lon="4.97631">
        <ele>283.60083007812</ele>
        <time>2011-06-03T15:07:02Z</time>
      </trkpt>
      <trkpt lat="45.17446" lon="4.97623">
        <ele>282.41790771484</ele>
        <time>2011-06-03T15:07:06Z</time>
      </trkpt>
      <trkpt lat="45.17388" lon="4.97625">
        <ele>281.15667724609</ele>
        <time>2011-06-03T15:07:11Z</time>
      </trkpt>
      <trkpt lat="45.17376" lon="4.97626">
        <ele>281.01553344727</ele>
        <time>2011-06-03T15:07:12Z</time>
      </trkpt>
      <trkpt lat="45.17365" lon="4.97627">
        <ele>280.87911987305</ele>
        <time>2011-06-03T15:07:13Z</time>
      </trkpt>
      <trkpt lat="45.17319" lon="4.97624">
        <ele>280.39923095703</ele>
        <time>2011-06-03T15:07:17Z</time>
      </trkpt>
      <trkpt lat="45.17256" lon="4.97618">
        <ele>279.71566772461</ele>
        <time>2011-06-03T15:07:23Z</time>
      </trkpt>
      <trkpt lat="45.17204" lon="4.97619">
        <ele>278.13558959961</ele>
        <time>2011-06-03T15:07:28Z</time>
      </trkpt>
      <trkpt lat="45.17164" lon="4.97634">
        <ele>277.19998168945</ele>
        <time>2011-06-03T15:07:32Z</time>
      </trkpt>
      <trkpt lat="45.17115" lon="4.97651">
        <ele>277.52346801758</ele>
        <time>2011-06-03T15:07:37Z</time>
      </trkpt>
      <trkpt lat="45.17049" lon="4.97662">
        <ele>277.76867675781</ele>
        <time>2011-06-03T15:07:44Z</time>
      </trkpt>
      <trkpt lat="45.16955" lon="4.97683">
        <ele>279.3176574707</ele>
        <time>2011-06-03T15:07:54Z</time>
      </trkpt>
      <trkpt lat="45.16881" lon="4.97702">
        <ele>276.80264282227</ele>
        <time>2011-06-03T15:08:02Z</time>
      </trkpt>
      <trkpt lat="45.16872" lon="4.97706">
        <ele>276.21298217773</ele>
        <time>2011-06-03T15:08:03Z</time>
      </trkpt>
      <trkpt lat="45.16815" lon="4.97731">
        <ele>271.7314453125</ele>
        <time>2011-06-03T15:08:09Z</time>
      </trkpt>
      <trkpt lat="45.16756" lon="4.97753">
        <ele>267.57727050781</ele>
        <time>2011-06-03T15:08:15Z</time>
      </trkpt>
      <trkpt lat="45.16747" lon="4.97757">
        <ele>267.00857543945</ele>
        <time>2011-06-03T15:08:16Z</time>
      </trkpt>
      <trkpt lat="45.16682" lon="4.97776">
        <ele>265.67306518555</ele>
        <time>2011-06-03T15:08:23Z</time>
      </trkpt>
      <trkpt lat="45.16605" lon="4.97794">
        <ele>264.39111328125</ele>
        <time>2011-06-03T15:08:31Z</time>
      </trkpt>
      <trkpt lat="45.16537" lon="4.9781">
        <ele>263.19464111328</ele>
        <time>2011-06-03T15:08:38Z</time>
      </trkpt>
      <trkpt lat="45.16448" lon="4.97829">
        <ele>262.03967285156</ele>
        <time>2011-06-03T15:08:47Z</time>
      </trkpt>
      <trkpt lat="45.16371" lon="4.97846">
        <ele>261.27767944336</ele>
        <time>2011-06-03T15:08:55Z</time>
      </trkpt>
      <trkpt lat="45.16276" lon="4.97873">
        <ele>259.32733154297</ele>
        <time>2011-06-03T15:09:05Z</time>
      </trkpt>
      <trkpt lat="45.16228" lon="4.97886">
        <ele>258.93368530273</ele>
        <time>2011-06-03T15:09:10Z</time>
      </trkpt>
      <trkpt lat="45.16173" lon="4.97883">
        <ele>258.83090209961</ele>
        <time>2011-06-03T15:09:16Z</time>
      </trkpt>
      <trkpt lat="45.16103" lon="4.97874">
        <ele>257.86477661133</ele>
        <time>2011-06-03T15:09:23Z</time>
      </trkpt>
      <trkpt lat="45.16011" lon="4.97863">
        <ele>257.08605957031</ele>
        <time>2011-06-03T15:09:32Z</time>
      </trkpt>
      <trkpt lat="45.15941" lon="4.97852">
        <ele>255.91032409668</ele>
        <time>2011-06-03T15:09:39Z</time>
      </trkpt>
      <trkpt lat="45.15925" lon="4.97849">
        <ele>255.53698730469</ele>
        <time>2011-06-03T15:09:41Z</time>
      </trkpt>
      <trkpt lat="45.15907" lon="4.97855">
        <ele>255.38024902344</ele>
        <time>2011-06-03T15:09:44Z</time>
      </trkpt>
      <trkpt lat="45.15904" lon="4.9787">
        <ele>255.66766357422</ele>
        <time>2011-06-03T15:09:46Z</time>
      </trkpt>
      <trkpt lat="45.15898" lon="4.97893">
        <ele>256.03637695312</ele>
        <time>2011-06-03T15:09:49Z</time>
      </trkpt>
      <trkpt lat="45.15882" lon="4.97902">
        <ele>255.87989807129</ele>
        <time>2011-06-03T15:09:52Z</time>
      </trkpt>
      <trkpt lat="45.1584" lon="4.97914">
        <ele>255.11352539062</ele>
        <time>2011-06-03T15:09:58Z</time>
      </trkpt>
      <trkpt lat="45.1581" lon="4.97924">
        <ele>254.74572753906</ele>
        <time>2011-06-03T15:10:02Z</time>
      </trkpt>
      <trkpt lat="45.15749" lon="4.97956">
        <ele>254.44195556641</ele>
        <time>2011-06-03T15:10:10Z</time>
      </trkpt>
      <trkpt lat="45.1569" lon="4.97977">
        <ele>253.61549377441</ele>
        <time>2011-06-03T15:10:17Z</time>
      </trkpt>
      <trkpt lat="45.15639" lon="4.97978">
        <ele>253.2087097168</ele>
        <time>2011-06-03T15:10:23Z</time>
      </trkpt>
      <trkpt lat="45.15567" lon="4.97981">
        <ele>252.79637145996</ele>
        <time>2011-06-03T15:10:32Z</time>
      </trkpt>
      <trkpt lat="45.15491" lon="4.97985">
        <ele>250.72947692871</ele>
        <time>2011-06-03T15:10:41Z</time>
      </trkpt>
      <trkpt lat="45.15423" lon="4.97979">
        <ele>251.19619750977</ele>
        <time>2011-06-03T15:10:49Z</time>
      </trkpt>
      <trkpt lat="45.15352" lon="4.97965">
        <ele>251.62640380859</ele>
        <time>2011-06-03T15:10:57Z</time>
      </trkpt>
      <trkpt lat="45.15315" lon="4.97951">
        <ele>252.40585327148</ele>
        <time>2011-06-03T15:11:02Z</time>
      </trkpt>
      <trkpt lat="45.15263" lon="4.97922">
        <ele>253.66120910644</ele>
        <time>2011-06-03T15:11:09Z</time>
      </trkpt>
      <trkpt lat="45.15191" lon="4.97875">
        <ele>254.95678710938</ele>
        <time>2011-06-03T15:11:19Z</time>
      </trkpt>
      <trkpt lat="45.1514" lon="4.97845">
        <ele>254.60723876953</ele>
        <time>2011-06-03T15:11:26Z</time>
      </trkpt>
      <trkpt lat="45.15103" lon="4.97827">
        <ele>254.41958618164</ele>
        <time>2011-06-03T15:11:31Z</time>
      </trkpt>
      <trkpt lat="45.15046" lon="4.97805">
        <ele>253.19021606445</ele>
        <time>2011-06-03T15:11:38Z</time>
      </trkpt>
      <trkpt lat="45.15009" lon="4.97803">
        <ele>253.32534790039</ele>
        <time>2011-06-03T15:11:42Z</time>
      </trkpt>
      <trkpt lat="45.14957" lon="4.97819">
        <ele>252.28033447266</ele>
        <time>2011-06-03T15:11:48Z</time>
      </trkpt>
      <trkpt lat="45.14922" lon="4.97842">
        <ele>252.81172180176</ele>
        <time>2011-06-03T15:11:53Z</time>
      </trkpt>
      <trkpt lat="45.14874" lon="4.9787">
        <ele>254.1630859375</ele>
        <time>2011-06-03T15:12:00Z</time>
      </trkpt>
      <trkpt lat="45.14847" lon="4.97886">
        <ele>254.18841552734</ele>
        <time>2011-06-03T15:12:04Z</time>
      </trkpt>
      <trkpt lat="45.1479" lon="4.97914">
        <ele>253.52986145019</ele>
        <time>2011-06-03T15:12:13Z</time>
      </trkpt>
      <trkpt lat="45.14734" lon="4.97939">
        <ele>253.32997131348</ele>
        <time>2011-06-03T15:12:21Z</time>
      </trkpt>
      <trkpt lat="45.14692" lon="4.97944">
        <ele>250.86444091797</ele>
        <time>2011-06-03T15:12:26Z</time>
      </trkpt>
      <trkpt lat="45.14634" lon="4.97949">
        <ele>247.67260742188</ele>
        <time>2011-06-03T15:12:33Z</time>
      </trkpt>
      <trkpt lat="45.14622" lon="4.97952">
        <ele>247.22473144531</ele>
        <time>2011-06-03T15:12:36Z</time>
      </trkpt>
      <trkpt lat="45.14618" lon="4.97969">
        <ele>247.91917419434</ele>
        <time>2011-06-03T15:12:41Z</time>
      </trkpt>
      <trkpt lat="45.14617" lon="4.97975">
        <ele>248.13542175293</ele>
        <time>2011-06-03T15:12:45Z</time>
      </trkpt>
      <trkpt lat="45.14617" lon="4.97975">
        <ele>248.15390014648</ele>
        <time>2011-06-03T15:12:47Z</time>
      </trkpt>
      <trkpt lat="45.14628" lon="4.9797">
        <ele>248.57438659668</ele>
        <time>2011-06-03T15:17:18Z</time>
      </trkpt>
      <trkpt lat="45.14625" lon="4.9796">
        <ele>247.82830810547</ele>
        <time>2011-06-03T15:17:24Z</time>
      </trkpt>
      <trkpt lat="45.14615" lon="4.97956">
        <ele>247.09255981445</ele>
        <time>2011-06-03T15:17:29Z</time>
      </trkpt>
      <trkpt lat="45.14611" lon="4.97957">
        <ele>246.92791748047</ele>
        <time>2011-06-03T15:17:30Z</time>
      </trkpt>
      <trkpt lat="45.14572" lon="4.97967">
        <ele>245.5573425293</ele>
        <time>2011-06-03T15:17:37Z</time>
      </trkpt>
      <trkpt lat="45.14529" lon="4.97979">
        <ele>244.95538330078</ele>
        <time>2011-06-03T15:17:43Z</time>
      </trkpt>
      <trkpt lat="45.14514" lon="4.97985">
        <ele>244.78315734863</ele>
        <time>2011-06-03T15:17:45Z</time>
      </trkpt>
      <trkpt lat="45.14491" lon="4.97997">
        <ele>244.65805053711</ele>
        <time>2011-06-03T15:17:48Z</time>
      </trkpt>
      <trkpt lat="45.14452" lon="4.98005">
        <ele>244.22570800781</ele>
        <time>2011-06-03T15:17:53Z</time>
      </trkpt>
      <trkpt lat="45.14416" lon="4.98007">
        <ele>243.6875</ele>
        <time>2011-06-03T15:17:58Z</time>
      </trkpt>
      <trkpt lat="45.14389" lon="4.98014">
        <ele>243.69207763672</ele>
        <time>2011-06-03T15:18:02Z</time>
      </trkpt>
      <trkpt lat="45.14382" lon="4.98017">
        <ele>243.79278564453</ele>
        <time>2011-06-03T15:18:03Z</time>
      </trkpt>
      <trkpt lat="45.14354" lon="4.9803">
        <ele>244.37414550781</ele>
        <time>2011-06-03T15:18:07Z</time>
      </trkpt>
      <trkpt lat="45.14303" lon="4.98046">
        <ele>244.16213989258</ele>
        <time>2011-06-03T15:18:14Z</time>
      </trkpt>
      <trkpt lat="45.14257" lon="4.98057">
        <ele>243.72340393066</ele>
        <time>2011-06-03T15:18:20Z</time>
      </trkpt>
      <trkpt lat="45.14217" lon="4.98069">
        <ele>242.47187805176</ele>
        <time>2011-06-03T15:18:25Z</time>
      </trkpt>
      <trkpt lat="45.14162" lon="4.98086">
        <ele>240.22798156738</ele>
        <time>2011-06-03T15:18:31Z</time>
      </trkpt>
      <trkpt lat="45.14087" lon="4.98109">
        <ele>239.93927001953</ele>
        <time>2011-06-03T15:18:39Z</time>
      </trkpt>
      <trkpt lat="45.14018" lon="4.98135">
        <ele>244.62892150879</ele>
        <time>2011-06-03T15:18:46Z</time>
      </trkpt>
      <trkpt lat="45.13989" lon="4.98145">
        <ele>245.8996887207</ele>
        <time>2011-06-03T15:18:49Z</time>
      </trkpt>
      <trkpt lat="45.13915" lon="4.9816">
        <ele>242.96751403809</ele>
        <time>2011-06-03T15:18:57Z</time>
      </trkpt>
      <trkpt lat="45.13874" lon="4.98171">
        <ele>242.08439636231</ele>
        <time>2011-06-03T15:19:02Z</time>
      </trkpt>
      <trkpt lat="45.1383" lon="4.98183">
        <ele>242.13664245606</ele>
        <time>2011-06-03T15:19:08Z</time>
      </trkpt>
      <trkpt lat="45.13786" lon="4.98205">
        <ele>244.03228759766</ele>
        <time>2011-06-03T15:19:14Z</time>
      </trkpt>
      <trkpt lat="45.13778" lon="4.98209">
        <ele>244.26115417481</ele>
        <time>2011-06-03T15:19:15Z</time>
      </trkpt>
      <trkpt lat="45.13755" lon="4.98217">
        <ele>243.89064025879</ele>
        <time>2011-06-03T15:19:18Z</time>
      </trkpt>
      <trkpt lat="45.13715" lon="4.98237">
        <ele>242.63948059082</ele>
        <time>2011-06-03T15:19:24Z</time>
      </trkpt>
      <trkpt lat="45.13694" lon="4.98251">
        <ele>242.11535644531</ele>
        <time>2011-06-03T15:19:27Z</time>
      </trkpt>
      <trkpt lat="45.13647" lon="4.98265">
        <ele>239.54035949707</ele>
        <time>2011-06-03T15:19:32Z</time>
      </trkpt>
      <trkpt lat="45.13617" lon="4.98272">
        <ele>238.50521850586</ele>
        <time>2011-06-03T15:19:35Z</time>
      </trkpt>
      <trkpt lat="45.13607" lon="4.98275">
        <ele>238.11479187012</ele>
        <time>2011-06-03T15:19:36Z</time>
      </trkpt>
      <trkpt lat="45.13576" lon="4.9828">
        <ele>236.66687011719</ele>
        <time>2011-06-03T15:19:40Z</time>
      </trkpt>
      <trkpt lat="45.13569" lon="4.98281">
        <ele>236.18060302734</ele>
        <time>2011-06-03T15:19:43Z</time>
      </trkpt>
      <trkpt lat="45.13568" lon="4.98281">
        <ele>236.11294555664</ele>
        <time>2011-06-03T15:19:44Z</time>
      </trkpt>
      <trkpt lat="45.1356" lon="4.98284">
        <ele>236.15101623535</ele>
        <time>2011-06-03T15:19:53Z</time>
      </trkpt>
      <trkpt lat="45.13544" lon="4.98287">
        <ele>235.56326293945</ele>
        <time>2011-06-03T15:19:57Z</time>
      </trkpt>
      <trkpt lat="45.13513" lon="4.98296">
        <ele>234.96534729004</ele>
        <time>2011-06-03T15:20:02Z</time>
      </trkpt>
      <trkpt lat="45.13477" lon="4.98309">
        <ele>233.95271301269</ele>
        <time>2011-06-03T15:20:07Z</time>
      </trkpt>
      <trkpt lat="45.13421" lon="4.98331">
        <ele>231.23724365234</ele>
        <time>2011-06-03T15:20:14Z</time>
      </trkpt>
      <trkpt lat="45.1337" lon="4.98351">
        <ele>227.83917236328</ele>
        <time>2011-06-03T15:20:20Z</time>
      </trkpt>
      <trkpt lat="45.13282" lon="4.98387">
        <ele>223.96240234375</ele>
        <time>2011-06-03T15:20:30Z</time>
      </trkpt>
      <trkpt lat="45.13244" lon="4.98414">
        <ele>224.49775695801</ele>
        <time>2011-06-03T15:20:35Z</time>
      </trkpt>
      <trkpt lat="45.1323" lon="4.98423">
        <ele>225.09220886231</ele>
        <time>2011-06-03T15:20:37Z</time>
      </trkpt>
      <trkpt lat="45.13189" lon="4.98448">
        <ele>226.36882019043</ele>
        <time>2011-06-03T15:20:43Z</time>
      </trkpt>
      <trkpt lat="45.13177" lon="4.9846">
        <ele>227.10682678223</ele>
        <time>2011-06-03T15:20:45Z</time>
      </trkpt>
      <trkpt lat="45.13168" lon="4.98473">
        <ele>227.91149902344</ele>
        <time>2011-06-03T15:20:47Z</time>
      </trkpt>
      <trkpt lat="45.13134" lon="4.98512">
        <ele>228.8385925293</ele>
        <time>2011-06-03T15:20:54Z</time>
      </trkpt>
      <trkpt lat="45.13099" lon="4.98539">
        <ele>228.22039794922</ele>
        <time>2011-06-03T15:21:01Z</time>
      </trkpt>
      <trkpt lat="45.13061" lon="4.98557">
        <ele>226.99603271484</ele>
        <time>2011-06-03T15:21:07Z</time>
      </trkpt>
      <trkpt lat="45.13018" lon="4.98572">
        <ele>225.87255859375</ele>
        <time>2011-06-03T15:21:13Z</time>
      </trkpt>
      <trkpt lat="45.1298" lon="4.98578">
        <ele>224.18780517578</ele>
        <time>2011-06-03T15:21:18Z</time>
      </trkpt>
      <trkpt lat="45.12912" lon="4.98577">
        <ele>220.68608093262</ele>
        <time>2011-06-03T15:21:26Z</time>
      </trkpt>
      <trkpt lat="45.12851" lon="4.98579">
        <ele>221.37828063965</ele>
        <time>2011-06-03T15:21:33Z</time>
      </trkpt>
      <trkpt lat="45.1279" lon="4.9858">
        <ele>220.71376037598</ele>
        <time>2011-06-03T15:21:40Z</time>
      </trkpt>
      <trkpt lat="45.12758" lon="4.9859">
        <ele>221.25668334961</ele>
        <time>2011-06-03T15:21:44Z</time>
      </trkpt>
      <trkpt lat="45.12724" lon="4.98588">
        <ele>220.37437438965</ele>
        <time>2011-06-03T15:21:48Z</time>
      </trkpt>
      <trkpt lat="45.12676" lon="4.98568">
        <ele>217.7216796875</ele>
        <time>2011-06-03T15:21:53Z</time>
      </trkpt>
      <trkpt lat="45.12666" lon="4.98564">
        <ele>217.19897460938</ele>
        <time>2011-06-03T15:21:54Z</time>
      </trkpt>
      <trkpt lat="45.12615" lon="4.98566">
        <ele>217.94055175781</ele>
        <time>2011-06-03T15:21:59Z</time>
      </trkpt>
      <trkpt lat="45.12605" lon="4.98567">
        <ele>218.14196777344</ele>
        <time>2011-06-03T15:22:00Z</time>
      </trkpt>
      <trkpt lat="45.12559" lon="4.98555">
        <ele>216.67161560059</ele>
        <time>2011-06-03T15:22:05Z</time>
      </trkpt>
      <trkpt lat="45.12504" lon="4.98541">
        <ele>214.50830078125</ele>
        <time>2011-06-03T15:22:11Z</time>
      </trkpt>
      <trkpt lat="45.12459" lon="4.98542">
        <ele>213.54216003418</ele>
        <time>2011-06-03T15:22:16Z</time>
      </trkpt>
      <trkpt lat="45.12431" lon="4.98534">
        <ele>212.53646850586</ele>
        <time>2011-06-03T15:22:20Z</time>
      </trkpt>
      <trkpt lat="45.12426" lon="4.98524">
        <ele>212.03312683106</ele>
        <time>2011-06-03T15:22:22Z</time>
      </trkpt>
      <trkpt lat="45.12424" lon="4.98527">
        <ele>212.11854553223</ele>
        <time>2011-06-03T15:22:25Z</time>
      </trkpt>
      <trkpt lat="45.12429" lon="4.98535">
        <ele>212.552734375</ele>
        <time>2011-06-03T15:22:29Z</time>
      </trkpt>
      <trkpt lat="45.12429" lon="4.98528">
        <ele>212.26017761231</ele>
        <time>2011-06-03T15:22:32Z</time>
      </trkpt>
      <trkpt lat="45.12426" lon="4.98515">
        <ele>211.69834899902</ele>
        <time>2011-06-03T15:22:36Z</time>
      </trkpt>
      <trkpt lat="45.12423" lon="4.98504">
        <ele>211.2322845459</ele>
        <time>2011-06-03T15:22:38Z</time>
      </trkpt>
      <trkpt lat="45.12407" lon="4.98453">
        <ele>210.25845336914</ele>
        <time>2011-06-03T15:22:45Z</time>
      </trkpt>
      <trkpt lat="45.12394" lon="4.98415">
        <ele>209.74998474121</ele>
        <time>2011-06-03T15:22:50Z</time>
      </trkpt>
      <trkpt lat="45.12391" lon="4.98407">
        <ele>209.80157470703</ele>
        <time>2011-06-03T15:22:51Z</time>
      </trkpt>
      <trkpt lat="45.12381" lon="4.98368">
        <ele>210.32730102539</ele>
        <time>2011-06-03T15:22:56Z</time>
      </trkpt>
      <trkpt lat="45.12378" lon="4.98361">
        <ele>210.45394897461</ele>
        <time>2011-06-03T15:22:58Z</time>
      </trkpt>
      <trkpt lat="45.12368" lon="4.98362">
        <ele>210.56736755371</ele>
        <time>2011-06-03T15:23:02Z</time>
      </trkpt>
      <trkpt lat="45.12358" lon="4.98377">
        <ele>210.30307006836</ele>
        <time>2011-06-03T15:23:05Z</time>
      </trkpt>
      <trkpt lat="45.12342" lon="4.98409">
        <ele>209.35264587402</ele>
        <time>2011-06-03T15:23:10Z</time>
      </trkpt>
      <trkpt lat="45.1233" lon="4.98419">
        <ele>208.99908447266</ele>
        <time>2011-06-03T15:23:12Z</time>
      </trkpt>
      <trkpt lat="45.12316" lon="4.98419">
        <ele>208.99374389648</ele>
        <time>2011-06-03T15:23:14Z</time>
      </trkpt>
      <trkpt lat="45.12266" lon="4.98416">
        <ele>209.02517700195</ele>
        <time>2011-06-03T15:23:21Z</time>
      </trkpt>
      <trkpt lat="45.12217" lon="4.98415">
        <ele>208.21697998047</ele>
        <time>2011-06-03T15:23:28Z</time>
      </trkpt>
      <trkpt lat="45.12204" lon="4.98416">
        <ele>207.88348388672</ele>
        <time>2011-06-03T15:23:30Z</time>
      </trkpt>
      <trkpt lat="45.12167" lon="4.98404">
        <ele>206.72052001953</ele>
        <time>2011-06-03T15:23:35Z</time>
      </trkpt>
      <trkpt lat="45.1211" lon="4.98403">
        <ele>205.98852539062</ele>
        <time>2011-06-03T15:23:42Z</time>
      </trkpt>
      <trkpt lat="45.1207" lon="4.98402">
        <ele>205.49185180664</ele>
        <time>2011-06-03T15:23:47Z</time>
      </trkpt>
      <trkpt lat="45.12052" lon="4.98389">
        <ele>204.95054626465</ele>
        <time>2011-06-03T15:23:50Z</time>
      </trkpt>
      <trkpt lat="45.1205" lon="4.98368">
        <ele>204.44471740723</ele>
        <time>2011-06-03T15:23:52Z</time>
      </trkpt>
      <trkpt lat="45.12054" lon="4.98346">
        <ele>203.95719909668</ele>
        <time>2011-06-03T15:23:54Z</time>
      </trkpt>
      <trkpt lat="45.1207" lon="4.98256">
        <ele>204.91600036621</ele>
        <time>2011-06-03T15:24:01Z</time>
      </trkpt>
      <trkpt lat="45.12072" lon="4.98178">
        <ele>205.99070739746</ele>
        <time>2011-06-03T15:24:07Z</time>
      </trkpt>
      <trkpt lat="45.12064" lon="4.98113">
        <ele>204.63850402832</ele>
        <time>2011-06-03T15:24:12Z</time>
      </trkpt>
      <trkpt lat="45.12042" lon="4.98026">
        <ele>202.4725189209</ele>
        <time>2011-06-03T15:24:19Z</time>
      </trkpt>
      <trkpt lat="45.12013" lon="4.97912">
        <ele>199.41162109375</ele>
        <time>2011-06-03T15:24:28Z</time>
      </trkpt>
      <trkpt lat="45.11994" lon="4.97807">
        <ele>197.97772216797</ele>
        <time>2011-06-03T15:24:36Z</time>
      </trkpt>
      <trkpt lat="45.11972" lon="4.97677">
        <ele>196.76863098144</ele>
        <time>2011-06-03T15:24:46Z</time>
      </trkpt>
      <trkpt lat="45.11954" lon="4.97573">
        <ele>197.23831176758</ele>
        <time>2011-06-03T15:24:54Z</time>
      </trkpt>
      <trkpt lat="45.11938" lon="4.97487">
        <ele>196.74334716797</ele>
        <time>2011-06-03T15:25:00Z</time>
      </trkpt>
      <trkpt lat="45.11926" lon="4.97412">
        <ele>196.22749328613</ele>
        <time>2011-06-03T15:25:05Z</time>
      </trkpt>
      <trkpt lat="45.119" lon="4.97264">
        <ele>196.46716308594</ele>
        <time>2011-06-03T15:25:15Z</time>
      </trkpt>
      <trkpt lat="45.11882" lon="4.97155">
        <ele>196.79684448242</ele>
        <time>2011-06-03T15:25:23Z</time>
      </trkpt>
      <trkpt lat="45.11885" lon="4.9711">
        <ele>197.12260437012</ele>
        <time>2011-06-03T15:25:27Z</time>
      </trkpt>
      <trkpt lat="45.119" lon="4.97087">
        <ele>197.58126831055</ele>
        <time>2011-06-03T15:25:30Z</time>
      </trkpt>
      <trkpt lat="45.11904" lon="4.9707">
        <ele>197.90565490723</ele>
        <time>2011-06-03T15:25:32Z</time>
      </trkpt>
      <trkpt lat="45.11898" lon="4.97056">
        <ele>198.03244018555</ele>
        <time>2011-06-03T15:25:34Z</time>
      </trkpt>
      <trkpt lat="45.11875" lon="4.97037">
        <ele>198.10835266113</ele>
        <time>2011-06-03T15:25:38Z</time>
      </trkpt>
      <trkpt lat="45.11824" lon="4.9697">
        <ele>198.13282775879</ele>
        <time>2011-06-03T15:25:47Z</time>
      </trkpt>
      <trkpt lat="45.11773" lon="4.96891">
        <ele>196.64398193359</ele>
        <time>2011-06-03T15:25:56Z</time>
      </trkpt>
      <trkpt lat="45.11763" lon="4.96861">
        <ele>195.98980712891</ele>
        <time>2011-06-03T15:25:59Z</time>
      </trkpt>
      <trkpt lat="45.11763" lon="4.9685">
        <ele>195.78564453125</ele>
        <time>2011-06-03T15:26:00Z</time>
      </trkpt>
      <trkpt lat="45.11752" lon="4.96822">
        <ele>195.18557739258</ele>
        <time>2011-06-03T15:26:03Z</time>
      </trkpt>
      <trkpt lat="45.11744" lon="4.96818">
        <ele>195.24220275879</ele>
        <time>2011-06-03T15:26:04Z</time>
      </trkpt>
      <trkpt lat="45.1171" lon="4.96788">
        <ele>195.76582336426</ele>
        <time>2011-06-03T15:26:09Z</time>
      </trkpt>
      <trkpt lat="45.11665" lon="4.96711">
        <ele>195.03700256348</ele>
        <time>2011-06-03T15:26:17Z</time>
      </trkpt>
      <trkpt lat="45.11635" lon="4.96635">
        <ele>194.60725402832</ele>
        <time>2011-06-03T15:26:24Z</time>
      </trkpt>
      <trkpt lat="45.11601" lon="4.96547">
        <ele>195.48742675781</ele>
        <time>2011-06-03T15:26:33Z</time>
      </trkpt>
      <trkpt lat="45.11584" lon="4.96503">
        <ele>195.01750183106</ele>
        <time>2011-06-03T15:26:38Z</time>
      </trkpt>
      <trkpt lat="45.1158" lon="4.9647">
        <ele>195.94219970703</ele>
        <time>2011-06-03T15:26:42Z</time>
      </trkpt>
      <trkpt lat="45.11581" lon="4.96451">
        <ele>196.67367553711</ele>
        <time>2011-06-03T15:26:45Z</time>
      </trkpt>
      <trkpt lat="45.11576" lon="4.96443">
        <ele>196.73635864258</ele>
        <time>2011-06-03T15:26:50Z</time>
      </trkpt>
    </trkseg>
  </trk>
</gpx>